<?xml version="1.0" encoding="UTF-8" standalone="no" ?>
<gpx xmlns="http://www.topografix.com/GPX/1/1" xmlns:xsi="http://www.w3.org/2001/XMLSchema-instance" xsi:schemaLocation="http://www.topografix.com/GPX/1/1 http://www.topografix.com/GPX/1/1/gpx.xsd" version="1.1" creator="VisuGPX - https://www.visugpx.com">
  <metadata>
    <name>003SG77-8021434</name>
    <desc><![CDATA[
01]]></desc>
  </metadata>
  <trk>
    <name><![CDATA[003SG77-8021434]]></name>
    <trkseg>
      <trkpt lat="46.69903" lon="-1.93383">
        <ele>5</ele>
        <time>2018-01-06T17:11:40Z</time>
      </trkpt>
      <trkpt lat="46.69901" lon="-1.93383">
        <ele>5</ele>
        <time>2018-01-06T17:12:40Z</time>
      </trkpt>
      <trkpt lat="46.69898" lon="-1.93383">
        <ele>5</ele>
        <time>2018-01-06T17:13:40Z</time>
      </trkpt>
      <trkpt lat="46.69892" lon="-1.93385">
        <ele>5</ele>
        <time>2018-01-06T17:14:40Z</time>
      </trkpt>
      <trkpt lat="46.69824" lon="-1.93411">
        <ele>5</ele>
        <time>2018-01-06T17:15:40Z</time>
      </trkpt>
      <trkpt lat="46.69806" lon="-1.93419">
        <ele>5</ele>
        <time>2018-01-06T17:16:40Z</time>
      </trkpt>
      <trkpt lat="46.69798" lon="-1.93421">
        <ele>5</ele>
        <time>2018-01-06T17:17:40Z</time>
      </trkpt>
      <trkpt lat="46.69797" lon="-1.93421">
        <ele>5</ele>
        <time>2018-01-06T17:18:40Z</time>
      </trkpt>
      <trkpt lat="46.69793" lon="-1.9342">
        <ele>5</ele>
        <time>2018-01-06T17:19:40Z</time>
      </trkpt>
      <trkpt lat="46.69793" lon="-1.93421">
        <ele>5</ele>
        <time>2018-01-06T17:20:40Z</time>
      </trkpt>
      <trkpt lat="46.69793" lon="-1.93422">
        <ele>5</ele>
        <time>2018-01-06T17:21:40Z</time>
      </trkpt>
      <trkpt lat="46.69793" lon="-1.93423">
        <ele>5</ele>
        <time>2018-01-06T17:22:40Z</time>
      </trkpt>
      <trkpt lat="46.69793" lon="-1.93424">
        <ele>5</ele>
        <time>2018-01-06T17:23:40Z</time>
      </trkpt>
      <trkpt lat="46.69792" lon="-1.93425">
        <ele>5</ele>
        <time>2018-01-06T17:24:40Z</time>
      </trkpt>
      <trkpt lat="46.69792" lon="-1.93426">
        <ele>5</ele>
        <time>2018-01-06T17:25:40Z</time>
      </trkpt>
      <trkpt lat="46.69791" lon="-1.93426">
        <ele>5</ele>
        <time>2018-01-06T17:26:40Z</time>
      </trkpt>
      <trkpt lat="46.69791" lon="-1.93427">
        <ele>5</ele>
        <time>2018-01-06T17:27:40Z</time>
      </trkpt>
      <trkpt lat="46.6979" lon="-1.93427">
        <ele>5</ele>
        <time>2018-01-06T17:28:40Z</time>
      </trkpt>
      <trkpt lat="46.6979" lon="-1.93428">
        <ele>5</ele>
        <time>2018-01-06T17:29:40Z</time>
      </trkpt>
      <trkpt lat="46.69789" lon="-1.93428">
        <ele>5</ele>
        <time>2018-01-06T17:30:40Z</time>
      </trkpt>
      <trkpt lat="46.69788" lon="-1.93428">
        <ele>5</ele>
        <time>2018-01-06T17:31:40Z</time>
      </trkpt>
      <trkpt lat="46.69788" lon="-1.93427">
        <ele>5</ele>
        <time>2018-01-06T17:32:40Z</time>
      </trkpt>
      <trkpt lat="46.69787" lon="-1.93427">
        <ele>5</ele>
        <time>2018-01-06T17:33:40Z</time>
      </trkpt>
      <trkpt lat="46.69787" lon="-1.93426">
        <ele>5</ele>
        <time>2018-01-06T17:34:40Z</time>
      </trkpt>
      <trkpt lat="46.69786" lon="-1.93426">
        <ele>5</ele>
        <time>2018-01-06T17:35:40Z</time>
      </trkpt>
      <trkpt lat="46.69786" lon="-1.93425">
        <ele>5</ele>
        <time>2018-01-06T17:36:40Z</time>
      </trkpt>
      <trkpt lat="46.69786" lon="-1.93424">
        <ele>5</ele>
        <time>2018-01-06T17:37:40Z</time>
      </trkpt>
      <trkpt lat="46.69785" lon="-1.93424">
        <ele>5</ele>
        <time>2018-01-06T17:38:40Z</time>
      </trkpt>
      <trkpt lat="46.69785" lon="-1.93423">
        <ele>5</ele>
        <time>2018-01-06T17:39:40Z</time>
      </trkpt>
      <trkpt lat="46.69785" lon="-1.93422">
        <ele>5</ele>
        <time>2018-01-06T17:40:40Z</time>
      </trkpt>
      <trkpt lat="46.69779" lon="-1.9342">
        <ele>5</ele>
        <time>2018-01-06T17:41:40Z</time>
      </trkpt>
      <trkpt lat="46.69776" lon="-1.9342">
        <ele>5</ele>
        <time>2018-01-06T17:42:40Z</time>
      </trkpt>
      <trkpt lat="46.69772" lon="-1.9342">
        <ele>5</ele>
        <time>2018-01-06T17:43:40Z</time>
      </trkpt>
      <trkpt lat="46.69762" lon="-1.93423">
        <ele>5</ele>
        <time>2018-01-06T17:44:40Z</time>
      </trkpt>
      <trkpt lat="46.69759" lon="-1.93424">
        <ele>5</ele>
        <time>2018-01-06T17:45:40Z</time>
      </trkpt>
      <trkpt lat="46.69721" lon="-1.93434">
        <ele>5</ele>
        <time>2018-01-06T17:46:40Z</time>
      </trkpt>
      <trkpt lat="46.69714" lon="-1.93435">
        <ele>5</ele>
        <time>2018-01-06T17:47:40Z</time>
      </trkpt>
      <trkpt lat="46.69697" lon="-1.93436">
        <ele>5</ele>
        <time>2018-01-06T17:48:40Z</time>
      </trkpt>
      <trkpt lat="46.69685" lon="-1.93435">
        <ele>5</ele>
        <time>2018-01-06T17:49:40Z</time>
      </trkpt>
      <trkpt lat="46.69633" lon="-1.93423">
        <ele>5</ele>
        <time>2018-01-06T17:50:40Z</time>
      </trkpt>
      <trkpt lat="46.69633" lon="-1.93423">
        <ele>5</ele>
        <time>2018-01-06T17:51:40Z</time>
      </trkpt>
      <trkpt lat="46.69633" lon="-1.93424">
        <ele>4</ele>
        <time>2018-01-06T17:52:40Z</time>
      </trkpt>
      <trkpt lat="46.69633" lon="-1.93425">
        <ele>4</ele>
        <time>2018-01-06T17:53:40Z</time>
      </trkpt>
      <trkpt lat="46.69633" lon="-1.93426">
        <ele>4</ele>
        <time>2018-01-06T17:54:40Z</time>
      </trkpt>
      <trkpt lat="46.69633" lon="-1.93427">
        <ele>4</ele>
        <time>2018-01-06T17:55:40Z</time>
      </trkpt>
      <trkpt lat="46.69633" lon="-1.93428">
        <ele>4</ele>
        <time>2018-01-06T17:56:40Z</time>
      </trkpt>
      <trkpt lat="46.69633" lon="-1.93429">
        <ele>4</ele>
        <time>2018-01-06T17:57:40Z</time>
      </trkpt>
      <trkpt lat="46.69633" lon="-1.9343">
        <ele>4</ele>
        <time>2018-01-06T17:58:40Z</time>
      </trkpt>
      <trkpt lat="46.69632" lon="-1.9343">
        <ele>4</ele>
        <time>2018-01-06T17:59:40Z</time>
      </trkpt>
      <trkpt lat="46.69632" lon="-1.93431">
        <ele>4</ele>
        <time>2018-01-06T18:00:40Z</time>
      </trkpt>
      <trkpt lat="46.69632" lon="-1.93432">
        <ele>4</ele>
        <time>2018-01-06T18:01:40Z</time>
      </trkpt>
      <trkpt lat="46.69631" lon="-1.93432">
        <ele>4</ele>
        <time>2018-01-06T18:02:40Z</time>
      </trkpt>
      <trkpt lat="46.69631" lon="-1.93433">
        <ele>4</ele>
        <time>2018-01-06T18:03:40Z</time>
      </trkpt>
      <trkpt lat="46.69631" lon="-1.93434">
        <ele>4</ele>
        <time>2018-01-06T18:04:40Z</time>
      </trkpt>
      <trkpt lat="46.6963" lon="-1.93434">
        <ele>4</ele>
        <time>2018-01-06T18:05:40Z</time>
      </trkpt>
      <trkpt lat="46.6963" lon="-1.93435">
        <ele>4</ele>
        <time>2018-01-06T18:06:40Z</time>
      </trkpt>
      <trkpt lat="46.69629" lon="-1.93435">
        <ele>4</ele>
        <time>2018-01-06T18:07:40Z</time>
      </trkpt>
      <trkpt lat="46.69629" lon="-1.93436">
        <ele>4</ele>
        <time>2018-01-06T18:08:40Z</time>
      </trkpt>
      <trkpt lat="46.69628" lon="-1.93436">
        <ele>4</ele>
        <time>2018-01-06T18:09:40Z</time>
      </trkpt>
      <trkpt lat="46.69627" lon="-1.93436">
        <ele>4</ele>
        <time>2018-01-06T18:10:40Z</time>
      </trkpt>
      <trkpt lat="46.69627" lon="-1.93437">
        <ele>4</ele>
        <time>2018-01-06T18:11:40Z</time>
      </trkpt>
      <trkpt lat="46.69626" lon="-1.93437">
        <ele>4</ele>
        <time>2018-01-06T18:12:40Z</time>
      </trkpt>
      <trkpt lat="46.69625" lon="-1.93437">
        <ele>4</ele>
        <time>2018-01-06T18:13:40Z</time>
      </trkpt>
      <trkpt lat="46.69624" lon="-1.93437">
        <ele>4</ele>
        <time>2018-01-06T18:14:40Z</time>
      </trkpt>
      <trkpt lat="46.69623" lon="-1.93437">
        <ele>4</ele>
        <time>2018-01-06T18:15:40Z</time>
      </trkpt>
      <trkpt lat="46.69622" lon="-1.93436">
        <ele>4</ele>
        <time>2018-01-06T18:16:40Z</time>
      </trkpt>
      <trkpt lat="46.69621" lon="-1.93436">
        <ele>4</ele>
        <time>2018-01-06T18:17:40Z</time>
      </trkpt>
      <trkpt lat="46.6962" lon="-1.93435">
        <ele>4</ele>
        <time>2018-01-06T18:18:40Z</time>
      </trkpt>
      <trkpt lat="46.69619" lon="-1.93434">
        <ele>4</ele>
        <time>2018-01-06T18:19:40Z</time>
      </trkpt>
      <trkpt lat="46.69619" lon="-1.93433">
        <ele>4</ele>
        <time>2018-01-06T18:20:40Z</time>
      </trkpt>
      <trkpt lat="46.69618" lon="-1.93433">
        <ele>4</ele>
        <time>2018-01-06T18:21:40Z</time>
      </trkpt>
      <trkpt lat="46.69618" lon="-1.93432">
        <ele>4</ele>
        <time>2018-01-06T18:22:40Z</time>
      </trkpt>
      <trkpt lat="46.69618" lon="-1.93431">
        <ele>4</ele>
        <time>2018-01-06T18:23:40Z</time>
      </trkpt>
      <trkpt lat="46.69617" lon="-1.93431">
        <ele>4</ele>
        <time>2018-01-06T18:24:40Z</time>
      </trkpt>
      <trkpt lat="46.69617" lon="-1.9343">
        <ele>4</ele>
        <time>2018-01-06T18:25:40Z</time>
      </trkpt>
      <trkpt lat="46.69617" lon="-1.93429">
        <ele>4</ele>
        <time>2018-01-06T18:26:40Z</time>
      </trkpt>
      <trkpt lat="46.69617" lon="-1.93428">
        <ele>4</ele>
        <time>2018-01-06T18:27:40Z</time>
      </trkpt>
      <trkpt lat="46.69616" lon="-1.93428">
        <ele>4</ele>
        <time>2018-01-06T18:28:40Z</time>
      </trkpt>
      <trkpt lat="46.69616" lon="-1.93427">
        <ele>4</ele>
        <time>2018-01-06T18:29:40Z</time>
      </trkpt>
      <trkpt lat="46.69616" lon="-1.93426">
        <ele>4</ele>
        <time>2018-01-06T18:30:40Z</time>
      </trkpt>
      <trkpt lat="46.69616" lon="-1.93425">
        <ele>4</ele>
        <time>2018-01-06T18:31:40Z</time>
      </trkpt>
      <trkpt lat="46.69616" lon="-1.93424">
        <ele>4</ele>
        <time>2018-01-06T18:32:40Z</time>
      </trkpt>
      <trkpt lat="46.69616" lon="-1.93423">
        <ele>4</ele>
        <time>2018-01-06T18:33:40Z</time>
      </trkpt>
      <trkpt lat="46.69616" lon="-1.93422">
        <ele>4</ele>
        <time>2018-01-06T18:34:40Z</time>
      </trkpt>
      <trkpt lat="46.69616" lon="-1.93421">
        <ele>4</ele>
        <time>2018-01-06T18:35:40Z</time>
      </trkpt>
      <trkpt lat="46.69617" lon="-1.93421">
        <ele>4</ele>
        <time>2018-01-06T18:36:40Z</time>
      </trkpt>
      <trkpt lat="46.69617" lon="-1.9342">
        <ele>4</ele>
        <time>2018-01-06T18:37:40Z</time>
      </trkpt>
      <trkpt lat="46.69607" lon="-1.93416">
        <ele>4</ele>
        <time>2018-01-06T18:38:40Z</time>
      </trkpt>
      <trkpt lat="46.69587" lon="-1.93404">
        <ele>4</ele>
        <time>2018-01-06T18:39:40Z</time>
      </trkpt>
      <trkpt lat="46.69551" lon="-1.93388">
        <ele>4</ele>
        <time>2018-01-06T18:40:40Z</time>
      </trkpt>
      <trkpt lat="46.69518" lon="-1.93374">
        <ele>4</ele>
        <time>2018-01-06T18:41:40Z</time>
      </trkpt>
      <trkpt lat="46.69507" lon="-1.9337">
        <ele>4</ele>
        <time>2018-01-06T18:42:40Z</time>
      </trkpt>
      <trkpt lat="46.69503" lon="-1.93368">
        <ele>4</ele>
        <time>2018-01-06T18:43:40Z</time>
      </trkpt>
      <trkpt lat="46.69498" lon="-1.93366">
        <ele>4</ele>
        <time>2018-01-06T18:44:40Z</time>
      </trkpt>
      <trkpt lat="46.6946" lon="-1.93349">
        <ele>4</ele>
        <time>2018-01-06T18:45:40Z</time>
      </trkpt>
      <trkpt lat="46.69431" lon="-1.93336">
        <ele>4</ele>
        <time>2018-01-06T18:46:40Z</time>
      </trkpt>
      <trkpt lat="46.69426" lon="-1.93334">
        <ele>4</ele>
        <time>2018-01-06T18:47:40Z</time>
      </trkpt>
      <trkpt lat="46.69421" lon="-1.93333">
        <ele>4</ele>
        <time>2018-01-06T18:48:40Z</time>
      </trkpt>
      <trkpt lat="46.69416" lon="-1.93331">
        <ele>4</ele>
        <time>2018-01-06T18:49:40Z</time>
      </trkpt>
      <trkpt lat="46.69405" lon="-1.9333">
        <ele>4</ele>
        <time>2018-01-06T18:50:40Z</time>
      </trkpt>
      <trkpt lat="46.69394" lon="-1.93333">
        <ele>4</ele>
        <time>2018-01-06T18:51:40Z</time>
      </trkpt>
      <trkpt lat="46.69394" lon="-1.93333">
        <ele>4</ele>
        <time>2018-01-06T18:52:40Z</time>
      </trkpt>
      <trkpt lat="46.69394" lon="-1.93334">
        <ele>4</ele>
        <time>2018-01-06T18:53:40Z</time>
      </trkpt>
      <trkpt lat="46.69394" lon="-1.93335">
        <ele>4</ele>
        <time>2018-01-06T18:54:40Z</time>
      </trkpt>
      <trkpt lat="46.69393" lon="-1.93335">
        <ele>4</ele>
        <time>2018-01-06T18:55:40Z</time>
      </trkpt>
      <trkpt lat="46.69393" lon="-1.93336">
        <ele>4</ele>
        <time>2018-01-06T18:56:40Z</time>
      </trkpt>
      <trkpt lat="46.69392" lon="-1.93336">
        <ele>4</ele>
        <time>2018-01-06T18:57:40Z</time>
      </trkpt>
      <trkpt lat="46.69392" lon="-1.93337">
        <ele>4</ele>
        <time>2018-01-06T18:58:40Z</time>
      </trkpt>
      <trkpt lat="46.69391" lon="-1.93337">
        <ele>4</ele>
        <time>2018-01-06T18:59:40Z</time>
      </trkpt>
      <trkpt lat="46.6939" lon="-1.93338">
        <ele>4</ele>
        <time>2018-01-06T19:00:40Z</time>
      </trkpt>
      <trkpt lat="46.69389" lon="-1.93338">
        <ele>4</ele>
        <time>2018-01-06T19:01:40Z</time>
      </trkpt>
      <trkpt lat="46.69388" lon="-1.93338">
        <ele>4</ele>
        <time>2018-01-06T19:02:40Z</time>
      </trkpt>
      <trkpt lat="46.69387" lon="-1.93338">
        <ele>4</ele>
        <time>2018-01-06T19:03:40Z</time>
      </trkpt>
      <trkpt lat="46.69386" lon="-1.93338">
        <ele>4</ele>
        <time>2018-01-06T19:04:40Z</time>
      </trkpt>
      <trkpt lat="46.69385" lon="-1.93338">
        <ele>4</ele>
        <time>2018-01-06T19:05:40Z</time>
      </trkpt>
      <trkpt lat="46.69384" lon="-1.93338">
        <ele>4</ele>
        <time>2018-01-06T19:06:40Z</time>
      </trkpt>
      <trkpt lat="46.69384" lon="-1.93337">
        <ele>4</ele>
        <time>2018-01-06T19:07:40Z</time>
      </trkpt>
      <trkpt lat="46.69383" lon="-1.93337">
        <ele>4</ele>
        <time>2018-01-06T19:08:40Z</time>
      </trkpt>
      <trkpt lat="46.69383" lon="-1.93336">
        <ele>4</ele>
        <time>2018-01-06T19:09:40Z</time>
      </trkpt>
      <trkpt lat="46.69382" lon="-1.93336">
        <ele>4</ele>
        <time>2018-01-06T19:10:40Z</time>
      </trkpt>
      <trkpt lat="46.69382" lon="-1.93335">
        <ele>4</ele>
        <time>2018-01-06T19:11:40Z</time>
      </trkpt>
      <trkpt lat="46.69381" lon="-1.93335">
        <ele>4</ele>
        <time>2018-01-06T19:12:40Z</time>
      </trkpt>
      <trkpt lat="46.69381" lon="-1.93334">
        <ele>4</ele>
        <time>2018-01-06T19:13:40Z</time>
      </trkpt>
      <trkpt lat="46.6938" lon="-1.93333">
        <ele>4</ele>
        <time>2018-01-06T19:14:40Z</time>
      </trkpt>
      <trkpt lat="46.6938" lon="-1.93332">
        <ele>4</ele>
        <time>2018-01-06T19:15:40Z</time>
      </trkpt>
      <trkpt lat="46.69379" lon="-1.93332">
        <ele>4</ele>
        <time>2018-01-06T19:16:40Z</time>
      </trkpt>
      <trkpt lat="46.69379" lon="-1.93331">
        <ele>4</ele>
        <time>2018-01-06T19:17:40Z</time>
      </trkpt>
      <trkpt lat="46.69379" lon="-1.9333">
        <ele>4</ele>
        <time>2018-01-06T19:18:40Z</time>
      </trkpt>
      <trkpt lat="46.69379" lon="-1.93329">
        <ele>4</ele>
        <time>2018-01-06T19:19:40Z</time>
      </trkpt>
      <trkpt lat="46.69376" lon="-1.93327">
        <ele>4</ele>
        <time>2018-01-06T19:20:40Z</time>
      </trkpt>
      <trkpt lat="46.69367" lon="-1.93325">
        <ele>4</ele>
        <time>2018-01-06T19:21:40Z</time>
      </trkpt>
      <trkpt lat="46.69363" lon="-1.93325">
        <ele>4</ele>
        <time>2018-01-06T19:22:40Z</time>
      </trkpt>
      <trkpt lat="46.69356" lon="-1.93325">
        <ele>4</ele>
        <time>2018-01-06T19:23:40Z</time>
      </trkpt>
      <trkpt lat="46.69353" lon="-1.93324">
        <ele>4</ele>
        <time>2018-01-06T19:24:40Z</time>
      </trkpt>
      <trkpt lat="46.69315" lon="-1.93317">
        <ele>4</ele>
        <time>2018-01-06T19:25:40Z</time>
      </trkpt>
      <trkpt lat="46.69286" lon="-1.93313">
        <ele>4</ele>
        <time>2018-01-06T19:26:40Z</time>
      </trkpt>
      <trkpt lat="46.6924" lon="-1.93303">
        <ele>3</ele>
        <time>2018-01-06T19:27:40Z</time>
      </trkpt>
      <trkpt lat="46.69218" lon="-1.933">
        <ele>3</ele>
        <time>2018-01-06T19:28:40Z</time>
      </trkpt>
      <trkpt lat="46.69217" lon="-1.933">
        <ele>3</ele>
        <time>2018-01-06T19:29:40Z</time>
      </trkpt>
      <trkpt lat="46.69209" lon="-1.93298">
        <ele>3</ele>
        <time>2018-01-06T19:30:40Z</time>
      </trkpt>
      <trkpt lat="46.69203" lon="-1.93298">
        <ele>3</ele>
        <time>2018-01-06T19:31:40Z</time>
      </trkpt>
      <trkpt lat="46.69197" lon="-1.93299">
        <ele>3</ele>
        <time>2018-01-06T19:32:40Z</time>
      </trkpt>
      <trkpt lat="46.69182" lon="-1.93301">
        <ele>3</ele>
        <time>2018-01-06T19:33:40Z</time>
      </trkpt>
      <trkpt lat="46.69182" lon="-1.93301">
        <ele>3</ele>
        <time>2018-01-06T19:34:40Z</time>
      </trkpt>
      <trkpt lat="46.6918" lon="-1.93305">
        <ele>3</ele>
        <time>2018-01-06T19:35:40Z</time>
      </trkpt>
      <trkpt lat="46.69177" lon="-1.93307">
        <ele>3</ele>
        <time>2018-01-06T19:36:40Z</time>
      </trkpt>
      <trkpt lat="46.69173" lon="-1.93307">
        <ele>3</ele>
        <time>2018-01-06T19:37:40Z</time>
      </trkpt>
      <trkpt lat="46.69169" lon="-1.93306">
        <ele>3</ele>
        <time>2018-01-06T19:38:40Z</time>
      </trkpt>
      <trkpt lat="46.69167" lon="-1.93304">
        <ele>3</ele>
        <time>2018-01-06T19:39:40Z</time>
      </trkpt>
      <trkpt lat="46.69165" lon="-1.93301">
        <ele>3</ele>
        <time>2018-01-06T19:40:40Z</time>
      </trkpt>
      <trkpt lat="46.69164" lon="-1.93298">
        <ele>3</ele>
        <time>2018-01-06T19:41:40Z</time>
      </trkpt>
      <trkpt lat="46.69163" lon="-1.93296">
        <ele>3</ele>
        <time>2018-01-06T19:42:40Z</time>
      </trkpt>
      <trkpt lat="46.69163" lon="-1.93293">
        <ele>2</ele>
        <time>2018-01-06T19:43:40Z</time>
      </trkpt>
      <trkpt lat="46.69163" lon="-1.93289">
        <ele>2</ele>
        <time>2018-01-06T19:44:40Z</time>
      </trkpt>
      <trkpt lat="46.69165" lon="-1.93285">
        <ele>2</ele>
        <time>2018-01-06T19:45:40Z</time>
      </trkpt>
      <trkpt lat="46.69169" lon="-1.9328">
        <ele>2</ele>
        <time>2018-01-06T19:46:40Z</time>
      </trkpt>
      <trkpt lat="46.69166" lon="-1.93273">
        <ele>2</ele>
        <time>2018-01-06T19:47:40Z</time>
      </trkpt>
      <trkpt lat="46.69166" lon="-1.93263">
        <ele>2</ele>
        <time>2018-01-06T19:48:40Z</time>
      </trkpt>
      <trkpt lat="46.69167" lon="-1.93252">
        <ele>2</ele>
        <time>2018-01-06T19:49:40Z</time>
      </trkpt>
      <trkpt lat="46.69169" lon="-1.93244">
        <ele>2</ele>
        <time>2018-01-06T19:50:40Z</time>
      </trkpt>
      <trkpt lat="46.69177" lon="-1.93193">
        <ele>4</ele>
        <time>2018-01-06T19:51:40Z</time>
      </trkpt>
      <trkpt lat="46.69179" lon="-1.9318">
        <ele>4</ele>
        <time>2018-01-06T19:52:40Z</time>
      </trkpt>
      <trkpt lat="46.69182" lon="-1.93159">
        <ele>4</ele>
        <time>2018-01-06T19:53:40Z</time>
      </trkpt>
      <trkpt lat="46.69183" lon="-1.9315">
        <ele>4</ele>
        <time>2018-01-06T19:54:40Z</time>
      </trkpt>
      <trkpt lat="46.69186" lon="-1.93138">
        <ele>4</ele>
        <time>2018-01-06T19:55:40Z</time>
      </trkpt>
      <trkpt lat="46.69187" lon="-1.93134">
        <ele>4</ele>
        <time>2018-01-06T19:56:40Z</time>
      </trkpt>
      <trkpt lat="46.6919" lon="-1.93125">
        <ele>4</ele>
        <time>2018-01-06T19:57:40Z</time>
      </trkpt>
      <trkpt lat="46.69194" lon="-1.93117">
        <ele>4</ele>
        <time>2018-01-06T19:58:40Z</time>
      </trkpt>
      <trkpt lat="46.69201" lon="-1.93103">
        <ele>4</ele>
        <time>2018-01-06T19:59:40Z</time>
      </trkpt>
      <trkpt lat="46.6921" lon="-1.93085">
        <ele>5</ele>
        <time>2018-01-06T20:00:40Z</time>
      </trkpt>
      <trkpt lat="46.69219" lon="-1.93065">
        <ele>5</ele>
        <time>2018-01-06T20:01:40Z</time>
      </trkpt>
      <trkpt lat="46.69224" lon="-1.93053">
        <ele>5</ele>
        <time>2018-01-06T20:02:40Z</time>
      </trkpt>
      <trkpt lat="46.69224" lon="-1.93053">
        <ele>5</ele>
        <time>2018-01-06T20:03:40Z</time>
      </trkpt>
      <trkpt lat="46.69217" lon="-1.93046">
        <ele>5</ele>
        <time>2018-01-06T20:04:40Z</time>
      </trkpt>
      <trkpt lat="46.69194" lon="-1.93026">
        <ele>5</ele>
        <time>2018-01-06T20:05:40Z</time>
      </trkpt>
      <trkpt lat="46.69175" lon="-1.93009">
        <ele>4</ele>
        <time>2018-01-06T20:06:40Z</time>
      </trkpt>
      <trkpt lat="46.6917" lon="-1.93005">
        <ele>4</ele>
        <time>2018-01-06T20:07:40Z</time>
      </trkpt>
      <trkpt lat="46.69154" lon="-1.92991">
        <ele>4</ele>
        <time>2018-01-06T20:08:40Z</time>
      </trkpt>
      <trkpt lat="46.69133" lon="-1.92971">
        <ele>4</ele>
        <time>2018-01-06T20:09:40Z</time>
      </trkpt>
      <trkpt lat="46.69107" lon="-1.92948">
        <ele>4</ele>
        <time>2018-01-06T20:10:40Z</time>
      </trkpt>
      <trkpt lat="46.69095" lon="-1.92938">
        <ele>4</ele>
        <time>2018-01-06T20:11:40Z</time>
      </trkpt>
      <trkpt lat="46.69068" lon="-1.92907">
        <ele>4</ele>
        <time>2018-01-06T20:12:40Z</time>
      </trkpt>
      <trkpt lat="46.69055" lon="-1.9289">
        <ele>4</ele>
        <time>2018-01-06T20:13:40Z</time>
      </trkpt>
      <trkpt lat="46.69038" lon="-1.92867">
        <ele>4</ele>
        <time>2018-01-06T20:14:40Z</time>
      </trkpt>
      <trkpt lat="46.69014" lon="-1.92836">
        <ele>4</ele>
        <time>2018-01-06T20:15:40Z</time>
      </trkpt>
      <trkpt lat="46.68993" lon="-1.92806">
        <ele>4</ele>
        <time>2018-01-06T20:16:40Z</time>
      </trkpt>
      <trkpt lat="46.68992" lon="-1.92805">
        <ele>4</ele>
        <time>2018-01-06T20:17:40Z</time>
      </trkpt>
      <trkpt lat="46.68977" lon="-1.92784">
        <ele>4</ele>
        <time>2018-01-06T20:18:40Z</time>
      </trkpt>
      <trkpt lat="46.68969" lon="-1.92774">
        <ele>4</ele>
        <time>2018-01-06T20:19:40Z</time>
      </trkpt>
      <trkpt lat="46.68965" lon="-1.92769">
        <ele>4</ele>
        <time>2018-01-06T20:20:40Z</time>
      </trkpt>
      <trkpt lat="46.68955" lon="-1.92755">
        <ele>4</ele>
        <time>2018-01-06T20:21:40Z</time>
      </trkpt>
      <trkpt lat="46.68947" lon="-1.92747">
        <ele>4</ele>
        <time>2018-01-06T20:22:40Z</time>
      </trkpt>
      <trkpt lat="46.68936" lon="-1.92737">
        <ele>4</ele>
        <time>2018-01-06T20:23:40Z</time>
      </trkpt>
      <trkpt lat="46.68926" lon="-1.9273">
        <ele>4</ele>
        <time>2018-01-06T20:24:40Z</time>
      </trkpt>
      <trkpt lat="46.68913" lon="-1.92723">
        <ele>4</ele>
        <time>2018-01-06T20:25:40Z</time>
      </trkpt>
      <trkpt lat="46.68897" lon="-1.92716">
        <ele>4</ele>
        <time>2018-01-06T20:26:40Z</time>
      </trkpt>
      <trkpt lat="46.68881" lon="-1.92711">
        <ele>5</ele>
        <time>2018-01-06T20:27:40Z</time>
      </trkpt>
      <trkpt lat="46.68869" lon="-1.92706">
        <ele>5</ele>
        <time>2018-01-06T20:28:40Z</time>
      </trkpt>
      <trkpt lat="46.6886" lon="-1.92704">
        <ele>6</ele>
        <time>2018-01-06T20:29:40Z</time>
      </trkpt>
      <trkpt lat="46.68859" lon="-1.92704">
        <ele>6</ele>
        <time>2018-01-06T20:30:40Z</time>
      </trkpt>
      <trkpt lat="46.68851" lon="-1.92698">
        <ele>6</ele>
        <time>2018-01-06T20:31:40Z</time>
      </trkpt>
      <trkpt lat="46.68851" lon="-1.92698">
        <ele>6</ele>
        <time>2018-01-06T20:32:40Z</time>
      </trkpt>
      <trkpt lat="46.68851" lon="-1.92699">
        <ele>6</ele>
        <time>2018-01-06T20:33:40Z</time>
      </trkpt>
      <trkpt lat="46.6885" lon="-1.92699">
        <ele>6</ele>
        <time>2018-01-06T20:34:40Z</time>
      </trkpt>
      <trkpt lat="46.68849" lon="-1.927">
        <ele>6</ele>
        <time>2018-01-06T20:35:40Z</time>
      </trkpt>
      <trkpt lat="46.68848" lon="-1.927">
        <ele>6</ele>
        <time>2018-01-06T20:36:40Z</time>
      </trkpt>
      <trkpt lat="46.68848" lon="-1.92701">
        <ele>6</ele>
        <time>2018-01-06T20:37:40Z</time>
      </trkpt>
      <trkpt lat="46.68847" lon="-1.92701">
        <ele>6</ele>
        <time>2018-01-06T20:38:40Z</time>
      </trkpt>
      <trkpt lat="46.68846" lon="-1.92701">
        <ele>6</ele>
        <time>2018-01-06T20:39:40Z</time>
      </trkpt>
      <trkpt lat="46.68845" lon="-1.92701">
        <ele>6</ele>
        <time>2018-01-06T20:40:40Z</time>
      </trkpt>
      <trkpt lat="46.68844" lon="-1.92701">
        <ele>7</ele>
        <time>2018-01-06T20:41:40Z</time>
      </trkpt>
      <trkpt lat="46.68844" lon="-1.927">
        <ele>7</ele>
        <time>2018-01-06T20:42:40Z</time>
      </trkpt>
      <trkpt lat="46.68843" lon="-1.927">
        <ele>7</ele>
        <time>2018-01-06T20:43:40Z</time>
      </trkpt>
      <trkpt lat="46.68842" lon="-1.92699">
        <ele>7</ele>
        <time>2018-01-06T20:44:40Z</time>
      </trkpt>
      <trkpt lat="46.68837" lon="-1.927">
        <ele>7</ele>
        <time>2018-01-06T20:45:40Z</time>
      </trkpt>
      <trkpt lat="46.68833" lon="-1.92701">
        <ele>7</ele>
        <time>2018-01-06T20:46:40Z</time>
      </trkpt>
      <trkpt lat="46.68828" lon="-1.927">
        <ele>7</ele>
        <time>2018-01-06T20:47:40Z</time>
      </trkpt>
      <trkpt lat="46.68827" lon="-1.927">
        <ele>7</ele>
        <time>2018-01-06T20:48:40Z</time>
      </trkpt>
      <trkpt lat="46.68827" lon="-1.92701">
        <ele>7</ele>
        <time>2018-01-06T20:49:40Z</time>
      </trkpt>
      <trkpt lat="46.68826" lon="-1.92701">
        <ele>7</ele>
        <time>2018-01-06T20:50:40Z</time>
      </trkpt>
      <trkpt lat="46.68826" lon="-1.92702">
        <ele>7</ele>
        <time>2018-01-06T20:51:40Z</time>
      </trkpt>
      <trkpt lat="46.68825" lon="-1.92702">
        <ele>7</ele>
        <time>2018-01-06T20:52:40Z</time>
      </trkpt>
      <trkpt lat="46.68825" lon="-1.92703">
        <ele>7</ele>
        <time>2018-01-06T20:53:40Z</time>
      </trkpt>
      <trkpt lat="46.68824" lon="-1.92703">
        <ele>7</ele>
        <time>2018-01-06T20:54:40Z</time>
      </trkpt>
      <trkpt lat="46.68823" lon="-1.92703">
        <ele>7</ele>
        <time>2018-01-06T20:55:40Z</time>
      </trkpt>
      <trkpt lat="46.68822" lon="-1.92703">
        <ele>7</ele>
        <time>2018-01-06T20:56:40Z</time>
      </trkpt>
      <trkpt lat="46.68821" lon="-1.92703">
        <ele>7</ele>
        <time>2018-01-06T20:57:40Z</time>
      </trkpt>
      <trkpt lat="46.68821" lon="-1.92702">
        <ele>7</ele>
        <time>2018-01-06T20:58:40Z</time>
      </trkpt>
      <trkpt lat="46.6882" lon="-1.92702">
        <ele>7</ele>
        <time>2018-01-06T20:59:40Z</time>
      </trkpt>
      <trkpt lat="46.6882" lon="-1.92701">
        <ele>7</ele>
        <time>2018-01-06T21:00:40Z</time>
      </trkpt>
      <trkpt lat="46.68819" lon="-1.92701">
        <ele>7</ele>
        <time>2018-01-06T21:01:40Z</time>
      </trkpt>
      <trkpt lat="46.68819" lon="-1.927">
        <ele>7</ele>
        <time>2018-01-06T21:02:40Z</time>
      </trkpt>
      <trkpt lat="46.68818" lon="-1.927">
        <ele>7</ele>
        <time>2018-01-06T21:03:40Z</time>
      </trkpt>
      <trkpt lat="46.68818" lon="-1.92699">
        <ele>7</ele>
        <time>2018-01-06T21:04:40Z</time>
      </trkpt>
      <trkpt lat="46.68818" lon="-1.92698">
        <ele>7</ele>
        <time>2018-01-06T21:05:40Z</time>
      </trkpt>
      <trkpt lat="46.68817" lon="-1.92698">
        <ele>7</ele>
        <time>2018-01-06T21:06:40Z</time>
      </trkpt>
      <trkpt lat="46.68817" lon="-1.92697">
        <ele>7</ele>
        <time>2018-01-06T21:07:40Z</time>
      </trkpt>
      <trkpt lat="46.68817" lon="-1.92696">
        <ele>7</ele>
        <time>2018-01-06T21:08:40Z</time>
      </trkpt>
      <trkpt lat="46.68817" lon="-1.92695">
        <ele>7</ele>
        <time>2018-01-06T21:09:40Z</time>
      </trkpt>
      <trkpt lat="46.68817" lon="-1.92694">
        <ele>7</ele>
        <time>2018-01-06T21:10:40Z</time>
      </trkpt>
      <trkpt lat="46.68817" lon="-1.92693">
        <ele>7</ele>
        <time>2018-01-06T21:11:40Z</time>
      </trkpt>
      <trkpt lat="46.68817" lon="-1.92692">
        <ele>7</ele>
        <time>2018-01-06T21:12:40Z</time>
      </trkpt>
      <trkpt lat="46.68817" lon="-1.92691">
        <ele>7</ele>
        <time>2018-01-06T21:13:40Z</time>
      </trkpt>
      <trkpt lat="46.68817" lon="-1.9269">
        <ele>7</ele>
        <time>2018-01-06T21:14:40Z</time>
      </trkpt>
      <trkpt lat="46.68804" lon="-1.92685">
        <ele>7</ele>
        <time>2018-01-06T21:15:40Z</time>
      </trkpt>
      <trkpt lat="46.68787" lon="-1.9268">
        <ele>8</ele>
        <time>2018-01-06T21:16:40Z</time>
      </trkpt>
      <trkpt lat="46.68776" lon="-1.92676">
        <ele>8</ele>
        <time>2018-01-06T21:17:40Z</time>
      </trkpt>
      <trkpt lat="46.6876" lon="-1.92669">
        <ele>8</ele>
        <time>2018-01-06T21:18:40Z</time>
      </trkpt>
      <trkpt lat="46.68759" lon="-1.92668">
        <ele>8</ele>
        <time>2018-01-06T21:19:40Z</time>
      </trkpt>
      <trkpt lat="46.68733" lon="-1.92654">
        <ele>8</ele>
        <time>2018-01-06T21:20:40Z</time>
      </trkpt>
      <trkpt lat="46.68732" lon="-1.92654">
        <ele>8</ele>
        <time>2018-01-06T21:21:40Z</time>
      </trkpt>
      <trkpt lat="46.68707" lon="-1.92638">
        <ele>9</ele>
        <time>2018-01-06T21:22:40Z</time>
      </trkpt>
      <trkpt lat="46.68669" lon="-1.92615">
        <ele>10</ele>
        <time>2018-01-06T21:23:40Z</time>
      </trkpt>
      <trkpt lat="46.68651" lon="-1.92602">
        <ele>10</ele>
        <time>2018-01-06T21:24:40Z</time>
      </trkpt>
      <trkpt lat="46.68644" lon="-1.92596">
        <ele>10</ele>
        <time>2018-01-06T21:25:40Z</time>
      </trkpt>
      <trkpt lat="46.68635" lon="-1.92588">
        <ele>10</ele>
        <time>2018-01-06T21:26:40Z</time>
      </trkpt>
      <trkpt lat="46.68634" lon="-1.92586">
        <ele>10</ele>
        <time>2018-01-06T21:27:40Z</time>
      </trkpt>
      <trkpt lat="46.68629" lon="-1.9258">
        <ele>10</ele>
        <time>2018-01-06T21:28:40Z</time>
      </trkpt>
      <trkpt lat="46.68625" lon="-1.92575">
        <ele>10</ele>
        <time>2018-01-06T21:29:40Z</time>
      </trkpt>
      <trkpt lat="46.68616" lon="-1.92563">
        <ele>10</ele>
        <time>2018-01-06T21:30:40Z</time>
      </trkpt>
      <trkpt lat="46.68605" lon="-1.92548">
        <ele>10</ele>
        <time>2018-01-06T21:31:40Z</time>
      </trkpt>
      <trkpt lat="46.68594" lon="-1.92534">
        <ele>10</ele>
        <time>2018-01-06T21:32:40Z</time>
      </trkpt>
      <trkpt lat="46.68589" lon="-1.92528">
        <ele>10</ele>
        <time>2018-01-06T21:33:40Z</time>
      </trkpt>
      <trkpt lat="46.68567" lon="-1.925">
        <ele>10</ele>
        <time>2018-01-06T21:34:40Z</time>
      </trkpt>
      <trkpt lat="46.68549" lon="-1.92476">
        <ele>10</ele>
        <time>2018-01-06T21:35:40Z</time>
      </trkpt>
      <trkpt lat="46.68538" lon="-1.92464">
        <ele>10</ele>
        <time>2018-01-06T21:36:40Z</time>
      </trkpt>
      <trkpt lat="46.68532" lon="-1.92456">
        <ele>10</ele>
        <time>2018-01-06T21:37:40Z</time>
      </trkpt>
      <trkpt lat="46.68528" lon="-1.9245">
        <ele>10</ele>
        <time>2018-01-06T21:38:40Z</time>
      </trkpt>
      <trkpt lat="46.68514" lon="-1.92436">
        <ele>10</ele>
        <time>2018-01-06T21:39:40Z</time>
      </trkpt>
      <trkpt lat="46.68505" lon="-1.92428">
        <ele>10</ele>
        <time>2018-01-06T21:40:40Z</time>
      </trkpt>
      <trkpt lat="46.68495" lon="-1.9242">
        <ele>10</ele>
        <time>2018-01-06T21:41:40Z</time>
      </trkpt>
      <trkpt lat="46.68487" lon="-1.92415">
        <ele>10</ele>
        <time>2018-01-06T21:42:40Z</time>
      </trkpt>
      <trkpt lat="46.68481" lon="-1.92411">
        <ele>10</ele>
        <time>2018-01-06T21:43:40Z</time>
      </trkpt>
      <trkpt lat="46.68472" lon="-1.92408">
        <ele>10</ele>
        <time>2018-01-06T21:44:40Z</time>
      </trkpt>
      <trkpt lat="46.68463" lon="-1.92406">
        <ele>10</ele>
        <time>2018-01-06T21:45:40Z</time>
      </trkpt>
      <trkpt lat="46.68454" lon="-1.92404">
        <ele>10</ele>
        <time>2018-01-06T21:46:40Z</time>
      </trkpt>
      <trkpt lat="46.68447" lon="-1.92403">
        <ele>10</ele>
        <time>2018-01-06T21:47:40Z</time>
      </trkpt>
      <trkpt lat="46.68435" lon="-1.924">
        <ele>10</ele>
        <time>2018-01-06T21:48:40Z</time>
      </trkpt>
      <trkpt lat="46.68426" lon="-1.92396">
        <ele>10</ele>
        <time>2018-01-06T21:49:40Z</time>
      </trkpt>
      <trkpt lat="46.68413" lon="-1.92388">
        <ele>10</ele>
        <time>2018-01-06T21:50:40Z</time>
      </trkpt>
      <trkpt lat="46.68403" lon="-1.9238">
        <ele>10</ele>
        <time>2018-01-06T21:51:40Z</time>
      </trkpt>
      <trkpt lat="46.68389" lon="-1.92363">
        <ele>10</ele>
        <time>2018-01-06T21:52:40Z</time>
      </trkpt>
      <trkpt lat="46.6838" lon="-1.92351">
        <ele>10</ele>
        <time>2018-01-06T21:53:40Z</time>
      </trkpt>
      <trkpt lat="46.68377" lon="-1.92346">
        <ele>10</ele>
        <time>2018-01-06T21:54:40Z</time>
      </trkpt>
      <trkpt lat="46.6837" lon="-1.92334">
        <ele>10</ele>
        <time>2018-01-06T21:55:40Z</time>
      </trkpt>
      <trkpt lat="46.68355" lon="-1.92305">
        <ele>10</ele>
        <time>2018-01-06T21:56:40Z</time>
      </trkpt>
      <trkpt lat="46.6833" lon="-1.92261">
        <ele>9</ele>
        <time>2018-01-06T21:57:40Z</time>
      </trkpt>
      <trkpt lat="46.6832" lon="-1.92245">
        <ele>9</ele>
        <time>2018-01-06T21:58:40Z</time>
      </trkpt>
      <trkpt lat="46.68306" lon="-1.92219">
        <ele>9</ele>
        <time>2018-01-06T21:59:40Z</time>
      </trkpt>
      <trkpt lat="46.68291" lon="-1.92193">
        <ele>8</ele>
        <time>2018-01-06T22:00:40Z</time>
      </trkpt>
      <trkpt lat="46.68286" lon="-1.92186">
        <ele>8</ele>
        <time>2018-01-06T22:01:40Z</time>
      </trkpt>
      <trkpt lat="46.68277" lon="-1.92172">
        <ele>8</ele>
        <time>2018-01-06T22:02:40Z</time>
      </trkpt>
      <trkpt lat="46.68267" lon="-1.92157">
        <ele>7</ele>
        <time>2018-01-06T22:03:40Z</time>
      </trkpt>
      <trkpt lat="46.68255" lon="-1.9214">
        <ele>7</ele>
        <time>2018-01-06T22:04:40Z</time>
      </trkpt>
      <trkpt lat="46.6823" lon="-1.92107">
        <ele>7</ele>
        <time>2018-01-06T22:05:40Z</time>
      </trkpt>
      <trkpt lat="46.68227" lon="-1.92103">
        <ele>7</ele>
        <time>2018-01-06T22:06:40Z</time>
      </trkpt>
      <trkpt lat="46.68224" lon="-1.92098">
        <ele>7</ele>
        <time>2018-01-06T22:07:40Z</time>
      </trkpt>
      <trkpt lat="46.68224" lon="-1.92097">
        <ele>7</ele>
        <time>2018-01-06T22:08:40Z</time>
      </trkpt>
      <trkpt lat="46.6822" lon="-1.92091">
        <ele>7</ele>
        <time>2018-01-06T22:09:40Z</time>
      </trkpt>
      <trkpt lat="46.68208" lon="-1.92073">
        <ele>7</ele>
        <time>2018-01-06T22:10:40Z</time>
      </trkpt>
      <trkpt lat="46.68198" lon="-1.92057">
        <ele>7</ele>
        <time>2018-01-06T22:11:40Z</time>
      </trkpt>
      <trkpt lat="46.68174" lon="-1.92025">
        <ele>8</ele>
        <time>2018-01-06T22:12:40Z</time>
      </trkpt>
      <trkpt lat="46.68158" lon="-1.92003">
        <ele>8</ele>
        <time>2018-01-06T22:13:40Z</time>
      </trkpt>
      <trkpt lat="46.68115" lon="-1.91941">
        <ele>8</ele>
        <time>2018-01-06T22:14:40Z</time>
      </trkpt>
      <trkpt lat="46.68083" lon="-1.91897">
        <ele>8</ele>
        <time>2018-01-06T22:15:40Z</time>
      </trkpt>
      <trkpt lat="46.68057" lon="-1.91858">
        <ele>8</ele>
        <time>2018-01-06T22:16:40Z</time>
      </trkpt>
      <trkpt lat="46.68041" lon="-1.91836">
        <ele>8</ele>
        <time>2018-01-06T22:17:40Z</time>
      </trkpt>
      <trkpt lat="46.68033" lon="-1.91825">
        <ele>8</ele>
        <time>2018-01-06T22:18:40Z</time>
      </trkpt>
      <trkpt lat="46.68022" lon="-1.91808">
        <ele>8</ele>
        <time>2018-01-06T22:19:40Z</time>
      </trkpt>
      <trkpt lat="46.68" lon="-1.91776">
        <ele>8</ele>
        <time>2018-01-06T22:20:40Z</time>
      </trkpt>
      <trkpt lat="46.67972" lon="-1.91737">
        <ele>7</ele>
        <time>2018-01-06T22:21:40Z</time>
      </trkpt>
      <trkpt lat="46.67947" lon="-1.91703">
        <ele>7</ele>
        <time>2018-01-06T22:22:40Z</time>
      </trkpt>
      <trkpt lat="46.67928" lon="-1.91675">
        <ele>7</ele>
        <time>2018-01-06T22:23:40Z</time>
      </trkpt>
      <trkpt lat="46.67898" lon="-1.91633">
        <ele>7</ele>
        <time>2018-01-06T22:24:40Z</time>
      </trkpt>
      <trkpt lat="46.67883" lon="-1.91611">
        <ele>6</ele>
        <time>2018-01-06T22:25:40Z</time>
      </trkpt>
      <trkpt lat="46.67864" lon="-1.91583">
        <ele>6</ele>
        <time>2018-01-06T22:26:40Z</time>
      </trkpt>
      <trkpt lat="46.6784" lon="-1.91552">
        <ele>6</ele>
        <time>2018-01-06T22:27:40Z</time>
      </trkpt>
      <trkpt lat="46.67831" lon="-1.91538">
        <ele>6</ele>
        <time>2018-01-06T22:28:40Z</time>
      </trkpt>
      <trkpt lat="46.67783" lon="-1.91471">
        <ele>6</ele>
        <time>2018-01-06T22:29:40Z</time>
      </trkpt>
      <trkpt lat="46.67747" lon="-1.9142">
        <ele>6</ele>
        <time>2018-01-06T22:30:40Z</time>
      </trkpt>
      <trkpt lat="46.67743" lon="-1.91414">
        <ele>6</ele>
        <time>2018-01-06T22:31:40Z</time>
      </trkpt>
      <trkpt lat="46.67704" lon="-1.91358">
        <ele>5</ele>
        <time>2018-01-06T22:32:40Z</time>
      </trkpt>
      <trkpt lat="46.67662" lon="-1.91298">
        <ele>5</ele>
        <time>2018-01-06T22:33:40Z</time>
      </trkpt>
      <trkpt lat="46.67634" lon="-1.91261">
        <ele>5</ele>
        <time>2018-01-06T22:34:40Z</time>
      </trkpt>
      <trkpt lat="46.67612" lon="-1.91228">
        <ele>5</ele>
        <time>2018-01-06T22:35:40Z</time>
      </trkpt>
      <trkpt lat="46.67587" lon="-1.91194">
        <ele>6</ele>
        <time>2018-01-06T22:36:40Z</time>
      </trkpt>
      <trkpt lat="46.67578" lon="-1.91181">
        <ele>6</ele>
        <time>2018-01-06T22:37:40Z</time>
      </trkpt>
      <trkpt lat="46.67546" lon="-1.91137">
        <ele>5</ele>
        <time>2018-01-06T22:38:40Z</time>
      </trkpt>
      <trkpt lat="46.67518" lon="-1.91097">
        <ele>5</ele>
        <time>2018-01-06T22:39:40Z</time>
      </trkpt>
      <trkpt lat="46.6749" lon="-1.9106">
        <ele>5</ele>
        <time>2018-01-06T22:40:40Z</time>
      </trkpt>
      <trkpt lat="46.67469" lon="-1.9103">
        <ele>4</ele>
        <time>2018-01-06T22:41:40Z</time>
      </trkpt>
      <trkpt lat="46.67456" lon="-1.9101">
        <ele>4</ele>
        <time>2018-01-06T22:42:40Z</time>
      </trkpt>
      <trkpt lat="46.67452" lon="-1.91005">
        <ele>4</ele>
        <time>2018-01-06T22:43:40Z</time>
      </trkpt>
      <trkpt lat="46.67446" lon="-1.90996">
        <ele>4</ele>
        <time>2018-01-06T22:44:40Z</time>
      </trkpt>
      <trkpt lat="46.6744" lon="-1.90984">
        <ele>4</ele>
        <time>2018-01-06T22:45:40Z</time>
      </trkpt>
      <trkpt lat="46.67435" lon="-1.90971">
        <ele>3</ele>
        <time>2018-01-06T22:46:40Z</time>
      </trkpt>
      <trkpt lat="46.67435" lon="-1.90971">
        <ele>3</ele>
        <time>2018-01-06T22:47:40Z</time>
      </trkpt>
      <trkpt lat="46.67432" lon="-1.90969">
        <ele>3</ele>
        <time>2018-01-06T22:48:40Z</time>
      </trkpt>
      <trkpt lat="46.6743" lon="-1.90968">
        <ele>3</ele>
        <time>2018-01-06T22:49:40Z</time>
      </trkpt>
      <trkpt lat="46.67429" lon="-1.90967">
        <ele>3</ele>
        <time>2018-01-06T22:50:40Z</time>
      </trkpt>
      <trkpt lat="46.67427" lon="-1.90965">
        <ele>3</ele>
        <time>2018-01-06T22:51:40Z</time>
      </trkpt>
      <trkpt lat="46.67426" lon="-1.90964">
        <ele>3</ele>
        <time>2018-01-06T22:52:40Z</time>
      </trkpt>
      <trkpt lat="46.67424" lon="-1.90962">
        <ele>3</ele>
        <time>2018-01-06T22:53:40Z</time>
      </trkpt>
      <trkpt lat="46.67423" lon="-1.9096">
        <ele>3</ele>
        <time>2018-01-06T22:54:40Z</time>
      </trkpt>
      <trkpt lat="46.67422" lon="-1.90958">
        <ele>3</ele>
        <time>2018-01-06T22:55:40Z</time>
      </trkpt>
      <trkpt lat="46.67421" lon="-1.90956">
        <ele>3</ele>
        <time>2018-01-06T22:56:40Z</time>
      </trkpt>
      <trkpt lat="46.6742" lon="-1.90953">
        <ele>3</ele>
        <time>2018-01-06T22:57:40Z</time>
      </trkpt>
      <trkpt lat="46.6742" lon="-1.90951">
        <ele>3</ele>
        <time>2018-01-06T22:58:40Z</time>
      </trkpt>
      <trkpt lat="46.6742" lon="-1.9095">
        <ele>3</ele>
        <time>2018-01-06T22:59:40Z</time>
      </trkpt>
      <trkpt lat="46.67419" lon="-1.9095">
        <ele>3</ele>
        <time>2018-01-06T23:00:40Z</time>
      </trkpt>
      <trkpt lat="46.67419" lon="-1.90949">
        <ele>3</ele>
        <time>2018-01-06T23:01:40Z</time>
      </trkpt>
      <trkpt lat="46.67419" lon="-1.90948">
        <ele>3</ele>
        <time>2018-01-06T23:02:40Z</time>
      </trkpt>
      <trkpt lat="46.67419" lon="-1.90947">
        <ele>3</ele>
        <time>2018-01-06T23:03:40Z</time>
      </trkpt>
      <trkpt lat="46.67419" lon="-1.90946">
        <ele>3</ele>
        <time>2018-01-06T23:04:40Z</time>
      </trkpt>
      <trkpt lat="46.67414" lon="-1.90938">
        <ele>3</ele>
        <time>2018-01-06T23:05:40Z</time>
      </trkpt>
      <trkpt lat="46.67409" lon="-1.90932">
        <ele>3</ele>
        <time>2018-01-06T23:06:40Z</time>
      </trkpt>
      <trkpt lat="46.67407" lon="-1.90929">
        <ele>3</ele>
        <time>2018-01-06T23:07:40Z</time>
      </trkpt>
      <trkpt lat="46.67405" lon="-1.90925">
        <ele>3</ele>
        <time>2018-01-06T23:08:40Z</time>
      </trkpt>
      <trkpt lat="46.67398" lon="-1.90917">
        <ele>3</ele>
        <time>2018-01-06T23:09:40Z</time>
      </trkpt>
      <trkpt lat="46.67384" lon="-1.90901">
        <ele>3</ele>
        <time>2018-01-06T23:10:40Z</time>
      </trkpt>
      <trkpt lat="46.67344" lon="-1.90854">
        <ele>2</ele>
        <time>2018-01-06T23:11:40Z</time>
      </trkpt>
      <trkpt lat="46.67339" lon="-1.90844">
        <ele>2</ele>
        <time>2018-01-06T23:12:40Z</time>
      </trkpt>
      <trkpt lat="46.67336" lon="-1.9084">
        <ele>2</ele>
        <time>2018-01-06T23:13:40Z</time>
      </trkpt>
      <trkpt lat="46.67333" lon="-1.90837">
        <ele>2</ele>
        <time>2018-01-06T23:14:40Z</time>
      </trkpt>
      <trkpt lat="46.6733" lon="-1.90833">
        <ele>2</ele>
        <time>2018-01-06T23:15:40Z</time>
      </trkpt>
      <trkpt lat="46.67327" lon="-1.90829">
        <ele>2</ele>
        <time>2018-01-06T23:16:40Z</time>
      </trkpt>
      <trkpt lat="46.67323" lon="-1.90824">
        <ele>2</ele>
        <time>2018-01-06T23:17:40Z</time>
      </trkpt>
      <trkpt lat="46.6732" lon="-1.90819">
        <ele>2</ele>
        <time>2018-01-06T23:18:40Z</time>
      </trkpt>
      <trkpt lat="46.67313" lon="-1.9081">
        <ele>2</ele>
        <time>2018-01-06T23:19:40Z</time>
      </trkpt>
      <trkpt lat="46.67301" lon="-1.90794">
        <ele>2</ele>
        <time>2018-01-06T23:20:40Z</time>
      </trkpt>
      <trkpt lat="46.67282" lon="-1.90767">
        <ele>3</ele>
        <time>2018-01-06T23:21:40Z</time>
      </trkpt>
      <trkpt lat="46.67255" lon="-1.90729">
        <ele>3</ele>
        <time>2018-01-06T23:22:40Z</time>
      </trkpt>
      <trkpt lat="46.67226" lon="-1.90688">
        <ele>4</ele>
        <time>2018-01-06T23:23:40Z</time>
      </trkpt>
      <trkpt lat="46.67205" lon="-1.90658">
        <ele>4</ele>
        <time>2018-01-06T23:24:40Z</time>
      </trkpt>
      <trkpt lat="46.67166" lon="-1.90604">
        <ele>5</ele>
        <time>2018-01-06T23:25:40Z</time>
      </trkpt>
      <trkpt lat="46.67105" lon="-1.90518">
        <ele>5</ele>
        <time>2018-01-06T23:26:40Z</time>
      </trkpt>
      <trkpt lat="46.67097" lon="-1.90511">
        <ele>5</ele>
        <time>2018-01-06T23:27:40Z</time>
      </trkpt>
      <trkpt lat="46.67055" lon="-1.90456">
        <ele>5</ele>
        <time>2018-01-06T23:28:40Z</time>
      </trkpt>
      <trkpt lat="46.67046" lon="-1.90444">
        <ele>5</ele>
        <time>2018-01-06T23:29:40Z</time>
      </trkpt>
      <trkpt lat="46.67037" lon="-1.9043">
        <ele>5</ele>
        <time>2018-01-06T23:30:40Z</time>
      </trkpt>
      <trkpt lat="46.67034" lon="-1.90427">
        <ele>5</ele>
        <time>2018-01-06T23:31:40Z</time>
      </trkpt>
      <trkpt lat="46.67019" lon="-1.90408">
        <ele>5</ele>
        <time>2018-01-06T23:32:40Z</time>
      </trkpt>
      <trkpt lat="46.67018" lon="-1.90407">
        <ele>5</ele>
        <time>2018-01-06T23:33:40Z</time>
      </trkpt>
      <trkpt lat="46.67017" lon="-1.90406">
        <ele>5</ele>
        <time>2018-01-06T23:34:40Z</time>
      </trkpt>
      <trkpt lat="46.67016" lon="-1.90404">
        <ele>5</ele>
        <time>2018-01-06T23:35:40Z</time>
      </trkpt>
      <trkpt lat="46.67014" lon="-1.90402">
        <ele>5</ele>
        <time>2018-01-06T23:36:40Z</time>
      </trkpt>
      <trkpt lat="46.67012" lon="-1.90399">
        <ele>5</ele>
        <time>2018-01-06T23:37:40Z</time>
      </trkpt>
      <trkpt lat="46.66999" lon="-1.9038">
        <ele>5</ele>
        <time>2018-01-06T23:38:40Z</time>
      </trkpt>
      <trkpt lat="46.66997" lon="-1.90377">
        <ele>5</ele>
        <time>2018-01-06T23:39:40Z</time>
      </trkpt>
      <trkpt lat="46.66995" lon="-1.90374">
        <ele>5</ele>
        <time>2018-01-06T23:40:40Z</time>
      </trkpt>
      <trkpt lat="46.66993" lon="-1.90372">
        <ele>5</ele>
        <time>2018-01-06T23:41:40Z</time>
      </trkpt>
      <trkpt lat="46.66982" lon="-1.90356">
        <ele>5</ele>
        <time>2018-01-06T23:42:40Z</time>
      </trkpt>
      <trkpt lat="46.66982" lon="-1.90356">
        <ele>5</ele>
        <time>2018-01-06T23:43:40Z</time>
      </trkpt>
      <trkpt lat="46.66981" lon="-1.90356">
        <ele>5</ele>
        <time>2018-01-06T23:44:40Z</time>
      </trkpt>
      <trkpt lat="46.66979" lon="-1.90355">
        <ele>5</ele>
        <time>2018-01-06T23:45:40Z</time>
      </trkpt>
      <trkpt lat="46.66978" lon="-1.90355">
        <ele>5</ele>
        <time>2018-01-06T23:46:40Z</time>
      </trkpt>
      <trkpt lat="46.66977" lon="-1.90354">
        <ele>5</ele>
        <time>2018-01-06T23:47:40Z</time>
      </trkpt>
      <trkpt lat="46.66976" lon="-1.90353">
        <ele>5</ele>
        <time>2018-01-06T23:48:40Z</time>
      </trkpt>
      <trkpt lat="46.66975" lon="-1.90352">
        <ele>5</ele>
        <time>2018-01-06T23:49:40Z</time>
      </trkpt>
      <trkpt lat="46.66974" lon="-1.90351">
        <ele>5</ele>
        <time>2018-01-06T23:50:40Z</time>
      </trkpt>
      <trkpt lat="46.66973" lon="-1.9035">
        <ele>5</ele>
        <time>2018-01-06T23:51:40Z</time>
      </trkpt>
      <trkpt lat="46.66972" lon="-1.90349">
        <ele>5</ele>
        <time>2018-01-06T23:52:40Z</time>
      </trkpt>
      <trkpt lat="46.66971" lon="-1.90348">
        <ele>5</ele>
        <time>2018-01-06T23:53:40Z</time>
      </trkpt>
      <trkpt lat="46.6697" lon="-1.90346">
        <ele>5</ele>
        <time>2018-01-06T23:54:40Z</time>
      </trkpt>
      <trkpt lat="46.66969" lon="-1.90345">
        <ele>5</ele>
        <time>2018-01-06T23:55:40Z</time>
      </trkpt>
      <trkpt lat="46.66969" lon="-1.90343">
        <ele>5</ele>
        <time>2018-01-06T23:56:40Z</time>
      </trkpt>
      <trkpt lat="46.66968" lon="-1.90341">
        <ele>5</ele>
        <time>2018-01-06T23:57:40Z</time>
      </trkpt>
      <trkpt lat="46.66968" lon="-1.9034">
        <ele>5</ele>
        <time>2018-01-06T23:58:40Z</time>
      </trkpt>
      <trkpt lat="46.66967" lon="-1.90338">
        <ele>5</ele>
        <time>2018-01-06T23:59:40Z</time>
      </trkpt>
      <trkpt lat="46.66967" lon="-1.90335">
        <ele>5</ele>
        <time>2018-01-07T00:00:40Z</time>
      </trkpt>
      <trkpt lat="46.66967" lon="-1.90331">
        <ele>5</ele>
        <time>2018-01-07T00:01:40Z</time>
      </trkpt>
      <trkpt lat="46.66967" lon="-1.9033">
        <ele>5</ele>
        <time>2018-01-07T00:02:40Z</time>
      </trkpt>
      <trkpt lat="46.66967" lon="-1.90328">
        <ele>5</ele>
        <time>2018-01-07T00:03:40Z</time>
      </trkpt>
      <trkpt lat="46.66967" lon="-1.90326">
        <ele>5</ele>
        <time>2018-01-07T00:04:40Z</time>
      </trkpt>
      <trkpt lat="46.66968" lon="-1.90324">
        <ele>5</ele>
        <time>2018-01-07T00:05:40Z</time>
      </trkpt>
      <trkpt lat="46.66968" lon="-1.90323">
        <ele>5</ele>
        <time>2018-01-07T00:06:40Z</time>
      </trkpt>
      <trkpt lat="46.66968" lon="-1.90321">
        <ele>5</ele>
        <time>2018-01-07T00:07:40Z</time>
      </trkpt>
      <trkpt lat="46.66969" lon="-1.90319">
        <ele>5</ele>
        <time>2018-01-07T00:08:40Z</time>
      </trkpt>
      <trkpt lat="46.6697" lon="-1.90318">
        <ele>5</ele>
        <time>2018-01-07T00:09:40Z</time>
      </trkpt>
      <trkpt lat="46.6697" lon="-1.90316">
        <ele>5</ele>
        <time>2018-01-07T00:10:40Z</time>
      </trkpt>
      <trkpt lat="46.66971" lon="-1.90315">
        <ele>5</ele>
        <time>2018-01-07T00:11:40Z</time>
      </trkpt>
      <trkpt lat="46.66972" lon="-1.90314">
        <ele>5</ele>
        <time>2018-01-07T00:12:40Z</time>
      </trkpt>
      <trkpt lat="46.66973" lon="-1.90313">
        <ele>5</ele>
        <time>2018-01-07T00:13:40Z</time>
      </trkpt>
      <trkpt lat="46.66974" lon="-1.90312">
        <ele>5</ele>
        <time>2018-01-07T00:14:40Z</time>
      </trkpt>
      <trkpt lat="46.66975" lon="-1.90311">
        <ele>6</ele>
        <time>2018-01-07T00:15:40Z</time>
      </trkpt>
      <trkpt lat="46.66976" lon="-1.9031">
        <ele>6</ele>
        <time>2018-01-07T00:16:40Z</time>
      </trkpt>
      <trkpt lat="46.66976" lon="-1.90309">
        <ele>6</ele>
        <time>2018-01-07T00:17:40Z</time>
      </trkpt>
      <trkpt lat="46.66977" lon="-1.90309">
        <ele>6</ele>
        <time>2018-01-07T00:18:40Z</time>
      </trkpt>
      <trkpt lat="46.66978" lon="-1.90309">
        <ele>6</ele>
        <time>2018-01-07T00:19:40Z</time>
      </trkpt>
      <trkpt lat="46.66978" lon="-1.90308">
        <ele>6</ele>
        <time>2018-01-07T00:20:40Z</time>
      </trkpt>
      <trkpt lat="46.66981" lon="-1.903">
        <ele>6</ele>
        <time>2018-01-07T00:21:40Z</time>
      </trkpt>
      <trkpt lat="46.66985" lon="-1.90285">
        <ele>6</ele>
        <time>2018-01-07T00:22:40Z</time>
      </trkpt>
      <trkpt lat="46.66988" lon="-1.90274">
        <ele>6</ele>
        <time>2018-01-07T00:23:40Z</time>
      </trkpt>
      <trkpt lat="46.6699" lon="-1.90259">
        <ele>7</ele>
        <time>2018-01-07T00:24:40Z</time>
      </trkpt>
      <trkpt lat="46.66985" lon="-1.90224">
        <ele>7</ele>
        <time>2018-01-07T00:25:40Z</time>
      </trkpt>
      <trkpt lat="46.66981" lon="-1.90197">
        <ele>8</ele>
        <time>2018-01-07T00:26:40Z</time>
      </trkpt>
      <trkpt lat="46.66977" lon="-1.90166">
        <ele>8</ele>
        <time>2018-01-07T00:27:40Z</time>
      </trkpt>
      <trkpt lat="46.66972" lon="-1.9013">
        <ele>9</ele>
        <time>2018-01-07T00:28:40Z</time>
      </trkpt>
      <trkpt lat="46.66968" lon="-1.90096">
        <ele>9</ele>
        <time>2018-01-07T00:29:40Z</time>
      </trkpt>
      <trkpt lat="46.66964" lon="-1.9006">
        <ele>10</ele>
        <time>2018-01-07T00:30:40Z</time>
      </trkpt>
      <trkpt lat="46.66963" lon="-1.90055">
        <ele>10</ele>
        <time>2018-01-07T00:31:40Z</time>
      </trkpt>
      <trkpt lat="46.6696" lon="-1.90028">
        <ele>10</ele>
        <time>2018-01-07T00:32:40Z</time>
      </trkpt>
      <trkpt lat="46.66955" lon="-1.89998">
        <ele>10</ele>
        <time>2018-01-07T00:33:40Z</time>
      </trkpt>
      <trkpt lat="46.66951" lon="-1.8996">
        <ele>10</ele>
        <time>2018-01-07T00:34:40Z</time>
      </trkpt>
      <trkpt lat="46.66949" lon="-1.89948">
        <ele>11</ele>
        <time>2018-01-07T00:35:40Z</time>
      </trkpt>
      <trkpt lat="46.66944" lon="-1.89914">
        <ele>11</ele>
        <time>2018-01-07T00:36:40Z</time>
      </trkpt>
      <trkpt lat="46.6694" lon="-1.89885">
        <ele>11</ele>
        <time>2018-01-07T00:37:40Z</time>
      </trkpt>
      <trkpt lat="46.66938" lon="-1.89867">
        <ele>11</ele>
        <time>2018-01-07T00:38:40Z</time>
      </trkpt>
      <trkpt lat="46.66932" lon="-1.89826">
        <ele>11</ele>
        <time>2018-01-07T00:39:40Z</time>
      </trkpt>
      <trkpt lat="46.66931" lon="-1.8982">
        <ele>11</ele>
        <time>2018-01-07T00:40:40Z</time>
      </trkpt>
      <trkpt lat="46.66928" lon="-1.89797">
        <ele>11</ele>
        <time>2018-01-07T00:41:40Z</time>
      </trkpt>
      <trkpt lat="46.66928" lon="-1.89795">
        <ele>11</ele>
        <time>2018-01-07T00:42:40Z</time>
      </trkpt>
      <trkpt lat="46.66925" lon="-1.89768">
        <ele>11</ele>
        <time>2018-01-07T00:43:40Z</time>
      </trkpt>
      <trkpt lat="46.66922" lon="-1.89752">
        <ele>11</ele>
        <time>2018-01-07T00:44:40Z</time>
      </trkpt>
      <trkpt lat="46.6692" lon="-1.89738">
        <ele>11</ele>
        <time>2018-01-07T00:45:40Z</time>
      </trkpt>
      <trkpt lat="46.66917" lon="-1.89712">
        <ele>11</ele>
        <time>2018-01-07T00:46:40Z</time>
      </trkpt>
      <trkpt lat="46.66915" lon="-1.89697">
        <ele>12</ele>
        <time>2018-01-07T00:47:40Z</time>
      </trkpt>
      <trkpt lat="46.66911" lon="-1.89666">
        <ele>12</ele>
        <time>2018-01-07T00:48:40Z</time>
      </trkpt>
      <trkpt lat="46.66911" lon="-1.89664">
        <ele>12</ele>
        <time>2018-01-07T00:49:40Z</time>
      </trkpt>
      <trkpt lat="46.66904" lon="-1.89615">
        <ele>12</ele>
        <time>2018-01-07T00:50:40Z</time>
      </trkpt>
      <trkpt lat="46.66898" lon="-1.89575">
        <ele>13</ele>
        <time>2018-01-07T00:51:40Z</time>
      </trkpt>
      <trkpt lat="46.66897" lon="-1.89564">
        <ele>13</ele>
        <time>2018-01-07T00:52:40Z</time>
      </trkpt>
      <trkpt lat="46.66896" lon="-1.89555">
        <ele>12</ele>
        <time>2018-01-07T00:53:40Z</time>
      </trkpt>
      <trkpt lat="46.66894" lon="-1.89545">
        <ele>12</ele>
        <time>2018-01-07T00:54:40Z</time>
      </trkpt>
      <trkpt lat="46.66891" lon="-1.89517">
        <ele>12</ele>
        <time>2018-01-07T00:55:40Z</time>
      </trkpt>
      <trkpt lat="46.6689" lon="-1.89515">
        <ele>12</ele>
        <time>2018-01-07T00:56:40Z</time>
      </trkpt>
      <trkpt lat="46.66888" lon="-1.89499">
        <ele>12</ele>
        <time>2018-01-07T00:57:40Z</time>
      </trkpt>
      <trkpt lat="46.66887" lon="-1.89492">
        <ele>12</ele>
        <time>2018-01-07T00:58:40Z</time>
      </trkpt>
      <trkpt lat="46.66886" lon="-1.89484">
        <ele>12</ele>
        <time>2018-01-07T00:59:40Z</time>
      </trkpt>
      <trkpt lat="46.66886" lon="-1.89475">
        <ele>12</ele>
        <time>2018-01-07T01:00:40Z</time>
      </trkpt>
      <trkpt lat="46.66885" lon="-1.89467">
        <ele>12</ele>
        <time>2018-01-07T01:01:40Z</time>
      </trkpt>
      <trkpt lat="46.66885" lon="-1.8946">
        <ele>12</ele>
        <time>2018-01-07T01:02:40Z</time>
      </trkpt>
      <trkpt lat="46.66884" lon="-1.89451">
        <ele>12</ele>
        <time>2018-01-07T01:03:40Z</time>
      </trkpt>
      <trkpt lat="46.66884" lon="-1.89439">
        <ele>12</ele>
        <time>2018-01-07T01:04:40Z</time>
      </trkpt>
      <trkpt lat="46.66884" lon="-1.89421">
        <ele>12</ele>
        <time>2018-01-07T01:05:40Z</time>
      </trkpt>
      <trkpt lat="46.66885" lon="-1.89403">
        <ele>12</ele>
        <time>2018-01-07T01:06:40Z</time>
      </trkpt>
      <trkpt lat="46.66887" lon="-1.89385">
        <ele>12</ele>
        <time>2018-01-07T01:07:40Z</time>
      </trkpt>
      <trkpt lat="46.66889" lon="-1.89376">
        <ele>12</ele>
        <time>2018-01-07T01:08:40Z</time>
      </trkpt>
      <trkpt lat="46.66892" lon="-1.89362">
        <ele>12</ele>
        <time>2018-01-07T01:09:40Z</time>
      </trkpt>
      <trkpt lat="46.66896" lon="-1.89347">
        <ele>11</ele>
        <time>2018-01-07T01:10:40Z</time>
      </trkpt>
      <trkpt lat="46.66899" lon="-1.89335">
        <ele>11</ele>
        <time>2018-01-07T01:11:40Z</time>
      </trkpt>
      <trkpt lat="46.66901" lon="-1.89329">
        <ele>11</ele>
        <time>2018-01-07T01:12:40Z</time>
      </trkpt>
      <trkpt lat="46.66906" lon="-1.89314">
        <ele>11</ele>
        <time>2018-01-07T01:13:40Z</time>
      </trkpt>
      <trkpt lat="46.66909" lon="-1.89305">
        <ele>11</ele>
        <time>2018-01-07T01:14:40Z</time>
      </trkpt>
      <trkpt lat="46.66914" lon="-1.89286">
        <ele>11</ele>
        <time>2018-01-07T01:15:40Z</time>
      </trkpt>
      <trkpt lat="46.6691" lon="-1.89283">
        <ele>11</ele>
        <time>2018-01-07T01:16:40Z</time>
      </trkpt>
      <trkpt lat="46.66909" lon="-1.89278">
        <ele>11</ele>
        <time>2018-01-07T01:17:40Z</time>
      </trkpt>
      <trkpt lat="46.66909" lon="-1.89272">
        <ele>11</ele>
        <time>2018-01-07T01:18:40Z</time>
      </trkpt>
      <trkpt lat="46.66911" lon="-1.89267">
        <ele>11</ele>
        <time>2018-01-07T01:19:40Z</time>
      </trkpt>
      <trkpt lat="46.66914" lon="-1.89264">
        <ele>11</ele>
        <time>2018-01-07T01:20:40Z</time>
      </trkpt>
      <trkpt lat="46.66917" lon="-1.89263">
        <ele>11</ele>
        <time>2018-01-07T01:21:40Z</time>
      </trkpt>
      <trkpt lat="46.66919" lon="-1.89263">
        <ele>11</ele>
        <time>2018-01-07T01:22:40Z</time>
      </trkpt>
      <trkpt lat="46.66922" lon="-1.89264">
        <ele>11</ele>
        <time>2018-01-07T01:23:40Z</time>
      </trkpt>
      <trkpt lat="46.66926" lon="-1.89253">
        <ele>11</ele>
        <time>2018-01-07T01:24:40Z</time>
      </trkpt>
      <trkpt lat="46.66929" lon="-1.89245">
        <ele>11</ele>
        <time>2018-01-07T01:25:40Z</time>
      </trkpt>
      <trkpt lat="46.66941" lon="-1.89208">
        <ele>10</ele>
        <time>2018-01-07T01:26:40Z</time>
      </trkpt>
      <trkpt lat="46.66945" lon="-1.89198">
        <ele>10</ele>
        <time>2018-01-07T01:27:40Z</time>
      </trkpt>
      <trkpt lat="46.66954" lon="-1.89171">
        <ele>10</ele>
        <time>2018-01-07T01:28:40Z</time>
      </trkpt>
      <trkpt lat="46.66961" lon="-1.89149">
        <ele>10</ele>
        <time>2018-01-07T01:29:40Z</time>
      </trkpt>
      <trkpt lat="46.66969" lon="-1.89126">
        <ele>10</ele>
        <time>2018-01-07T01:30:40Z</time>
      </trkpt>
      <trkpt lat="46.66982" lon="-1.89082">
        <ele>9</ele>
        <time>2018-01-07T01:31:40Z</time>
      </trkpt>
      <trkpt lat="46.66985" lon="-1.89069">
        <ele>9</ele>
        <time>2018-01-07T01:32:40Z</time>
      </trkpt>
      <trkpt lat="46.66988" lon="-1.89056">
        <ele>8</ele>
        <time>2018-01-07T01:33:40Z</time>
      </trkpt>
      <trkpt lat="46.6699" lon="-1.89048">
        <ele>8</ele>
        <time>2018-01-07T01:34:40Z</time>
      </trkpt>
      <trkpt lat="46.66991" lon="-1.89041">
        <ele>8</ele>
        <time>2018-01-07T01:35:40Z</time>
      </trkpt>
      <trkpt lat="46.66993" lon="-1.89033">
        <ele>8</ele>
        <time>2018-01-07T01:36:40Z</time>
      </trkpt>
      <trkpt lat="46.66995" lon="-1.89024">
        <ele>8</ele>
        <time>2018-01-07T01:37:40Z</time>
      </trkpt>
      <trkpt lat="46.66998" lon="-1.8901">
        <ele>7</ele>
        <time>2018-01-07T01:38:40Z</time>
      </trkpt>
      <trkpt lat="46.67001" lon="-1.88998">
        <ele>7</ele>
        <time>2018-01-07T01:39:40Z</time>
      </trkpt>
      <trkpt lat="46.67003" lon="-1.88989">
        <ele>7</ele>
        <time>2018-01-07T01:40:40Z</time>
      </trkpt>
      <trkpt lat="46.67008" lon="-1.88964">
        <ele>7</ele>
        <time>2018-01-07T01:41:40Z</time>
      </trkpt>
      <trkpt lat="46.6701" lon="-1.88956">
        <ele>7</ele>
        <time>2018-01-07T01:42:40Z</time>
      </trkpt>
      <trkpt lat="46.67013" lon="-1.88939">
        <ele>8</ele>
        <time>2018-01-07T01:43:40Z</time>
      </trkpt>
      <trkpt lat="46.67016" lon="-1.88929">
        <ele>8</ele>
        <time>2018-01-07T01:44:40Z</time>
      </trkpt>
      <trkpt lat="46.67023" lon="-1.88898">
        <ele>8</ele>
        <time>2018-01-07T01:45:40Z</time>
      </trkpt>
      <trkpt lat="46.67029" lon="-1.88866">
        <ele>9</ele>
        <time>2018-01-07T01:46:40Z</time>
      </trkpt>
      <trkpt lat="46.67033" lon="-1.88851">
        <ele>10</ele>
        <time>2018-01-07T01:47:40Z</time>
      </trkpt>
      <trkpt lat="46.67039" lon="-1.88825">
        <ele>10</ele>
        <time>2018-01-07T01:48:40Z</time>
      </trkpt>
      <trkpt lat="46.67041" lon="-1.88816">
        <ele>10</ele>
        <time>2018-01-07T01:49:40Z</time>
      </trkpt>
      <trkpt lat="46.67047" lon="-1.88789">
        <ele>10</ele>
        <time>2018-01-07T01:50:40Z</time>
      </trkpt>
      <trkpt lat="46.67051" lon="-1.88769">
        <ele>11</ele>
        <time>2018-01-07T01:51:40Z</time>
      </trkpt>
      <trkpt lat="46.67056" lon="-1.88749">
        <ele>11</ele>
        <time>2018-01-07T01:52:40Z</time>
      </trkpt>
      <trkpt lat="46.67053" lon="-1.88747">
        <ele>11</ele>
        <time>2018-01-07T01:53:40Z</time>
      </trkpt>
      <trkpt lat="46.67051" lon="-1.88745">
        <ele>11</ele>
        <time>2018-01-07T01:54:40Z</time>
      </trkpt>
      <trkpt lat="46.6705" lon="-1.88741">
        <ele>11</ele>
        <time>2018-01-07T01:55:40Z</time>
      </trkpt>
      <trkpt lat="46.67049" lon="-1.88737">
        <ele>11</ele>
        <time>2018-01-07T01:56:40Z</time>
      </trkpt>
      <trkpt lat="46.67049" lon="-1.88732">
        <ele>11</ele>
        <time>2018-01-07T01:57:40Z</time>
      </trkpt>
      <trkpt lat="46.6705" lon="-1.88728">
        <ele>11</ele>
        <time>2018-01-07T01:58:40Z</time>
      </trkpt>
      <trkpt lat="46.67052" lon="-1.88726">
        <ele>11</ele>
        <time>2018-01-07T01:59:40Z</time>
      </trkpt>
      <trkpt lat="46.67054" lon="-1.88725">
        <ele>11</ele>
        <time>2018-01-07T02:00:40Z</time>
      </trkpt>
      <trkpt lat="46.67057" lon="-1.88724">
        <ele>11</ele>
        <time>2018-01-07T02:01:40Z</time>
      </trkpt>
      <trkpt lat="46.67061" lon="-1.88725">
        <ele>11</ele>
        <time>2018-01-07T02:02:40Z</time>
      </trkpt>
      <trkpt lat="46.67063" lon="-1.88716">
        <ele>11</ele>
        <time>2018-01-07T02:03:40Z</time>
      </trkpt>
      <trkpt lat="46.6708" lon="-1.88641">
        <ele>12</ele>
        <time>2018-01-07T02:04:40Z</time>
      </trkpt>
      <trkpt lat="46.67081" lon="-1.88634">
        <ele>12</ele>
        <time>2018-01-07T02:05:40Z</time>
      </trkpt>
      <trkpt lat="46.67091" lon="-1.8859">
        <ele>12</ele>
        <time>2018-01-07T02:06:40Z</time>
      </trkpt>
      <trkpt lat="46.67092" lon="-1.88586">
        <ele>12</ele>
        <time>2018-01-07T02:07:40Z</time>
      </trkpt>
      <trkpt lat="46.67103" lon="-1.88538">
        <ele>12</ele>
        <time>2018-01-07T02:08:40Z</time>
      </trkpt>
      <trkpt lat="46.67108" lon="-1.8852">
        <ele>12</ele>
        <time>2018-01-07T02:09:40Z</time>
      </trkpt>
      <trkpt lat="46.67113" lon="-1.88499">
        <ele>11</ele>
        <time>2018-01-07T02:10:40Z</time>
      </trkpt>
      <trkpt lat="46.6712" lon="-1.88468">
        <ele>11</ele>
        <time>2018-01-07T02:11:40Z</time>
      </trkpt>
      <trkpt lat="46.67128" lon="-1.88428">
        <ele>10</ele>
        <time>2018-01-07T02:12:40Z</time>
      </trkpt>
      <trkpt lat="46.67133" lon="-1.88408">
        <ele>10</ele>
        <time>2018-01-07T02:13:40Z</time>
      </trkpt>
      <trkpt lat="46.67135" lon="-1.88398">
        <ele>10</ele>
        <time>2018-01-07T02:14:40Z</time>
      </trkpt>
      <trkpt lat="46.67136" lon="-1.88388">
        <ele>10</ele>
        <time>2018-01-07T02:15:40Z</time>
      </trkpt>
      <trkpt lat="46.67138" lon="-1.88377">
        <ele>10</ele>
        <time>2018-01-07T02:16:40Z</time>
      </trkpt>
      <trkpt lat="46.67138" lon="-1.88369">
        <ele>9</ele>
        <time>2018-01-07T02:17:40Z</time>
      </trkpt>
      <trkpt lat="46.67139" lon="-1.88365">
        <ele>9</ele>
        <time>2018-01-07T02:18:40Z</time>
      </trkpt>
      <trkpt lat="46.67139" lon="-1.88356">
        <ele>9</ele>
        <time>2018-01-07T02:19:40Z</time>
      </trkpt>
      <trkpt lat="46.67139" lon="-1.88342">
        <ele>9</ele>
        <time>2018-01-07T02:20:40Z</time>
      </trkpt>
      <trkpt lat="46.67139" lon="-1.88336">
        <ele>9</ele>
        <time>2018-01-07T02:21:40Z</time>
      </trkpt>
      <trkpt lat="46.67139" lon="-1.8833">
        <ele>9</ele>
        <time>2018-01-07T02:22:40Z</time>
      </trkpt>
      <trkpt lat="46.67139" lon="-1.88324">
        <ele>9</ele>
        <time>2018-01-07T02:23:40Z</time>
      </trkpt>
      <trkpt lat="46.6714" lon="-1.88317">
        <ele>9</ele>
        <time>2018-01-07T02:24:40Z</time>
      </trkpt>
      <trkpt lat="46.67141" lon="-1.88306">
        <ele>9</ele>
        <time>2018-01-07T02:25:40Z</time>
      </trkpt>
      <trkpt lat="46.67141" lon="-1.88301">
        <ele>9</ele>
        <time>2018-01-07T02:26:40Z</time>
      </trkpt>
      <trkpt lat="46.67142" lon="-1.88295">
        <ele>9</ele>
        <time>2018-01-07T02:27:40Z</time>
      </trkpt>
      <trkpt lat="46.67143" lon="-1.88289">
        <ele>9</ele>
        <time>2018-01-07T02:28:40Z</time>
      </trkpt>
      <trkpt lat="46.67146" lon="-1.88277">
        <ele>8</ele>
        <time>2018-01-07T02:29:40Z</time>
      </trkpt>
      <trkpt lat="46.67148" lon="-1.8827">
        <ele>8</ele>
        <time>2018-01-07T02:30:40Z</time>
      </trkpt>
      <trkpt lat="46.67149" lon="-1.88266">
        <ele>8</ele>
        <time>2018-01-07T02:31:40Z</time>
      </trkpt>
      <trkpt lat="46.67152" lon="-1.88256">
        <ele>8</ele>
        <time>2018-01-07T02:32:40Z</time>
      </trkpt>
      <trkpt lat="46.67155" lon="-1.88246">
        <ele>8</ele>
        <time>2018-01-07T02:33:40Z</time>
      </trkpt>
      <trkpt lat="46.67156" lon="-1.88241">
        <ele>8</ele>
        <time>2018-01-07T02:34:40Z</time>
      </trkpt>
      <trkpt lat="46.67158" lon="-1.88235">
        <ele>8</ele>
        <time>2018-01-07T02:35:40Z</time>
      </trkpt>
      <trkpt lat="46.67159" lon="-1.8823">
        <ele>8</ele>
        <time>2018-01-07T02:36:40Z</time>
      </trkpt>
      <trkpt lat="46.67159" lon="-1.88229">
        <ele>8</ele>
        <time>2018-01-07T02:37:40Z</time>
      </trkpt>
      <trkpt lat="46.67162" lon="-1.8822">
        <ele>8</ele>
        <time>2018-01-07T02:38:40Z</time>
      </trkpt>
      <trkpt lat="46.67161" lon="-1.8822">
        <ele>8</ele>
        <time>2018-01-07T02:39:40Z</time>
      </trkpt>
      <trkpt lat="46.67161" lon="-1.88219">
        <ele>8</ele>
        <time>2018-01-07T02:40:40Z</time>
      </trkpt>
      <trkpt lat="46.6716" lon="-1.88219">
        <ele>8</ele>
        <time>2018-01-07T02:41:40Z</time>
      </trkpt>
      <trkpt lat="46.6716" lon="-1.88218">
        <ele>8</ele>
        <time>2018-01-07T02:42:40Z</time>
      </trkpt>
      <trkpt lat="46.67159" lon="-1.88218">
        <ele>8</ele>
        <time>2018-01-07T02:43:40Z</time>
      </trkpt>
      <trkpt lat="46.67159" lon="-1.88217">
        <ele>8</ele>
        <time>2018-01-07T02:44:40Z</time>
      </trkpt>
      <trkpt lat="46.67158" lon="-1.88216">
        <ele>8</ele>
        <time>2018-01-07T02:45:40Z</time>
      </trkpt>
      <trkpt lat="46.67158" lon="-1.88215">
        <ele>7</ele>
        <time>2018-01-07T02:46:40Z</time>
      </trkpt>
      <trkpt lat="46.67157" lon="-1.88215">
        <ele>7</ele>
        <time>2018-01-07T02:47:40Z</time>
      </trkpt>
      <trkpt lat="46.67157" lon="-1.88214">
        <ele>7</ele>
        <time>2018-01-07T02:48:40Z</time>
      </trkpt>
      <trkpt lat="46.67157" lon="-1.88213">
        <ele>7</ele>
        <time>2018-01-07T02:49:40Z</time>
      </trkpt>
      <trkpt lat="46.67157" lon="-1.88212">
        <ele>7</ele>
        <time>2018-01-07T02:50:40Z</time>
      </trkpt>
      <trkpt lat="46.67157" lon="-1.88211">
        <ele>7</ele>
        <time>2018-01-07T02:51:40Z</time>
      </trkpt>
      <trkpt lat="46.67156" lon="-1.8821">
        <ele>7</ele>
        <time>2018-01-07T02:52:40Z</time>
      </trkpt>
      <trkpt lat="46.67156" lon="-1.88209">
        <ele>7</ele>
        <time>2018-01-07T02:53:40Z</time>
      </trkpt>
      <trkpt lat="46.67156" lon="-1.88208">
        <ele>7</ele>
        <time>2018-01-07T02:54:40Z</time>
      </trkpt>
      <trkpt lat="46.67156" lon="-1.88207">
        <ele>7</ele>
        <time>2018-01-07T02:55:40Z</time>
      </trkpt>
      <trkpt lat="46.67156" lon="-1.88206">
        <ele>7</ele>
        <time>2018-01-07T02:56:40Z</time>
      </trkpt>
      <trkpt lat="46.67157" lon="-1.88205">
        <ele>7</ele>
        <time>2018-01-07T02:57:40Z</time>
      </trkpt>
      <trkpt lat="46.67157" lon="-1.88204">
        <ele>7</ele>
        <time>2018-01-07T02:58:40Z</time>
      </trkpt>
      <trkpt lat="46.67157" lon="-1.88203">
        <ele>7</ele>
        <time>2018-01-07T02:59:40Z</time>
      </trkpt>
      <trkpt lat="46.67157" lon="-1.88202">
        <ele>7</ele>
        <time>2018-01-07T03:00:40Z</time>
      </trkpt>
      <trkpt lat="46.67158" lon="-1.88201">
        <ele>7</ele>
        <time>2018-01-07T03:01:40Z</time>
      </trkpt>
      <trkpt lat="46.67158" lon="-1.882">
        <ele>7</ele>
        <time>2018-01-07T03:02:40Z</time>
      </trkpt>
      <trkpt lat="46.67159" lon="-1.88199">
        <ele>7</ele>
        <time>2018-01-07T03:03:40Z</time>
      </trkpt>
      <trkpt lat="46.67159" lon="-1.88198">
        <ele>7</ele>
        <time>2018-01-07T03:04:40Z</time>
      </trkpt>
      <trkpt lat="46.6716" lon="-1.88198">
        <ele>7</ele>
        <time>2018-01-07T03:05:40Z</time>
      </trkpt>
      <trkpt lat="46.6716" lon="-1.88197">
        <ele>7</ele>
        <time>2018-01-07T03:06:40Z</time>
      </trkpt>
      <trkpt lat="46.67161" lon="-1.88197">
        <ele>7</ele>
        <time>2018-01-07T03:07:40Z</time>
      </trkpt>
      <trkpt lat="46.67161" lon="-1.88196">
        <ele>7</ele>
        <time>2018-01-07T03:08:40Z</time>
      </trkpt>
      <trkpt lat="46.67162" lon="-1.88196">
        <ele>7</ele>
        <time>2018-01-07T03:09:40Z</time>
      </trkpt>
      <trkpt lat="46.67162" lon="-1.88195">
        <ele>7</ele>
        <time>2018-01-07T03:10:40Z</time>
      </trkpt>
      <trkpt lat="46.67163" lon="-1.88195">
        <ele>7</ele>
        <time>2018-01-07T03:11:40Z</time>
      </trkpt>
      <trkpt lat="46.67164" lon="-1.88195">
        <ele>7</ele>
        <time>2018-01-07T03:12:40Z</time>
      </trkpt>
      <trkpt lat="46.67165" lon="-1.88195">
        <ele>7</ele>
        <time>2018-01-07T03:13:40Z</time>
      </trkpt>
      <trkpt lat="46.67166" lon="-1.88195">
        <ele>7</ele>
        <time>2018-01-07T03:14:40Z</time>
      </trkpt>
      <trkpt lat="46.67167" lon="-1.88195">
        <ele>7</ele>
        <time>2018-01-07T03:15:40Z</time>
      </trkpt>
      <trkpt lat="46.67168" lon="-1.88195">
        <ele>7</ele>
        <time>2018-01-07T03:16:40Z</time>
      </trkpt>
      <trkpt lat="46.67172" lon="-1.88182">
        <ele>7</ele>
        <time>2018-01-07T03:17:40Z</time>
      </trkpt>
      <trkpt lat="46.67173" lon="-1.88176">
        <ele>7</ele>
        <time>2018-01-07T03:18:40Z</time>
      </trkpt>
      <trkpt lat="46.67174" lon="-1.8817">
        <ele>7</ele>
        <time>2018-01-07T03:19:40Z</time>
      </trkpt>
      <trkpt lat="46.67178" lon="-1.88145">
        <ele>8</ele>
        <time>2018-01-07T03:20:40Z</time>
      </trkpt>
      <trkpt lat="46.67183" lon="-1.88109">
        <ele>8</ele>
        <time>2018-01-07T03:21:40Z</time>
      </trkpt>
      <trkpt lat="46.67187" lon="-1.88081">
        <ele>9</ele>
        <time>2018-01-07T03:22:40Z</time>
      </trkpt>
      <trkpt lat="46.67193" lon="-1.88041">
        <ele>9</ele>
        <time>2018-01-07T03:23:40Z</time>
      </trkpt>
      <trkpt lat="46.67198" lon="-1.88006">
        <ele>10</ele>
        <time>2018-01-07T03:24:40Z</time>
      </trkpt>
      <trkpt lat="46.67202" lon="-1.87978">
        <ele>10</ele>
        <time>2018-01-07T03:25:40Z</time>
      </trkpt>
      <trkpt lat="46.67205" lon="-1.87955">
        <ele>10</ele>
        <time>2018-01-07T03:26:40Z</time>
      </trkpt>
      <trkpt lat="46.67208" lon="-1.87929">
        <ele>10</ele>
        <time>2018-01-07T03:27:40Z</time>
      </trkpt>
      <trkpt lat="46.67211" lon="-1.87909">
        <ele>10</ele>
        <time>2018-01-07T03:28:40Z</time>
      </trkpt>
      <trkpt lat="46.67213" lon="-1.87887">
        <ele>10</ele>
        <time>2018-01-07T03:29:40Z</time>
      </trkpt>
      <trkpt lat="46.67213" lon="-1.87872">
        <ele>10</ele>
        <time>2018-01-07T03:30:40Z</time>
      </trkpt>
      <trkpt lat="46.67213" lon="-1.87857">
        <ele>10</ele>
        <time>2018-01-07T03:31:40Z</time>
      </trkpt>
      <trkpt lat="46.67213" lon="-1.87839">
        <ele>10</ele>
        <time>2018-01-07T03:32:40Z</time>
      </trkpt>
      <trkpt lat="46.67213" lon="-1.87822">
        <ele>10</ele>
        <time>2018-01-07T03:33:40Z</time>
      </trkpt>
      <trkpt lat="46.67212" lon="-1.878">
        <ele>10</ele>
        <time>2018-01-07T03:34:40Z</time>
      </trkpt>
      <trkpt lat="46.67212" lon="-1.87783">
        <ele>10</ele>
        <time>2018-01-07T03:35:40Z</time>
      </trkpt>
      <trkpt lat="46.67212" lon="-1.87767">
        <ele>10</ele>
        <time>2018-01-07T03:36:40Z</time>
      </trkpt>
      <trkpt lat="46.67213" lon="-1.87744">
        <ele>10</ele>
        <time>2018-01-07T03:37:40Z</time>
      </trkpt>
      <trkpt lat="46.67214" lon="-1.87723">
        <ele>10</ele>
        <time>2018-01-07T03:38:40Z</time>
      </trkpt>
      <trkpt lat="46.67215" lon="-1.87698">
        <ele>11</ele>
        <time>2018-01-07T03:39:40Z</time>
      </trkpt>
      <trkpt lat="46.67217" lon="-1.87673">
        <ele>11</ele>
        <time>2018-01-07T03:40:40Z</time>
      </trkpt>
      <trkpt lat="46.67218" lon="-1.87652">
        <ele>11</ele>
        <time>2018-01-07T03:41:40Z</time>
      </trkpt>
      <trkpt lat="46.67219" lon="-1.87634">
        <ele>11</ele>
        <time>2018-01-07T03:42:40Z</time>
      </trkpt>
      <trkpt lat="46.67221" lon="-1.87616">
        <ele>11</ele>
        <time>2018-01-07T03:43:40Z</time>
      </trkpt>
      <trkpt lat="46.67224" lon="-1.87603">
        <ele>12</ele>
        <time>2018-01-07T03:44:40Z</time>
      </trkpt>
      <trkpt lat="46.67225" lon="-1.87591">
        <ele>12</ele>
        <time>2018-01-07T03:45:40Z</time>
      </trkpt>
      <trkpt lat="46.67226" lon="-1.8758">
        <ele>12</ele>
        <time>2018-01-07T03:46:40Z</time>
      </trkpt>
      <trkpt lat="46.6723" lon="-1.8755">
        <ele>12</ele>
        <time>2018-01-07T03:47:40Z</time>
      </trkpt>
      <trkpt lat="46.67232" lon="-1.87531">
        <ele>12</ele>
        <time>2018-01-07T03:48:40Z</time>
      </trkpt>
      <trkpt lat="46.67236" lon="-1.87498">
        <ele>12</ele>
        <time>2018-01-07T03:49:40Z</time>
      </trkpt>
      <trkpt lat="46.67243" lon="-1.87445">
        <ele>12</ele>
        <time>2018-01-07T03:50:40Z</time>
      </trkpt>
      <trkpt lat="46.67247" lon="-1.87411">
        <ele>12</ele>
        <time>2018-01-07T03:51:40Z</time>
      </trkpt>
      <trkpt lat="46.67247" lon="-1.87407">
        <ele>12</ele>
        <time>2018-01-07T03:52:40Z</time>
      </trkpt>
      <trkpt lat="46.6725" lon="-1.87377">
        <ele>12</ele>
        <time>2018-01-07T03:53:40Z</time>
      </trkpt>
      <trkpt lat="46.67251" lon="-1.87373">
        <ele>12</ele>
        <time>2018-01-07T03:54:40Z</time>
      </trkpt>
      <trkpt lat="46.67254" lon="-1.87333">
        <ele>11</ele>
        <time>2018-01-07T03:55:40Z</time>
      </trkpt>
      <trkpt lat="46.67256" lon="-1.87307">
        <ele>11</ele>
        <time>2018-01-07T03:56:40Z</time>
      </trkpt>
      <trkpt lat="46.6726" lon="-1.87256">
        <ele>10</ele>
        <time>2018-01-07T03:57:40Z</time>
      </trkpt>
      <trkpt lat="46.67261" lon="-1.87244">
        <ele>9</ele>
        <time>2018-01-07T03:58:40Z</time>
      </trkpt>
      <trkpt lat="46.67263" lon="-1.87218">
        <ele>9</ele>
        <time>2018-01-07T03:59:40Z</time>
      </trkpt>
      <trkpt lat="46.67264" lon="-1.87205">
        <ele>9</ele>
        <time>2018-01-07T04:00:40Z</time>
      </trkpt>
      <trkpt lat="46.67265" lon="-1.8718">
        <ele>8</ele>
        <time>2018-01-07T04:01:40Z</time>
      </trkpt>
      <trkpt lat="46.67267" lon="-1.87155">
        <ele>8</ele>
        <time>2018-01-07T04:02:40Z</time>
      </trkpt>
      <trkpt lat="46.67269" lon="-1.8713">
        <ele>9</ele>
        <time>2018-01-07T04:03:40Z</time>
      </trkpt>
      <trkpt lat="46.67272" lon="-1.87082">
        <ele>9</ele>
        <time>2018-01-07T04:04:40Z</time>
      </trkpt>
      <trkpt lat="46.67272" lon="-1.8707">
        <ele>9</ele>
        <time>2018-01-07T04:05:40Z</time>
      </trkpt>
      <trkpt lat="46.67273" lon="-1.87048">
        <ele>9</ele>
        <time>2018-01-07T04:06:40Z</time>
      </trkpt>
      <trkpt lat="46.67273" lon="-1.87028">
        <ele>8</ele>
        <time>2018-01-07T04:07:40Z</time>
      </trkpt>
      <trkpt lat="46.67271" lon="-1.87013">
        <ele>8</ele>
        <time>2018-01-07T04:08:40Z</time>
      </trkpt>
      <trkpt lat="46.67269" lon="-1.87004">
        <ele>7</ele>
        <time>2018-01-07T04:09:40Z</time>
      </trkpt>
      <trkpt lat="46.67267" lon="-1.86994">
        <ele>7</ele>
        <time>2018-01-07T04:10:40Z</time>
      </trkpt>
      <trkpt lat="46.67263" lon="-1.86983">
        <ele>6</ele>
        <time>2018-01-07T04:11:40Z</time>
      </trkpt>
      <trkpt lat="46.6726" lon="-1.86974">
        <ele>6</ele>
        <time>2018-01-07T04:12:40Z</time>
      </trkpt>
      <trkpt lat="46.67256" lon="-1.86965">
        <ele>5</ele>
        <time>2018-01-07T04:13:40Z</time>
      </trkpt>
      <trkpt lat="46.67251" lon="-1.86955">
        <ele>5</ele>
        <time>2018-01-07T04:14:40Z</time>
      </trkpt>
      <trkpt lat="46.67246" lon="-1.86946">
        <ele>5</ele>
        <time>2018-01-07T04:15:40Z</time>
      </trkpt>
      <trkpt lat="46.67228" lon="-1.8691">
        <ele>4</ele>
        <time>2018-01-07T04:16:40Z</time>
      </trkpt>
      <trkpt lat="46.67213" lon="-1.86883">
        <ele>3</ele>
        <time>2018-01-07T04:17:40Z</time>
      </trkpt>
      <trkpt lat="46.67209" lon="-1.86876">
        <ele>3</ele>
        <time>2018-01-07T04:18:40Z</time>
      </trkpt>
      <trkpt lat="46.67205" lon="-1.86869">
        <ele>3</ele>
        <time>2018-01-07T04:19:40Z</time>
      </trkpt>
      <trkpt lat="46.67202" lon="-1.86862">
        <ele>3</ele>
        <time>2018-01-07T04:20:40Z</time>
      </trkpt>
      <trkpt lat="46.67189" lon="-1.86841">
        <ele>3</ele>
        <time>2018-01-07T04:21:40Z</time>
      </trkpt>
      <trkpt lat="46.6718" lon="-1.86819">
        <ele>4</ele>
        <time>2018-01-07T04:22:40Z</time>
      </trkpt>
      <trkpt lat="46.67179" lon="-1.86815">
        <ele>4</ele>
        <time>2018-01-07T04:23:40Z</time>
      </trkpt>
      <trkpt lat="46.67177" lon="-1.86808">
        <ele>4</ele>
        <time>2018-01-07T04:24:40Z</time>
      </trkpt>
      <trkpt lat="46.67173" lon="-1.86797">
        <ele>4</ele>
        <time>2018-01-07T04:25:40Z</time>
      </trkpt>
      <trkpt lat="46.6717" lon="-1.86785">
        <ele>4</ele>
        <time>2018-01-07T04:26:40Z</time>
      </trkpt>
      <trkpt lat="46.67169" lon="-1.86772">
        <ele>5</ele>
        <time>2018-01-07T04:27:40Z</time>
      </trkpt>
      <trkpt lat="46.67167" lon="-1.86759">
        <ele>5</ele>
        <time>2018-01-07T04:28:40Z</time>
      </trkpt>
      <trkpt lat="46.67166" lon="-1.8675">
        <ele>5</ele>
        <time>2018-01-07T04:29:40Z</time>
      </trkpt>
      <trkpt lat="46.67166" lon="-1.86747">
        <ele>5</ele>
        <time>2018-01-07T04:30:40Z</time>
      </trkpt>
      <trkpt lat="46.67166" lon="-1.86732">
        <ele>6</ele>
        <time>2018-01-07T04:31:40Z</time>
      </trkpt>
      <trkpt lat="46.67166" lon="-1.86708">
        <ele>7</ele>
        <time>2018-01-07T04:32:40Z</time>
      </trkpt>
      <trkpt lat="46.67166" lon="-1.86704">
        <ele>7</ele>
        <time>2018-01-07T04:33:40Z</time>
      </trkpt>
      <trkpt lat="46.67166" lon="-1.86696">
        <ele>7</ele>
        <time>2018-01-07T04:34:40Z</time>
      </trkpt>
      <trkpt lat="46.67167" lon="-1.86684">
        <ele>7</ele>
        <time>2018-01-07T04:35:40Z</time>
      </trkpt>
      <trkpt lat="46.67168" lon="-1.86673">
        <ele>8</ele>
        <time>2018-01-07T04:36:40Z</time>
      </trkpt>
      <trkpt lat="46.67168" lon="-1.86671">
        <ele>8</ele>
        <time>2018-01-07T04:37:40Z</time>
      </trkpt>
      <trkpt lat="46.6717" lon="-1.86659">
        <ele>8</ele>
        <time>2018-01-07T04:38:40Z</time>
      </trkpt>
      <trkpt lat="46.67171" lon="-1.86648">
        <ele>8</ele>
        <time>2018-01-07T04:39:40Z</time>
      </trkpt>
      <trkpt lat="46.67172" lon="-1.86647">
        <ele>8</ele>
        <time>2018-01-07T04:40:40Z</time>
      </trkpt>
      <trkpt lat="46.67174" lon="-1.86635">
        <ele>8</ele>
        <time>2018-01-07T04:41:40Z</time>
      </trkpt>
      <trkpt lat="46.67176" lon="-1.86622">
        <ele>8</ele>
        <time>2018-01-07T04:42:40Z</time>
      </trkpt>
      <trkpt lat="46.67179" lon="-1.8661">
        <ele>8</ele>
        <time>2018-01-07T04:43:40Z</time>
      </trkpt>
      <trkpt lat="46.67183" lon="-1.86598">
        <ele>8</ele>
        <time>2018-01-07T04:44:40Z</time>
      </trkpt>
      <trkpt lat="46.6719" lon="-1.86574">
        <ele>8</ele>
        <time>2018-01-07T04:45:40Z</time>
      </trkpt>
      <trkpt lat="46.67196" lon="-1.86555">
        <ele>8</ele>
        <time>2018-01-07T04:46:40Z</time>
      </trkpt>
      <trkpt lat="46.67196" lon="-1.86553">
        <ele>8</ele>
        <time>2018-01-07T04:47:40Z</time>
      </trkpt>
      <trkpt lat="46.67202" lon="-1.86536">
        <ele>9</ele>
        <time>2018-01-07T04:48:40Z</time>
      </trkpt>
      <trkpt lat="46.67206" lon="-1.86523">
        <ele>9</ele>
        <time>2018-01-07T04:49:40Z</time>
      </trkpt>
      <trkpt lat="46.67214" lon="-1.86498">
        <ele>9</ele>
        <time>2018-01-07T04:50:40Z</time>
      </trkpt>
      <trkpt lat="46.67223" lon="-1.86467">
        <ele>10</ele>
        <time>2018-01-07T04:51:40Z</time>
      </trkpt>
      <trkpt lat="46.67229" lon="-1.86444">
        <ele>10</ele>
        <time>2018-01-07T04:52:40Z</time>
      </trkpt>
      <trkpt lat="46.67234" lon="-1.86421">
        <ele>10</ele>
        <time>2018-01-07T04:53:40Z</time>
      </trkpt>
      <trkpt lat="46.67235" lon="-1.86411">
        <ele>10</ele>
        <time>2018-01-07T04:54:40Z</time>
      </trkpt>
      <trkpt lat="46.67237" lon="-1.86399">
        <ele>10</ele>
        <time>2018-01-07T04:55:40Z</time>
      </trkpt>
      <trkpt lat="46.67241" lon="-1.8637">
        <ele>10</ele>
        <time>2018-01-07T04:56:40Z</time>
      </trkpt>
      <trkpt lat="46.67243" lon="-1.86336">
        <ele>10</ele>
        <time>2018-01-07T04:57:40Z</time>
      </trkpt>
      <trkpt lat="46.67245" lon="-1.863">
        <ele>10</ele>
        <time>2018-01-07T04:58:40Z</time>
      </trkpt>
      <trkpt lat="46.67246" lon="-1.86272">
        <ele>10</ele>
        <time>2018-01-07T04:59:40Z</time>
      </trkpt>
      <trkpt lat="46.67248" lon="-1.86257">
        <ele>10</ele>
        <time>2018-01-07T05:00:40Z</time>
      </trkpt>
      <trkpt lat="46.6725" lon="-1.86243">
        <ele>10</ele>
        <time>2018-01-07T05:01:40Z</time>
      </trkpt>
      <trkpt lat="46.67252" lon="-1.86237">
        <ele>11</ele>
        <time>2018-01-07T05:02:40Z</time>
      </trkpt>
      <trkpt lat="46.67255" lon="-1.86227">
        <ele>11</ele>
        <time>2018-01-07T05:03:40Z</time>
      </trkpt>
      <trkpt lat="46.67262" lon="-1.86208">
        <ele>11</ele>
        <time>2018-01-07T05:04:40Z</time>
      </trkpt>
      <trkpt lat="46.6727" lon="-1.86185">
        <ele>12</ele>
        <time>2018-01-07T05:05:40Z</time>
      </trkpt>
      <trkpt lat="46.67276" lon="-1.86168">
        <ele>12</ele>
        <time>2018-01-07T05:06:40Z</time>
      </trkpt>
      <trkpt lat="46.67277" lon="-1.86165">
        <ele>12</ele>
        <time>2018-01-07T05:07:40Z</time>
      </trkpt>
      <trkpt lat="46.67283" lon="-1.86141">
        <ele>12</ele>
        <time>2018-01-07T05:08:40Z</time>
      </trkpt>
      <trkpt lat="46.67288" lon="-1.8612">
        <ele>12</ele>
        <time>2018-01-07T05:09:40Z</time>
      </trkpt>
      <trkpt lat="46.67292" lon="-1.86098">
        <ele>12</ele>
        <time>2018-01-07T05:10:40Z</time>
      </trkpt>
      <trkpt lat="46.67295" lon="-1.86076">
        <ele>13</ele>
        <time>2018-01-07T05:11:40Z</time>
      </trkpt>
      <trkpt lat="46.67296" lon="-1.86068">
        <ele>13</ele>
        <time>2018-01-07T05:12:40Z</time>
      </trkpt>
      <trkpt lat="46.67298" lon="-1.86053">
        <ele>13</ele>
        <time>2018-01-07T05:13:40Z</time>
      </trkpt>
      <trkpt lat="46.673" lon="-1.86038">
        <ele>13</ele>
        <time>2018-01-07T05:14:40Z</time>
      </trkpt>
      <trkpt lat="46.67301" lon="-1.86022">
        <ele>14</ele>
        <time>2018-01-07T05:15:40Z</time>
      </trkpt>
      <trkpt lat="46.67305" lon="-1.85977">
        <ele>15</ele>
        <time>2018-01-07T05:16:40Z</time>
      </trkpt>
      <trkpt lat="46.67306" lon="-1.85959">
        <ele>15</ele>
        <time>2018-01-07T05:17:40Z</time>
      </trkpt>
      <trkpt lat="46.67306" lon="-1.8593">
        <ele>15</ele>
        <time>2018-01-07T05:18:40Z</time>
      </trkpt>
      <trkpt lat="46.67306" lon="-1.859">
        <ele>15</ele>
        <time>2018-01-07T05:19:40Z</time>
      </trkpt>
      <trkpt lat="46.67305" lon="-1.85869">
        <ele>16</ele>
        <time>2018-01-07T05:20:40Z</time>
      </trkpt>
      <trkpt lat="46.67304" lon="-1.8584">
        <ele>16</ele>
        <time>2018-01-07T05:21:40Z</time>
      </trkpt>
      <trkpt lat="46.67302" lon="-1.8581">
        <ele>16</ele>
        <time>2018-01-07T05:22:40Z</time>
      </trkpt>
      <trkpt lat="46.67299" lon="-1.85767">
        <ele>16</ele>
        <time>2018-01-07T05:23:40Z</time>
      </trkpt>
      <trkpt lat="46.67295" lon="-1.85721">
        <ele>15</ele>
        <time>2018-01-07T05:24:40Z</time>
      </trkpt>
      <trkpt lat="46.67291" lon="-1.85677">
        <ele>15</ele>
        <time>2018-01-07T05:25:40Z</time>
      </trkpt>
      <trkpt lat="46.67288" lon="-1.85647">
        <ele>15</ele>
        <time>2018-01-07T05:26:40Z</time>
      </trkpt>
      <trkpt lat="46.67285" lon="-1.85601">
        <ele>16</ele>
        <time>2018-01-07T05:27:40Z</time>
      </trkpt>
      <trkpt lat="46.67281" lon="-1.85556">
        <ele>17</ele>
        <time>2018-01-07T05:28:40Z</time>
      </trkpt>
      <trkpt lat="46.67279" lon="-1.85526">
        <ele>17</ele>
        <time>2018-01-07T05:29:40Z</time>
      </trkpt>
      <trkpt lat="46.67275" lon="-1.8548">
        <ele>18</ele>
        <time>2018-01-07T05:30:40Z</time>
      </trkpt>
      <trkpt lat="46.67271" lon="-1.85421">
        <ele>18</ele>
        <time>2018-01-07T05:31:40Z</time>
      </trkpt>
      <trkpt lat="46.67269" lon="-1.85388">
        <ele>19</ele>
        <time>2018-01-07T05:32:40Z</time>
      </trkpt>
      <trkpt lat="46.67266" lon="-1.85362">
        <ele>19</ele>
        <time>2018-01-07T05:33:40Z</time>
      </trkpt>
      <trkpt lat="46.67263" lon="-1.85339">
        <ele>20</ele>
        <time>2018-01-07T05:34:40Z</time>
      </trkpt>
      <trkpt lat="46.6726" lon="-1.85321">
        <ele>20</ele>
        <time>2018-01-07T05:35:40Z</time>
      </trkpt>
      <trkpt lat="46.67255" lon="-1.85296">
        <ele>19</ele>
        <time>2018-01-07T05:36:40Z</time>
      </trkpt>
      <trkpt lat="46.67248" lon="-1.85268">
        <ele>19</ele>
        <time>2018-01-07T05:37:40Z</time>
      </trkpt>
      <trkpt lat="46.67239" lon="-1.85237">
        <ele>19</ele>
        <time>2018-01-07T05:38:40Z</time>
      </trkpt>
      <trkpt lat="46.67224" lon="-1.85184">
        <ele>19</ele>
        <time>2018-01-07T05:39:40Z</time>
      </trkpt>
      <trkpt lat="46.67214" lon="-1.8515">
        <ele>19</ele>
        <time>2018-01-07T05:40:40Z</time>
      </trkpt>
      <trkpt lat="46.67201" lon="-1.85109">
        <ele>19</ele>
        <time>2018-01-07T05:41:40Z</time>
      </trkpt>
      <trkpt lat="46.6719" lon="-1.85073">
        <ele>19</ele>
        <time>2018-01-07T05:42:40Z</time>
      </trkpt>
      <trkpt lat="46.67185" lon="-1.85055">
        <ele>19</ele>
        <time>2018-01-07T05:43:40Z</time>
      </trkpt>
      <trkpt lat="46.67178" lon="-1.85027">
        <ele>19</ele>
        <time>2018-01-07T05:44:40Z</time>
      </trkpt>
      <trkpt lat="46.67175" lon="-1.85014">
        <ele>18</ele>
        <time>2018-01-07T05:45:40Z</time>
      </trkpt>
      <trkpt lat="46.67172" lon="-1.84999">
        <ele>18</ele>
        <time>2018-01-07T05:46:40Z</time>
      </trkpt>
      <trkpt lat="46.67168" lon="-1.84972">
        <ele>18</ele>
        <time>2018-01-07T05:47:40Z</time>
      </trkpt>
      <trkpt lat="46.67166" lon="-1.84956">
        <ele>18</ele>
        <time>2018-01-07T05:48:40Z</time>
      </trkpt>
      <trkpt lat="46.67165" lon="-1.84941">
        <ele>18</ele>
        <time>2018-01-07T05:49:40Z</time>
      </trkpt>
      <trkpt lat="46.67164" lon="-1.84926">
        <ele>18</ele>
        <time>2018-01-07T05:50:40Z</time>
      </trkpt>
      <trkpt lat="46.67164" lon="-1.84898">
        <ele>18</ele>
        <time>2018-01-07T05:51:40Z</time>
      </trkpt>
      <trkpt lat="46.67164" lon="-1.84883">
        <ele>18</ele>
        <time>2018-01-07T05:52:40Z</time>
      </trkpt>
      <trkpt lat="46.67165" lon="-1.84868">
        <ele>18</ele>
        <time>2018-01-07T05:53:40Z</time>
      </trkpt>
      <trkpt lat="46.67167" lon="-1.8484">
        <ele>18</ele>
        <time>2018-01-07T05:54:40Z</time>
      </trkpt>
      <trkpt lat="46.67171" lon="-1.84811">
        <ele>18</ele>
        <time>2018-01-07T05:55:40Z</time>
      </trkpt>
      <trkpt lat="46.67175" lon="-1.8478">
        <ele>19</ele>
        <time>2018-01-07T05:56:40Z</time>
      </trkpt>
      <trkpt lat="46.67175" lon="-1.84769">
        <ele>19</ele>
        <time>2018-01-07T05:57:40Z</time>
      </trkpt>
      <trkpt lat="46.67182" lon="-1.84714">
        <ele>20</ele>
        <time>2018-01-07T05:58:40Z</time>
      </trkpt>
      <trkpt lat="46.67191" lon="-1.84651">
        <ele>20</ele>
        <time>2018-01-07T05:59:40Z</time>
      </trkpt>
      <trkpt lat="46.67198" lon="-1.84599">
        <ele>20</ele>
        <time>2018-01-07T06:00:40Z</time>
      </trkpt>
      <trkpt lat="46.67205" lon="-1.84549">
        <ele>20</ele>
        <time>2018-01-07T06:01:40Z</time>
      </trkpt>
      <trkpt lat="46.67212" lon="-1.84497">
        <ele>21</ele>
        <time>2018-01-07T06:02:40Z</time>
      </trkpt>
      <trkpt lat="46.67219" lon="-1.84446">
        <ele>21</ele>
        <time>2018-01-07T06:03:40Z</time>
      </trkpt>
      <trkpt lat="46.67224" lon="-1.84411">
        <ele>21</ele>
        <time>2018-01-07T06:04:40Z</time>
      </trkpt>
      <trkpt lat="46.67226" lon="-1.84398">
        <ele>21</ele>
        <time>2018-01-07T06:05:40Z</time>
      </trkpt>
      <trkpt lat="46.6723" lon="-1.84361">
        <ele>21</ele>
        <time>2018-01-07T06:06:40Z</time>
      </trkpt>
      <trkpt lat="46.67237" lon="-1.84309">
        <ele>22</ele>
        <time>2018-01-07T06:07:40Z</time>
      </trkpt>
      <trkpt lat="46.67241" lon="-1.84276">
        <ele>22</ele>
        <time>2018-01-07T06:08:40Z</time>
      </trkpt>
      <trkpt lat="46.67245" lon="-1.84242">
        <ele>22</ele>
        <time>2018-01-07T06:09:40Z</time>
      </trkpt>
      <trkpt lat="46.67247" lon="-1.84225">
        <ele>21</ele>
        <time>2018-01-07T06:10:40Z</time>
      </trkpt>
      <trkpt lat="46.67248" lon="-1.84207">
        <ele>21</ele>
        <time>2018-01-07T06:11:40Z</time>
      </trkpt>
      <trkpt lat="46.6725" lon="-1.84185">
        <ele>20</ele>
        <time>2018-01-07T06:12:40Z</time>
      </trkpt>
      <trkpt lat="46.67251" lon="-1.84138">
        <ele>20</ele>
        <time>2018-01-07T06:13:40Z</time>
      </trkpt>
      <trkpt lat="46.67252" lon="-1.84121">
        <ele>20</ele>
        <time>2018-01-07T06:14:40Z</time>
      </trkpt>
      <trkpt lat="46.67254" lon="-1.84058">
        <ele>21</ele>
        <time>2018-01-07T06:15:40Z</time>
      </trkpt>
      <trkpt lat="46.67256" lon="-1.83985">
        <ele>22</ele>
        <time>2018-01-07T06:16:40Z</time>
      </trkpt>
      <trkpt lat="46.67257" lon="-1.83925">
        <ele>23</ele>
        <time>2018-01-07T06:17:40Z</time>
      </trkpt>
      <trkpt lat="46.67257" lon="-1.83897">
        <ele>23</ele>
        <time>2018-01-07T06:18:40Z</time>
      </trkpt>
      <trkpt lat="46.67256" lon="-1.83874">
        <ele>23</ele>
        <time>2018-01-07T06:19:40Z</time>
      </trkpt>
      <trkpt lat="46.67254" lon="-1.83845">
        <ele>23</ele>
        <time>2018-01-07T06:20:40Z</time>
      </trkpt>
      <trkpt lat="46.67252" lon="-1.83824">
        <ele>23</ele>
        <time>2018-01-07T06:21:40Z</time>
      </trkpt>
      <trkpt lat="46.67252" lon="-1.8382">
        <ele>23</ele>
        <time>2018-01-07T06:22:40Z</time>
      </trkpt>
      <trkpt lat="46.67251" lon="-1.83814">
        <ele>23</ele>
        <time>2018-01-07T06:23:40Z</time>
      </trkpt>
      <trkpt lat="46.67246" lon="-1.83765">
        <ele>23</ele>
        <time>2018-01-07T06:24:40Z</time>
      </trkpt>
      <trkpt lat="46.67241" lon="-1.83718">
        <ele>22</ele>
        <time>2018-01-07T06:25:40Z</time>
      </trkpt>
      <trkpt lat="46.67236" lon="-1.83657">
        <ele>21</ele>
        <time>2018-01-07T06:26:40Z</time>
      </trkpt>
      <trkpt lat="46.67229" lon="-1.83588">
        <ele>20</ele>
        <time>2018-01-07T06:27:40Z</time>
      </trkpt>
      <trkpt lat="46.67226" lon="-1.83557">
        <ele>20</ele>
        <time>2018-01-07T06:28:40Z</time>
      </trkpt>
      <trkpt lat="46.67223" lon="-1.8354">
        <ele>20</ele>
        <time>2018-01-07T06:29:40Z</time>
      </trkpt>
      <trkpt lat="46.67218" lon="-1.83519">
        <ele>20</ele>
        <time>2018-01-07T06:30:40Z</time>
      </trkpt>
      <trkpt lat="46.67214" lon="-1.83501">
        <ele>21</ele>
        <time>2018-01-07T06:31:40Z</time>
      </trkpt>
      <trkpt lat="46.67207" lon="-1.83477">
        <ele>21</ele>
        <time>2018-01-07T06:32:40Z</time>
      </trkpt>
      <trkpt lat="46.67201" lon="-1.83461">
        <ele>21</ele>
        <time>2018-01-07T06:33:40Z</time>
      </trkpt>
      <trkpt lat="46.67196" lon="-1.83446">
        <ele>21</ele>
        <time>2018-01-07T06:34:40Z</time>
      </trkpt>
      <trkpt lat="46.67186" lon="-1.83413">
        <ele>21</ele>
        <time>2018-01-07T06:35:40Z</time>
      </trkpt>
      <trkpt lat="46.67174" lon="-1.83374">
        <ele>22</ele>
        <time>2018-01-07T06:36:40Z</time>
      </trkpt>
      <trkpt lat="46.6716" lon="-1.83332">
        <ele>23</ele>
        <time>2018-01-07T06:37:40Z</time>
      </trkpt>
      <trkpt lat="46.67147" lon="-1.83295">
        <ele>22</ele>
        <time>2018-01-07T06:38:40Z</time>
      </trkpt>
      <trkpt lat="46.67135" lon="-1.83267">
        <ele>22</ele>
        <time>2018-01-07T06:39:40Z</time>
      </trkpt>
      <trkpt lat="46.6712" lon="-1.8323">
        <ele>22</ele>
        <time>2018-01-07T06:40:40Z</time>
      </trkpt>
      <trkpt lat="46.67104" lon="-1.83196">
        <ele>21</ele>
        <time>2018-01-07T06:41:40Z</time>
      </trkpt>
      <trkpt lat="46.67088" lon="-1.83161">
        <ele>21</ele>
        <time>2018-01-07T06:42:40Z</time>
      </trkpt>
      <trkpt lat="46.67068" lon="-1.83121">
        <ele>20</ele>
        <time>2018-01-07T06:43:40Z</time>
      </trkpt>
      <trkpt lat="46.67064" lon="-1.83112">
        <ele>20</ele>
        <time>2018-01-07T06:44:40Z</time>
      </trkpt>
      <trkpt lat="46.67063" lon="-1.83109">
        <ele>20</ele>
        <time>2018-01-07T06:45:40Z</time>
      </trkpt>
      <trkpt lat="46.67051" lon="-1.83086">
        <ele>19</ele>
        <time>2018-01-07T06:46:40Z</time>
      </trkpt>
      <trkpt lat="46.6704" lon="-1.83062">
        <ele>19</ele>
        <time>2018-01-07T06:47:40Z</time>
      </trkpt>
      <trkpt lat="46.67035" lon="-1.8305">
        <ele>18</ele>
        <time>2018-01-07T06:48:40Z</time>
      </trkpt>
      <trkpt lat="46.6703" lon="-1.83036">
        <ele>18</ele>
        <time>2018-01-07T06:49:40Z</time>
      </trkpt>
      <trkpt lat="46.67022" lon="-1.8301">
        <ele>18</ele>
        <time>2018-01-07T06:50:40Z</time>
      </trkpt>
      <trkpt lat="46.67014" lon="-1.82981">
        <ele>18</ele>
        <time>2018-01-07T06:51:40Z</time>
      </trkpt>
      <trkpt lat="46.67012" lon="-1.82975">
        <ele>18</ele>
        <time>2018-01-07T06:52:40Z</time>
      </trkpt>
      <trkpt lat="46.67012" lon="-1.82973">
        <ele>18</ele>
        <time>2018-01-07T06:53:40Z</time>
      </trkpt>
      <trkpt lat="46.67007" lon="-1.82957">
        <ele>18</ele>
        <time>2018-01-07T06:54:40Z</time>
      </trkpt>
      <trkpt lat="46.67005" lon="-1.82947">
        <ele>18</ele>
        <time>2018-01-07T06:55:40Z</time>
      </trkpt>
      <trkpt lat="46.67001" lon="-1.8293">
        <ele>18</ele>
        <time>2018-01-07T06:56:40Z</time>
      </trkpt>
      <trkpt lat="46.66997" lon="-1.82913">
        <ele>18</ele>
        <time>2018-01-07T06:57:40Z</time>
      </trkpt>
      <trkpt lat="46.66996" lon="-1.82904">
        <ele>18</ele>
        <time>2018-01-07T06:58:40Z</time>
      </trkpt>
      <trkpt lat="46.66995" lon="-1.82892">
        <ele>18</ele>
        <time>2018-01-07T06:59:40Z</time>
      </trkpt>
      <trkpt lat="46.66995" lon="-1.82876">
        <ele>18</ele>
        <time>2018-01-07T07:00:40Z</time>
      </trkpt>
      <trkpt lat="46.66995" lon="-1.82867">
        <ele>18</ele>
        <time>2018-01-07T07:01:40Z</time>
      </trkpt>
      <trkpt lat="46.66995" lon="-1.8286">
        <ele>18</ele>
        <time>2018-01-07T07:02:40Z</time>
      </trkpt>
      <trkpt lat="46.66995" lon="-1.82856">
        <ele>18</ele>
        <time>2018-01-07T07:03:40Z</time>
      </trkpt>
      <trkpt lat="46.66996" lon="-1.8285">
        <ele>18</ele>
        <time>2018-01-07T07:04:40Z</time>
      </trkpt>
      <trkpt lat="46.66997" lon="-1.82846">
        <ele>18</ele>
        <time>2018-01-07T07:05:40Z</time>
      </trkpt>
      <trkpt lat="46.67002" lon="-1.82833">
        <ele>18</ele>
        <time>2018-01-07T07:06:40Z</time>
      </trkpt>
      <trkpt lat="46.6701" lon="-1.82811">
        <ele>18</ele>
        <time>2018-01-07T07:07:40Z</time>
      </trkpt>
      <trkpt lat="46.67016" lon="-1.82794">
        <ele>18</ele>
        <time>2018-01-07T07:08:40Z</time>
      </trkpt>
      <trkpt lat="46.67021" lon="-1.82782">
        <ele>18</ele>
        <time>2018-01-07T07:09:40Z</time>
      </trkpt>
      <trkpt lat="46.67025" lon="-1.82771">
        <ele>18</ele>
        <time>2018-01-07T07:10:40Z</time>
      </trkpt>
      <trkpt lat="46.67029" lon="-1.82759">
        <ele>18</ele>
        <time>2018-01-07T07:11:40Z</time>
      </trkpt>
      <trkpt lat="46.67034" lon="-1.8274">
        <ele>19</ele>
        <time>2018-01-07T07:12:40Z</time>
      </trkpt>
      <trkpt lat="46.67039" lon="-1.82724">
        <ele>20</ele>
        <time>2018-01-07T07:13:40Z</time>
      </trkpt>
      <trkpt lat="46.67042" lon="-1.82709">
        <ele>20</ele>
        <time>2018-01-07T07:14:40Z</time>
      </trkpt>
      <trkpt lat="46.67043" lon="-1.82709">
        <ele>21</ele>
        <time>2018-01-07T07:15:40Z</time>
      </trkpt>
      <trkpt lat="46.67045" lon="-1.82699">
        <ele>21</ele>
        <time>2018-01-07T07:16:40Z</time>
      </trkpt>
      <trkpt lat="46.67045" lon="-1.82694">
        <ele>21</ele>
        <time>2018-01-07T07:17:40Z</time>
      </trkpt>
      <trkpt lat="46.67045" lon="-1.82694">
        <ele>21</ele>
        <time>2018-01-07T07:18:40Z</time>
      </trkpt>
      <trkpt lat="46.67045" lon="-1.82687">
        <ele>22</ele>
        <time>2018-01-07T07:19:40Z</time>
      </trkpt>
      <trkpt lat="46.67048" lon="-1.82684">
        <ele>22</ele>
        <time>2018-01-07T07:20:40Z</time>
      </trkpt>
      <trkpt lat="46.67059" lon="-1.82675">
        <ele>22</ele>
        <time>2018-01-07T07:21:40Z</time>
      </trkpt>
      <trkpt lat="46.67059" lon="-1.82675">
        <ele>22</ele>
        <time>2018-01-07T07:22:40Z</time>
      </trkpt>
      <trkpt lat="46.6706" lon="-1.82674">
        <ele>22</ele>
        <time>2018-01-07T07:23:40Z</time>
      </trkpt>
      <trkpt lat="46.6706" lon="-1.82673">
        <ele>22</ele>
        <time>2018-01-07T07:24:40Z</time>
      </trkpt>
      <trkpt lat="46.6706" lon="-1.82672">
        <ele>22</ele>
        <time>2018-01-07T07:25:40Z</time>
      </trkpt>
      <trkpt lat="46.6706" lon="-1.82671">
        <ele>23</ele>
        <time>2018-01-07T07:26:40Z</time>
      </trkpt>
      <trkpt lat="46.67061" lon="-1.8267">
        <ele>23</ele>
        <time>2018-01-07T07:27:40Z</time>
      </trkpt>
      <trkpt lat="46.67061" lon="-1.82669">
        <ele>23</ele>
        <time>2018-01-07T07:28:40Z</time>
      </trkpt>
      <trkpt lat="46.67061" lon="-1.82668">
        <ele>23</ele>
        <time>2018-01-07T07:29:40Z</time>
      </trkpt>
      <trkpt lat="46.67062" lon="-1.82667">
        <ele>23</ele>
        <time>2018-01-07T07:30:40Z</time>
      </trkpt>
      <trkpt lat="46.67063" lon="-1.82666">
        <ele>23</ele>
        <time>2018-01-07T07:31:40Z</time>
      </trkpt>
      <trkpt lat="46.67063" lon="-1.82665">
        <ele>23</ele>
        <time>2018-01-07T07:32:40Z</time>
      </trkpt>
      <trkpt lat="46.67064" lon="-1.82665">
        <ele>23</ele>
        <time>2018-01-07T07:33:40Z</time>
      </trkpt>
      <trkpt lat="46.67064" lon="-1.82664">
        <ele>23</ele>
        <time>2018-01-07T07:34:40Z</time>
      </trkpt>
      <trkpt lat="46.67065" lon="-1.82663">
        <ele>23</ele>
        <time>2018-01-07T07:35:40Z</time>
      </trkpt>
      <trkpt lat="46.67066" lon="-1.82663">
        <ele>23</ele>
        <time>2018-01-07T07:36:40Z</time>
      </trkpt>
      <trkpt lat="46.67067" lon="-1.82662">
        <ele>23</ele>
        <time>2018-01-07T07:37:40Z</time>
      </trkpt>
      <trkpt lat="46.67068" lon="-1.82662">
        <ele>23</ele>
        <time>2018-01-07T07:38:40Z</time>
      </trkpt>
      <trkpt lat="46.67069" lon="-1.82662">
        <ele>23</ele>
        <time>2018-01-07T07:39:40Z</time>
      </trkpt>
      <trkpt lat="46.67069" lon="-1.82661">
        <ele>23</ele>
        <time>2018-01-07T07:40:40Z</time>
      </trkpt>
      <trkpt lat="46.6707" lon="-1.82661">
        <ele>23</ele>
        <time>2018-01-07T07:41:40Z</time>
      </trkpt>
      <trkpt lat="46.67074" lon="-1.82649">
        <ele>24</ele>
        <time>2018-01-07T07:42:40Z</time>
      </trkpt>
      <trkpt lat="46.67077" lon="-1.82641">
        <ele>24</ele>
        <time>2018-01-07T07:43:40Z</time>
      </trkpt>
      <trkpt lat="46.67078" lon="-1.82634">
        <ele>25</ele>
        <time>2018-01-07T07:44:40Z</time>
      </trkpt>
      <trkpt lat="46.67079" lon="-1.82617">
        <ele>25</ele>
        <time>2018-01-07T07:45:40Z</time>
      </trkpt>
      <trkpt lat="46.6708" lon="-1.82612">
        <ele>26</ele>
        <time>2018-01-07T07:46:40Z</time>
      </trkpt>
      <trkpt lat="46.6708" lon="-1.82607">
        <ele>26</ele>
        <time>2018-01-07T07:47:40Z</time>
      </trkpt>
      <trkpt lat="46.67082" lon="-1.82601">
        <ele>26</ele>
        <time>2018-01-07T07:48:40Z</time>
      </trkpt>
      <trkpt lat="46.67084" lon="-1.82595">
        <ele>26</ele>
        <time>2018-01-07T07:49:40Z</time>
      </trkpt>
      <trkpt lat="46.67086" lon="-1.82589">
        <ele>27</ele>
        <time>2018-01-07T07:50:40Z</time>
      </trkpt>
      <trkpt lat="46.67088" lon="-1.82583">
        <ele>27</ele>
        <time>2018-01-07T07:51:40Z</time>
      </trkpt>
      <trkpt lat="46.67092" lon="-1.82577">
        <ele>27</ele>
        <time>2018-01-07T07:52:40Z</time>
      </trkpt>
      <trkpt lat="46.67098" lon="-1.82565">
        <ele>28</ele>
        <time>2018-01-07T07:53:40Z</time>
      </trkpt>
      <trkpt lat="46.67106" lon="-1.82553">
        <ele>29</ele>
        <time>2018-01-07T07:54:40Z</time>
      </trkpt>
      <trkpt lat="46.67113" lon="-1.82541">
        <ele>29</ele>
        <time>2018-01-07T07:55:40Z</time>
      </trkpt>
      <trkpt lat="46.67128" lon="-1.82518">
        <ele>30</ele>
        <time>2018-01-07T07:56:40Z</time>
      </trkpt>
      <trkpt lat="46.67136" lon="-1.82506">
        <ele>31</ele>
        <time>2018-01-07T07:57:40Z</time>
      </trkpt>
      <trkpt lat="46.67143" lon="-1.82493">
        <ele>31</ele>
        <time>2018-01-07T07:58:40Z</time>
      </trkpt>
      <trkpt lat="46.67149" lon="-1.8248">
        <ele>31</ele>
        <time>2018-01-07T07:59:40Z</time>
      </trkpt>
      <trkpt lat="46.67158" lon="-1.82461">
        <ele>31</ele>
        <time>2018-01-07T08:00:40Z</time>
      </trkpt>
      <trkpt lat="46.67172" lon="-1.82433">
        <ele>31</ele>
        <time>2018-01-07T08:01:40Z</time>
      </trkpt>
      <trkpt lat="46.67192" lon="-1.8239">
        <ele>32</ele>
        <time>2018-01-07T08:02:40Z</time>
      </trkpt>
      <trkpt lat="46.67207" lon="-1.82355">
        <ele>32</ele>
        <time>2018-01-07T08:03:40Z</time>
      </trkpt>
      <trkpt lat="46.67223" lon="-1.82319">
        <ele>32</ele>
        <time>2018-01-07T08:04:40Z</time>
      </trkpt>
      <trkpt lat="46.67229" lon="-1.82304">
        <ele>32</ele>
        <time>2018-01-07T08:05:40Z</time>
      </trkpt>
      <trkpt lat="46.67235" lon="-1.82289">
        <ele>32</ele>
        <time>2018-01-07T08:06:40Z</time>
      </trkpt>
      <trkpt lat="46.67245" lon="-1.82267">
        <ele>32</ele>
        <time>2018-01-07T08:07:40Z</time>
      </trkpt>
      <trkpt lat="46.67251" lon="-1.82252">
        <ele>32</ele>
        <time>2018-01-07T08:08:40Z</time>
      </trkpt>
      <trkpt lat="46.67261" lon="-1.8223">
        <ele>32</ele>
        <time>2018-01-07T08:09:40Z</time>
      </trkpt>
      <trkpt lat="46.6727" lon="-1.82207">
        <ele>32</ele>
        <time>2018-01-07T08:10:40Z</time>
      </trkpt>
      <trkpt lat="46.6728" lon="-1.82178">
        <ele>32</ele>
        <time>2018-01-07T08:11:40Z</time>
      </trkpt>
      <trkpt lat="46.67285" lon="-1.82162">
        <ele>32</ele>
        <time>2018-01-07T08:12:40Z</time>
      </trkpt>
      <trkpt lat="46.6729" lon="-1.82148">
        <ele>32</ele>
        <time>2018-01-07T08:13:40Z</time>
      </trkpt>
      <trkpt lat="46.67305" lon="-1.82105">
        <ele>32</ele>
        <time>2018-01-07T08:14:40Z</time>
      </trkpt>
      <trkpt lat="46.6731" lon="-1.8209">
        <ele>32</ele>
        <time>2018-01-07T08:15:40Z</time>
      </trkpt>
      <trkpt lat="46.67317" lon="-1.82062">
        <ele>33</ele>
        <time>2018-01-07T08:16:40Z</time>
      </trkpt>
      <trkpt lat="46.67327" lon="-1.82026">
        <ele>33</ele>
        <time>2018-01-07T08:17:40Z</time>
      </trkpt>
      <trkpt lat="46.6733" lon="-1.82015">
        <ele>33</ele>
        <time>2018-01-07T08:18:40Z</time>
      </trkpt>
      <trkpt lat="46.67337" lon="-1.81992">
        <ele>33</ele>
        <time>2018-01-07T08:19:40Z</time>
      </trkpt>
      <trkpt lat="46.67347" lon="-1.8196">
        <ele>33</ele>
        <time>2018-01-07T08:20:40Z</time>
      </trkpt>
      <trkpt lat="46.67353" lon="-1.81943">
        <ele>33</ele>
        <time>2018-01-07T08:21:40Z</time>
      </trkpt>
      <trkpt lat="46.67364" lon="-1.81917">
        <ele>32</ele>
        <time>2018-01-07T08:22:40Z</time>
      </trkpt>
      <trkpt lat="46.67373" lon="-1.81897">
        <ele>32</ele>
        <time>2018-01-07T08:23:40Z</time>
      </trkpt>
      <trkpt lat="46.67386" lon="-1.81865">
        <ele>32</ele>
        <time>2018-01-07T08:24:40Z</time>
      </trkpt>
      <trkpt lat="46.67391" lon="-1.81851">
        <ele>32</ele>
        <time>2018-01-07T08:25:40Z</time>
      </trkpt>
      <trkpt lat="46.67395" lon="-1.81838">
        <ele>32</ele>
        <time>2018-01-07T08:26:40Z</time>
      </trkpt>
      <trkpt lat="46.67399" lon="-1.81824">
        <ele>32</ele>
        <time>2018-01-07T08:27:40Z</time>
      </trkpt>
      <trkpt lat="46.67402" lon="-1.81808">
        <ele>32</ele>
        <time>2018-01-07T08:28:40Z</time>
      </trkpt>
      <trkpt lat="46.67406" lon="-1.81783">
        <ele>32</ele>
        <time>2018-01-07T08:29:40Z</time>
      </trkpt>
      <trkpt lat="46.6741" lon="-1.8174">
        <ele>32</ele>
        <time>2018-01-07T08:30:40Z</time>
      </trkpt>
      <trkpt lat="46.67414" lon="-1.81695">
        <ele>32</ele>
        <time>2018-01-07T08:31:40Z</time>
      </trkpt>
      <trkpt lat="46.67416" lon="-1.81674">
        <ele>32</ele>
        <time>2018-01-07T08:32:40Z</time>
      </trkpt>
      <trkpt lat="46.67418" lon="-1.81652">
        <ele>32</ele>
        <time>2018-01-07T08:33:40Z</time>
      </trkpt>
      <trkpt lat="46.67422" lon="-1.81623">
        <ele>32</ele>
        <time>2018-01-07T08:34:40Z</time>
      </trkpt>
      <trkpt lat="46.67426" lon="-1.81595">
        <ele>32</ele>
        <time>2018-01-07T08:35:40Z</time>
      </trkpt>
      <trkpt lat="46.67432" lon="-1.81568">
        <ele>33</ele>
        <time>2018-01-07T08:36:40Z</time>
      </trkpt>
      <trkpt lat="46.67442" lon="-1.81528">
        <ele>34</ele>
        <time>2018-01-07T08:37:40Z</time>
      </trkpt>
      <trkpt lat="46.67449" lon="-1.81501">
        <ele>35</ele>
        <time>2018-01-07T08:38:40Z</time>
      </trkpt>
      <trkpt lat="46.67457" lon="-1.81468">
        <ele>35</ele>
        <time>2018-01-07T08:39:40Z</time>
      </trkpt>
      <trkpt lat="46.67465" lon="-1.81438">
        <ele>35</ele>
        <time>2018-01-07T08:40:40Z</time>
      </trkpt>
      <trkpt lat="46.67471" lon="-1.8142">
        <ele>35</ele>
        <time>2018-01-07T08:41:40Z</time>
      </trkpt>
      <trkpt lat="46.67481" lon="-1.81393">
        <ele>35</ele>
        <time>2018-01-07T08:42:40Z</time>
      </trkpt>
      <trkpt lat="46.67488" lon="-1.8137">
        <ele>35</ele>
        <time>2018-01-07T08:43:40Z</time>
      </trkpt>
      <trkpt lat="46.67493" lon="-1.81347">
        <ele>35</ele>
        <time>2018-01-07T08:44:40Z</time>
      </trkpt>
      <trkpt lat="46.67498" lon="-1.81323">
        <ele>35</ele>
        <time>2018-01-07T08:45:40Z</time>
      </trkpt>
      <trkpt lat="46.67501" lon="-1.81301">
        <ele>35</ele>
        <time>2018-01-07T08:46:40Z</time>
      </trkpt>
      <trkpt lat="46.67503" lon="-1.81276">
        <ele>36</ele>
        <time>2018-01-07T08:47:40Z</time>
      </trkpt>
      <trkpt lat="46.67504" lon="-1.81254">
        <ele>36</ele>
        <time>2018-01-07T08:48:40Z</time>
      </trkpt>
      <trkpt lat="46.67504" lon="-1.81229">
        <ele>36</ele>
        <time>2018-01-07T08:49:40Z</time>
      </trkpt>
      <trkpt lat="46.67505" lon="-1.81206">
        <ele>35</ele>
        <time>2018-01-07T08:50:40Z</time>
      </trkpt>
      <trkpt lat="46.67505" lon="-1.81181">
        <ele>34</ele>
        <time>2018-01-07T08:51:40Z</time>
      </trkpt>
      <trkpt lat="46.67506" lon="-1.81156">
        <ele>34</ele>
        <time>2018-01-07T08:52:40Z</time>
      </trkpt>
      <trkpt lat="46.67506" lon="-1.81131">
        <ele>33</ele>
        <time>2018-01-07T08:53:40Z</time>
      </trkpt>
      <trkpt lat="46.67508" lon="-1.81105">
        <ele>32</ele>
        <time>2018-01-07T08:54:40Z</time>
      </trkpt>
      <trkpt lat="46.67511" lon="-1.81078">
        <ele>31</ele>
        <time>2018-01-07T08:55:40Z</time>
      </trkpt>
      <trkpt lat="46.67514" lon="-1.81053">
        <ele>32</ele>
        <time>2018-01-07T08:56:40Z</time>
      </trkpt>
      <trkpt lat="46.67518" lon="-1.81026">
        <ele>32</ele>
        <time>2018-01-07T08:57:40Z</time>
      </trkpt>
      <trkpt lat="46.67521" lon="-1.81013">
        <ele>32</ele>
        <time>2018-01-07T08:58:40Z</time>
      </trkpt>
      <trkpt lat="46.67525" lon="-1.80989">
        <ele>33</ele>
        <time>2018-01-07T08:59:40Z</time>
      </trkpt>
      <trkpt lat="46.67545" lon="-1.80903">
        <ele>35</ele>
        <time>2018-01-07T09:00:40Z</time>
      </trkpt>
      <trkpt lat="46.67555" lon="-1.80865">
        <ele>35</ele>
        <time>2018-01-07T09:01:40Z</time>
      </trkpt>
      <trkpt lat="46.67562" lon="-1.80834">
        <ele>35</ele>
        <time>2018-01-07T09:02:40Z</time>
      </trkpt>
      <trkpt lat="46.67565" lon="-1.80813">
        <ele>36</ele>
        <time>2018-01-07T09:03:40Z</time>
      </trkpt>
      <trkpt lat="46.67569" lon="-1.80785">
        <ele>36</ele>
        <time>2018-01-07T09:04:40Z</time>
      </trkpt>
      <trkpt lat="46.67571" lon="-1.80759">
        <ele>36</ele>
        <time>2018-01-07T09:05:40Z</time>
      </trkpt>
      <trkpt lat="46.67573" lon="-1.80732">
        <ele>36</ele>
        <time>2018-01-07T09:06:40Z</time>
      </trkpt>
      <trkpt lat="46.67573" lon="-1.80715">
        <ele>36</ele>
        <time>2018-01-07T09:07:40Z</time>
      </trkpt>
      <trkpt lat="46.67572" lon="-1.80697">
        <ele>37</ele>
        <time>2018-01-07T09:08:40Z</time>
      </trkpt>
      <trkpt lat="46.67571" lon="-1.80684">
        <ele>37</ele>
        <time>2018-01-07T09:09:40Z</time>
      </trkpt>
      <trkpt lat="46.6757" lon="-1.80645">
        <ele>37</ele>
        <time>2018-01-07T09:10:40Z</time>
      </trkpt>
      <trkpt lat="46.67571" lon="-1.80611">
        <ele>38</ele>
        <time>2018-01-07T09:11:40Z</time>
      </trkpt>
      <trkpt lat="46.67571" lon="-1.80579">
        <ele>38</ele>
        <time>2018-01-07T09:12:40Z</time>
      </trkpt>
      <trkpt lat="46.67572" lon="-1.80542">
        <ele>37</ele>
        <time>2018-01-07T09:13:40Z</time>
      </trkpt>
      <trkpt lat="46.67572" lon="-1.80522">
        <ele>37</ele>
        <time>2018-01-07T09:14:40Z</time>
      </trkpt>
      <trkpt lat="46.67571" lon="-1.80495">
        <ele>37</ele>
        <time>2018-01-07T09:15:40Z</time>
      </trkpt>
      <trkpt lat="46.67571" lon="-1.80464">
        <ele>37</ele>
        <time>2018-01-07T09:16:40Z</time>
      </trkpt>
      <trkpt lat="46.67571" lon="-1.80439">
        <ele>37</ele>
        <time>2018-01-07T09:17:40Z</time>
      </trkpt>
      <trkpt lat="46.6757" lon="-1.80409">
        <ele>37</ele>
        <time>2018-01-07T09:18:40Z</time>
      </trkpt>
      <trkpt lat="46.6757" lon="-1.80378">
        <ele>37</ele>
        <time>2018-01-07T09:19:40Z</time>
      </trkpt>
      <trkpt lat="46.6757" lon="-1.80352">
        <ele>37</ele>
        <time>2018-01-07T09:20:40Z</time>
      </trkpt>
      <trkpt lat="46.67569" lon="-1.80328">
        <ele>37</ele>
        <time>2018-01-07T09:21:40Z</time>
      </trkpt>
      <trkpt lat="46.67569" lon="-1.8031">
        <ele>37</ele>
        <time>2018-01-07T09:22:40Z</time>
      </trkpt>
      <trkpt lat="46.67566" lon="-1.80289">
        <ele>36</ele>
        <time>2018-01-07T09:23:40Z</time>
      </trkpt>
      <trkpt lat="46.67564" lon="-1.80267">
        <ele>36</ele>
        <time>2018-01-07T09:24:40Z</time>
      </trkpt>
      <trkpt lat="46.67559" lon="-1.80243">
        <ele>36</ele>
        <time>2018-01-07T09:25:40Z</time>
      </trkpt>
      <trkpt lat="46.67555" lon="-1.80217">
        <ele>36</ele>
        <time>2018-01-07T09:26:40Z</time>
      </trkpt>
      <trkpt lat="46.67551" lon="-1.80193">
        <ele>36</ele>
        <time>2018-01-07T09:27:40Z</time>
      </trkpt>
      <trkpt lat="46.67549" lon="-1.80168">
        <ele>37</ele>
        <time>2018-01-07T09:28:40Z</time>
      </trkpt>
      <trkpt lat="46.67548" lon="-1.8014">
        <ele>37</ele>
        <time>2018-01-07T09:29:40Z</time>
      </trkpt>
      <trkpt lat="46.67548" lon="-1.80112">
        <ele>38</ele>
        <time>2018-01-07T09:30:40Z</time>
      </trkpt>
      <trkpt lat="46.67549" lon="-1.80084">
        <ele>38</ele>
        <time>2018-01-07T09:31:40Z</time>
      </trkpt>
      <trkpt lat="46.6755" lon="-1.80059">
        <ele>38</ele>
        <time>2018-01-07T09:32:40Z</time>
      </trkpt>
      <trkpt lat="46.67553" lon="-1.80032">
        <ele>39</ele>
        <time>2018-01-07T09:33:40Z</time>
      </trkpt>
      <trkpt lat="46.67553" lon="-1.80026">
        <ele>39</ele>
        <time>2018-01-07T09:34:40Z</time>
      </trkpt>
      <trkpt lat="46.67556" lon="-1.79998">
        <ele>39</ele>
        <time>2018-01-07T09:35:40Z</time>
      </trkpt>
      <trkpt lat="46.67558" lon="-1.79986">
        <ele>39</ele>
        <time>2018-01-07T09:36:40Z</time>
      </trkpt>
      <trkpt lat="46.6756" lon="-1.79973">
        <ele>39</ele>
        <time>2018-01-07T09:37:40Z</time>
      </trkpt>
      <trkpt lat="46.67561" lon="-1.79961">
        <ele>40</ele>
        <time>2018-01-07T09:38:40Z</time>
      </trkpt>
      <trkpt lat="46.67568" lon="-1.79939">
        <ele>40</ele>
        <time>2018-01-07T09:39:40Z</time>
      </trkpt>
      <trkpt lat="46.67575" lon="-1.79917">
        <ele>41</ele>
        <time>2018-01-07T09:40:40Z</time>
      </trkpt>
      <trkpt lat="46.67579" lon="-1.79906">
        <ele>41</ele>
        <time>2018-01-07T09:41:40Z</time>
      </trkpt>
      <trkpt lat="46.67583" lon="-1.79895">
        <ele>41</ele>
        <time>2018-01-07T09:42:40Z</time>
      </trkpt>
      <trkpt lat="46.67589" lon="-1.79878">
        <ele>42</ele>
        <time>2018-01-07T09:43:40Z</time>
      </trkpt>
      <trkpt lat="46.67594" lon="-1.79861">
        <ele>42</ele>
        <time>2018-01-07T09:44:40Z</time>
      </trkpt>
      <trkpt lat="46.67597" lon="-1.79849">
        <ele>42</ele>
        <time>2018-01-07T09:45:40Z</time>
      </trkpt>
      <trkpt lat="46.67599" lon="-1.79837">
        <ele>42</ele>
        <time>2018-01-07T09:46:40Z</time>
      </trkpt>
      <trkpt lat="46.67601" lon="-1.79826">
        <ele>42</ele>
        <time>2018-01-07T09:47:40Z</time>
      </trkpt>
      <trkpt lat="46.67603" lon="-1.79809">
        <ele>42</ele>
        <time>2018-01-07T09:48:40Z</time>
      </trkpt>
      <trkpt lat="46.67604" lon="-1.79787">
        <ele>42</ele>
        <time>2018-01-07T09:49:40Z</time>
      </trkpt>
      <trkpt lat="46.67605" lon="-1.79761">
        <ele>41</ele>
        <time>2018-01-07T09:50:40Z</time>
      </trkpt>
      <trkpt lat="46.67607" lon="-1.79732">
        <ele>41</ele>
        <time>2018-01-07T09:51:40Z</time>
      </trkpt>
      <trkpt lat="46.6761" lon="-1.79707">
        <ele>41</ele>
        <time>2018-01-07T09:52:40Z</time>
      </trkpt>
      <trkpt lat="46.67613" lon="-1.79687">
        <ele>41</ele>
        <time>2018-01-07T09:53:40Z</time>
      </trkpt>
      <trkpt lat="46.6762" lon="-1.79658">
        <ele>40</ele>
        <time>2018-01-07T09:54:40Z</time>
      </trkpt>
      <trkpt lat="46.67625" lon="-1.79639">
        <ele>40</ele>
        <time>2018-01-07T09:55:40Z</time>
      </trkpt>
      <trkpt lat="46.6763" lon="-1.79615">
        <ele>40</ele>
        <time>2018-01-07T09:56:40Z</time>
      </trkpt>
      <trkpt lat="46.67633" lon="-1.79592">
        <ele>40</ele>
        <time>2018-01-07T09:57:40Z</time>
      </trkpt>
      <trkpt lat="46.67634" lon="-1.79568">
        <ele>40</ele>
        <time>2018-01-07T09:58:40Z</time>
      </trkpt>
      <trkpt lat="46.67634" lon="-1.79556">
        <ele>40</ele>
        <time>2018-01-07T09:59:40Z</time>
      </trkpt>
      <trkpt lat="46.67634" lon="-1.79544">
        <ele>40</ele>
        <time>2018-01-07T10:00:40Z</time>
      </trkpt>
      <trkpt lat="46.67631" lon="-1.79521">
        <ele>39</ele>
        <time>2018-01-07T10:01:40Z</time>
      </trkpt>
      <trkpt lat="46.67629" lon="-1.79509">
        <ele>39</ele>
        <time>2018-01-07T10:02:40Z</time>
      </trkpt>
      <trkpt lat="46.67627" lon="-1.79499">
        <ele>39</ele>
        <time>2018-01-07T10:03:40Z</time>
      </trkpt>
      <trkpt lat="46.67623" lon="-1.79488">
        <ele>40</ele>
        <time>2018-01-07T10:04:40Z</time>
      </trkpt>
      <trkpt lat="46.6762" lon="-1.79477">
        <ele>40</ele>
        <time>2018-01-07T10:05:40Z</time>
      </trkpt>
      <trkpt lat="46.67609" lon="-1.7945">
        <ele>40</ele>
        <time>2018-01-07T10:06:40Z</time>
      </trkpt>
      <trkpt lat="46.67599" lon="-1.79426">
        <ele>41</ele>
        <time>2018-01-07T10:07:40Z</time>
      </trkpt>
      <trkpt lat="46.67596" lon="-1.79417">
        <ele>41</ele>
        <time>2018-01-07T10:08:40Z</time>
      </trkpt>
      <trkpt lat="46.67593" lon="-1.79407">
        <ele>41</ele>
        <time>2018-01-07T10:09:40Z</time>
      </trkpt>
      <trkpt lat="46.6759" lon="-1.79398">
        <ele>41</ele>
        <time>2018-01-07T10:10:40Z</time>
      </trkpt>
      <trkpt lat="46.67586" lon="-1.79387">
        <ele>41</ele>
        <time>2018-01-07T10:11:40Z</time>
      </trkpt>
      <trkpt lat="46.67583" lon="-1.79372">
        <ele>42</ele>
        <time>2018-01-07T10:12:40Z</time>
      </trkpt>
      <trkpt lat="46.67581" lon="-1.79355">
        <ele>42</ele>
        <time>2018-01-07T10:13:40Z</time>
      </trkpt>
      <trkpt lat="46.6758" lon="-1.7934">
        <ele>42</ele>
        <time>2018-01-07T10:14:40Z</time>
      </trkpt>
      <trkpt lat="46.6758" lon="-1.79328">
        <ele>42</ele>
        <time>2018-01-07T10:15:40Z</time>
      </trkpt>
      <trkpt lat="46.67579" lon="-1.79279">
        <ele>43</ele>
        <time>2018-01-07T10:16:40Z</time>
      </trkpt>
      <trkpt lat="46.67578" lon="-1.79253">
        <ele>43</ele>
        <time>2018-01-07T10:17:40Z</time>
      </trkpt>
      <trkpt lat="46.67577" lon="-1.79214">
        <ele>43</ele>
        <time>2018-01-07T10:18:40Z</time>
      </trkpt>
      <trkpt lat="46.67576" lon="-1.79175">
        <ele>43</ele>
        <time>2018-01-07T10:19:40Z</time>
      </trkpt>
      <trkpt lat="46.67576" lon="-1.79159">
        <ele>43</ele>
        <time>2018-01-07T10:20:40Z</time>
      </trkpt>
      <trkpt lat="46.67576" lon="-1.79128">
        <ele>42</ele>
        <time>2018-01-07T10:21:40Z</time>
      </trkpt>
      <trkpt lat="46.67575" lon="-1.79106">
        <ele>42</ele>
        <time>2018-01-07T10:22:40Z</time>
      </trkpt>
      <trkpt lat="46.67572" lon="-1.79082">
        <ele>42</ele>
        <time>2018-01-07T10:23:40Z</time>
      </trkpt>
      <trkpt lat="46.67569" lon="-1.79056">
        <ele>41</ele>
        <time>2018-01-07T10:24:40Z</time>
      </trkpt>
      <trkpt lat="46.67565" lon="-1.79025">
        <ele>41</ele>
        <time>2018-01-07T10:25:40Z</time>
      </trkpt>
      <trkpt lat="46.67559" lon="-1.7899">
        <ele>40</ele>
        <time>2018-01-07T10:26:40Z</time>
      </trkpt>
      <trkpt lat="46.67556" lon="-1.78967">
        <ele>39</ele>
        <time>2018-01-07T10:27:40Z</time>
      </trkpt>
      <trkpt lat="46.67551" lon="-1.78936">
        <ele>37</ele>
        <time>2018-01-07T10:28:40Z</time>
      </trkpt>
      <trkpt lat="46.67545" lon="-1.78909">
        <ele>36</ele>
        <time>2018-01-07T10:29:40Z</time>
      </trkpt>
      <trkpt lat="46.6754" lon="-1.78889">
        <ele>36</ele>
        <time>2018-01-07T10:30:40Z</time>
      </trkpt>
      <trkpt lat="46.67532" lon="-1.7886">
        <ele>36</ele>
        <time>2018-01-07T10:31:40Z</time>
      </trkpt>
      <trkpt lat="46.67527" lon="-1.78838">
        <ele>36</ele>
        <time>2018-01-07T10:32:40Z</time>
      </trkpt>
      <trkpt lat="46.67523" lon="-1.78821">
        <ele>36</ele>
        <time>2018-01-07T10:33:40Z</time>
      </trkpt>
      <trkpt lat="46.67515" lon="-1.78791">
        <ele>36</ele>
        <time>2018-01-07T10:34:40Z</time>
      </trkpt>
      <trkpt lat="46.67513" lon="-1.78783">
        <ele>36</ele>
        <time>2018-01-07T10:35:40Z</time>
      </trkpt>
      <trkpt lat="46.67506" lon="-1.78755">
        <ele>36</ele>
        <time>2018-01-07T10:36:40Z</time>
      </trkpt>
      <trkpt lat="46.67499" lon="-1.78726">
        <ele>36</ele>
        <time>2018-01-07T10:37:40Z</time>
      </trkpt>
      <trkpt lat="46.67491" lon="-1.78695">
        <ele>36</ele>
        <time>2018-01-07T10:38:40Z</time>
      </trkpt>
      <trkpt lat="46.67481" lon="-1.78658">
        <ele>36</ele>
        <time>2018-01-07T10:39:40Z</time>
      </trkpt>
      <trkpt lat="46.67471" lon="-1.78619">
        <ele>35</ele>
        <time>2018-01-07T10:40:40Z</time>
      </trkpt>
      <trkpt lat="46.67465" lon="-1.78601">
        <ele>35</ele>
        <time>2018-01-07T10:41:40Z</time>
      </trkpt>
      <trkpt lat="46.67462" lon="-1.78591">
        <ele>35</ele>
        <time>2018-01-07T10:42:40Z</time>
      </trkpt>
      <trkpt lat="46.67457" lon="-1.78584">
        <ele>36</ele>
        <time>2018-01-07T10:43:40Z</time>
      </trkpt>
      <trkpt lat="46.67454" lon="-1.78576">
        <ele>36</ele>
        <time>2018-01-07T10:44:40Z</time>
      </trkpt>
      <trkpt lat="46.6745" lon="-1.7857">
        <ele>36</ele>
        <time>2018-01-07T10:45:40Z</time>
      </trkpt>
      <trkpt lat="46.67448" lon="-1.78566">
        <ele>36</ele>
        <time>2018-01-07T10:46:40Z</time>
      </trkpt>
      <trkpt lat="46.67445" lon="-1.78562">
        <ele>36</ele>
        <time>2018-01-07T10:47:40Z</time>
      </trkpt>
      <trkpt lat="46.67442" lon="-1.78559">
        <ele>36</ele>
        <time>2018-01-07T10:48:40Z</time>
      </trkpt>
      <trkpt lat="46.67442" lon="-1.78559">
        <ele>36</ele>
        <time>2018-01-07T10:49:40Z</time>
      </trkpt>
      <trkpt lat="46.67445" lon="-1.78554">
        <ele>36</ele>
        <time>2018-01-07T10:50:40Z</time>
      </trkpt>
      <trkpt lat="46.67451" lon="-1.78547">
        <ele>36</ele>
        <time>2018-01-07T10:51:40Z</time>
      </trkpt>
      <trkpt lat="46.67466" lon="-1.78526">
        <ele>36</ele>
        <time>2018-01-07T10:52:40Z</time>
      </trkpt>
      <trkpt lat="46.67492" lon="-1.78492">
        <ele>36</ele>
        <time>2018-01-07T10:53:40Z</time>
      </trkpt>
      <trkpt lat="46.67526" lon="-1.78446">
        <ele>38</ele>
        <time>2018-01-07T10:54:40Z</time>
      </trkpt>
      <trkpt lat="46.67553" lon="-1.78408">
        <ele>39</ele>
        <time>2018-01-07T10:55:40Z</time>
      </trkpt>
      <trkpt lat="46.67586" lon="-1.78364">
        <ele>40</ele>
        <time>2018-01-07T10:56:40Z</time>
      </trkpt>
      <trkpt lat="46.6762" lon="-1.78317">
        <ele>41</ele>
        <time>2018-01-07T10:57:40Z</time>
      </trkpt>
      <trkpt lat="46.67664" lon="-1.78259">
        <ele>42</ele>
        <time>2018-01-07T10:58:40Z</time>
      </trkpt>
      <trkpt lat="46.67694" lon="-1.78218">
        <ele>42</ele>
        <time>2018-01-07T10:59:40Z</time>
      </trkpt>
      <trkpt lat="46.67715" lon="-1.7819">
        <ele>43</ele>
        <time>2018-01-07T11:00:40Z</time>
      </trkpt>
      <trkpt lat="46.67728" lon="-1.78173">
        <ele>43</ele>
        <time>2018-01-07T11:01:40Z</time>
      </trkpt>
      <trkpt lat="46.67753" lon="-1.78138">
        <ele>44</ele>
        <time>2018-01-07T11:02:40Z</time>
      </trkpt>
      <trkpt lat="46.67773" lon="-1.78109">
        <ele>44</ele>
        <time>2018-01-07T11:03:40Z</time>
      </trkpt>
      <trkpt lat="46.67796" lon="-1.7808">
        <ele>44</ele>
        <time>2018-01-07T11:04:40Z</time>
      </trkpt>
      <trkpt lat="46.67821" lon="-1.78044">
        <ele>45</ele>
        <time>2018-01-07T11:05:40Z</time>
      </trkpt>
      <trkpt lat="46.67845" lon="-1.78011">
        <ele>45</ele>
        <time>2018-01-07T11:06:40Z</time>
      </trkpt>
      <trkpt lat="46.67852" lon="-1.78001">
        <ele>45</ele>
        <time>2018-01-07T11:07:40Z</time>
      </trkpt>
      <trkpt lat="46.67874" lon="-1.77973">
        <ele>46</ele>
        <time>2018-01-07T11:08:40Z</time>
      </trkpt>
      <trkpt lat="46.67895" lon="-1.77943">
        <ele>46</ele>
        <time>2018-01-07T11:09:40Z</time>
      </trkpt>
      <trkpt lat="46.67917" lon="-1.77914">
        <ele>47</ele>
        <time>2018-01-07T11:10:40Z</time>
      </trkpt>
      <trkpt lat="46.67939" lon="-1.77884">
        <ele>47</ele>
        <time>2018-01-07T11:11:40Z</time>
      </trkpt>
      <trkpt lat="46.67964" lon="-1.77851">
        <ele>48</ele>
        <time>2018-01-07T11:12:40Z</time>
      </trkpt>
      <trkpt lat="46.67988" lon="-1.77817">
        <ele>49</ele>
        <time>2018-01-07T11:13:40Z</time>
      </trkpt>
      <trkpt lat="46.68012" lon="-1.77785">
        <ele>49</ele>
        <time>2018-01-07T11:14:40Z</time>
      </trkpt>
      <trkpt lat="46.68046" lon="-1.77739">
        <ele>49</ele>
        <time>2018-01-07T11:15:40Z</time>
      </trkpt>
      <trkpt lat="46.68063" lon="-1.77717">
        <ele>49</ele>
        <time>2018-01-07T11:16:40Z</time>
      </trkpt>
      <trkpt lat="46.68081" lon="-1.77694">
        <ele>49</ele>
        <time>2018-01-07T11:17:40Z</time>
      </trkpt>
      <trkpt lat="46.68098" lon="-1.77671">
        <ele>50</ele>
        <time>2018-01-07T11:18:40Z</time>
      </trkpt>
      <trkpt lat="46.68112" lon="-1.77655">
        <ele>50</ele>
        <time>2018-01-07T11:19:40Z</time>
      </trkpt>
      <trkpt lat="46.68125" lon="-1.77641">
        <ele>50</ele>
        <time>2018-01-07T11:20:40Z</time>
      </trkpt>
      <trkpt lat="46.6814" lon="-1.77627">
        <ele>50</ele>
        <time>2018-01-07T11:21:40Z</time>
      </trkpt>
      <trkpt lat="46.68155" lon="-1.77615">
        <ele>50</ele>
        <time>2018-01-07T11:22:40Z</time>
      </trkpt>
      <trkpt lat="46.68193" lon="-1.77584">
        <ele>50</ele>
        <time>2018-01-07T11:23:40Z</time>
      </trkpt>
      <trkpt lat="46.68229" lon="-1.77556">
        <ele>51</ele>
        <time>2018-01-07T11:24:40Z</time>
      </trkpt>
      <trkpt lat="46.68269" lon="-1.77524">
        <ele>51</ele>
        <time>2018-01-07T11:25:40Z</time>
      </trkpt>
      <trkpt lat="46.68299" lon="-1.775">
        <ele>51</ele>
        <time>2018-01-07T11:26:40Z</time>
      </trkpt>
      <trkpt lat="46.68317" lon="-1.77486">
        <ele>51</ele>
        <time>2018-01-07T11:27:40Z</time>
      </trkpt>
      <trkpt lat="46.68335" lon="-1.77471">
        <ele>52</ele>
        <time>2018-01-07T11:28:40Z</time>
      </trkpt>
      <trkpt lat="46.68357" lon="-1.77453">
        <ele>52</ele>
        <time>2018-01-07T11:29:40Z</time>
      </trkpt>
      <trkpt lat="46.68372" lon="-1.77439">
        <ele>52</ele>
        <time>2018-01-07T11:30:40Z</time>
      </trkpt>
      <trkpt lat="46.68389" lon="-1.77423">
        <ele>52</ele>
        <time>2018-01-07T11:31:40Z</time>
      </trkpt>
      <trkpt lat="46.68404" lon="-1.77409">
        <ele>52</ele>
        <time>2018-01-07T11:32:40Z</time>
      </trkpt>
      <trkpt lat="46.68424" lon="-1.77386">
        <ele>53</ele>
        <time>2018-01-07T11:33:40Z</time>
      </trkpt>
      <trkpt lat="46.68442" lon="-1.77365">
        <ele>54</ele>
        <time>2018-01-07T11:34:40Z</time>
      </trkpt>
      <trkpt lat="46.6846" lon="-1.77344">
        <ele>54</ele>
        <time>2018-01-07T11:35:40Z</time>
      </trkpt>
      <trkpt lat="46.68486" lon="-1.77314">
        <ele>55</ele>
        <time>2018-01-07T11:36:40Z</time>
      </trkpt>
      <trkpt lat="46.68511" lon="-1.77283">
        <ele>56</ele>
        <time>2018-01-07T11:37:40Z</time>
      </trkpt>
      <trkpt lat="46.68544" lon="-1.77245">
        <ele>57</ele>
        <time>2018-01-07T11:38:40Z</time>
      </trkpt>
      <trkpt lat="46.68572" lon="-1.7721">
        <ele>57</ele>
        <time>2018-01-07T11:39:40Z</time>
      </trkpt>
      <trkpt lat="46.68597" lon="-1.77181">
        <ele>57</ele>
        <time>2018-01-07T11:40:40Z</time>
      </trkpt>
      <trkpt lat="46.68715" lon="-1.77046">
        <ele>56</ele>
        <time>2018-01-07T11:41:40Z</time>
      </trkpt>
      <trkpt lat="46.688" lon="-1.76944">
        <ele>54</ele>
        <time>2018-01-07T11:42:40Z</time>
      </trkpt>
      <trkpt lat="46.688" lon="-1.76943">
        <ele>54</ele>
        <time>2018-01-07T11:43:40Z</time>
      </trkpt>
      <trkpt lat="46.68799" lon="-1.76943">
        <ele>54</ele>
        <time>2018-01-07T11:44:40Z</time>
      </trkpt>
      <trkpt lat="46.68799" lon="-1.76942">
        <ele>54</ele>
        <time>2018-01-07T11:45:40Z</time>
      </trkpt>
      <trkpt lat="46.68799" lon="-1.76941">
        <ele>54</ele>
        <time>2018-01-07T11:46:40Z</time>
      </trkpt>
      <trkpt lat="46.68799" lon="-1.7694">
        <ele>54</ele>
        <time>2018-01-07T11:47:40Z</time>
      </trkpt>
      <trkpt lat="46.68798" lon="-1.76939">
        <ele>54</ele>
        <time>2018-01-07T11:48:40Z</time>
      </trkpt>
      <trkpt lat="46.68798" lon="-1.76938">
        <ele>54</ele>
        <time>2018-01-07T11:49:40Z</time>
      </trkpt>
      <trkpt lat="46.68798" lon="-1.76937">
        <ele>54</ele>
        <time>2018-01-07T11:50:40Z</time>
      </trkpt>
      <trkpt lat="46.68798" lon="-1.76936">
        <ele>54</ele>
        <time>2018-01-07T11:51:40Z</time>
      </trkpt>
      <trkpt lat="46.68798" lon="-1.76935">
        <ele>54</ele>
        <time>2018-01-07T11:52:40Z</time>
      </trkpt>
      <trkpt lat="46.68799" lon="-1.76935">
        <ele>54</ele>
        <time>2018-01-07T11:53:40Z</time>
      </trkpt>
      <trkpt lat="46.68799" lon="-1.76934">
        <ele>54</ele>
        <time>2018-01-07T11:54:40Z</time>
      </trkpt>
      <trkpt lat="46.68799" lon="-1.76933">
        <ele>54</ele>
        <time>2018-01-07T11:55:40Z</time>
      </trkpt>
      <trkpt lat="46.68799" lon="-1.76932">
        <ele>54</ele>
        <time>2018-01-07T11:56:40Z</time>
      </trkpt>
      <trkpt lat="46.68799" lon="-1.76931">
        <ele>54</ele>
        <time>2018-01-07T11:57:40Z</time>
      </trkpt>
      <trkpt lat="46.688" lon="-1.76931">
        <ele>54</ele>
        <time>2018-01-07T11:58:40Z</time>
      </trkpt>
      <trkpt lat="46.688" lon="-1.7693">
        <ele>54</ele>
        <time>2018-01-07T11:59:40Z</time>
      </trkpt>
      <trkpt lat="46.688" lon="-1.76929">
        <ele>54</ele>
        <time>2018-01-07T12:00:40Z</time>
      </trkpt>
      <trkpt lat="46.68801" lon="-1.76929">
        <ele>54</ele>
        <time>2018-01-07T12:01:40Z</time>
      </trkpt>
      <trkpt lat="46.68801" lon="-1.76928">
        <ele>54</ele>
        <time>2018-01-07T12:02:40Z</time>
      </trkpt>
      <trkpt lat="46.68802" lon="-1.76928">
        <ele>54</ele>
        <time>2018-01-07T12:03:40Z</time>
      </trkpt>
      <trkpt lat="46.68802" lon="-1.76927">
        <ele>54</ele>
        <time>2018-01-07T12:04:40Z</time>
      </trkpt>
      <trkpt lat="46.68803" lon="-1.76927">
        <ele>54</ele>
        <time>2018-01-07T12:05:40Z</time>
      </trkpt>
      <trkpt lat="46.68804" lon="-1.76927">
        <ele>54</ele>
        <time>2018-01-07T12:06:40Z</time>
      </trkpt>
      <trkpt lat="46.68804" lon="-1.76926">
        <ele>54</ele>
        <time>2018-01-07T12:07:40Z</time>
      </trkpt>
      <trkpt lat="46.68805" lon="-1.76926">
        <ele>54</ele>
        <time>2018-01-07T12:08:40Z</time>
      </trkpt>
      <trkpt lat="46.68806" lon="-1.76926">
        <ele>54</ele>
        <time>2018-01-07T12:09:40Z</time>
      </trkpt>
      <trkpt lat="46.68807" lon="-1.76926">
        <ele>54</ele>
        <time>2018-01-07T12:10:40Z</time>
      </trkpt>
      <trkpt lat="46.68808" lon="-1.76926">
        <ele>54</ele>
        <time>2018-01-07T12:11:40Z</time>
      </trkpt>
      <trkpt lat="46.68808" lon="-1.76927">
        <ele>54</ele>
        <time>2018-01-07T12:12:40Z</time>
      </trkpt>
      <trkpt lat="46.68809" lon="-1.76927">
        <ele>54</ele>
        <time>2018-01-07T12:13:40Z</time>
      </trkpt>
      <trkpt lat="46.6881" lon="-1.76928">
        <ele>54</ele>
        <time>2018-01-07T12:14:40Z</time>
      </trkpt>
      <trkpt lat="46.68811" lon="-1.76929">
        <ele>54</ele>
        <time>2018-01-07T12:15:40Z</time>
      </trkpt>
      <trkpt lat="46.68811" lon="-1.7693">
        <ele>54</ele>
        <time>2018-01-07T12:16:40Z</time>
      </trkpt>
      <trkpt lat="46.68812" lon="-1.7693">
        <ele>54</ele>
        <time>2018-01-07T12:17:40Z</time>
      </trkpt>
      <trkpt lat="46.68812" lon="-1.76931">
        <ele>54</ele>
        <time>2018-01-07T12:18:40Z</time>
      </trkpt>
      <trkpt lat="46.68812" lon="-1.76932">
        <ele>54</ele>
        <time>2018-01-07T12:19:40Z</time>
      </trkpt>
      <trkpt lat="46.68813" lon="-1.76932">
        <ele>54</ele>
        <time>2018-01-07T12:20:40Z</time>
      </trkpt>
      <trkpt lat="46.68864" lon="-1.76891">
        <ele>54</ele>
        <time>2018-01-07T12:21:40Z</time>
      </trkpt>
      <trkpt lat="46.68864" lon="-1.7689">
        <ele>54</ele>
        <time>2018-01-07T12:22:40Z</time>
      </trkpt>
      <trkpt lat="46.68864" lon="-1.76889">
        <ele>54</ele>
        <time>2018-01-07T12:23:40Z</time>
      </trkpt>
      <trkpt lat="46.68863" lon="-1.76889">
        <ele>54</ele>
        <time>2018-01-07T12:24:40Z</time>
      </trkpt>
      <trkpt lat="46.68863" lon="-1.76888">
        <ele>54</ele>
        <time>2018-01-07T12:25:40Z</time>
      </trkpt>
      <trkpt lat="46.68863" lon="-1.76887">
        <ele>54</ele>
        <time>2018-01-07T12:26:40Z</time>
      </trkpt>
      <trkpt lat="46.68863" lon="-1.76886">
        <ele>54</ele>
        <time>2018-01-07T12:27:40Z</time>
      </trkpt>
      <trkpt lat="46.68863" lon="-1.76885">
        <ele>54</ele>
        <time>2018-01-07T12:28:40Z</time>
      </trkpt>
      <trkpt lat="46.68863" lon="-1.76884">
        <ele>54</ele>
        <time>2018-01-07T12:29:40Z</time>
      </trkpt>
      <trkpt lat="46.68863" lon="-1.76883">
        <ele>54</ele>
        <time>2018-01-07T12:30:40Z</time>
      </trkpt>
      <trkpt lat="46.68864" lon="-1.76882">
        <ele>54</ele>
        <time>2018-01-07T12:31:40Z</time>
      </trkpt>
      <trkpt lat="46.68864" lon="-1.76881">
        <ele>54</ele>
        <time>2018-01-07T12:32:40Z</time>
      </trkpt>
      <trkpt lat="46.68864" lon="-1.7688">
        <ele>54</ele>
        <time>2018-01-07T12:33:40Z</time>
      </trkpt>
      <trkpt lat="46.68865" lon="-1.76879">
        <ele>54</ele>
        <time>2018-01-07T12:34:40Z</time>
      </trkpt>
      <trkpt lat="46.68865" lon="-1.76878">
        <ele>54</ele>
        <time>2018-01-07T12:35:40Z</time>
      </trkpt>
      <trkpt lat="46.68866" lon="-1.76878">
        <ele>54</ele>
        <time>2018-01-07T12:36:40Z</time>
      </trkpt>
      <trkpt lat="46.68866" lon="-1.76877">
        <ele>54</ele>
        <time>2018-01-07T12:37:40Z</time>
      </trkpt>
      <trkpt lat="46.68867" lon="-1.76877">
        <ele>54</ele>
        <time>2018-01-07T12:38:40Z</time>
      </trkpt>
      <trkpt lat="46.68867" lon="-1.76876">
        <ele>54</ele>
        <time>2018-01-07T12:39:40Z</time>
      </trkpt>
      <trkpt lat="46.68868" lon="-1.76875">
        <ele>54</ele>
        <time>2018-01-07T12:40:40Z</time>
      </trkpt>
      <trkpt lat="46.68869" lon="-1.76875">
        <ele>54</ele>
        <time>2018-01-07T12:41:40Z</time>
      </trkpt>
      <trkpt lat="46.68869" lon="-1.76874">
        <ele>54</ele>
        <time>2018-01-07T12:42:40Z</time>
      </trkpt>
      <trkpt lat="46.6887" lon="-1.76874">
        <ele>54</ele>
        <time>2018-01-07T12:43:40Z</time>
      </trkpt>
      <trkpt lat="46.68871" lon="-1.76874">
        <ele>54</ele>
        <time>2018-01-07T12:44:40Z</time>
      </trkpt>
      <trkpt lat="46.68872" lon="-1.76874">
        <ele>54</ele>
        <time>2018-01-07T12:45:40Z</time>
      </trkpt>
      <trkpt lat="46.68873" lon="-1.76874">
        <ele>54</ele>
        <time>2018-01-07T12:46:40Z</time>
      </trkpt>
      <trkpt lat="46.68874" lon="-1.76874">
        <ele>54</ele>
        <time>2018-01-07T12:47:40Z</time>
      </trkpt>
      <trkpt lat="46.68874" lon="-1.76875">
        <ele>54</ele>
        <time>2018-01-07T12:48:40Z</time>
      </trkpt>
      <trkpt lat="46.68875" lon="-1.76875">
        <ele>54</ele>
        <time>2018-01-07T12:49:40Z</time>
      </trkpt>
      <trkpt lat="46.68875" lon="-1.76876">
        <ele>54</ele>
        <time>2018-01-07T12:50:40Z</time>
      </trkpt>
      <trkpt lat="46.68876" lon="-1.76876">
        <ele>54</ele>
        <time>2018-01-07T12:51:40Z</time>
      </trkpt>
      <trkpt lat="46.68876" lon="-1.76877">
        <ele>54</ele>
        <time>2018-01-07T12:52:40Z</time>
      </trkpt>
      <trkpt lat="46.68877" lon="-1.76877">
        <ele>54</ele>
        <time>2018-01-07T12:53:40Z</time>
      </trkpt>
      <trkpt lat="46.68877" lon="-1.76878">
        <ele>54</ele>
        <time>2018-01-07T12:54:40Z</time>
      </trkpt>
      <trkpt lat="46.68878" lon="-1.76879">
        <ele>54</ele>
        <time>2018-01-07T12:55:40Z</time>
      </trkpt>
      <trkpt lat="46.68891" lon="-1.76866">
        <ele>54</ele>
        <time>2018-01-07T12:56:40Z</time>
      </trkpt>
      <trkpt lat="46.68893" lon="-1.76863">
        <ele>54</ele>
        <time>2018-01-07T12:57:40Z</time>
      </trkpt>
      <trkpt lat="46.68913" lon="-1.76842">
        <ele>54</ele>
        <time>2018-01-07T12:58:40Z</time>
      </trkpt>
      <trkpt lat="46.68946" lon="-1.76813">
        <ele>54</ele>
        <time>2018-01-07T12:59:40Z</time>
      </trkpt>
      <trkpt lat="46.68964" lon="-1.76796">
        <ele>55</ele>
        <time>2018-01-07T13:00:40Z</time>
      </trkpt>
      <trkpt lat="46.68992" lon="-1.76782">
        <ele>56</ele>
        <time>2018-01-07T13:01:40Z</time>
      </trkpt>
      <trkpt lat="46.69024" lon="-1.76766">
        <ele>56</ele>
        <time>2018-01-07T13:02:40Z</time>
      </trkpt>
      <trkpt lat="46.69031" lon="-1.76763">
        <ele>56</ele>
        <time>2018-01-07T13:03:40Z</time>
      </trkpt>
      <trkpt lat="46.69039" lon="-1.76759">
        <ele>56</ele>
        <time>2018-01-07T13:04:40Z</time>
      </trkpt>
      <trkpt lat="46.6905" lon="-1.76753">
        <ele>56</ele>
        <time>2018-01-07T13:05:40Z</time>
      </trkpt>
      <trkpt lat="46.69064" lon="-1.76747">
        <ele>55</ele>
        <time>2018-01-07T13:06:40Z</time>
      </trkpt>
      <trkpt lat="46.69069" lon="-1.76744">
        <ele>55</ele>
        <time>2018-01-07T13:07:40Z</time>
      </trkpt>
      <trkpt lat="46.69079" lon="-1.76741">
        <ele>55</ele>
        <time>2018-01-07T13:08:40Z</time>
      </trkpt>
      <trkpt lat="46.69083" lon="-1.7674">
        <ele>55</ele>
        <time>2018-01-07T13:09:40Z</time>
      </trkpt>
      <trkpt lat="46.69097" lon="-1.76737">
        <ele>55</ele>
        <time>2018-01-07T13:10:40Z</time>
      </trkpt>
      <trkpt lat="46.69113" lon="-1.76734">
        <ele>55</ele>
        <time>2018-01-07T13:11:40Z</time>
      </trkpt>
      <trkpt lat="46.69132" lon="-1.76732">
        <ele>55</ele>
        <time>2018-01-07T13:12:40Z</time>
      </trkpt>
      <trkpt lat="46.69139" lon="-1.76731">
        <ele>55</ele>
        <time>2018-01-07T13:13:40Z</time>
      </trkpt>
      <trkpt lat="46.69143" lon="-1.7673">
        <ele>55</ele>
        <time>2018-01-07T13:14:40Z</time>
      </trkpt>
      <trkpt lat="46.69151" lon="-1.76728">
        <ele>54</ele>
        <time>2018-01-07T13:15:40Z</time>
      </trkpt>
      <trkpt lat="46.69162" lon="-1.76726">
        <ele>54</ele>
        <time>2018-01-07T13:16:40Z</time>
      </trkpt>
      <trkpt lat="46.69166" lon="-1.76724">
        <ele>54</ele>
        <time>2018-01-07T13:17:40Z</time>
      </trkpt>
      <trkpt lat="46.69178" lon="-1.7672">
        <ele>54</ele>
        <time>2018-01-07T13:18:40Z</time>
      </trkpt>
      <trkpt lat="46.69182" lon="-1.76719">
        <ele>54</ele>
        <time>2018-01-07T13:19:40Z</time>
      </trkpt>
      <trkpt lat="46.69195" lon="-1.76713">
        <ele>54</ele>
        <time>2018-01-07T13:20:40Z</time>
      </trkpt>
      <trkpt lat="46.69212" lon="-1.76706">
        <ele>53</ele>
        <time>2018-01-07T13:21:40Z</time>
      </trkpt>
      <trkpt lat="46.69228" lon="-1.76697">
        <ele>53</ele>
        <time>2018-01-07T13:22:40Z</time>
      </trkpt>
      <trkpt lat="46.6925" lon="-1.76686">
        <ele>53</ele>
        <time>2018-01-07T13:23:40Z</time>
      </trkpt>
      <trkpt lat="46.69272" lon="-1.76675">
        <ele>52</ele>
        <time>2018-01-07T13:24:40Z</time>
      </trkpt>
      <trkpt lat="46.69301" lon="-1.7666">
        <ele>52</ele>
        <time>2018-01-07T13:25:40Z</time>
      </trkpt>
      <trkpt lat="46.69319" lon="-1.76651">
        <ele>51</ele>
        <time>2018-01-07T13:26:40Z</time>
      </trkpt>
      <trkpt lat="46.69338" lon="-1.76641">
        <ele>51</ele>
        <time>2018-01-07T13:27:40Z</time>
      </trkpt>
      <trkpt lat="46.69346" lon="-1.76637">
        <ele>51</ele>
        <time>2018-01-07T13:28:40Z</time>
      </trkpt>
      <trkpt lat="46.6937" lon="-1.76624">
        <ele>50</ele>
        <time>2018-01-07T13:29:40Z</time>
      </trkpt>
      <trkpt lat="46.69385" lon="-1.76617">
        <ele>50</ele>
        <time>2018-01-07T13:30:40Z</time>
      </trkpt>
      <trkpt lat="46.69404" lon="-1.76606">
        <ele>49</ele>
        <time>2018-01-07T13:31:40Z</time>
      </trkpt>
      <trkpt lat="46.69412" lon="-1.766">
        <ele>49</ele>
        <time>2018-01-07T13:32:40Z</time>
      </trkpt>
      <trkpt lat="46.69419" lon="-1.76595">
        <ele>49</ele>
        <time>2018-01-07T13:33:40Z</time>
      </trkpt>
      <trkpt lat="46.69424" lon="-1.76591">
        <ele>49</ele>
        <time>2018-01-07T13:34:40Z</time>
      </trkpt>
      <trkpt lat="46.69436" lon="-1.76583">
        <ele>48</ele>
        <time>2018-01-07T13:35:40Z</time>
      </trkpt>
      <trkpt lat="46.69438" lon="-1.76581">
        <ele>48</ele>
        <time>2018-01-07T13:36:40Z</time>
      </trkpt>
      <trkpt lat="46.69441" lon="-1.76578">
        <ele>48</ele>
        <time>2018-01-07T13:37:40Z</time>
      </trkpt>
      <trkpt lat="46.69451" lon="-1.7657">
        <ele>48</ele>
        <time>2018-01-07T13:38:40Z</time>
      </trkpt>
      <trkpt lat="46.69464" lon="-1.76557">
        <ele>47</ele>
        <time>2018-01-07T13:39:40Z</time>
      </trkpt>
      <trkpt lat="46.6948" lon="-1.76543">
        <ele>47</ele>
        <time>2018-01-07T13:40:40Z</time>
      </trkpt>
      <trkpt lat="46.69496" lon="-1.76528">
        <ele>46</ele>
        <time>2018-01-07T13:41:40Z</time>
      </trkpt>
      <trkpt lat="46.69509" lon="-1.76516">
        <ele>46</ele>
        <time>2018-01-07T13:42:40Z</time>
      </trkpt>
      <trkpt lat="46.69524" lon="-1.76501">
        <ele>45</ele>
        <time>2018-01-07T13:43:40Z</time>
      </trkpt>
      <trkpt lat="46.69539" lon="-1.76488">
        <ele>44</ele>
        <time>2018-01-07T13:44:40Z</time>
      </trkpt>
      <trkpt lat="46.69552" lon="-1.76476">
        <ele>43</ele>
        <time>2018-01-07T13:45:40Z</time>
      </trkpt>
      <trkpt lat="46.69557" lon="-1.76471">
        <ele>42</ele>
        <time>2018-01-07T13:46:40Z</time>
      </trkpt>
      <trkpt lat="46.69579" lon="-1.76447">
        <ele>40</ele>
        <time>2018-01-07T13:47:40Z</time>
      </trkpt>
      <trkpt lat="46.69581" lon="-1.76444">
        <ele>40</ele>
        <time>2018-01-07T13:48:40Z</time>
      </trkpt>
      <trkpt lat="46.69594" lon="-1.76433">
        <ele>39</ele>
        <time>2018-01-07T13:49:40Z</time>
      </trkpt>
      <trkpt lat="46.69604" lon="-1.76425">
        <ele>38</ele>
        <time>2018-01-07T13:50:40Z</time>
      </trkpt>
      <trkpt lat="46.69605" lon="-1.76424">
        <ele>38</ele>
        <time>2018-01-07T13:51:40Z</time>
      </trkpt>
      <trkpt lat="46.69618" lon="-1.76414">
        <ele>38</ele>
        <time>2018-01-07T13:52:40Z</time>
      </trkpt>
      <trkpt lat="46.6963" lon="-1.76405">
        <ele>37</ele>
        <time>2018-01-07T13:53:40Z</time>
      </trkpt>
      <trkpt lat="46.69638" lon="-1.764">
        <ele>37</ele>
        <time>2018-01-07T13:54:40Z</time>
      </trkpt>
      <trkpt lat="46.69642" lon="-1.76397">
        <ele>37</ele>
        <time>2018-01-07T13:55:40Z</time>
      </trkpt>
      <trkpt lat="46.69652" lon="-1.76389">
        <ele>37</ele>
        <time>2018-01-07T13:56:40Z</time>
      </trkpt>
      <trkpt lat="46.69659" lon="-1.76384">
        <ele>36</ele>
        <time>2018-01-07T13:57:40Z</time>
      </trkpt>
      <trkpt lat="46.69663" lon="-1.7638">
        <ele>36</ele>
        <time>2018-01-07T13:58:40Z</time>
      </trkpt>
      <trkpt lat="46.69666" lon="-1.76379">
        <ele>36</ele>
        <time>2018-01-07T13:59:40Z</time>
      </trkpt>
      <trkpt lat="46.69681" lon="-1.76368">
        <ele>37</ele>
        <time>2018-01-07T14:00:40Z</time>
      </trkpt>
      <trkpt lat="46.69696" lon="-1.76359">
        <ele>38</ele>
        <time>2018-01-07T14:01:40Z</time>
      </trkpt>
      <trkpt lat="46.69708" lon="-1.76351">
        <ele>39</ele>
        <time>2018-01-07T14:02:40Z</time>
      </trkpt>
      <trkpt lat="46.69719" lon="-1.76346">
        <ele>40</ele>
        <time>2018-01-07T14:03:40Z</time>
      </trkpt>
      <trkpt lat="46.6973" lon="-1.76345">
        <ele>40</ele>
        <time>2018-01-07T14:04:40Z</time>
      </trkpt>
      <trkpt lat="46.6973" lon="-1.76345">
        <ele>40</ele>
        <time>2018-01-07T14:05:40Z</time>
      </trkpt>
      <trkpt lat="46.6973" lon="-1.76344">
        <ele>40</ele>
        <time>2018-01-07T14:06:40Z</time>
      </trkpt>
      <trkpt lat="46.6973" lon="-1.76343">
        <ele>40</ele>
        <time>2018-01-07T14:07:40Z</time>
      </trkpt>
      <trkpt lat="46.6973" lon="-1.76342">
        <ele>40</ele>
        <time>2018-01-07T14:08:40Z</time>
      </trkpt>
      <trkpt lat="46.69731" lon="-1.76341">
        <ele>41</ele>
        <time>2018-01-07T14:09:40Z</time>
      </trkpt>
      <trkpt lat="46.69731" lon="-1.7634">
        <ele>41</ele>
        <time>2018-01-07T14:10:40Z</time>
      </trkpt>
      <trkpt lat="46.69732" lon="-1.76339">
        <ele>41</ele>
        <time>2018-01-07T14:11:40Z</time>
      </trkpt>
      <trkpt lat="46.69732" lon="-1.76338">
        <ele>41</ele>
        <time>2018-01-07T14:12:40Z</time>
      </trkpt>
      <trkpt lat="46.69733" lon="-1.76338">
        <ele>41</ele>
        <time>2018-01-07T14:13:40Z</time>
      </trkpt>
      <trkpt lat="46.69733" lon="-1.76337">
        <ele>41</ele>
        <time>2018-01-07T14:14:40Z</time>
      </trkpt>
      <trkpt lat="46.69734" lon="-1.76337">
        <ele>41</ele>
        <time>2018-01-07T14:15:40Z</time>
      </trkpt>
      <trkpt lat="46.69735" lon="-1.76336">
        <ele>41</ele>
        <time>2018-01-07T14:16:40Z</time>
      </trkpt>
      <trkpt lat="46.69736" lon="-1.76336">
        <ele>41</ele>
        <time>2018-01-07T14:17:40Z</time>
      </trkpt>
      <trkpt lat="46.69737" lon="-1.76336">
        <ele>41</ele>
        <time>2018-01-07T14:18:40Z</time>
      </trkpt>
      <trkpt lat="46.69738" lon="-1.76336">
        <ele>41</ele>
        <time>2018-01-07T14:19:40Z</time>
      </trkpt>
      <trkpt lat="46.69739" lon="-1.76336">
        <ele>41</ele>
        <time>2018-01-07T14:20:40Z</time>
      </trkpt>
      <trkpt lat="46.69742" lon="-1.76322">
        <ele>42</ele>
        <time>2018-01-07T14:21:40Z</time>
      </trkpt>
      <trkpt lat="46.69743" lon="-1.76301">
        <ele>42</ele>
        <time>2018-01-07T14:22:40Z</time>
      </trkpt>
      <trkpt lat="46.69745" lon="-1.76282">
        <ele>42</ele>
        <time>2018-01-07T14:23:40Z</time>
      </trkpt>
      <trkpt lat="46.69746" lon="-1.76271">
        <ele>42</ele>
        <time>2018-01-07T14:24:40Z</time>
      </trkpt>
      <trkpt lat="46.69746" lon="-1.76266">
        <ele>43</ele>
        <time>2018-01-07T14:25:40Z</time>
      </trkpt>
      <trkpt lat="46.6975" lon="-1.76245">
        <ele>43</ele>
        <time>2018-01-07T14:26:40Z</time>
      </trkpt>
      <trkpt lat="46.69753" lon="-1.76235">
        <ele>44</ele>
        <time>2018-01-07T14:27:40Z</time>
      </trkpt>
      <trkpt lat="46.69756" lon="-1.76225">
        <ele>45</ele>
        <time>2018-01-07T14:28:40Z</time>
      </trkpt>
      <trkpt lat="46.69759" lon="-1.76206">
        <ele>46</ele>
        <time>2018-01-07T14:29:40Z</time>
      </trkpt>
      <trkpt lat="46.69761" lon="-1.76192">
        <ele>47</ele>
        <time>2018-01-07T14:30:40Z</time>
      </trkpt>
      <trkpt lat="46.6976" lon="-1.76174">
        <ele>49</ele>
        <time>2018-01-07T14:31:40Z</time>
      </trkpt>
      <trkpt lat="46.69759" lon="-1.76164">
        <ele>49</ele>
        <time>2018-01-07T14:32:40Z</time>
      </trkpt>
      <trkpt lat="46.69758" lon="-1.76148">
        <ele>49</ele>
        <time>2018-01-07T14:33:40Z</time>
      </trkpt>
      <trkpt lat="46.69758" lon="-1.76148">
        <ele>49</ele>
        <time>2018-01-07T14:34:40Z</time>
      </trkpt>
      <trkpt lat="46.69773" lon="-1.76141">
        <ele>49</ele>
        <time>2018-01-07T14:35:40Z</time>
      </trkpt>
      <trkpt lat="46.69787" lon="-1.76136">
        <ele>49</ele>
        <time>2018-01-07T14:36:40Z</time>
      </trkpt>
      <trkpt lat="46.69808" lon="-1.76126">
        <ele>49</ele>
        <time>2018-01-07T14:37:40Z</time>
      </trkpt>
      <trkpt lat="46.69817" lon="-1.76124">
        <ele>49</ele>
        <time>2018-01-07T14:38:40Z</time>
      </trkpt>
      <trkpt lat="46.69826" lon="-1.76121">
        <ele>49</ele>
        <time>2018-01-07T14:39:40Z</time>
      </trkpt>
      <trkpt lat="46.6983" lon="-1.7612">
        <ele>49</ele>
        <time>2018-01-07T14:40:40Z</time>
      </trkpt>
      <trkpt lat="46.69838" lon="-1.76119">
        <ele>49</ele>
        <time>2018-01-07T14:41:40Z</time>
      </trkpt>
      <trkpt lat="46.69842" lon="-1.76118">
        <ele>49</ele>
        <time>2018-01-07T14:42:40Z</time>
      </trkpt>
      <trkpt lat="46.69857" lon="-1.76118">
        <ele>49</ele>
        <time>2018-01-07T14:43:40Z</time>
      </trkpt>
      <trkpt lat="46.69867" lon="-1.7612">
        <ele>49</ele>
        <time>2018-01-07T14:44:40Z</time>
      </trkpt>
      <trkpt lat="46.69873" lon="-1.76122">
        <ele>49</ele>
        <time>2018-01-07T14:45:40Z</time>
      </trkpt>
      <trkpt lat="46.69877" lon="-1.76122">
        <ele>48</ele>
        <time>2018-01-07T14:46:40Z</time>
      </trkpt>
      <trkpt lat="46.69892" lon="-1.76123">
        <ele>48</ele>
        <time>2018-01-07T14:47:40Z</time>
      </trkpt>
      <trkpt lat="46.69904" lon="-1.7612">
        <ele>48</ele>
        <time>2018-01-07T14:48:40Z</time>
      </trkpt>
      <trkpt lat="46.6993" lon="-1.76112">
        <ele>48</ele>
        <time>2018-01-07T14:49:40Z</time>
      </trkpt>
      <trkpt lat="46.69958" lon="-1.76101">
        <ele>48</ele>
        <time>2018-01-07T14:50:40Z</time>
      </trkpt>
      <trkpt lat="46.69971" lon="-1.76096">
        <ele>49</ele>
        <time>2018-01-07T14:51:40Z</time>
      </trkpt>
      <trkpt lat="46.70005" lon="-1.76083">
        <ele>49</ele>
        <time>2018-01-07T14:52:40Z</time>
      </trkpt>
      <trkpt lat="46.70033" lon="-1.76073">
        <ele>49</ele>
        <time>2018-01-07T14:53:40Z</time>
      </trkpt>
      <trkpt lat="46.70079" lon="-1.76054">
        <ele>49</ele>
        <time>2018-01-07T14:54:40Z</time>
      </trkpt>
      <trkpt lat="46.70099" lon="-1.76044">
        <ele>50</ele>
        <time>2018-01-07T14:55:40Z</time>
      </trkpt>
      <trkpt lat="46.70131" lon="-1.7602">
        <ele>51</ele>
        <time>2018-01-07T14:56:40Z</time>
      </trkpt>
      <trkpt lat="46.70171" lon="-1.75989">
        <ele>52</ele>
        <time>2018-01-07T14:57:40Z</time>
      </trkpt>
      <trkpt lat="46.70203" lon="-1.75966">
        <ele>52</ele>
        <time>2018-01-07T14:58:40Z</time>
      </trkpt>
      <trkpt lat="46.70207" lon="-1.75963">
        <ele>52</ele>
        <time>2018-01-07T14:59:40Z</time>
      </trkpt>
      <trkpt lat="46.70221" lon="-1.75952">
        <ele>52</ele>
        <time>2018-01-07T15:00:40Z</time>
      </trkpt>
      <trkpt lat="46.70252" lon="-1.75929">
        <ele>53</ele>
        <time>2018-01-07T15:01:40Z</time>
      </trkpt>
      <trkpt lat="46.70278" lon="-1.75907">
        <ele>54</ele>
        <time>2018-01-07T15:02:40Z</time>
      </trkpt>
      <trkpt lat="46.70302" lon="-1.75884">
        <ele>55</ele>
        <time>2018-01-07T15:03:40Z</time>
      </trkpt>
      <trkpt lat="46.70303" lon="-1.75883">
        <ele>55</ele>
        <time>2018-01-07T15:04:40Z</time>
      </trkpt>
      <trkpt lat="46.70324" lon="-1.75861">
        <ele>55</ele>
        <time>2018-01-07T15:05:40Z</time>
      </trkpt>
      <trkpt lat="46.70329" lon="-1.75855">
        <ele>56</ele>
        <time>2018-01-07T15:06:40Z</time>
      </trkpt>
      <trkpt lat="46.70357" lon="-1.75821">
        <ele>56</ele>
        <time>2018-01-07T15:07:40Z</time>
      </trkpt>
      <trkpt lat="46.70367" lon="-1.75808">
        <ele>57</ele>
        <time>2018-01-07T15:08:40Z</time>
      </trkpt>
      <trkpt lat="46.7038" lon="-1.75792">
        <ele>57</ele>
        <time>2018-01-07T15:09:40Z</time>
      </trkpt>
      <trkpt lat="46.70395" lon="-1.75775">
        <ele>57</ele>
        <time>2018-01-07T15:10:40Z</time>
      </trkpt>
      <trkpt lat="46.70412" lon="-1.75757">
        <ele>57</ele>
        <time>2018-01-07T15:11:40Z</time>
      </trkpt>
      <trkpt lat="46.70427" lon="-1.75745">
        <ele>57</ele>
        <time>2018-01-07T15:12:40Z</time>
      </trkpt>
      <trkpt lat="46.70429" lon="-1.75743">
        <ele>57</ele>
        <time>2018-01-07T15:13:40Z</time>
      </trkpt>
      <trkpt lat="46.70444" lon="-1.75732">
        <ele>56</ele>
        <time>2018-01-07T15:14:40Z</time>
      </trkpt>
      <trkpt lat="46.70458" lon="-1.75723">
        <ele>56</ele>
        <time>2018-01-07T15:15:40Z</time>
      </trkpt>
      <trkpt lat="46.70465" lon="-1.75718">
        <ele>56</ele>
        <time>2018-01-07T15:16:40Z</time>
      </trkpt>
      <trkpt lat="46.70493" lon="-1.75701">
        <ele>55</ele>
        <time>2018-01-07T15:17:40Z</time>
      </trkpt>
      <trkpt lat="46.70514" lon="-1.75686">
        <ele>55</ele>
        <time>2018-01-07T15:18:40Z</time>
      </trkpt>
      <trkpt lat="46.70542" lon="-1.75663">
        <ele>55</ele>
        <time>2018-01-07T15:19:40Z</time>
      </trkpt>
      <trkpt lat="46.70565" lon="-1.75646">
        <ele>55</ele>
        <time>2018-01-07T15:20:40Z</time>
      </trkpt>
      <trkpt lat="46.70633" lon="-1.75602">
        <ele>54</ele>
        <time>2018-01-07T15:21:40Z</time>
      </trkpt>
      <trkpt lat="46.70658" lon="-1.75585">
        <ele>53</ele>
        <time>2018-01-07T15:22:40Z</time>
      </trkpt>
      <trkpt lat="46.70687" lon="-1.75564">
        <ele>53</ele>
        <time>2018-01-07T15:23:40Z</time>
      </trkpt>
      <trkpt lat="46.70704" lon="-1.7555">
        <ele>53</ele>
        <time>2018-01-07T15:24:40Z</time>
      </trkpt>
      <trkpt lat="46.7072" lon="-1.75538">
        <ele>53</ele>
        <time>2018-01-07T15:25:40Z</time>
      </trkpt>
      <trkpt lat="46.70728" lon="-1.75531">
        <ele>53</ele>
        <time>2018-01-07T15:26:40Z</time>
      </trkpt>
      <trkpt lat="46.70755" lon="-1.75509">
        <ele>53</ele>
        <time>2018-01-07T15:27:40Z</time>
      </trkpt>
      <trkpt lat="46.70775" lon="-1.75492">
        <ele>53</ele>
        <time>2018-01-07T15:28:40Z</time>
      </trkpt>
      <trkpt lat="46.70795" lon="-1.75468">
        <ele>53</ele>
        <time>2018-01-07T15:29:40Z</time>
      </trkpt>
      <trkpt lat="46.70817" lon="-1.75441">
        <ele>54</ele>
        <time>2018-01-07T15:30:40Z</time>
      </trkpt>
      <trkpt lat="46.70854" lon="-1.75392">
        <ele>54</ele>
        <time>2018-01-07T15:31:40Z</time>
      </trkpt>
      <trkpt lat="46.70882" lon="-1.75354">
        <ele>53</ele>
        <time>2018-01-07T15:32:40Z</time>
      </trkpt>
      <trkpt lat="46.70889" lon="-1.75346">
        <ele>53</ele>
        <time>2018-01-07T15:33:40Z</time>
      </trkpt>
      <trkpt lat="46.70953" lon="-1.75272">
        <ele>52</ele>
        <time>2018-01-07T15:34:40Z</time>
      </trkpt>
      <trkpt lat="46.70994" lon="-1.75227">
        <ele>50</ele>
        <time>2018-01-07T15:35:40Z</time>
      </trkpt>
      <trkpt lat="46.71028" lon="-1.75186">
        <ele>49</ele>
        <time>2018-01-07T15:36:40Z</time>
      </trkpt>
      <trkpt lat="46.71044" lon="-1.75162">
        <ele>48</ele>
        <time>2018-01-07T15:37:40Z</time>
      </trkpt>
      <trkpt lat="46.71058" lon="-1.75143">
        <ele>47</ele>
        <time>2018-01-07T15:38:40Z</time>
      </trkpt>
      <trkpt lat="46.71073" lon="-1.75125">
        <ele>46</ele>
        <time>2018-01-07T15:39:40Z</time>
      </trkpt>
      <trkpt lat="46.71089" lon="-1.75109">
        <ele>45</ele>
        <time>2018-01-07T15:40:40Z</time>
      </trkpt>
      <trkpt lat="46.71106" lon="-1.75098">
        <ele>45</ele>
        <time>2018-01-07T15:41:40Z</time>
      </trkpt>
      <trkpt lat="46.71132" lon="-1.75082">
        <ele>44</ele>
        <time>2018-01-07T15:42:40Z</time>
      </trkpt>
      <trkpt lat="46.71159" lon="-1.75069">
        <ele>43</ele>
        <time>2018-01-07T15:43:40Z</time>
      </trkpt>
      <trkpt lat="46.71189" lon="-1.75053">
        <ele>43</ele>
        <time>2018-01-07T15:44:40Z</time>
      </trkpt>
      <trkpt lat="46.71215" lon="-1.75039">
        <ele>42</ele>
        <time>2018-01-07T15:45:40Z</time>
      </trkpt>
      <trkpt lat="46.71247" lon="-1.7502">
        <ele>42</ele>
        <time>2018-01-07T15:46:40Z</time>
      </trkpt>
      <trkpt lat="46.71258" lon="-1.75015">
        <ele>42</ele>
        <time>2018-01-07T15:47:40Z</time>
      </trkpt>
      <trkpt lat="46.71275" lon="-1.75005">
        <ele>41</ele>
        <time>2018-01-07T15:48:40Z</time>
      </trkpt>
      <trkpt lat="46.71286" lon="-1.74996">
        <ele>41</ele>
        <time>2018-01-07T15:49:40Z</time>
      </trkpt>
      <trkpt lat="46.71298" lon="-1.74984">
        <ele>41</ele>
        <time>2018-01-07T15:50:40Z</time>
      </trkpt>
      <trkpt lat="46.7131" lon="-1.74972">
        <ele>40</ele>
        <time>2018-01-07T15:51:40Z</time>
      </trkpt>
      <trkpt lat="46.71312" lon="-1.74968">
        <ele>40</ele>
        <time>2018-01-07T15:52:40Z</time>
      </trkpt>
      <trkpt lat="46.71317" lon="-1.74964">
        <ele>40</ele>
        <time>2018-01-07T15:53:40Z</time>
      </trkpt>
      <trkpt lat="46.71338" lon="-1.74949">
        <ele>39</ele>
        <time>2018-01-07T15:54:40Z</time>
      </trkpt>
      <trkpt lat="46.71355" lon="-1.7494">
        <ele>40</ele>
        <time>2018-01-07T15:55:40Z</time>
      </trkpt>
      <trkpt lat="46.7137" lon="-1.74933">
        <ele>40</ele>
        <time>2018-01-07T15:56:40Z</time>
      </trkpt>
      <trkpt lat="46.71375" lon="-1.74933">
        <ele>40</ele>
        <time>2018-01-07T15:57:40Z</time>
      </trkpt>
      <trkpt lat="46.71379" lon="-1.74932">
        <ele>40</ele>
        <time>2018-01-07T15:58:40Z</time>
      </trkpt>
      <trkpt lat="46.71389" lon="-1.7493">
        <ele>40</ele>
        <time>2018-01-07T15:59:40Z</time>
      </trkpt>
      <trkpt lat="46.71404" lon="-1.74929">
        <ele>40</ele>
        <time>2018-01-07T16:00:40Z</time>
      </trkpt>
      <trkpt lat="46.71421" lon="-1.74928">
        <ele>41</ele>
        <time>2018-01-07T16:01:40Z</time>
      </trkpt>
      <trkpt lat="46.71447" lon="-1.74921">
        <ele>42</ele>
        <time>2018-01-07T16:02:40Z</time>
      </trkpt>
      <trkpt lat="46.71462" lon="-1.74913">
        <ele>43</ele>
        <time>2018-01-07T16:03:40Z</time>
      </trkpt>
      <trkpt lat="46.71473" lon="-1.74905">
        <ele>43</ele>
        <time>2018-01-07T16:04:40Z</time>
      </trkpt>
      <trkpt lat="46.71479" lon="-1.74902">
        <ele>43</ele>
        <time>2018-01-07T16:05:40Z</time>
      </trkpt>
      <trkpt lat="46.71486" lon="-1.74895">
        <ele>43</ele>
        <time>2018-01-07T16:06:40Z</time>
      </trkpt>
      <trkpt lat="46.71502" lon="-1.74882">
        <ele>44</ele>
        <time>2018-01-07T16:07:40Z</time>
      </trkpt>
      <trkpt lat="46.71521" lon="-1.74869">
        <ele>44</ele>
        <time>2018-01-07T16:08:40Z</time>
      </trkpt>
      <trkpt lat="46.71546" lon="-1.74854">
        <ele>44</ele>
        <time>2018-01-07T16:09:40Z</time>
      </trkpt>
      <trkpt lat="46.71578" lon="-1.74837">
        <ele>44</ele>
        <time>2018-01-07T16:10:40Z</time>
      </trkpt>
      <trkpt lat="46.71616" lon="-1.74817">
        <ele>44</ele>
        <time>2018-01-07T16:11:40Z</time>
      </trkpt>
      <trkpt lat="46.71654" lon="-1.74797">
        <ele>44</ele>
        <time>2018-01-07T16:12:40Z</time>
      </trkpt>
      <trkpt lat="46.71686" lon="-1.74781">
        <ele>43</ele>
        <time>2018-01-07T16:13:40Z</time>
      </trkpt>
      <trkpt lat="46.71732" lon="-1.74757">
        <ele>42</ele>
        <time>2018-01-07T16:14:40Z</time>
      </trkpt>
      <trkpt lat="46.71747" lon="-1.74749">
        <ele>42</ele>
        <time>2018-01-07T16:15:40Z</time>
      </trkpt>
      <trkpt lat="46.718" lon="-1.74721">
        <ele>40</ele>
        <time>2018-01-07T16:16:40Z</time>
      </trkpt>
      <trkpt lat="46.71855" lon="-1.7469">
        <ele>38</ele>
        <time>2018-01-07T16:17:40Z</time>
      </trkpt>
      <trkpt lat="46.71884" lon="-1.74674">
        <ele>38</ele>
        <time>2018-01-07T16:18:40Z</time>
      </trkpt>
      <trkpt lat="46.71898" lon="-1.74666">
        <ele>37</ele>
        <time>2018-01-07T16:19:40Z</time>
      </trkpt>
      <trkpt lat="46.71936" lon="-1.74645">
        <ele>36</ele>
        <time>2018-01-07T16:20:40Z</time>
      </trkpt>
      <trkpt lat="46.71949" lon="-1.74635">
        <ele>35</ele>
        <time>2018-01-07T16:21:40Z</time>
      </trkpt>
      <trkpt lat="46.7197" lon="-1.74624">
        <ele>34</ele>
        <time>2018-01-07T16:22:40Z</time>
      </trkpt>
      <trkpt lat="46.71978" lon="-1.7462">
        <ele>34</ele>
        <time>2018-01-07T16:23:40Z</time>
      </trkpt>
      <trkpt lat="46.71981" lon="-1.74619">
        <ele>34</ele>
        <time>2018-01-07T16:24:40Z</time>
      </trkpt>
      <trkpt lat="46.71987" lon="-1.74617">
        <ele>34</ele>
        <time>2018-01-07T16:25:40Z</time>
      </trkpt>
      <trkpt lat="46.72011" lon="-1.74607">
        <ele>33</ele>
        <time>2018-01-07T16:26:40Z</time>
      </trkpt>
      <trkpt lat="46.72056" lon="-1.74591">
        <ele>33</ele>
        <time>2018-01-07T16:27:40Z</time>
      </trkpt>
      <trkpt lat="46.72101" lon="-1.74576">
        <ele>34</ele>
        <time>2018-01-07T16:28:40Z</time>
      </trkpt>
      <trkpt lat="46.72128" lon="-1.74567">
        <ele>34</ele>
        <time>2018-01-07T16:29:40Z</time>
      </trkpt>
      <trkpt lat="46.72138" lon="-1.74564">
        <ele>35</ele>
        <time>2018-01-07T16:30:40Z</time>
      </trkpt>
      <trkpt lat="46.72142" lon="-1.74563">
        <ele>35</ele>
        <time>2018-01-07T16:31:40Z</time>
      </trkpt>
      <trkpt lat="46.72159" lon="-1.7456">
        <ele>35</ele>
        <time>2018-01-07T16:32:40Z</time>
      </trkpt>
      <trkpt lat="46.72181" lon="-1.74558">
        <ele>36</ele>
        <time>2018-01-07T16:33:40Z</time>
      </trkpt>
      <trkpt lat="46.72207" lon="-1.74559">
        <ele>36</ele>
        <time>2018-01-07T16:34:40Z</time>
      </trkpt>
      <trkpt lat="46.72249" lon="-1.74562">
        <ele>36</ele>
        <time>2018-01-07T16:35:40Z</time>
      </trkpt>
      <trkpt lat="46.72276" lon="-1.74564">
        <ele>38</ele>
        <time>2018-01-07T16:36:40Z</time>
      </trkpt>
      <trkpt lat="46.72314" lon="-1.74564">
        <ele>39</ele>
        <time>2018-01-07T16:37:40Z</time>
      </trkpt>
      <trkpt lat="46.72354" lon="-1.74563">
        <ele>41</ele>
        <time>2018-01-07T16:38:40Z</time>
      </trkpt>
      <trkpt lat="46.72383" lon="-1.74562">
        <ele>42</ele>
        <time>2018-01-07T16:39:40Z</time>
      </trkpt>
      <trkpt lat="46.72421" lon="-1.7456">
        <ele>43</ele>
        <time>2018-01-07T16:40:40Z</time>
      </trkpt>
      <trkpt lat="46.72447" lon="-1.74559">
        <ele>43</ele>
        <time>2018-01-07T16:41:40Z</time>
      </trkpt>
      <trkpt lat="46.72474" lon="-1.74556">
        <ele>43</ele>
        <time>2018-01-07T16:42:40Z</time>
      </trkpt>
      <trkpt lat="46.72514" lon="-1.74551">
        <ele>43</ele>
        <time>2018-01-07T16:43:40Z</time>
      </trkpt>
      <trkpt lat="46.72534" lon="-1.74549">
        <ele>43</ele>
        <time>2018-01-07T16:44:40Z</time>
      </trkpt>
      <trkpt lat="46.72568" lon="-1.74544">
        <ele>43</ele>
        <time>2018-01-07T16:45:40Z</time>
      </trkpt>
      <trkpt lat="46.72592" lon="-1.74542">
        <ele>42</ele>
        <time>2018-01-07T16:46:40Z</time>
      </trkpt>
      <trkpt lat="46.72599" lon="-1.74541">
        <ele>42</ele>
        <time>2018-01-07T16:47:40Z</time>
      </trkpt>
      <trkpt lat="46.72615" lon="-1.7454">
        <ele>42</ele>
        <time>2018-01-07T16:48:40Z</time>
      </trkpt>
      <trkpt lat="46.72628" lon="-1.74539">
        <ele>42</ele>
        <time>2018-01-07T16:49:40Z</time>
      </trkpt>
      <trkpt lat="46.72642" lon="-1.74539">
        <ele>41</ele>
        <time>2018-01-07T16:50:40Z</time>
      </trkpt>
      <trkpt lat="46.72652" lon="-1.7454">
        <ele>41</ele>
        <time>2018-01-07T16:51:40Z</time>
      </trkpt>
      <trkpt lat="46.72666" lon="-1.74542">
        <ele>41</ele>
        <time>2018-01-07T16:52:40Z</time>
      </trkpt>
      <trkpt lat="46.72678" lon="-1.74544">
        <ele>41</ele>
        <time>2018-01-07T16:53:40Z</time>
      </trkpt>
      <trkpt lat="46.72753" lon="-1.74558">
        <ele>39</ele>
        <time>2018-01-07T16:54:40Z</time>
      </trkpt>
      <trkpt lat="46.72857" lon="-1.74578">
        <ele>38</ele>
        <time>2018-01-07T16:55:40Z</time>
      </trkpt>
      <trkpt lat="46.72944" lon="-1.74595">
        <ele>36</ele>
        <time>2018-01-07T16:56:40Z</time>
      </trkpt>
      <trkpt lat="46.72998" lon="-1.74605">
        <ele>36</ele>
        <time>2018-01-07T16:57:40Z</time>
      </trkpt>
      <trkpt lat="46.73083" lon="-1.74621">
        <ele>38</ele>
        <time>2018-01-07T16:58:40Z</time>
      </trkpt>
      <trkpt lat="46.73136" lon="-1.74631">
        <ele>40</ele>
        <time>2018-01-07T16:59:40Z</time>
      </trkpt>
      <trkpt lat="46.73181" lon="-1.7464">
        <ele>42</ele>
        <time>2018-01-07T17:00:40Z</time>
      </trkpt>
      <trkpt lat="46.73217" lon="-1.74647">
        <ele>43</ele>
        <time>2018-01-07T17:01:40Z</time>
      </trkpt>
      <trkpt lat="46.73284" lon="-1.74661">
        <ele>44</ele>
        <time>2018-01-07T17:02:40Z</time>
      </trkpt>
      <trkpt lat="46.73323" lon="-1.7467">
        <ele>45</ele>
        <time>2018-01-07T17:03:40Z</time>
      </trkpt>
      <trkpt lat="46.73348" lon="-1.74675">
        <ele>45</ele>
        <time>2018-01-07T17:04:40Z</time>
      </trkpt>
      <trkpt lat="46.73369" lon="-1.74678">
        <ele>45</ele>
        <time>2018-01-07T17:05:40Z</time>
      </trkpt>
      <trkpt lat="46.734" lon="-1.7468">
        <ele>45</ele>
        <time>2018-01-07T17:06:40Z</time>
      </trkpt>
      <trkpt lat="46.73433" lon="-1.74684">
        <ele>45</ele>
        <time>2018-01-07T17:07:40Z</time>
      </trkpt>
      <trkpt lat="46.73514" lon="-1.74687">
        <ele>44</ele>
        <time>2018-01-07T17:08:40Z</time>
      </trkpt>
      <trkpt lat="46.7357" lon="-1.74688">
        <ele>43</ele>
        <time>2018-01-07T17:09:40Z</time>
      </trkpt>
      <trkpt lat="46.73667" lon="-1.74686">
        <ele>43</ele>
        <time>2018-01-07T17:10:40Z</time>
      </trkpt>
      <trkpt lat="46.73754" lon="-1.74682">
        <ele>41</ele>
        <time>2018-01-07T17:11:40Z</time>
      </trkpt>
      <trkpt lat="46.73876" lon="-1.7468">
        <ele>38</ele>
        <time>2018-01-07T17:12:40Z</time>
      </trkpt>
      <trkpt lat="46.73908" lon="-1.74678">
        <ele>38</ele>
        <time>2018-01-07T17:13:40Z</time>
      </trkpt>
      <trkpt lat="46.73914" lon="-1.74669">
        <ele>38</ele>
        <time>2018-01-07T17:14:40Z</time>
      </trkpt>
      <trkpt lat="46.73916" lon="-1.74666">
        <ele>38</ele>
        <time>2018-01-07T17:15:40Z</time>
      </trkpt>
      <trkpt lat="46.73917" lon="-1.74663">
        <ele>38</ele>
        <time>2018-01-07T17:16:40Z</time>
      </trkpt>
      <trkpt lat="46.73918" lon="-1.74659">
        <ele>38</ele>
        <time>2018-01-07T17:17:40Z</time>
      </trkpt>
      <trkpt lat="46.73919" lon="-1.74654">
        <ele>38</ele>
        <time>2018-01-07T17:18:40Z</time>
      </trkpt>
      <trkpt lat="46.73919" lon="-1.74654">
        <ele>38</ele>
        <time>2018-01-07T17:19:40Z</time>
      </trkpt>
      <trkpt lat="46.73922" lon="-1.74654">
        <ele>38</ele>
        <time>2018-01-07T17:20:40Z</time>
      </trkpt>
      <trkpt lat="46.7393" lon="-1.74655">
        <ele>38</ele>
        <time>2018-01-07T17:21:40Z</time>
      </trkpt>
      <trkpt lat="46.73938" lon="-1.74655">
        <ele>38</ele>
        <time>2018-01-07T17:22:40Z</time>
      </trkpt>
      <trkpt lat="46.73952" lon="-1.74656">
        <ele>37</ele>
        <time>2018-01-07T17:23:40Z</time>
      </trkpt>
      <trkpt lat="46.73957" lon="-1.74655">
        <ele>37</ele>
        <time>2018-01-07T17:24:40Z</time>
      </trkpt>
      <trkpt lat="46.7396" lon="-1.74655">
        <ele>37</ele>
        <time>2018-01-07T17:25:40Z</time>
      </trkpt>
      <trkpt lat="46.73968" lon="-1.74654">
        <ele>37</ele>
        <time>2018-01-07T17:26:40Z</time>
      </trkpt>
      <trkpt lat="46.74032" lon="-1.74638">
        <ele>36</ele>
        <time>2018-01-07T17:27:40Z</time>
      </trkpt>
      <trkpt lat="46.74046" lon="-1.74636">
        <ele>36</ele>
        <time>2018-01-07T17:28:40Z</time>
      </trkpt>
      <trkpt lat="46.74065" lon="-1.74635">
        <ele>36</ele>
        <time>2018-01-07T17:29:40Z</time>
      </trkpt>
      <trkpt lat="46.74088" lon="-1.74637">
        <ele>36</ele>
        <time>2018-01-07T17:30:40Z</time>
      </trkpt>
      <trkpt lat="46.74113" lon="-1.7464">
        <ele>36</ele>
        <time>2018-01-07T17:31:40Z</time>
      </trkpt>
      <trkpt lat="46.74118" lon="-1.7464">
        <ele>36</ele>
        <time>2018-01-07T17:32:40Z</time>
      </trkpt>
      <trkpt lat="46.74151" lon="-1.74646">
        <ele>36</ele>
        <time>2018-01-07T17:33:40Z</time>
      </trkpt>
      <trkpt lat="46.74172" lon="-1.74652">
        <ele>36</ele>
        <time>2018-01-07T17:34:40Z</time>
      </trkpt>
      <trkpt lat="46.742" lon="-1.7466">
        <ele>34</ele>
        <time>2018-01-07T17:35:40Z</time>
      </trkpt>
      <trkpt lat="46.74217" lon="-1.74665">
        <ele>34</ele>
        <time>2018-01-07T17:36:40Z</time>
      </trkpt>
      <trkpt lat="46.74233" lon="-1.74669">
        <ele>33</ele>
        <time>2018-01-07T17:37:40Z</time>
      </trkpt>
      <trkpt lat="46.74242" lon="-1.74671">
        <ele>32</ele>
        <time>2018-01-07T17:38:40Z</time>
      </trkpt>
      <trkpt lat="46.74247" lon="-1.74672">
        <ele>32</ele>
        <time>2018-01-07T17:39:40Z</time>
      </trkpt>
      <trkpt lat="46.74256" lon="-1.74673">
        <ele>32</ele>
        <time>2018-01-07T17:40:40Z</time>
      </trkpt>
      <trkpt lat="46.74267" lon="-1.74673">
        <ele>32</ele>
        <time>2018-01-07T17:41:40Z</time>
      </trkpt>
      <trkpt lat="46.74279" lon="-1.74673">
        <ele>32</ele>
        <time>2018-01-07T17:42:40Z</time>
      </trkpt>
      <trkpt lat="46.74296" lon="-1.74669">
        <ele>31</ele>
        <time>2018-01-07T17:43:40Z</time>
      </trkpt>
      <trkpt lat="46.74322" lon="-1.74664">
        <ele>31</ele>
        <time>2018-01-07T17:44:40Z</time>
      </trkpt>
      <trkpt lat="46.74375" lon="-1.74651">
        <ele>30</ele>
        <time>2018-01-07T17:45:40Z</time>
      </trkpt>
      <trkpt lat="46.74454" lon="-1.74632">
        <ele>28</ele>
        <time>2018-01-07T17:46:40Z</time>
      </trkpt>
      <trkpt lat="46.74508" lon="-1.74621">
        <ele>26</ele>
        <time>2018-01-07T17:47:40Z</time>
      </trkpt>
      <trkpt lat="46.74533" lon="-1.74615">
        <ele>26</ele>
        <time>2018-01-07T17:48:40Z</time>
      </trkpt>
      <trkpt lat="46.74542" lon="-1.74612">
        <ele>25</ele>
        <time>2018-01-07T17:49:40Z</time>
      </trkpt>
      <trkpt lat="46.74548" lon="-1.7461">
        <ele>25</ele>
        <time>2018-01-07T17:50:40Z</time>
      </trkpt>
      <trkpt lat="46.74551" lon="-1.74609">
        <ele>25</ele>
        <time>2018-01-07T17:51:40Z</time>
      </trkpt>
      <trkpt lat="46.74567" lon="-1.74604">
        <ele>25</ele>
        <time>2018-01-07T17:52:40Z</time>
      </trkpt>
      <trkpt lat="46.74573" lon="-1.74601">
        <ele>25</ele>
        <time>2018-01-07T17:53:40Z</time>
      </trkpt>
      <trkpt lat="46.74578" lon="-1.74598">
        <ele>24</ele>
        <time>2018-01-07T17:54:40Z</time>
      </trkpt>
      <trkpt lat="46.74584" lon="-1.74594">
        <ele>24</ele>
        <time>2018-01-07T17:55:40Z</time>
      </trkpt>
      <trkpt lat="46.74597" lon="-1.74586">
        <ele>24</ele>
        <time>2018-01-07T17:56:40Z</time>
      </trkpt>
      <trkpt lat="46.74603" lon="-1.74581">
        <ele>24</ele>
        <time>2018-01-07T17:57:40Z</time>
      </trkpt>
      <trkpt lat="46.74606" lon="-1.74576">
        <ele>23</ele>
        <time>2018-01-07T17:58:40Z</time>
      </trkpt>
      <trkpt lat="46.74617" lon="-1.74563">
        <ele>22</ele>
        <time>2018-01-07T17:59:40Z</time>
      </trkpt>
      <trkpt lat="46.74631" lon="-1.74544">
        <ele>21</ele>
        <time>2018-01-07T18:00:40Z</time>
      </trkpt>
      <trkpt lat="46.74667" lon="-1.74493">
        <ele>20</ele>
        <time>2018-01-07T18:01:40Z</time>
      </trkpt>
      <trkpt lat="46.74688" lon="-1.74462">
        <ele>19</ele>
        <time>2018-01-07T18:02:40Z</time>
      </trkpt>
      <trkpt lat="46.74699" lon="-1.74442">
        <ele>18</ele>
        <time>2018-01-07T18:03:40Z</time>
      </trkpt>
      <trkpt lat="46.74707" lon="-1.74428">
        <ele>18</ele>
        <time>2018-01-07T18:04:40Z</time>
      </trkpt>
      <trkpt lat="46.74715" lon="-1.74412">
        <ele>17</ele>
        <time>2018-01-07T18:05:40Z</time>
      </trkpt>
      <trkpt lat="46.74719" lon="-1.74402">
        <ele>17</ele>
        <time>2018-01-07T18:06:40Z</time>
      </trkpt>
      <trkpt lat="46.74724" lon="-1.74388">
        <ele>17</ele>
        <time>2018-01-07T18:07:40Z</time>
      </trkpt>
      <trkpt lat="46.74729" lon="-1.74372">
        <ele>16</ele>
        <time>2018-01-07T18:08:40Z</time>
      </trkpt>
      <trkpt lat="46.74732" lon="-1.74359">
        <ele>16</ele>
        <time>2018-01-07T18:09:40Z</time>
      </trkpt>
      <trkpt lat="46.74735" lon="-1.74347">
        <ele>15</ele>
        <time>2018-01-07T18:10:40Z</time>
      </trkpt>
      <trkpt lat="46.74738" lon="-1.74327">
        <ele>14</ele>
        <time>2018-01-07T18:11:40Z</time>
      </trkpt>
      <trkpt lat="46.74739" lon="-1.74314">
        <ele>14</ele>
        <time>2018-01-07T18:12:40Z</time>
      </trkpt>
      <trkpt lat="46.7474" lon="-1.743">
        <ele>14</ele>
        <time>2018-01-07T18:13:40Z</time>
      </trkpt>
      <trkpt lat="46.74741" lon="-1.74282">
        <ele>14</ele>
        <time>2018-01-07T18:14:40Z</time>
      </trkpt>
      <trkpt lat="46.74742" lon="-1.74239">
        <ele>14</ele>
        <time>2018-01-07T18:15:40Z</time>
      </trkpt>
      <trkpt lat="46.74741" lon="-1.74229">
        <ele>14</ele>
        <time>2018-01-07T18:16:40Z</time>
      </trkpt>
      <trkpt lat="46.7474" lon="-1.74216">
        <ele>13</ele>
        <time>2018-01-07T18:17:40Z</time>
      </trkpt>
      <trkpt lat="46.74738" lon="-1.74205">
        <ele>13</ele>
        <time>2018-01-07T18:18:40Z</time>
      </trkpt>
      <trkpt lat="46.74736" lon="-1.74196">
        <ele>13</ele>
        <time>2018-01-07T18:19:40Z</time>
      </trkpt>
      <trkpt lat="46.74734" lon="-1.74192">
        <ele>13</ele>
        <time>2018-01-07T18:20:40Z</time>
      </trkpt>
      <trkpt lat="46.74732" lon="-1.74188">
        <ele>13</ele>
        <time>2018-01-07T18:21:40Z</time>
      </trkpt>
      <trkpt lat="46.74729" lon="-1.74181">
        <ele>13</ele>
        <time>2018-01-07T18:22:40Z</time>
      </trkpt>
      <trkpt lat="46.74733" lon="-1.74169">
        <ele>13</ele>
        <time>2018-01-07T18:23:40Z</time>
      </trkpt>
      <trkpt lat="46.74735" lon="-1.74165">
        <ele>12</ele>
        <time>2018-01-07T18:24:40Z</time>
      </trkpt>
      <trkpt lat="46.74736" lon="-1.74163">
        <ele>12</ele>
        <time>2018-01-07T18:25:40Z</time>
      </trkpt>
      <trkpt lat="46.74753" lon="-1.74146">
        <ele>11</ele>
        <time>2018-01-07T18:26:40Z</time>
      </trkpt>
      <trkpt lat="46.74753" lon="-1.74146">
        <ele>11</ele>
        <time>2018-01-07T18:27:40Z</time>
      </trkpt>
      <trkpt lat="46.74756" lon="-1.74143">
        <ele>11</ele>
        <time>2018-01-07T18:28:40Z</time>
      </trkpt>
      <trkpt lat="46.74762" lon="-1.74138">
        <ele>12</ele>
        <time>2018-01-07T18:29:40Z</time>
      </trkpt>
      <trkpt lat="46.7477" lon="-1.74131">
        <ele>12</ele>
        <time>2018-01-07T18:30:40Z</time>
      </trkpt>
      <trkpt lat="46.74778" lon="-1.74124">
        <ele>13</ele>
        <time>2018-01-07T18:31:40Z</time>
      </trkpt>
      <trkpt lat="46.74787" lon="-1.74117">
        <ele>13</ele>
        <time>2018-01-07T18:32:40Z</time>
      </trkpt>
      <trkpt lat="46.748" lon="-1.74108">
        <ele>14</ele>
        <time>2018-01-07T18:33:40Z</time>
      </trkpt>
      <trkpt lat="46.74805" lon="-1.74105">
        <ele>14</ele>
        <time>2018-01-07T18:34:40Z</time>
      </trkpt>
      <trkpt lat="46.74807" lon="-1.74104">
        <ele>15</ele>
        <time>2018-01-07T18:35:40Z</time>
      </trkpt>
      <trkpt lat="46.7481" lon="-1.74103">
        <ele>15</ele>
        <time>2018-01-07T18:36:40Z</time>
      </trkpt>
      <trkpt lat="46.74816" lon="-1.741">
        <ele>15</ele>
        <time>2018-01-07T18:37:40Z</time>
      </trkpt>
      <trkpt lat="46.74838" lon="-1.7409">
        <ele>17</ele>
        <time>2018-01-07T18:38:40Z</time>
      </trkpt>
      <trkpt lat="46.74839" lon="-1.74089">
        <ele>17</ele>
        <time>2018-01-07T18:39:40Z</time>
      </trkpt>
      <trkpt lat="46.74841" lon="-1.74088">
        <ele>17</ele>
        <time>2018-01-07T18:40:40Z</time>
      </trkpt>
      <trkpt lat="46.74851" lon="-1.74084">
        <ele>18</ele>
        <time>2018-01-07T18:41:40Z</time>
      </trkpt>
      <trkpt lat="46.74855" lon="-1.74083">
        <ele>19</ele>
        <time>2018-01-07T18:42:40Z</time>
      </trkpt>
      <trkpt lat="46.74862" lon="-1.7408">
        <ele>19</ele>
        <time>2018-01-07T18:43:40Z</time>
      </trkpt>
      <trkpt lat="46.74934" lon="-1.74049">
        <ele>25</ele>
        <time>2018-01-07T18:44:40Z</time>
      </trkpt>
      <trkpt lat="46.74938" lon="-1.74047">
        <ele>25</ele>
        <time>2018-01-07T18:45:40Z</time>
      </trkpt>
      <trkpt lat="46.74942" lon="-1.74045">
        <ele>25</ele>
        <time>2018-01-07T18:46:40Z</time>
      </trkpt>
      <trkpt lat="46.74963" lon="-1.74029">
        <ele>27</ele>
        <time>2018-01-07T18:47:40Z</time>
      </trkpt>
      <trkpt lat="46.74966" lon="-1.74027">
        <ele>27</ele>
        <time>2018-01-07T18:48:40Z</time>
      </trkpt>
      <trkpt lat="46.74973" lon="-1.7402">
        <ele>27</ele>
        <time>2018-01-07T18:49:40Z</time>
      </trkpt>
      <trkpt lat="46.74973" lon="-1.7402">
        <ele>27</ele>
        <time>2018-01-07T18:50:40Z</time>
      </trkpt>
      <trkpt lat="46.74944" lon="-1.73979">
        <ele>28</ele>
        <time>2018-01-07T18:51:40Z</time>
      </trkpt>
      <trkpt lat="46.74941" lon="-1.73975">
        <ele>28</ele>
        <time>2018-01-07T18:52:40Z</time>
      </trkpt>
      <trkpt lat="46.74937" lon="-1.73972">
        <ele>28</ele>
        <time>2018-01-07T18:53:40Z</time>
      </trkpt>
      <trkpt lat="46.74933" lon="-1.7397">
        <ele>28</ele>
        <time>2018-01-07T18:54:40Z</time>
      </trkpt>
      <trkpt lat="46.7493" lon="-1.73969">
        <ele>27</ele>
        <time>2018-01-07T18:55:40Z</time>
      </trkpt>
      <trkpt lat="46.74925" lon="-1.73968">
        <ele>27</ele>
        <time>2018-01-07T18:56:40Z</time>
      </trkpt>
      <trkpt lat="46.74921" lon="-1.73967">
        <ele>27</ele>
        <time>2018-01-07T18:57:40Z</time>
      </trkpt>
      <trkpt lat="46.74917" lon="-1.73966">
        <ele>27</ele>
        <time>2018-01-07T18:58:40Z</time>
      </trkpt>
      <trkpt lat="46.74912" lon="-1.73965">
        <ele>27</ele>
        <time>2018-01-07T18:59:40Z</time>
      </trkpt>
      <trkpt lat="46.74908" lon="-1.73962">
        <ele>27</ele>
        <time>2018-01-07T19:00:40Z</time>
      </trkpt>
      <trkpt lat="46.74904" lon="-1.73959">
        <ele>27</ele>
        <time>2018-01-07T19:01:40Z</time>
      </trkpt>
      <trkpt lat="46.74897" lon="-1.73949">
        <ele>28</ele>
        <time>2018-01-07T19:02:40Z</time>
      </trkpt>
      <trkpt lat="46.7489" lon="-1.73938">
        <ele>28</ele>
        <time>2018-01-07T19:03:40Z</time>
      </trkpt>
      <trkpt lat="46.74885" lon="-1.73926">
        <ele>29</ele>
        <time>2018-01-07T19:04:40Z</time>
      </trkpt>
      <trkpt lat="46.74882" lon="-1.7392">
        <ele>29</ele>
        <time>2018-01-07T19:05:40Z</time>
      </trkpt>
      <trkpt lat="46.74876" lon="-1.73908">
        <ele>29</ele>
        <time>2018-01-07T19:06:40Z</time>
      </trkpt>
      <trkpt lat="46.74875" lon="-1.73905">
        <ele>29</ele>
        <time>2018-01-07T19:07:40Z</time>
      </trkpt>
      <trkpt lat="46.74872" lon="-1.73903">
        <ele>29</ele>
        <time>2018-01-07T19:08:40Z</time>
      </trkpt>
      <trkpt lat="46.74871" lon="-1.73902">
        <ele>29</ele>
        <time>2018-01-07T19:09:40Z</time>
      </trkpt>
      <trkpt lat="46.74864" lon="-1.73883">
        <ele>30</ele>
        <time>2018-01-07T19:10:40Z</time>
      </trkpt>
      <trkpt lat="46.74864" lon="-1.73883">
        <ele>30</ele>
        <time>2018-01-07T19:11:40Z</time>
      </trkpt>
      <trkpt lat="46.74863" lon="-1.73883">
        <ele>30</ele>
        <time>2018-01-07T19:12:40Z</time>
      </trkpt>
      <trkpt lat="46.74863" lon="-1.73882">
        <ele>30</ele>
        <time>2018-01-07T19:13:40Z</time>
      </trkpt>
      <trkpt lat="46.74862" lon="-1.73882">
        <ele>30</ele>
        <time>2018-01-07T19:14:40Z</time>
      </trkpt>
      <trkpt lat="46.74861" lon="-1.73881">
        <ele>30</ele>
        <time>2018-01-07T19:15:40Z</time>
      </trkpt>
      <trkpt lat="46.7486" lon="-1.73881">
        <ele>30</ele>
        <time>2018-01-07T19:16:40Z</time>
      </trkpt>
      <trkpt lat="46.7486" lon="-1.7388">
        <ele>30</ele>
        <time>2018-01-07T19:17:40Z</time>
      </trkpt>
      <trkpt lat="46.74859" lon="-1.73879">
        <ele>30</ele>
        <time>2018-01-07T19:18:40Z</time>
      </trkpt>
      <trkpt lat="46.74859" lon="-1.73878">
        <ele>30</ele>
        <time>2018-01-07T19:19:40Z</time>
      </trkpt>
      <trkpt lat="46.74858" lon="-1.73878">
        <ele>30</ele>
        <time>2018-01-07T19:20:40Z</time>
      </trkpt>
      <trkpt lat="46.74858" lon="-1.73877">
        <ele>30</ele>
        <time>2018-01-07T19:21:40Z</time>
      </trkpt>
      <trkpt lat="46.74858" lon="-1.73876">
        <ele>30</ele>
        <time>2018-01-07T19:22:40Z</time>
      </trkpt>
      <trkpt lat="46.74858" lon="-1.73875">
        <ele>30</ele>
        <time>2018-01-07T19:23:40Z</time>
      </trkpt>
      <trkpt lat="46.74857" lon="-1.73875">
        <ele>30</ele>
        <time>2018-01-07T19:24:40Z</time>
      </trkpt>
      <trkpt lat="46.74857" lon="-1.73874">
        <ele>30</ele>
        <time>2018-01-07T19:25:40Z</time>
      </trkpt>
      <trkpt lat="46.74857" lon="-1.73873">
        <ele>30</ele>
        <time>2018-01-07T19:26:40Z</time>
      </trkpt>
      <trkpt lat="46.74857" lon="-1.73872">
        <ele>30</ele>
        <time>2018-01-07T19:27:40Z</time>
      </trkpt>
      <trkpt lat="46.74857" lon="-1.73871">
        <ele>30</ele>
        <time>2018-01-07T19:28:40Z</time>
      </trkpt>
      <trkpt lat="46.74857" lon="-1.7387">
        <ele>30</ele>
        <time>2018-01-07T19:29:40Z</time>
      </trkpt>
      <trkpt lat="46.74858" lon="-1.7387">
        <ele>30</ele>
        <time>2018-01-07T19:30:40Z</time>
      </trkpt>
      <trkpt lat="46.74858" lon="-1.73869">
        <ele>30</ele>
        <time>2018-01-07T19:31:40Z</time>
      </trkpt>
      <trkpt lat="46.74858" lon="-1.73868">
        <ele>30</ele>
        <time>2018-01-07T19:32:40Z</time>
      </trkpt>
      <trkpt lat="46.74858" lon="-1.73867">
        <ele>30</ele>
        <time>2018-01-07T19:33:40Z</time>
      </trkpt>
      <trkpt lat="46.74859" lon="-1.73867">
        <ele>30</ele>
        <time>2018-01-07T19:34:40Z</time>
      </trkpt>
      <trkpt lat="46.74859" lon="-1.73866">
        <ele>30</ele>
        <time>2018-01-07T19:35:40Z</time>
      </trkpt>
      <trkpt lat="46.7486" lon="-1.73865">
        <ele>30</ele>
        <time>2018-01-07T19:36:40Z</time>
      </trkpt>
      <trkpt lat="46.74861" lon="-1.73864">
        <ele>30</ele>
        <time>2018-01-07T19:37:40Z</time>
      </trkpt>
      <trkpt lat="46.74862" lon="-1.73864">
        <ele>30</ele>
        <time>2018-01-07T19:38:40Z</time>
      </trkpt>
      <trkpt lat="46.74862" lon="-1.73863">
        <ele>30</ele>
        <time>2018-01-07T19:39:40Z</time>
      </trkpt>
      <trkpt lat="46.74863" lon="-1.73863">
        <ele>30</ele>
        <time>2018-01-07T19:40:40Z</time>
      </trkpt>
      <trkpt lat="46.74864" lon="-1.73863">
        <ele>30</ele>
        <time>2018-01-07T19:41:40Z</time>
      </trkpt>
      <trkpt lat="46.74865" lon="-1.73863">
        <ele>31</ele>
        <time>2018-01-07T19:42:40Z</time>
      </trkpt>
      <trkpt lat="46.74866" lon="-1.73863">
        <ele>31</ele>
        <time>2018-01-07T19:43:40Z</time>
      </trkpt>
      <trkpt lat="46.74867" lon="-1.73863">
        <ele>31</ele>
        <time>2018-01-07T19:44:40Z</time>
      </trkpt>
      <trkpt lat="46.74868" lon="-1.73863">
        <ele>31</ele>
        <time>2018-01-07T19:45:40Z</time>
      </trkpt>
      <trkpt lat="46.74873" lon="-1.7386">
        <ele>31</ele>
        <time>2018-01-07T19:46:40Z</time>
      </trkpt>
      <trkpt lat="46.74877" lon="-1.73856">
        <ele>31</ele>
        <time>2018-01-07T19:47:40Z</time>
      </trkpt>
      <trkpt lat="46.74883" lon="-1.73854">
        <ele>32</ele>
        <time>2018-01-07T19:48:40Z</time>
      </trkpt>
      <trkpt lat="46.74908" lon="-1.73846">
        <ele>33</ele>
        <time>2018-01-07T19:49:40Z</time>
      </trkpt>
      <trkpt lat="46.74991" lon="-1.73849">
        <ele>38</ele>
        <time>2018-01-07T19:50:40Z</time>
      </trkpt>
      <trkpt lat="46.75012" lon="-1.73852">
        <ele>38</ele>
        <time>2018-01-07T19:51:40Z</time>
      </trkpt>
      <trkpt lat="46.75026" lon="-1.73853">
        <ele>39</ele>
        <time>2018-01-07T19:52:40Z</time>
      </trkpt>
      <trkpt lat="46.75035" lon="-1.73853">
        <ele>39</ele>
        <time>2018-01-07T19:53:40Z</time>
      </trkpt>
      <trkpt lat="46.75041" lon="-1.73853">
        <ele>40</ele>
        <time>2018-01-07T19:54:40Z</time>
      </trkpt>
      <trkpt lat="46.75118" lon="-1.73846">
        <ele>43</ele>
        <time>2018-01-07T19:55:40Z</time>
      </trkpt>
      <trkpt lat="46.75133" lon="-1.73845">
        <ele>44</ele>
        <time>2018-01-07T19:56:40Z</time>
      </trkpt>
      <trkpt lat="46.75153" lon="-1.73848">
        <ele>45</ele>
        <time>2018-01-07T19:57:40Z</time>
      </trkpt>
      <trkpt lat="46.75169" lon="-1.73854">
        <ele>46</ele>
        <time>2018-01-07T19:58:40Z</time>
      </trkpt>
      <trkpt lat="46.75183" lon="-1.73862">
        <ele>46</ele>
        <time>2018-01-07T19:59:40Z</time>
      </trkpt>
      <trkpt lat="46.75201" lon="-1.73873">
        <ele>46</ele>
        <time>2018-01-07T20:00:40Z</time>
      </trkpt>
      <trkpt lat="46.75211" lon="-1.73882">
        <ele>46</ele>
        <time>2018-01-07T20:01:40Z</time>
      </trkpt>
      <trkpt lat="46.75224" lon="-1.73894">
        <ele>47</ele>
        <time>2018-01-07T20:02:40Z</time>
      </trkpt>
      <trkpt lat="46.75235" lon="-1.73904">
        <ele>47</ele>
        <time>2018-01-07T20:03:40Z</time>
      </trkpt>
      <trkpt lat="46.75244" lon="-1.73911">
        <ele>47</ele>
        <time>2018-01-07T20:04:40Z</time>
      </trkpt>
      <trkpt lat="46.75248" lon="-1.73913">
        <ele>47</ele>
        <time>2018-01-07T20:05:40Z</time>
      </trkpt>
      <trkpt lat="46.75253" lon="-1.73914">
        <ele>47</ele>
        <time>2018-01-07T20:06:40Z</time>
      </trkpt>
      <trkpt lat="46.75258" lon="-1.73915">
        <ele>47</ele>
        <time>2018-01-07T20:07:40Z</time>
      </trkpt>
      <trkpt lat="46.75263" lon="-1.73915">
        <ele>47</ele>
        <time>2018-01-07T20:08:40Z</time>
      </trkpt>
      <trkpt lat="46.75274" lon="-1.73913">
        <ele>48</ele>
        <time>2018-01-07T20:09:40Z</time>
      </trkpt>
      <trkpt lat="46.75299" lon="-1.73904">
        <ele>49</ele>
        <time>2018-01-07T20:10:40Z</time>
      </trkpt>
      <trkpt lat="46.75331" lon="-1.73893">
        <ele>50</ele>
        <time>2018-01-07T20:11:40Z</time>
      </trkpt>
      <trkpt lat="46.75363" lon="-1.73882">
        <ele>51</ele>
        <time>2018-01-07T20:12:40Z</time>
      </trkpt>
      <trkpt lat="46.75372" lon="-1.73879">
        <ele>51</ele>
        <time>2018-01-07T20:13:40Z</time>
      </trkpt>
      <trkpt lat="46.7539" lon="-1.73874">
        <ele>51</ele>
        <time>2018-01-07T20:14:40Z</time>
      </trkpt>
      <trkpt lat="46.75403" lon="-1.73874">
        <ele>51</ele>
        <time>2018-01-07T20:15:40Z</time>
      </trkpt>
      <trkpt lat="46.75412" lon="-1.73876">
        <ele>51</ele>
        <time>2018-01-07T20:16:40Z</time>
      </trkpt>
      <trkpt lat="46.75412" lon="-1.73876">
        <ele>51</ele>
        <time>2018-01-07T20:17:40Z</time>
      </trkpt>
      <trkpt lat="46.75418" lon="-1.73868">
        <ele>52</ele>
        <time>2018-01-07T20:18:40Z</time>
      </trkpt>
      <trkpt lat="46.75426" lon="-1.73863">
        <ele>52</ele>
        <time>2018-01-07T20:19:40Z</time>
      </trkpt>
      <trkpt lat="46.75429" lon="-1.73861">
        <ele>52</ele>
        <time>2018-01-07T20:20:40Z</time>
      </trkpt>
      <trkpt lat="46.7544" lon="-1.73856">
        <ele>52</ele>
        <time>2018-01-07T20:21:40Z</time>
      </trkpt>
      <trkpt lat="46.75474" lon="-1.73845">
        <ele>53</ele>
        <time>2018-01-07T20:22:40Z</time>
      </trkpt>
      <trkpt lat="46.75474" lon="-1.73845">
        <ele>53</ele>
        <time>2018-01-07T20:23:40Z</time>
      </trkpt>
      <trkpt lat="46.7549" lon="-1.73838">
        <ele>54</ele>
        <time>2018-01-07T20:24:40Z</time>
      </trkpt>
      <trkpt lat="46.75496" lon="-1.73835">
        <ele>54</ele>
        <time>2018-01-07T20:25:40Z</time>
      </trkpt>
      <trkpt lat="46.75523" lon="-1.73822">
        <ele>54</ele>
        <time>2018-01-07T20:26:40Z</time>
      </trkpt>
      <trkpt lat="46.75544" lon="-1.73808">
        <ele>55</ele>
        <time>2018-01-07T20:27:40Z</time>
      </trkpt>
      <trkpt lat="46.75565" lon="-1.73794">
        <ele>55</ele>
        <time>2018-01-07T20:28:40Z</time>
      </trkpt>
      <trkpt lat="46.75585" lon="-1.73781">
        <ele>55</ele>
        <time>2018-01-07T20:29:40Z</time>
      </trkpt>
      <trkpt lat="46.75614" lon="-1.73765">
        <ele>56</ele>
        <time>2018-01-07T20:30:40Z</time>
      </trkpt>
      <trkpt lat="46.75626" lon="-1.73758">
        <ele>56</ele>
        <time>2018-01-07T20:31:40Z</time>
      </trkpt>
      <trkpt lat="46.75632" lon="-1.73754">
        <ele>56</ele>
        <time>2018-01-07T20:32:40Z</time>
      </trkpt>
      <trkpt lat="46.75642" lon="-1.73748">
        <ele>56</ele>
        <time>2018-01-07T20:33:40Z</time>
      </trkpt>
      <trkpt lat="46.75649" lon="-1.73742">
        <ele>56</ele>
        <time>2018-01-07T20:34:40Z</time>
      </trkpt>
      <trkpt lat="46.75656" lon="-1.73737">
        <ele>56</ele>
        <time>2018-01-07T20:35:40Z</time>
      </trkpt>
      <trkpt lat="46.7567" lon="-1.73726">
        <ele>56</ele>
        <time>2018-01-07T20:36:40Z</time>
      </trkpt>
      <trkpt lat="46.75677" lon="-1.7372">
        <ele>56</ele>
        <time>2018-01-07T20:37:40Z</time>
      </trkpt>
      <trkpt lat="46.75684" lon="-1.73714">
        <ele>56</ele>
        <time>2018-01-07T20:38:40Z</time>
      </trkpt>
      <trkpt lat="46.75691" lon="-1.73708">
        <ele>56</ele>
        <time>2018-01-07T20:39:40Z</time>
      </trkpt>
      <trkpt lat="46.75697" lon="-1.73702">
        <ele>55</ele>
        <time>2018-01-07T20:40:40Z</time>
      </trkpt>
      <trkpt lat="46.75703" lon="-1.73696">
        <ele>55</ele>
        <time>2018-01-07T20:41:40Z</time>
      </trkpt>
      <trkpt lat="46.75721" lon="-1.73678">
        <ele>55</ele>
        <time>2018-01-07T20:42:40Z</time>
      </trkpt>
      <trkpt lat="46.75733" lon="-1.73668">
        <ele>54</ele>
        <time>2018-01-07T20:43:40Z</time>
      </trkpt>
      <trkpt lat="46.75738" lon="-1.73663">
        <ele>54</ele>
        <time>2018-01-07T20:44:40Z</time>
      </trkpt>
      <trkpt lat="46.75744" lon="-1.73659">
        <ele>54</ele>
        <time>2018-01-07T20:45:40Z</time>
      </trkpt>
      <trkpt lat="46.7575" lon="-1.73655">
        <ele>54</ele>
        <time>2018-01-07T20:46:40Z</time>
      </trkpt>
      <trkpt lat="46.75754" lon="-1.73653">
        <ele>54</ele>
        <time>2018-01-07T20:47:40Z</time>
      </trkpt>
      <trkpt lat="46.75761" lon="-1.7365">
        <ele>53</ele>
        <time>2018-01-07T20:48:40Z</time>
      </trkpt>
      <trkpt lat="46.75764" lon="-1.73649">
        <ele>53</ele>
        <time>2018-01-07T20:49:40Z</time>
      </trkpt>
      <trkpt lat="46.75775" lon="-1.73646">
        <ele>52</ele>
        <time>2018-01-07T20:50:40Z</time>
      </trkpt>
      <trkpt lat="46.75788" lon="-1.73642">
        <ele>52</ele>
        <time>2018-01-07T20:51:40Z</time>
      </trkpt>
      <trkpt lat="46.75801" lon="-1.73637">
        <ele>51</ele>
        <time>2018-01-07T20:52:40Z</time>
      </trkpt>
      <trkpt lat="46.75813" lon="-1.7363">
        <ele>50</ele>
        <time>2018-01-07T20:53:40Z</time>
      </trkpt>
      <trkpt lat="46.75825" lon="-1.73624">
        <ele>49</ele>
        <time>2018-01-07T20:54:40Z</time>
      </trkpt>
      <trkpt lat="46.75832" lon="-1.73622">
        <ele>49</ele>
        <time>2018-01-07T20:55:40Z</time>
      </trkpt>
      <trkpt lat="46.75838" lon="-1.7362">
        <ele>48</ele>
        <time>2018-01-07T20:56:40Z</time>
      </trkpt>
      <trkpt lat="46.75845" lon="-1.73618">
        <ele>48</ele>
        <time>2018-01-07T20:57:40Z</time>
      </trkpt>
      <trkpt lat="46.75852" lon="-1.73617">
        <ele>48</ele>
        <time>2018-01-07T20:58:40Z</time>
      </trkpt>
      <trkpt lat="46.75859" lon="-1.73615">
        <ele>47</ele>
        <time>2018-01-07T20:59:40Z</time>
      </trkpt>
      <trkpt lat="46.75866" lon="-1.73615">
        <ele>47</ele>
        <time>2018-01-07T21:00:40Z</time>
      </trkpt>
      <trkpt lat="46.75879" lon="-1.73615">
        <ele>46</ele>
        <time>2018-01-07T21:01:40Z</time>
      </trkpt>
      <trkpt lat="46.75886" lon="-1.73616">
        <ele>46</ele>
        <time>2018-01-07T21:02:40Z</time>
      </trkpt>
      <trkpt lat="46.75893" lon="-1.73617">
        <ele>46</ele>
        <time>2018-01-07T21:03:40Z</time>
      </trkpt>
      <trkpt lat="46.75914" lon="-1.73621">
        <ele>45</ele>
        <time>2018-01-07T21:04:40Z</time>
      </trkpt>
      <trkpt lat="46.75935" lon="-1.73625">
        <ele>43</ele>
        <time>2018-01-07T21:05:40Z</time>
      </trkpt>
      <trkpt lat="46.7595" lon="-1.73629">
        <ele>42</ele>
        <time>2018-01-07T21:06:40Z</time>
      </trkpt>
      <trkpt lat="46.75963" lon="-1.73635">
        <ele>41</ele>
        <time>2018-01-07T21:07:40Z</time>
      </trkpt>
      <trkpt lat="46.75978" lon="-1.73642">
        <ele>40</ele>
        <time>2018-01-07T21:08:40Z</time>
      </trkpt>
      <trkpt lat="46.75989" lon="-1.7365">
        <ele>38</ele>
        <time>2018-01-07T21:09:40Z</time>
      </trkpt>
      <trkpt lat="46.75999" lon="-1.73656">
        <ele>37</ele>
        <time>2018-01-07T21:10:40Z</time>
      </trkpt>
      <trkpt lat="46.76009" lon="-1.73665">
        <ele>36</ele>
        <time>2018-01-07T21:11:40Z</time>
      </trkpt>
      <trkpt lat="46.76018" lon="-1.73674">
        <ele>36</ele>
        <time>2018-01-07T21:12:40Z</time>
      </trkpt>
      <trkpt lat="46.76025" lon="-1.73681">
        <ele>35</ele>
        <time>2018-01-07T21:13:40Z</time>
      </trkpt>
      <trkpt lat="46.76031" lon="-1.73688">
        <ele>34</ele>
        <time>2018-01-07T21:14:40Z</time>
      </trkpt>
      <trkpt lat="46.76037" lon="-1.73696">
        <ele>34</ele>
        <time>2018-01-07T21:15:40Z</time>
      </trkpt>
      <trkpt lat="46.76042" lon="-1.73705">
        <ele>33</ele>
        <time>2018-01-07T21:16:40Z</time>
      </trkpt>
      <trkpt lat="46.76047" lon="-1.73714">
        <ele>33</ele>
        <time>2018-01-07T21:17:40Z</time>
      </trkpt>
      <trkpt lat="46.76052" lon="-1.73723">
        <ele>32</ele>
        <time>2018-01-07T21:18:40Z</time>
      </trkpt>
      <trkpt lat="46.76067" lon="-1.73754">
        <ele>31</ele>
        <time>2018-01-07T21:19:40Z</time>
      </trkpt>
      <trkpt lat="46.76082" lon="-1.73787">
        <ele>29</ele>
        <time>2018-01-07T21:20:40Z</time>
      </trkpt>
      <trkpt lat="46.76097" lon="-1.73818">
        <ele>29</ele>
        <time>2018-01-07T21:21:40Z</time>
      </trkpt>
      <trkpt lat="46.76104" lon="-1.73834">
        <ele>29</ele>
        <time>2018-01-07T21:22:40Z</time>
      </trkpt>
      <trkpt lat="46.76133" lon="-1.73895">
        <ele>31</ele>
        <time>2018-01-07T21:23:40Z</time>
      </trkpt>
      <trkpt lat="46.76147" lon="-1.7392">
        <ele>31</ele>
        <time>2018-01-07T21:24:40Z</time>
      </trkpt>
      <trkpt lat="46.76157" lon="-1.73935">
        <ele>31</ele>
        <time>2018-01-07T21:25:40Z</time>
      </trkpt>
      <trkpt lat="46.76166" lon="-1.73948">
        <ele>31</ele>
        <time>2018-01-07T21:26:40Z</time>
      </trkpt>
      <trkpt lat="46.76177" lon="-1.73962">
        <ele>31</ele>
        <time>2018-01-07T21:27:40Z</time>
      </trkpt>
      <trkpt lat="46.76199" lon="-1.73989">
        <ele>32</ele>
        <time>2018-01-07T21:28:40Z</time>
      </trkpt>
      <trkpt lat="46.76221" lon="-1.74015">
        <ele>33</ele>
        <time>2018-01-07T21:29:40Z</time>
      </trkpt>
      <trkpt lat="46.76232" lon="-1.74027">
        <ele>34</ele>
        <time>2018-01-07T21:30:40Z</time>
      </trkpt>
      <trkpt lat="46.76236" lon="-1.74032">
        <ele>34</ele>
        <time>2018-01-07T21:31:40Z</time>
      </trkpt>
      <trkpt lat="46.76241" lon="-1.74036">
        <ele>35</ele>
        <time>2018-01-07T21:32:40Z</time>
      </trkpt>
      <trkpt lat="46.76247" lon="-1.74039">
        <ele>35</ele>
        <time>2018-01-07T21:33:40Z</time>
      </trkpt>
      <trkpt lat="46.76251" lon="-1.7404">
        <ele>36</ele>
        <time>2018-01-07T21:34:40Z</time>
      </trkpt>
      <trkpt lat="46.76257" lon="-1.74041">
        <ele>36</ele>
        <time>2018-01-07T21:35:40Z</time>
      </trkpt>
      <trkpt lat="46.76262" lon="-1.74041">
        <ele>37</ele>
        <time>2018-01-07T21:36:40Z</time>
      </trkpt>
      <trkpt lat="46.76272" lon="-1.74039">
        <ele>38</ele>
        <time>2018-01-07T21:37:40Z</time>
      </trkpt>
      <trkpt lat="46.76301" lon="-1.74025">
        <ele>41</ele>
        <time>2018-01-07T21:38:40Z</time>
      </trkpt>
      <trkpt lat="46.76322" lon="-1.74016">
        <ele>43</ele>
        <time>2018-01-07T21:39:40Z</time>
      </trkpt>
      <trkpt lat="46.76336" lon="-1.7401">
        <ele>44</ele>
        <time>2018-01-07T21:40:40Z</time>
      </trkpt>
      <trkpt lat="46.7635" lon="-1.74006">
        <ele>45</ele>
        <time>2018-01-07T21:41:40Z</time>
      </trkpt>
      <trkpt lat="46.76364" lon="-1.74003">
        <ele>45</ele>
        <time>2018-01-07T21:42:40Z</time>
      </trkpt>
      <trkpt lat="46.76378" lon="-1.74">
        <ele>46</ele>
        <time>2018-01-07T21:43:40Z</time>
      </trkpt>
      <trkpt lat="46.76393" lon="-1.73998">
        <ele>47</ele>
        <time>2018-01-07T21:44:40Z</time>
      </trkpt>
      <trkpt lat="46.76415" lon="-1.73996">
        <ele>48</ele>
        <time>2018-01-07T21:45:40Z</time>
      </trkpt>
      <trkpt lat="46.76429" lon="-1.73994">
        <ele>48</ele>
        <time>2018-01-07T21:46:40Z</time>
      </trkpt>
      <trkpt lat="46.76443" lon="-1.7399">
        <ele>48</ele>
        <time>2018-01-07T21:47:40Z</time>
      </trkpt>
      <trkpt lat="46.7646" lon="-1.73986">
        <ele>48</ele>
        <time>2018-01-07T21:48:40Z</time>
      </trkpt>
      <trkpt lat="46.76461" lon="-1.73985">
        <ele>48</ele>
        <time>2018-01-07T21:49:40Z</time>
      </trkpt>
      <trkpt lat="46.76469" lon="-1.73981">
        <ele>48</ele>
        <time>2018-01-07T21:50:40Z</time>
      </trkpt>
      <trkpt lat="46.76476" lon="-1.73978">
        <ele>48</ele>
        <time>2018-01-07T21:51:40Z</time>
      </trkpt>
      <trkpt lat="46.76486" lon="-1.73971">
        <ele>48</ele>
        <time>2018-01-07T21:52:40Z</time>
      </trkpt>
      <trkpt lat="46.76495" lon="-1.73966">
        <ele>48</ele>
        <time>2018-01-07T21:53:40Z</time>
      </trkpt>
      <trkpt lat="46.76495" lon="-1.73966">
        <ele>48</ele>
        <time>2018-01-07T21:54:40Z</time>
      </trkpt>
      <trkpt lat="46.76519" lon="-1.73951">
        <ele>48</ele>
        <time>2018-01-07T21:55:40Z</time>
      </trkpt>
      <trkpt lat="46.76531" lon="-1.73945">
        <ele>48</ele>
        <time>2018-01-07T21:56:40Z</time>
      </trkpt>
      <trkpt lat="46.76536" lon="-1.73943">
        <ele>48</ele>
        <time>2018-01-07T21:57:40Z</time>
      </trkpt>
      <trkpt lat="46.76545" lon="-1.7394">
        <ele>48</ele>
        <time>2018-01-07T21:58:40Z</time>
      </trkpt>
      <trkpt lat="46.76547" lon="-1.7394">
        <ele>49</ele>
        <time>2018-01-07T21:59:40Z</time>
      </trkpt>
      <trkpt lat="46.76553" lon="-1.73938">
        <ele>49</ele>
        <time>2018-01-07T22:00:40Z</time>
      </trkpt>
      <trkpt lat="46.76559" lon="-1.73938">
        <ele>49</ele>
        <time>2018-01-07T22:01:40Z</time>
      </trkpt>
      <trkpt lat="46.76565" lon="-1.73938">
        <ele>49</ele>
        <time>2018-01-07T22:02:40Z</time>
      </trkpt>
      <trkpt lat="46.76572" lon="-1.73938">
        <ele>49</ele>
        <time>2018-01-07T22:03:40Z</time>
      </trkpt>
      <trkpt lat="46.76587" lon="-1.7394">
        <ele>49</ele>
        <time>2018-01-07T22:04:40Z</time>
      </trkpt>
      <trkpt lat="46.76595" lon="-1.73942">
        <ele>50</ele>
        <time>2018-01-07T22:05:40Z</time>
      </trkpt>
      <trkpt lat="46.76603" lon="-1.73943">
        <ele>50</ele>
        <time>2018-01-07T22:06:40Z</time>
      </trkpt>
      <trkpt lat="46.76611" lon="-1.73943">
        <ele>50</ele>
        <time>2018-01-07T22:07:40Z</time>
      </trkpt>
      <trkpt lat="46.76619" lon="-1.73943">
        <ele>50</ele>
        <time>2018-01-07T22:08:40Z</time>
      </trkpt>
      <trkpt lat="46.76626" lon="-1.73942">
        <ele>51</ele>
        <time>2018-01-07T22:09:40Z</time>
      </trkpt>
      <trkpt lat="46.76634" lon="-1.73939">
        <ele>51</ele>
        <time>2018-01-07T22:10:40Z</time>
      </trkpt>
      <trkpt lat="46.76651" lon="-1.73933">
        <ele>51</ele>
        <time>2018-01-07T22:11:40Z</time>
      </trkpt>
      <trkpt lat="46.76671" lon="-1.73926">
        <ele>52</ele>
        <time>2018-01-07T22:12:40Z</time>
      </trkpt>
      <trkpt lat="46.76707" lon="-1.7391">
        <ele>53</ele>
        <time>2018-01-07T22:13:40Z</time>
      </trkpt>
      <trkpt lat="46.76707" lon="-1.7391">
        <ele>53</ele>
        <time>2018-01-07T22:14:40Z</time>
      </trkpt>
      <trkpt lat="46.76725" lon="-1.73903">
        <ele>54</ele>
        <time>2018-01-07T22:15:40Z</time>
      </trkpt>
      <trkpt lat="46.7674" lon="-1.73896">
        <ele>54</ele>
        <time>2018-01-07T22:16:40Z</time>
      </trkpt>
      <trkpt lat="46.76765" lon="-1.73882">
        <ele>54</ele>
        <time>2018-01-07T22:17:40Z</time>
      </trkpt>
      <trkpt lat="46.76773" lon="-1.73877">
        <ele>54</ele>
        <time>2018-01-07T22:18:40Z</time>
      </trkpt>
      <trkpt lat="46.76788" lon="-1.73866">
        <ele>54</ele>
        <time>2018-01-07T22:19:40Z</time>
      </trkpt>
      <trkpt lat="46.76803" lon="-1.73853">
        <ele>54</ele>
        <time>2018-01-07T22:20:40Z</time>
      </trkpt>
      <trkpt lat="46.7681" lon="-1.73846">
        <ele>54</ele>
        <time>2018-01-07T22:21:40Z</time>
      </trkpt>
      <trkpt lat="46.76825" lon="-1.73832">
        <ele>54</ele>
        <time>2018-01-07T22:22:40Z</time>
      </trkpt>
      <trkpt lat="46.76853" lon="-1.73802">
        <ele>54</ele>
        <time>2018-01-07T22:23:40Z</time>
      </trkpt>
      <trkpt lat="46.76861" lon="-1.73795">
        <ele>54</ele>
        <time>2018-01-07T22:24:40Z</time>
      </trkpt>
      <trkpt lat="46.76868" lon="-1.73788">
        <ele>54</ele>
        <time>2018-01-07T22:25:40Z</time>
      </trkpt>
      <trkpt lat="46.76876" lon="-1.73783">
        <ele>55</ele>
        <time>2018-01-07T22:26:40Z</time>
      </trkpt>
      <trkpt lat="46.76885" lon="-1.73777">
        <ele>55</ele>
        <time>2018-01-07T22:27:40Z</time>
      </trkpt>
      <trkpt lat="46.76892" lon="-1.73772">
        <ele>55</ele>
        <time>2018-01-07T22:28:40Z</time>
      </trkpt>
      <trkpt lat="46.76901" lon="-1.73768">
        <ele>55</ele>
        <time>2018-01-07T22:29:40Z</time>
      </trkpt>
      <trkpt lat="46.76909" lon="-1.73763">
        <ele>55</ele>
        <time>2018-01-07T22:30:40Z</time>
      </trkpt>
      <trkpt lat="46.76934" lon="-1.73746">
        <ele>55</ele>
        <time>2018-01-07T22:31:40Z</time>
      </trkpt>
      <trkpt lat="46.76958" lon="-1.73727">
        <ele>55</ele>
        <time>2018-01-07T22:32:40Z</time>
      </trkpt>
      <trkpt lat="46.76975" lon="-1.73714">
        <ele>55</ele>
        <time>2018-01-07T22:33:40Z</time>
      </trkpt>
      <trkpt lat="46.76991" lon="-1.73702">
        <ele>56</ele>
        <time>2018-01-07T22:34:40Z</time>
      </trkpt>
      <trkpt lat="46.77008" lon="-1.73693">
        <ele>56</ele>
        <time>2018-01-07T22:35:40Z</time>
      </trkpt>
      <trkpt lat="46.77016" lon="-1.73689">
        <ele>55</ele>
        <time>2018-01-07T22:36:40Z</time>
      </trkpt>
      <trkpt lat="46.77034" lon="-1.73682">
        <ele>55</ele>
        <time>2018-01-07T22:37:40Z</time>
      </trkpt>
      <trkpt lat="46.77042" lon="-1.73679">
        <ele>55</ele>
        <time>2018-01-07T22:38:40Z</time>
      </trkpt>
      <trkpt lat="46.77052" lon="-1.73676">
        <ele>55</ele>
        <time>2018-01-07T22:39:40Z</time>
      </trkpt>
      <trkpt lat="46.77061" lon="-1.73674">
        <ele>55</ele>
        <time>2018-01-07T22:40:40Z</time>
      </trkpt>
      <trkpt lat="46.77071" lon="-1.73673">
        <ele>54</ele>
        <time>2018-01-07T22:41:40Z</time>
      </trkpt>
      <trkpt lat="46.77085" lon="-1.73672">
        <ele>54</ele>
        <time>2018-01-07T22:42:40Z</time>
      </trkpt>
      <trkpt lat="46.77125" lon="-1.73671">
        <ele>54</ele>
        <time>2018-01-07T22:43:40Z</time>
      </trkpt>
      <trkpt lat="46.77153" lon="-1.7367">
        <ele>55</ele>
        <time>2018-01-07T22:44:40Z</time>
      </trkpt>
      <trkpt lat="46.77179" lon="-1.73666">
        <ele>55</ele>
        <time>2018-01-07T22:45:40Z</time>
      </trkpt>
      <trkpt lat="46.77187" lon="-1.73664">
        <ele>55</ele>
        <time>2018-01-07T22:46:40Z</time>
      </trkpt>
      <trkpt lat="46.77199" lon="-1.73661">
        <ele>55</ele>
        <time>2018-01-07T22:47:40Z</time>
      </trkpt>
      <trkpt lat="46.77253" lon="-1.73637">
        <ele>54</ele>
        <time>2018-01-07T22:48:40Z</time>
      </trkpt>
      <trkpt lat="46.77306" lon="-1.73616">
        <ele>54</ele>
        <time>2018-01-07T22:49:40Z</time>
      </trkpt>
      <trkpt lat="46.77372" lon="-1.73589">
        <ele>53</ele>
        <time>2018-01-07T22:50:40Z</time>
      </trkpt>
      <trkpt lat="46.77379" lon="-1.73585">
        <ele>53</ele>
        <time>2018-01-07T22:51:40Z</time>
      </trkpt>
      <trkpt lat="46.77389" lon="-1.73579">
        <ele>53</ele>
        <time>2018-01-07T22:52:40Z</time>
      </trkpt>
      <trkpt lat="46.77403" lon="-1.7357">
        <ele>53</ele>
        <time>2018-01-07T22:53:40Z</time>
      </trkpt>
      <trkpt lat="46.77416" lon="-1.73557">
        <ele>53</ele>
        <time>2018-01-07T22:54:40Z</time>
      </trkpt>
      <trkpt lat="46.77479" lon="-1.73499">
        <ele>52</ele>
        <time>2018-01-07T22:55:40Z</time>
      </trkpt>
      <trkpt lat="46.77542" lon="-1.73442">
        <ele>53</ele>
        <time>2018-01-07T22:56:40Z</time>
      </trkpt>
      <trkpt lat="46.77549" lon="-1.73436">
        <ele>53</ele>
        <time>2018-01-07T22:57:40Z</time>
      </trkpt>
      <trkpt lat="46.77556" lon="-1.73432">
        <ele>53</ele>
        <time>2018-01-07T22:58:40Z</time>
      </trkpt>
      <trkpt lat="46.77562" lon="-1.73428">
        <ele>53</ele>
        <time>2018-01-07T22:59:40Z</time>
      </trkpt>
      <trkpt lat="46.77569" lon="-1.73425">
        <ele>53</ele>
        <time>2018-01-07T23:00:40Z</time>
      </trkpt>
      <trkpt lat="46.77576" lon="-1.73423">
        <ele>53</ele>
        <time>2018-01-07T23:01:40Z</time>
      </trkpt>
      <trkpt lat="46.77583" lon="-1.73422">
        <ele>53</ele>
        <time>2018-01-07T23:02:40Z</time>
      </trkpt>
      <trkpt lat="46.77592" lon="-1.73421">
        <ele>53</ele>
        <time>2018-01-07T23:03:40Z</time>
      </trkpt>
      <trkpt lat="46.77599" lon="-1.73421">
        <ele>53</ele>
        <time>2018-01-07T23:04:40Z</time>
      </trkpt>
      <trkpt lat="46.77636" lon="-1.73423">
        <ele>54</ele>
        <time>2018-01-07T23:05:40Z</time>
      </trkpt>
      <trkpt lat="46.77687" lon="-1.73425">
        <ele>54</ele>
        <time>2018-01-07T23:06:40Z</time>
      </trkpt>
      <trkpt lat="46.77707" lon="-1.73424">
        <ele>53</ele>
        <time>2018-01-07T23:07:40Z</time>
      </trkpt>
      <trkpt lat="46.77736" lon="-1.7342">
        <ele>53</ele>
        <time>2018-01-07T23:08:40Z</time>
      </trkpt>
      <trkpt lat="46.77757" lon="-1.73415">
        <ele>53</ele>
        <time>2018-01-07T23:09:40Z</time>
      </trkpt>
      <trkpt lat="46.77798" lon="-1.73407">
        <ele>53</ele>
        <time>2018-01-07T23:10:40Z</time>
      </trkpt>
      <trkpt lat="46.77831" lon="-1.73402">
        <ele>53</ele>
        <time>2018-01-07T23:11:40Z</time>
      </trkpt>
      <trkpt lat="46.77844" lon="-1.734">
        <ele>53</ele>
        <time>2018-01-07T23:12:40Z</time>
      </trkpt>
      <trkpt lat="46.77858" lon="-1.73399">
        <ele>53</ele>
        <time>2018-01-07T23:13:40Z</time>
      </trkpt>
      <trkpt lat="46.77914" lon="-1.73398">
        <ele>54</ele>
        <time>2018-01-07T23:14:40Z</time>
      </trkpt>
      <trkpt lat="46.77934" lon="-1.73397">
        <ele>53</ele>
        <time>2018-01-07T23:15:40Z</time>
      </trkpt>
      <trkpt lat="46.77945" lon="-1.73396">
        <ele>53</ele>
        <time>2018-01-07T23:16:40Z</time>
      </trkpt>
      <trkpt lat="46.77955" lon="-1.73394">
        <ele>53</ele>
        <time>2018-01-07T23:17:40Z</time>
      </trkpt>
      <trkpt lat="46.77963" lon="-1.73392">
        <ele>53</ele>
        <time>2018-01-07T23:18:40Z</time>
      </trkpt>
      <trkpt lat="46.77963" lon="-1.73392">
        <ele>53</ele>
        <time>2018-01-07T23:19:40Z</time>
      </trkpt>
      <trkpt lat="46.77979" lon="-1.73386">
        <ele>53</ele>
        <time>2018-01-07T23:20:40Z</time>
      </trkpt>
      <trkpt lat="46.78065" lon="-1.73352">
        <ele>53</ele>
        <time>2018-01-07T23:21:40Z</time>
      </trkpt>
      <trkpt lat="46.78093" lon="-1.73343">
        <ele>53</ele>
        <time>2018-01-07T23:22:40Z</time>
      </trkpt>
      <trkpt lat="46.78113" lon="-1.73337">
        <ele>53</ele>
        <time>2018-01-07T23:23:40Z</time>
      </trkpt>
      <trkpt lat="46.78131" lon="-1.73331">
        <ele>52</ele>
        <time>2018-01-07T23:24:40Z</time>
      </trkpt>
      <trkpt lat="46.78159" lon="-1.73326">
        <ele>52</ele>
        <time>2018-01-07T23:25:40Z</time>
      </trkpt>
      <trkpt lat="46.7822" lon="-1.73315">
        <ele>53</ele>
        <time>2018-01-07T23:26:40Z</time>
      </trkpt>
      <trkpt lat="46.78238" lon="-1.73313">
        <ele>53</ele>
        <time>2018-01-07T23:27:40Z</time>
      </trkpt>
      <trkpt lat="46.78264" lon="-1.73309">
        <ele>53</ele>
        <time>2018-01-07T23:28:40Z</time>
      </trkpt>
      <trkpt lat="46.78276" lon="-1.73307">
        <ele>53</ele>
        <time>2018-01-07T23:29:40Z</time>
      </trkpt>
      <trkpt lat="46.78293" lon="-1.73305">
        <ele>53</ele>
        <time>2018-01-07T23:30:40Z</time>
      </trkpt>
      <trkpt lat="46.78307" lon="-1.73304">
        <ele>53</ele>
        <time>2018-01-07T23:31:40Z</time>
      </trkpt>
      <trkpt lat="46.78333" lon="-1.73303">
        <ele>54</ele>
        <time>2018-01-07T23:32:40Z</time>
      </trkpt>
      <trkpt lat="46.78385" lon="-1.73303">
        <ele>53</ele>
        <time>2018-01-07T23:33:40Z</time>
      </trkpt>
      <trkpt lat="46.78412" lon="-1.73304">
        <ele>53</ele>
        <time>2018-01-07T23:34:40Z</time>
      </trkpt>
      <trkpt lat="46.78418" lon="-1.73303">
        <ele>53</ele>
        <time>2018-01-07T23:35:40Z</time>
      </trkpt>
      <trkpt lat="46.78473" lon="-1.73305">
        <ele>51</ele>
        <time>2018-01-07T23:36:40Z</time>
      </trkpt>
      <trkpt lat="46.78481" lon="-1.73304">
        <ele>51</ele>
        <time>2018-01-07T23:37:40Z</time>
      </trkpt>
      <trkpt lat="46.78481" lon="-1.73304">
        <ele>51</ele>
        <time>2018-01-07T23:38:40Z</time>
      </trkpt>
      <trkpt lat="46.78482" lon="-1.73291">
        <ele>51</ele>
        <time>2018-01-07T23:39:40Z</time>
      </trkpt>
      <trkpt lat="46.78482" lon="-1.73279">
        <ele>51</ele>
        <time>2018-01-07T23:40:40Z</time>
      </trkpt>
      <trkpt lat="46.78484" lon="-1.73268">
        <ele>51</ele>
        <time>2018-01-07T23:41:40Z</time>
      </trkpt>
      <trkpt lat="46.78485" lon="-1.73259">
        <ele>50</ele>
        <time>2018-01-07T23:42:40Z</time>
      </trkpt>
      <trkpt lat="46.78488" lon="-1.73237">
        <ele>50</ele>
        <time>2018-01-07T23:43:40Z</time>
      </trkpt>
      <trkpt lat="46.78498" lon="-1.73169">
        <ele>51</ele>
        <time>2018-01-07T23:44:40Z</time>
      </trkpt>
      <trkpt lat="46.78509" lon="-1.73095">
        <ele>51</ele>
        <time>2018-01-07T23:45:40Z</time>
      </trkpt>
      <trkpt lat="46.78526" lon="-1.7299">
        <ele>51</ele>
        <time>2018-01-07T23:46:40Z</time>
      </trkpt>
      <trkpt lat="46.78545" lon="-1.72862">
        <ele>50</ele>
        <time>2018-01-07T23:47:40Z</time>
      </trkpt>
      <trkpt lat="46.78548" lon="-1.72842">
        <ele>49</ele>
        <time>2018-01-07T23:48:40Z</time>
      </trkpt>
      <trkpt lat="46.78551" lon="-1.72824">
        <ele>49</ele>
        <time>2018-01-07T23:49:40Z</time>
      </trkpt>
      <trkpt lat="46.78556" lon="-1.72797">
        <ele>49</ele>
        <time>2018-01-07T23:50:40Z</time>
      </trkpt>
      <trkpt lat="46.78559" lon="-1.72776">
        <ele>49</ele>
        <time>2018-01-07T23:51:40Z</time>
      </trkpt>
      <trkpt lat="46.78561" lon="-1.72761">
        <ele>49</ele>
        <time>2018-01-07T23:52:40Z</time>
      </trkpt>
      <trkpt lat="46.78563" lon="-1.72748">
        <ele>49</ele>
        <time>2018-01-07T23:53:40Z</time>
      </trkpt>
      <trkpt lat="46.78564" lon="-1.72735">
        <ele>49</ele>
        <time>2018-01-07T23:54:40Z</time>
      </trkpt>
      <trkpt lat="46.78566" lon="-1.72721">
        <ele>49</ele>
        <time>2018-01-07T23:55:40Z</time>
      </trkpt>
      <trkpt lat="46.78567" lon="-1.72701">
        <ele>49</ele>
        <time>2018-01-07T23:56:40Z</time>
      </trkpt>
      <trkpt lat="46.78569" lon="-1.7268">
        <ele>49</ele>
        <time>2018-01-07T23:57:40Z</time>
      </trkpt>
      <trkpt lat="46.78569" lon="-1.72677">
        <ele>49</ele>
        <time>2018-01-07T23:58:40Z</time>
      </trkpt>
      <trkpt lat="46.7857" lon="-1.72658">
        <ele>49</ele>
        <time>2018-01-07T23:59:40Z</time>
      </trkpt>
      <trkpt lat="46.78571" lon="-1.72641">
        <ele>49</ele>
        <time>2018-01-08T00:00:40Z</time>
      </trkpt>
      <trkpt lat="46.78576" lon="-1.72562">
        <ele>49</ele>
        <time>2018-01-08T00:01:40Z</time>
      </trkpt>
      <trkpt lat="46.7858" lon="-1.72481">
        <ele>49</ele>
        <time>2018-01-08T00:02:40Z</time>
      </trkpt>
      <trkpt lat="46.78586" lon="-1.72381">
        <ele>49</ele>
        <time>2018-01-08T00:03:40Z</time>
      </trkpt>
      <trkpt lat="46.78591" lon="-1.72291">
        <ele>49</ele>
        <time>2018-01-08T00:04:40Z</time>
      </trkpt>
      <trkpt lat="46.78597" lon="-1.72175">
        <ele>49</ele>
        <time>2018-01-08T00:05:40Z</time>
      </trkpt>
      <trkpt lat="46.78599" lon="-1.72138">
        <ele>49</ele>
        <time>2018-01-08T00:06:40Z</time>
      </trkpt>
      <trkpt lat="46.78603" lon="-1.72087">
        <ele>50</ele>
        <time>2018-01-08T00:07:40Z</time>
      </trkpt>
      <trkpt lat="46.78605" lon="-1.72056">
        <ele>49</ele>
        <time>2018-01-08T00:08:40Z</time>
      </trkpt>
      <trkpt lat="46.78608" lon="-1.7203">
        <ele>49</ele>
        <time>2018-01-08T00:09:40Z</time>
      </trkpt>
      <trkpt lat="46.78613" lon="-1.71983">
        <ele>49</ele>
        <time>2018-01-08T00:10:40Z</time>
      </trkpt>
      <trkpt lat="46.78631" lon="-1.71864">
        <ele>48</ele>
        <time>2018-01-08T00:11:40Z</time>
      </trkpt>
      <trkpt lat="46.78646" lon="-1.71762">
        <ele>47</ele>
        <time>2018-01-08T00:12:40Z</time>
      </trkpt>
      <trkpt lat="46.78665" lon="-1.71618">
        <ele>48</ele>
        <time>2018-01-08T00:13:40Z</time>
      </trkpt>
      <trkpt lat="46.78672" lon="-1.71568">
        <ele>48</ele>
        <time>2018-01-08T00:14:40Z</time>
      </trkpt>
      <trkpt lat="46.78686" lon="-1.71469">
        <ele>47</ele>
        <time>2018-01-08T00:15:40Z</time>
      </trkpt>
      <trkpt lat="46.78693" lon="-1.71413">
        <ele>46</ele>
        <time>2018-01-08T00:16:40Z</time>
      </trkpt>
      <trkpt lat="46.78702" lon="-1.71355">
        <ele>45</ele>
        <time>2018-01-08T00:17:40Z</time>
      </trkpt>
      <trkpt lat="46.78705" lon="-1.71332">
        <ele>45</ele>
        <time>2018-01-08T00:18:40Z</time>
      </trkpt>
      <trkpt lat="46.78714" lon="-1.71265">
        <ele>44</ele>
        <time>2018-01-08T00:19:40Z</time>
      </trkpt>
      <trkpt lat="46.78721" lon="-1.71229">
        <ele>44</ele>
        <time>2018-01-08T00:20:40Z</time>
      </trkpt>
      <trkpt lat="46.78729" lon="-1.7119">
        <ele>43</ele>
        <time>2018-01-08T00:21:40Z</time>
      </trkpt>
      <trkpt lat="46.78785" lon="-1.70972">
        <ele>41</ele>
        <time>2018-01-08T00:22:40Z</time>
      </trkpt>
      <trkpt lat="46.78837" lon="-1.70762">
        <ele>42</ele>
        <time>2018-01-08T00:23:40Z</time>
      </trkpt>
      <trkpt lat="46.78852" lon="-1.70705">
        <ele>43</ele>
        <time>2018-01-08T00:24:40Z</time>
      </trkpt>
      <trkpt lat="46.78876" lon="-1.70617">
        <ele>43</ele>
        <time>2018-01-08T00:25:40Z</time>
      </trkpt>
      <trkpt lat="46.78878" lon="-1.70608">
        <ele>43</ele>
        <time>2018-01-08T00:26:40Z</time>
      </trkpt>
      <trkpt lat="46.78881" lon="-1.70594">
        <ele>43</ele>
        <time>2018-01-08T00:27:40Z</time>
      </trkpt>
      <trkpt lat="46.78883" lon="-1.70579">
        <ele>43</ele>
        <time>2018-01-08T00:28:40Z</time>
      </trkpt>
      <trkpt lat="46.78885" lon="-1.7056">
        <ele>43</ele>
        <time>2018-01-08T00:29:40Z</time>
      </trkpt>
      <trkpt lat="46.78888" lon="-1.70539">
        <ele>44</ele>
        <time>2018-01-08T00:30:40Z</time>
      </trkpt>
      <trkpt lat="46.78888" lon="-1.70523">
        <ele>44</ele>
        <time>2018-01-08T00:31:40Z</time>
      </trkpt>
      <trkpt lat="46.78889" lon="-1.70503">
        <ele>44</ele>
        <time>2018-01-08T00:32:40Z</time>
      </trkpt>
      <trkpt lat="46.78889" lon="-1.70484">
        <ele>45</ele>
        <time>2018-01-08T00:33:40Z</time>
      </trkpt>
      <trkpt lat="46.78888" lon="-1.70446">
        <ele>46</ele>
        <time>2018-01-08T00:34:40Z</time>
      </trkpt>
      <trkpt lat="46.78885" lon="-1.7038">
        <ele>47</ele>
        <time>2018-01-08T00:35:40Z</time>
      </trkpt>
      <trkpt lat="46.78885" lon="-1.70371">
        <ele>47</ele>
        <time>2018-01-08T00:36:40Z</time>
      </trkpt>
      <trkpt lat="46.78885" lon="-1.70366">
        <ele>47</ele>
        <time>2018-01-08T00:37:40Z</time>
      </trkpt>
      <trkpt lat="46.78886" lon="-1.70352">
        <ele>47</ele>
        <time>2018-01-08T00:38:40Z</time>
      </trkpt>
      <trkpt lat="46.78887" lon="-1.70349">
        <ele>47</ele>
        <time>2018-01-08T00:39:40Z</time>
      </trkpt>
      <trkpt lat="46.78888" lon="-1.70346">
        <ele>48</ele>
        <time>2018-01-08T00:40:40Z</time>
      </trkpt>
      <trkpt lat="46.78892" lon="-1.70336">
        <ele>48</ele>
        <time>2018-01-08T00:41:40Z</time>
      </trkpt>
      <trkpt lat="46.78892" lon="-1.70336">
        <ele>48</ele>
        <time>2018-01-08T00:42:40Z</time>
      </trkpt>
      <trkpt lat="46.78886" lon="-1.70324">
        <ele>48</ele>
        <time>2018-01-08T00:43:40Z</time>
      </trkpt>
      <trkpt lat="46.7888" lon="-1.70312">
        <ele>48</ele>
        <time>2018-01-08T00:44:40Z</time>
      </trkpt>
      <trkpt lat="46.78875" lon="-1.70301">
        <ele>48</ele>
        <time>2018-01-08T00:45:40Z</time>
      </trkpt>
      <trkpt lat="46.78875" lon="-1.70301">
        <ele>48</ele>
        <time>2018-01-08T00:46:40Z</time>
      </trkpt>
      <trkpt lat="46.78867" lon="-1.70286">
        <ele>48</ele>
        <time>2018-01-08T00:47:40Z</time>
      </trkpt>
      <trkpt lat="46.78871" lon="-1.7028">
        <ele>48</ele>
        <time>2018-01-08T00:48:40Z</time>
      </trkpt>
      <trkpt lat="46.78872" lon="-1.70268">
        <ele>48</ele>
        <time>2018-01-08T00:49:40Z</time>
      </trkpt>
      <trkpt lat="46.78875" lon="-1.70254">
        <ele>48</ele>
        <time>2018-01-08T00:50:40Z</time>
      </trkpt>
      <trkpt lat="46.78878" lon="-1.70239">
        <ele>48</ele>
        <time>2018-01-08T00:51:40Z</time>
      </trkpt>
      <trkpt lat="46.78879" lon="-1.7023">
        <ele>48</ele>
        <time>2018-01-08T00:52:40Z</time>
      </trkpt>
      <trkpt lat="46.78881" lon="-1.70226">
        <ele>48</ele>
        <time>2018-01-08T00:53:40Z</time>
      </trkpt>
      <trkpt lat="46.78881" lon="-1.70216">
        <ele>48</ele>
        <time>2018-01-08T00:54:40Z</time>
      </trkpt>
      <trkpt lat="46.7888" lon="-1.70187">
        <ele>48</ele>
        <time>2018-01-08T00:55:40Z</time>
      </trkpt>
      <trkpt lat="46.7888" lon="-1.7017">
        <ele>48</ele>
        <time>2018-01-08T00:56:40Z</time>
      </trkpt>
      <trkpt lat="46.7888" lon="-1.70161">
        <ele>48</ele>
        <time>2018-01-08T00:57:40Z</time>
      </trkpt>
      <trkpt lat="46.7888" lon="-1.70155">
        <ele>48</ele>
        <time>2018-01-08T00:58:40Z</time>
      </trkpt>
      <trkpt lat="46.7888" lon="-1.70153">
        <ele>48</ele>
        <time>2018-01-08T00:59:40Z</time>
      </trkpt>
      <trkpt lat="46.78882" lon="-1.70135">
        <ele>48</ele>
        <time>2018-01-08T01:00:40Z</time>
      </trkpt>
      <trkpt lat="46.78887" lon="-1.70108">
        <ele>48</ele>
        <time>2018-01-08T01:01:40Z</time>
      </trkpt>
      <trkpt lat="46.78898" lon="-1.70064">
        <ele>48</ele>
        <time>2018-01-08T01:02:40Z</time>
      </trkpt>
      <trkpt lat="46.78925" lon="-1.69968">
        <ele>48</ele>
        <time>2018-01-08T01:03:40Z</time>
      </trkpt>
      <trkpt lat="46.78934" lon="-1.69938">
        <ele>48</ele>
        <time>2018-01-08T01:04:40Z</time>
      </trkpt>
      <trkpt lat="46.78939" lon="-1.69916">
        <ele>48</ele>
        <time>2018-01-08T01:05:40Z</time>
      </trkpt>
      <trkpt lat="46.78944" lon="-1.69893">
        <ele>48</ele>
        <time>2018-01-08T01:06:40Z</time>
      </trkpt>
      <trkpt lat="46.78949" lon="-1.69867">
        <ele>47</ele>
        <time>2018-01-08T01:07:40Z</time>
      </trkpt>
      <trkpt lat="46.78953" lon="-1.69842">
        <ele>47</ele>
        <time>2018-01-08T01:08:40Z</time>
      </trkpt>
      <trkpt lat="46.78954" lon="-1.69832">
        <ele>46</ele>
        <time>2018-01-08T01:09:40Z</time>
      </trkpt>
      <trkpt lat="46.78961" lon="-1.6977">
        <ele>46</ele>
        <time>2018-01-08T01:10:40Z</time>
      </trkpt>
      <trkpt lat="46.78963" lon="-1.69748">
        <ele>46</ele>
        <time>2018-01-08T01:11:40Z</time>
      </trkpt>
      <trkpt lat="46.78971" lon="-1.6968">
        <ele>47</ele>
        <time>2018-01-08T01:12:40Z</time>
      </trkpt>
      <trkpt lat="46.78983" lon="-1.69568">
        <ele>46</ele>
        <time>2018-01-08T01:13:40Z</time>
      </trkpt>
      <trkpt lat="46.78989" lon="-1.6952">
        <ele>46</ele>
        <time>2018-01-08T01:14:40Z</time>
      </trkpt>
      <trkpt lat="46.78992" lon="-1.69501">
        <ele>46</ele>
        <time>2018-01-08T01:15:40Z</time>
      </trkpt>
      <trkpt lat="46.78994" lon="-1.69486">
        <ele>46</ele>
        <time>2018-01-08T01:16:40Z</time>
      </trkpt>
      <trkpt lat="46.78996" lon="-1.69474">
        <ele>46</ele>
        <time>2018-01-08T01:17:40Z</time>
      </trkpt>
      <trkpt lat="46.78998" lon="-1.69461">
        <ele>46</ele>
        <time>2018-01-08T01:18:40Z</time>
      </trkpt>
      <trkpt lat="46.79" lon="-1.6945">
        <ele>45</ele>
        <time>2018-01-08T01:19:40Z</time>
      </trkpt>
      <trkpt lat="46.79" lon="-1.69448">
        <ele>45</ele>
        <time>2018-01-08T01:20:40Z</time>
      </trkpt>
      <trkpt lat="46.79003" lon="-1.69434">
        <ele>45</ele>
        <time>2018-01-08T01:21:40Z</time>
      </trkpt>
      <trkpt lat="46.79006" lon="-1.69421">
        <ele>45</ele>
        <time>2018-01-08T01:22:40Z</time>
      </trkpt>
      <trkpt lat="46.79013" lon="-1.69392">
        <ele>45</ele>
        <time>2018-01-08T01:23:40Z</time>
      </trkpt>
      <trkpt lat="46.7902" lon="-1.69366">
        <ele>45</ele>
        <time>2018-01-08T01:24:40Z</time>
      </trkpt>
      <trkpt lat="46.79033" lon="-1.69324">
        <ele>45</ele>
        <time>2018-01-08T01:25:40Z</time>
      </trkpt>
      <trkpt lat="46.79048" lon="-1.69268">
        <ele>45</ele>
        <time>2018-01-08T01:26:40Z</time>
      </trkpt>
      <trkpt lat="46.79051" lon="-1.69259">
        <ele>45</ele>
        <time>2018-01-08T01:27:40Z</time>
      </trkpt>
      <trkpt lat="46.79073" lon="-1.69182">
        <ele>44</ele>
        <time>2018-01-08T01:28:40Z</time>
      </trkpt>
      <trkpt lat="46.7909" lon="-1.69121">
        <ele>44</ele>
        <time>2018-01-08T01:29:40Z</time>
      </trkpt>
      <trkpt lat="46.79106" lon="-1.69064">
        <ele>45</ele>
        <time>2018-01-08T01:30:40Z</time>
      </trkpt>
      <trkpt lat="46.79125" lon="-1.68996">
        <ele>45</ele>
        <time>2018-01-08T01:31:40Z</time>
      </trkpt>
      <trkpt lat="46.79139" lon="-1.68949">
        <ele>45</ele>
        <time>2018-01-08T01:32:40Z</time>
      </trkpt>
      <trkpt lat="46.7917" lon="-1.68838">
        <ele>44</ele>
        <time>2018-01-08T01:33:40Z</time>
      </trkpt>
      <trkpt lat="46.79195" lon="-1.68751">
        <ele>44</ele>
        <time>2018-01-08T01:34:40Z</time>
      </trkpt>
      <trkpt lat="46.79222" lon="-1.68656">
        <ele>44</ele>
        <time>2018-01-08T01:35:40Z</time>
      </trkpt>
      <trkpt lat="46.79242" lon="-1.68587">
        <ele>46</ele>
        <time>2018-01-08T01:36:40Z</time>
      </trkpt>
      <trkpt lat="46.79258" lon="-1.68526">
        <ele>46</ele>
        <time>2018-01-08T01:37:40Z</time>
      </trkpt>
      <trkpt lat="46.79258" lon="-1.68524">
        <ele>46</ele>
        <time>2018-01-08T01:38:40Z</time>
      </trkpt>
      <trkpt lat="46.79284" lon="-1.68431">
        <ele>44</ele>
        <time>2018-01-08T01:39:40Z</time>
      </trkpt>
      <trkpt lat="46.793" lon="-1.6837">
        <ele>44</ele>
        <time>2018-01-08T01:40:40Z</time>
      </trkpt>
      <trkpt lat="46.79321" lon="-1.68293">
        <ele>44</ele>
        <time>2018-01-08T01:41:40Z</time>
      </trkpt>
      <trkpt lat="46.79333" lon="-1.68246">
        <ele>44</ele>
        <time>2018-01-08T01:42:40Z</time>
      </trkpt>
      <trkpt lat="46.79345" lon="-1.68197">
        <ele>45</ele>
        <time>2018-01-08T01:43:40Z</time>
      </trkpt>
      <trkpt lat="46.79354" lon="-1.68151">
        <ele>46</ele>
        <time>2018-01-08T01:44:40Z</time>
      </trkpt>
      <trkpt lat="46.79359" lon="-1.68131">
        <ele>46</ele>
        <time>2018-01-08T01:45:40Z</time>
      </trkpt>
      <trkpt lat="46.79362" lon="-1.6811">
        <ele>47</ele>
        <time>2018-01-08T01:46:40Z</time>
      </trkpt>
      <trkpt lat="46.79366" lon="-1.68087">
        <ele>47</ele>
        <time>2018-01-08T01:47:40Z</time>
      </trkpt>
      <trkpt lat="46.79368" lon="-1.68065">
        <ele>47</ele>
        <time>2018-01-08T01:48:40Z</time>
      </trkpt>
      <trkpt lat="46.79372" lon="-1.68026">
        <ele>46</ele>
        <time>2018-01-08T01:49:40Z</time>
      </trkpt>
      <trkpt lat="46.79374" lon="-1.68002">
        <ele>46</ele>
        <time>2018-01-08T01:50:40Z</time>
      </trkpt>
      <trkpt lat="46.79379" lon="-1.67933">
        <ele>46</ele>
        <time>2018-01-08T01:51:40Z</time>
      </trkpt>
      <trkpt lat="46.7939" lon="-1.67805">
        <ele>47</ele>
        <time>2018-01-08T01:52:40Z</time>
      </trkpt>
      <trkpt lat="46.79396" lon="-1.67743">
        <ele>49</ele>
        <time>2018-01-08T01:53:40Z</time>
      </trkpt>
      <trkpt lat="46.79401" lon="-1.67686">
        <ele>49</ele>
        <time>2018-01-08T01:54:40Z</time>
      </trkpt>
      <trkpt lat="46.79406" lon="-1.67617">
        <ele>50</ele>
        <time>2018-01-08T01:55:40Z</time>
      </trkpt>
      <trkpt lat="46.7941" lon="-1.67568">
        <ele>51</ele>
        <time>2018-01-08T01:56:40Z</time>
      </trkpt>
      <trkpt lat="46.79413" lon="-1.6753">
        <ele>52</ele>
        <time>2018-01-08T01:57:40Z</time>
      </trkpt>
      <trkpt lat="46.79416" lon="-1.675">
        <ele>52</ele>
        <time>2018-01-08T01:58:40Z</time>
      </trkpt>
      <trkpt lat="46.79418" lon="-1.67489">
        <ele>52</ele>
        <time>2018-01-08T01:59:40Z</time>
      </trkpt>
      <trkpt lat="46.79419" lon="-1.67476">
        <ele>52</ele>
        <time>2018-01-08T02:00:40Z</time>
      </trkpt>
      <trkpt lat="46.79421" lon="-1.67464">
        <ele>52</ele>
        <time>2018-01-08T02:01:40Z</time>
      </trkpt>
      <trkpt lat="46.79423" lon="-1.67455">
        <ele>51</ele>
        <time>2018-01-08T02:02:40Z</time>
      </trkpt>
      <trkpt lat="46.79425" lon="-1.67446">
        <ele>51</ele>
        <time>2018-01-08T02:03:40Z</time>
      </trkpt>
      <trkpt lat="46.79429" lon="-1.67429">
        <ele>51</ele>
        <time>2018-01-08T02:04:40Z</time>
      </trkpt>
      <trkpt lat="46.79438" lon="-1.67395">
        <ele>52</ele>
        <time>2018-01-08T02:05:40Z</time>
      </trkpt>
      <trkpt lat="46.79447" lon="-1.6736">
        <ele>52</ele>
        <time>2018-01-08T02:06:40Z</time>
      </trkpt>
      <trkpt lat="46.79466" lon="-1.67286">
        <ele>53</ele>
        <time>2018-01-08T02:07:40Z</time>
      </trkpt>
      <trkpt lat="46.79495" lon="-1.67175">
        <ele>52</ele>
        <time>2018-01-08T02:08:40Z</time>
      </trkpt>
      <trkpt lat="46.79515" lon="-1.67096">
        <ele>51</ele>
        <time>2018-01-08T02:09:40Z</time>
      </trkpt>
      <trkpt lat="46.79533" lon="-1.67027">
        <ele>50</ele>
        <time>2018-01-08T02:10:40Z</time>
      </trkpt>
      <trkpt lat="46.79552" lon="-1.66953">
        <ele>49</ele>
        <time>2018-01-08T02:11:40Z</time>
      </trkpt>
      <trkpt lat="46.79566" lon="-1.66906">
        <ele>48</ele>
        <time>2018-01-08T02:12:40Z</time>
      </trkpt>
      <trkpt lat="46.79575" lon="-1.66884">
        <ele>48</ele>
        <time>2018-01-08T02:13:40Z</time>
      </trkpt>
      <trkpt lat="46.79583" lon="-1.66865">
        <ele>48</ele>
        <time>2018-01-08T02:14:40Z</time>
      </trkpt>
      <trkpt lat="46.79612" lon="-1.66798">
        <ele>46</ele>
        <time>2018-01-08T02:15:40Z</time>
      </trkpt>
      <trkpt lat="46.7964" lon="-1.6674">
        <ele>44</ele>
        <time>2018-01-08T02:16:40Z</time>
      </trkpt>
      <trkpt lat="46.7965" lon="-1.66717">
        <ele>44</ele>
        <time>2018-01-08T02:17:40Z</time>
      </trkpt>
      <trkpt lat="46.79655" lon="-1.66706">
        <ele>43</ele>
        <time>2018-01-08T02:18:40Z</time>
      </trkpt>
      <trkpt lat="46.79657" lon="-1.66699">
        <ele>43</ele>
        <time>2018-01-08T02:19:40Z</time>
      </trkpt>
      <trkpt lat="46.79659" lon="-1.66691">
        <ele>43</ele>
        <time>2018-01-08T02:20:40Z</time>
      </trkpt>
      <trkpt lat="46.79662" lon="-1.66681">
        <ele>43</ele>
        <time>2018-01-08T02:21:40Z</time>
      </trkpt>
      <trkpt lat="46.79663" lon="-1.66671">
        <ele>43</ele>
        <time>2018-01-08T02:22:40Z</time>
      </trkpt>
      <trkpt lat="46.79666" lon="-1.66657">
        <ele>43</ele>
        <time>2018-01-08T02:23:40Z</time>
      </trkpt>
      <trkpt lat="46.79666" lon="-1.66653">
        <ele>43</ele>
        <time>2018-01-08T02:24:40Z</time>
      </trkpt>
      <trkpt lat="46.79669" lon="-1.66633">
        <ele>42</ele>
        <time>2018-01-08T02:25:40Z</time>
      </trkpt>
      <trkpt lat="46.79673" lon="-1.66608">
        <ele>41</ele>
        <time>2018-01-08T02:26:40Z</time>
      </trkpt>
      <trkpt lat="46.79679" lon="-1.66573">
        <ele>41</ele>
        <time>2018-01-08T02:27:40Z</time>
      </trkpt>
      <trkpt lat="46.79686" lon="-1.66531">
        <ele>41</ele>
        <time>2018-01-08T02:28:40Z</time>
      </trkpt>
      <trkpt lat="46.79687" lon="-1.66526">
        <ele>41</ele>
        <time>2018-01-08T02:29:40Z</time>
      </trkpt>
      <trkpt lat="46.79688" lon="-1.6652">
        <ele>41</ele>
        <time>2018-01-08T02:30:40Z</time>
      </trkpt>
      <trkpt lat="46.7969" lon="-1.66513">
        <ele>41</ele>
        <time>2018-01-08T02:31:40Z</time>
      </trkpt>
      <trkpt lat="46.79691" lon="-1.6651">
        <ele>41</ele>
        <time>2018-01-08T02:32:40Z</time>
      </trkpt>
      <trkpt lat="46.79692" lon="-1.66507">
        <ele>41</ele>
        <time>2018-01-08T02:33:40Z</time>
      </trkpt>
      <trkpt lat="46.79693" lon="-1.66505">
        <ele>41</ele>
        <time>2018-01-08T02:34:40Z</time>
      </trkpt>
      <trkpt lat="46.79699" lon="-1.66494">
        <ele>41</ele>
        <time>2018-01-08T02:35:40Z</time>
      </trkpt>
      <trkpt lat="46.79707" lon="-1.66481">
        <ele>41</ele>
        <time>2018-01-08T02:36:40Z</time>
      </trkpt>
      <trkpt lat="46.79718" lon="-1.66464">
        <ele>41</ele>
        <time>2018-01-08T02:37:40Z</time>
      </trkpt>
      <trkpt lat="46.79732" lon="-1.66441">
        <ele>42</ele>
        <time>2018-01-08T02:38:40Z</time>
      </trkpt>
      <trkpt lat="46.79734" lon="-1.66438">
        <ele>42</ele>
        <time>2018-01-08T02:39:40Z</time>
      </trkpt>
      <trkpt lat="46.79735" lon="-1.66435">
        <ele>42</ele>
        <time>2018-01-08T02:40:40Z</time>
      </trkpt>
      <trkpt lat="46.79737" lon="-1.66431">
        <ele>42</ele>
        <time>2018-01-08T02:41:40Z</time>
      </trkpt>
      <trkpt lat="46.79738" lon="-1.66429">
        <ele>42</ele>
        <time>2018-01-08T02:42:40Z</time>
      </trkpt>
      <trkpt lat="46.79739" lon="-1.66426">
        <ele>42</ele>
        <time>2018-01-08T02:43:40Z</time>
      </trkpt>
      <trkpt lat="46.79741" lon="-1.6642">
        <ele>42</ele>
        <time>2018-01-08T02:44:40Z</time>
      </trkpt>
      <trkpt lat="46.79745" lon="-1.66405">
        <ele>42</ele>
        <time>2018-01-08T02:45:40Z</time>
      </trkpt>
      <trkpt lat="46.79748" lon="-1.66394">
        <ele>42</ele>
        <time>2018-01-08T02:46:40Z</time>
      </trkpt>
      <trkpt lat="46.79751" lon="-1.66382">
        <ele>42</ele>
        <time>2018-01-08T02:47:40Z</time>
      </trkpt>
      <trkpt lat="46.79752" lon="-1.66377">
        <ele>42</ele>
        <time>2018-01-08T02:48:40Z</time>
      </trkpt>
      <trkpt lat="46.79752" lon="-1.66374">
        <ele>42</ele>
        <time>2018-01-08T02:49:40Z</time>
      </trkpt>
      <trkpt lat="46.79753" lon="-1.66371">
        <ele>42</ele>
        <time>2018-01-08T02:50:40Z</time>
      </trkpt>
      <trkpt lat="46.79753" lon="-1.66367">
        <ele>42</ele>
        <time>2018-01-08T02:51:40Z</time>
      </trkpt>
      <trkpt lat="46.79754" lon="-1.66359">
        <ele>42</ele>
        <time>2018-01-08T02:52:40Z</time>
      </trkpt>
      <trkpt lat="46.79755" lon="-1.66348">
        <ele>42</ele>
        <time>2018-01-08T02:53:40Z</time>
      </trkpt>
      <trkpt lat="46.79755" lon="-1.66338">
        <ele>42</ele>
        <time>2018-01-08T02:54:40Z</time>
      </trkpt>
      <trkpt lat="46.79756" lon="-1.66313">
        <ele>41</ele>
        <time>2018-01-08T02:55:40Z</time>
      </trkpt>
      <trkpt lat="46.79756" lon="-1.66307">
        <ele>41</ele>
        <time>2018-01-08T02:56:40Z</time>
      </trkpt>
      <trkpt lat="46.79756" lon="-1.66303">
        <ele>41</ele>
        <time>2018-01-08T02:57:40Z</time>
      </trkpt>
      <trkpt lat="46.79756" lon="-1.66299">
        <ele>41</ele>
        <time>2018-01-08T02:58:40Z</time>
      </trkpt>
      <trkpt lat="46.79756" lon="-1.66296">
        <ele>41</ele>
        <time>2018-01-08T02:59:40Z</time>
      </trkpt>
      <trkpt lat="46.79755" lon="-1.66291">
        <ele>41</ele>
        <time>2018-01-08T03:00:40Z</time>
      </trkpt>
      <trkpt lat="46.79754" lon="-1.66281">
        <ele>41</ele>
        <time>2018-01-08T03:01:40Z</time>
      </trkpt>
      <trkpt lat="46.79754" lon="-1.66276">
        <ele>41</ele>
        <time>2018-01-08T03:02:40Z</time>
      </trkpt>
      <trkpt lat="46.79752" lon="-1.66268">
        <ele>40</ele>
        <time>2018-01-08T03:03:40Z</time>
      </trkpt>
      <trkpt lat="46.7975" lon="-1.66258">
        <ele>40</ele>
        <time>2018-01-08T03:04:40Z</time>
      </trkpt>
      <trkpt lat="46.79747" lon="-1.66243">
        <ele>40</ele>
        <time>2018-01-08T03:05:40Z</time>
      </trkpt>
      <trkpt lat="46.79745" lon="-1.66238">
        <ele>40</ele>
        <time>2018-01-08T03:06:40Z</time>
      </trkpt>
      <trkpt lat="46.7974" lon="-1.66213">
        <ele>40</ele>
        <time>2018-01-08T03:07:40Z</time>
      </trkpt>
      <trkpt lat="46.79739" lon="-1.66208">
        <ele>40</ele>
        <time>2018-01-08T03:08:40Z</time>
      </trkpt>
      <trkpt lat="46.79739" lon="-1.66203">
        <ele>39</ele>
        <time>2018-01-08T03:09:40Z</time>
      </trkpt>
      <trkpt lat="46.79736" lon="-1.66178">
        <ele>39</ele>
        <time>2018-01-08T03:10:40Z</time>
      </trkpt>
      <trkpt lat="46.79734" lon="-1.66153">
        <ele>39</ele>
        <time>2018-01-08T03:11:40Z</time>
      </trkpt>
      <trkpt lat="46.79732" lon="-1.66133">
        <ele>38</ele>
        <time>2018-01-08T03:12:40Z</time>
      </trkpt>
      <trkpt lat="46.79731" lon="-1.66113">
        <ele>38</ele>
        <time>2018-01-08T03:13:40Z</time>
      </trkpt>
      <trkpt lat="46.79731" lon="-1.66113">
        <ele>38</ele>
        <time>2018-01-08T03:14:40Z</time>
      </trkpt>
      <trkpt lat="46.79728" lon="-1.66114">
        <ele>38</ele>
        <time>2018-01-08T03:15:40Z</time>
      </trkpt>
      <trkpt lat="46.79725" lon="-1.66113">
        <ele>38</ele>
        <time>2018-01-08T03:16:40Z</time>
      </trkpt>
      <trkpt lat="46.79722" lon="-1.6611">
        <ele>38</ele>
        <time>2018-01-08T03:17:40Z</time>
      </trkpt>
      <trkpt lat="46.7972" lon="-1.66106">
        <ele>38</ele>
        <time>2018-01-08T03:18:40Z</time>
      </trkpt>
      <trkpt lat="46.7972" lon="-1.66102">
        <ele>37</ele>
        <time>2018-01-08T03:19:40Z</time>
      </trkpt>
      <trkpt lat="46.7972" lon="-1.66097">
        <ele>37</ele>
        <time>2018-01-08T03:20:40Z</time>
      </trkpt>
      <trkpt lat="46.79722" lon="-1.66093">
        <ele>37</ele>
        <time>2018-01-08T03:21:40Z</time>
      </trkpt>
      <trkpt lat="46.79725" lon="-1.6609">
        <ele>37</ele>
        <time>2018-01-08T03:22:40Z</time>
      </trkpt>
      <trkpt lat="46.79729" lon="-1.66089">
        <ele>37</ele>
        <time>2018-01-08T03:23:40Z</time>
      </trkpt>
      <trkpt lat="46.79732" lon="-1.6609">
        <ele>37</ele>
        <time>2018-01-08T03:24:40Z</time>
      </trkpt>
      <trkpt lat="46.79735" lon="-1.66093">
        <ele>37</ele>
        <time>2018-01-08T03:25:40Z</time>
      </trkpt>
      <trkpt lat="46.79744" lon="-1.66085">
        <ele>37</ele>
        <time>2018-01-08T03:26:40Z</time>
      </trkpt>
      <trkpt lat="46.79778" lon="-1.66072">
        <ele>37</ele>
        <time>2018-01-08T03:27:40Z</time>
      </trkpt>
      <trkpt lat="46.79794" lon="-1.66065">
        <ele>37</ele>
        <time>2018-01-08T03:28:40Z</time>
      </trkpt>
      <trkpt lat="46.79804" lon="-1.66061">
        <ele>37</ele>
        <time>2018-01-08T03:29:40Z</time>
      </trkpt>
      <trkpt lat="46.7981" lon="-1.66058">
        <ele>37</ele>
        <time>2018-01-08T03:30:40Z</time>
      </trkpt>
      <trkpt lat="46.79823" lon="-1.66053">
        <ele>37</ele>
        <time>2018-01-08T03:31:40Z</time>
      </trkpt>
      <trkpt lat="46.79827" lon="-1.66051">
        <ele>37</ele>
        <time>2018-01-08T03:32:40Z</time>
      </trkpt>
      <trkpt lat="46.79842" lon="-1.66041">
        <ele>36</ele>
        <time>2018-01-08T03:33:40Z</time>
      </trkpt>
      <trkpt lat="46.79862" lon="-1.66028">
        <ele>36</ele>
        <time>2018-01-08T03:34:40Z</time>
      </trkpt>
      <trkpt lat="46.79876" lon="-1.66019">
        <ele>35</ele>
        <time>2018-01-08T03:35:40Z</time>
      </trkpt>
      <trkpt lat="46.79902" lon="-1.66001">
        <ele>35</ele>
        <time>2018-01-08T03:36:40Z</time>
      </trkpt>
      <trkpt lat="46.79924" lon="-1.65984">
        <ele>34</ele>
        <time>2018-01-08T03:37:40Z</time>
      </trkpt>
      <trkpt lat="46.79943" lon="-1.65971">
        <ele>33</ele>
        <time>2018-01-08T03:38:40Z</time>
      </trkpt>
      <trkpt lat="46.79963" lon="-1.65957">
        <ele>31</ele>
        <time>2018-01-08T03:39:40Z</time>
      </trkpt>
      <trkpt lat="46.79986" lon="-1.65939">
        <ele>30</ele>
        <time>2018-01-08T03:40:40Z</time>
      </trkpt>
      <trkpt lat="46.80005" lon="-1.65927">
        <ele>29</ele>
        <time>2018-01-08T03:41:40Z</time>
      </trkpt>
      <trkpt lat="46.80033" lon="-1.65911">
        <ele>27</ele>
        <time>2018-01-08T03:42:40Z</time>
      </trkpt>
      <trkpt lat="46.80051" lon="-1.65902">
        <ele>26</ele>
        <time>2018-01-08T03:43:40Z</time>
      </trkpt>
      <trkpt lat="46.80068" lon="-1.65896">
        <ele>24</ele>
        <time>2018-01-08T03:44:40Z</time>
      </trkpt>
      <trkpt lat="46.80084" lon="-1.65889">
        <ele>23</ele>
        <time>2018-01-08T03:45:40Z</time>
      </trkpt>
      <trkpt lat="46.80097" lon="-1.65883">
        <ele>23</ele>
        <time>2018-01-08T03:46:40Z</time>
      </trkpt>
      <trkpt lat="46.80109" lon="-1.6588">
        <ele>23</ele>
        <time>2018-01-08T03:47:40Z</time>
      </trkpt>
      <trkpt lat="46.80123" lon="-1.65874">
        <ele>23</ele>
        <time>2018-01-08T03:48:40Z</time>
      </trkpt>
      <trkpt lat="46.80133" lon="-1.6587">
        <ele>23</ele>
        <time>2018-01-08T03:49:40Z</time>
      </trkpt>
      <trkpt lat="46.8014" lon="-1.65866">
        <ele>23</ele>
        <time>2018-01-08T03:50:40Z</time>
      </trkpt>
      <trkpt lat="46.80147" lon="-1.65862">
        <ele>23</ele>
        <time>2018-01-08T03:51:40Z</time>
      </trkpt>
      <trkpt lat="46.80151" lon="-1.65859">
        <ele>23</ele>
        <time>2018-01-08T03:52:40Z</time>
      </trkpt>
      <trkpt lat="46.80154" lon="-1.65858">
        <ele>23</ele>
        <time>2018-01-08T03:53:40Z</time>
      </trkpt>
      <trkpt lat="46.80162" lon="-1.65852">
        <ele>23</ele>
        <time>2018-01-08T03:54:40Z</time>
      </trkpt>
      <trkpt lat="46.80164" lon="-1.6585">
        <ele>24</ele>
        <time>2018-01-08T03:55:40Z</time>
      </trkpt>
      <trkpt lat="46.80167" lon="-1.65847">
        <ele>24</ele>
        <time>2018-01-08T03:56:40Z</time>
      </trkpt>
      <trkpt lat="46.80177" lon="-1.65837">
        <ele>25</ele>
        <time>2018-01-08T03:57:40Z</time>
      </trkpt>
      <trkpt lat="46.80188" lon="-1.65824">
        <ele>26</ele>
        <time>2018-01-08T03:58:40Z</time>
      </trkpt>
      <trkpt lat="46.80198" lon="-1.65811">
        <ele>27</ele>
        <time>2018-01-08T03:59:40Z</time>
      </trkpt>
      <trkpt lat="46.80209" lon="-1.65792">
        <ele>28</ele>
        <time>2018-01-08T04:00:40Z</time>
      </trkpt>
      <trkpt lat="46.80217" lon="-1.65776">
        <ele>28</ele>
        <time>2018-01-08T04:01:40Z</time>
      </trkpt>
      <trkpt lat="46.80225" lon="-1.65756">
        <ele>28</ele>
        <time>2018-01-08T04:02:40Z</time>
      </trkpt>
      <trkpt lat="46.80231" lon="-1.65737">
        <ele>29</ele>
        <time>2018-01-08T04:03:40Z</time>
      </trkpt>
      <trkpt lat="46.80236" lon="-1.65722">
        <ele>28</ele>
        <time>2018-01-08T04:04:40Z</time>
      </trkpt>
      <trkpt lat="46.8024" lon="-1.65705">
        <ele>28</ele>
        <time>2018-01-08T04:05:40Z</time>
      </trkpt>
      <trkpt lat="46.80244" lon="-1.6569">
        <ele>28</ele>
        <time>2018-01-08T04:06:40Z</time>
      </trkpt>
      <trkpt lat="46.80246" lon="-1.65677">
        <ele>27</ele>
        <time>2018-01-08T04:07:40Z</time>
      </trkpt>
      <trkpt lat="46.80248" lon="-1.65656">
        <ele>27</ele>
        <time>2018-01-08T04:08:40Z</time>
      </trkpt>
      <trkpt lat="46.80249" lon="-1.65636">
        <ele>27</ele>
        <time>2018-01-08T04:09:40Z</time>
      </trkpt>
      <trkpt lat="46.8025" lon="-1.65617">
        <ele>26</ele>
        <time>2018-01-08T04:10:40Z</time>
      </trkpt>
      <trkpt lat="46.80252" lon="-1.65596">
        <ele>26</ele>
        <time>2018-01-08T04:11:40Z</time>
      </trkpt>
      <trkpt lat="46.80254" lon="-1.65575">
        <ele>26</ele>
        <time>2018-01-08T04:12:40Z</time>
      </trkpt>
      <trkpt lat="46.80256" lon="-1.65557">
        <ele>26</ele>
        <time>2018-01-08T04:13:40Z</time>
      </trkpt>
      <trkpt lat="46.80258" lon="-1.65538">
        <ele>27</ele>
        <time>2018-01-08T04:14:40Z</time>
      </trkpt>
      <trkpt lat="46.8026" lon="-1.65524">
        <ele>27</ele>
        <time>2018-01-08T04:15:40Z</time>
      </trkpt>
      <trkpt lat="46.80261" lon="-1.65521">
        <ele>27</ele>
        <time>2018-01-08T04:16:40Z</time>
      </trkpt>
      <trkpt lat="46.80264" lon="-1.65509">
        <ele>27</ele>
        <time>2018-01-08T04:17:40Z</time>
      </trkpt>
      <trkpt lat="46.80269" lon="-1.65487">
        <ele>27</ele>
        <time>2018-01-08T04:18:40Z</time>
      </trkpt>
      <trkpt lat="46.80274" lon="-1.65465">
        <ele>27</ele>
        <time>2018-01-08T04:19:40Z</time>
      </trkpt>
      <trkpt lat="46.80284" lon="-1.65438">
        <ele>28</ele>
        <time>2018-01-08T04:20:40Z</time>
      </trkpt>
      <trkpt lat="46.80292" lon="-1.65421">
        <ele>29</ele>
        <time>2018-01-08T04:21:40Z</time>
      </trkpt>
      <trkpt lat="46.80304" lon="-1.654">
        <ele>30</ele>
        <time>2018-01-08T04:22:40Z</time>
      </trkpt>
      <trkpt lat="46.80316" lon="-1.65384">
        <ele>31</ele>
        <time>2018-01-08T04:23:40Z</time>
      </trkpt>
      <trkpt lat="46.80326" lon="-1.65373">
        <ele>33</ele>
        <time>2018-01-08T04:24:40Z</time>
      </trkpt>
      <trkpt lat="46.80335" lon="-1.65363">
        <ele>34</ele>
        <time>2018-01-08T04:25:40Z</time>
      </trkpt>
      <trkpt lat="46.8035" lon="-1.65349">
        <ele>34</ele>
        <time>2018-01-08T04:26:40Z</time>
      </trkpt>
      <trkpt lat="46.80369" lon="-1.65333">
        <ele>35</ele>
        <time>2018-01-08T04:27:40Z</time>
      </trkpt>
      <trkpt lat="46.80383" lon="-1.65321">
        <ele>35</ele>
        <time>2018-01-08T04:28:40Z</time>
      </trkpt>
      <trkpt lat="46.80399" lon="-1.65309">
        <ele>35</ele>
        <time>2018-01-08T04:29:40Z</time>
      </trkpt>
      <trkpt lat="46.804" lon="-1.65308">
        <ele>35</ele>
        <time>2018-01-08T04:30:40Z</time>
      </trkpt>
      <trkpt lat="46.80408" lon="-1.65303">
        <ele>35</ele>
        <time>2018-01-08T04:31:40Z</time>
      </trkpt>
      <trkpt lat="46.80416" lon="-1.65298">
        <ele>35</ele>
        <time>2018-01-08T04:32:40Z</time>
      </trkpt>
      <trkpt lat="46.80425" lon="-1.65293">
        <ele>35</ele>
        <time>2018-01-08T04:33:40Z</time>
      </trkpt>
      <trkpt lat="46.80435" lon="-1.65286">
        <ele>35</ele>
        <time>2018-01-08T04:34:40Z</time>
      </trkpt>
      <trkpt lat="46.80447" lon="-1.6528">
        <ele>35</ele>
        <time>2018-01-08T04:35:40Z</time>
      </trkpt>
      <trkpt lat="46.80463" lon="-1.65272">
        <ele>35</ele>
        <time>2018-01-08T04:36:40Z</time>
      </trkpt>
      <trkpt lat="46.805" lon="-1.65259">
        <ele>35</ele>
        <time>2018-01-08T04:37:40Z</time>
      </trkpt>
      <trkpt lat="46.80538" lon="-1.6525">
        <ele>36</ele>
        <time>2018-01-08T04:38:40Z</time>
      </trkpt>
      <trkpt lat="46.80573" lon="-1.65243">
        <ele>37</ele>
        <time>2018-01-08T04:39:40Z</time>
      </trkpt>
      <trkpt lat="46.80598" lon="-1.65237">
        <ele>37</ele>
        <time>2018-01-08T04:40:40Z</time>
      </trkpt>
      <trkpt lat="46.80622" lon="-1.65232">
        <ele>38</ele>
        <time>2018-01-08T04:41:40Z</time>
      </trkpt>
      <trkpt lat="46.80641" lon="-1.65228">
        <ele>38</ele>
        <time>2018-01-08T04:42:40Z</time>
      </trkpt>
      <trkpt lat="46.80666" lon="-1.65221">
        <ele>39</ele>
        <time>2018-01-08T04:43:40Z</time>
      </trkpt>
      <trkpt lat="46.80683" lon="-1.65215">
        <ele>39</ele>
        <time>2018-01-08T04:44:40Z</time>
      </trkpt>
      <trkpt lat="46.80702" lon="-1.65208">
        <ele>39</ele>
        <time>2018-01-08T04:45:40Z</time>
      </trkpt>
      <trkpt lat="46.80722" lon="-1.65201">
        <ele>39</ele>
        <time>2018-01-08T04:46:40Z</time>
      </trkpt>
      <trkpt lat="46.80745" lon="-1.65196">
        <ele>39</ele>
        <time>2018-01-08T04:47:40Z</time>
      </trkpt>
      <trkpt lat="46.80758" lon="-1.65197">
        <ele>39</ele>
        <time>2018-01-08T04:48:40Z</time>
      </trkpt>
      <trkpt lat="46.80758" lon="-1.65197">
        <ele>39</ele>
        <time>2018-01-08T04:49:40Z</time>
      </trkpt>
      <trkpt lat="46.80758" lon="-1.65182">
        <ele>39</ele>
        <time>2018-01-08T04:50:40Z</time>
      </trkpt>
      <trkpt lat="46.80758" lon="-1.65182">
        <ele>39</ele>
        <time>2018-01-08T04:51:40Z</time>
      </trkpt>
      <trkpt lat="46.80766" lon="-1.65177">
        <ele>39</ele>
        <time>2018-01-08T04:52:40Z</time>
      </trkpt>
      <trkpt lat="46.80781" lon="-1.6517">
        <ele>39</ele>
        <time>2018-01-08T04:53:40Z</time>
      </trkpt>
      <trkpt lat="46.80797" lon="-1.65159">
        <ele>39</ele>
        <time>2018-01-08T04:54:40Z</time>
      </trkpt>
      <trkpt lat="46.80817" lon="-1.65143">
        <ele>39</ele>
        <time>2018-01-08T04:55:40Z</time>
      </trkpt>
      <trkpt lat="46.80831" lon="-1.6513">
        <ele>39</ele>
        <time>2018-01-08T04:56:40Z</time>
      </trkpt>
      <trkpt lat="46.8085" lon="-1.65113">
        <ele>38</ele>
        <time>2018-01-08T04:57:40Z</time>
      </trkpt>
      <trkpt lat="46.80867" lon="-1.65098">
        <ele>37</ele>
        <time>2018-01-08T04:58:40Z</time>
      </trkpt>
      <trkpt lat="46.80882" lon="-1.65084">
        <ele>37</ele>
        <time>2018-01-08T04:59:40Z</time>
      </trkpt>
      <trkpt lat="46.80895" lon="-1.65074">
        <ele>37</ele>
        <time>2018-01-08T05:00:40Z</time>
      </trkpt>
      <trkpt lat="46.80906" lon="-1.65065">
        <ele>37</ele>
        <time>2018-01-08T05:01:40Z</time>
      </trkpt>
      <trkpt lat="46.80918" lon="-1.65056">
        <ele>37</ele>
        <time>2018-01-08T05:02:40Z</time>
      </trkpt>
      <trkpt lat="46.80929" lon="-1.65048">
        <ele>36</ele>
        <time>2018-01-08T05:03:40Z</time>
      </trkpt>
      <trkpt lat="46.80933" lon="-1.65046">
        <ele>36</ele>
        <time>2018-01-08T05:04:40Z</time>
      </trkpt>
      <trkpt lat="46.80937" lon="-1.65044">
        <ele>36</ele>
        <time>2018-01-08T05:05:40Z</time>
      </trkpt>
      <trkpt lat="46.80955" lon="-1.65039">
        <ele>36</ele>
        <time>2018-01-08T05:06:40Z</time>
      </trkpt>
      <trkpt lat="46.80967" lon="-1.65038">
        <ele>36</ele>
        <time>2018-01-08T05:07:40Z</time>
      </trkpt>
      <trkpt lat="46.80977" lon="-1.6504">
        <ele>36</ele>
        <time>2018-01-08T05:08:40Z</time>
      </trkpt>
      <trkpt lat="46.80992" lon="-1.65046">
        <ele>36</ele>
        <time>2018-01-08T05:09:40Z</time>
      </trkpt>
      <trkpt lat="46.81005" lon="-1.65052">
        <ele>36</ele>
        <time>2018-01-08T05:10:40Z</time>
      </trkpt>
      <trkpt lat="46.81017" lon="-1.65061">
        <ele>35</ele>
        <time>2018-01-08T05:11:40Z</time>
      </trkpt>
      <trkpt lat="46.81027" lon="-1.65071">
        <ele>35</ele>
        <time>2018-01-08T05:12:40Z</time>
      </trkpt>
      <trkpt lat="46.81038" lon="-1.65082">
        <ele>35</ele>
        <time>2018-01-08T05:13:40Z</time>
      </trkpt>
      <trkpt lat="46.81046" lon="-1.65092">
        <ele>35</ele>
        <time>2018-01-08T05:14:40Z</time>
      </trkpt>
      <trkpt lat="46.81059" lon="-1.65108">
        <ele>35</ele>
        <time>2018-01-08T05:15:40Z</time>
      </trkpt>
      <trkpt lat="46.81064" lon="-1.65116">
        <ele>35</ele>
        <time>2018-01-08T05:16:40Z</time>
      </trkpt>
      <trkpt lat="46.81071" lon="-1.65125">
        <ele>35</ele>
        <time>2018-01-08T05:17:40Z</time>
      </trkpt>
      <trkpt lat="46.81081" lon="-1.65138">
        <ele>35</ele>
        <time>2018-01-08T05:18:40Z</time>
      </trkpt>
      <trkpt lat="46.81094" lon="-1.65151">
        <ele>36</ele>
        <time>2018-01-08T05:19:40Z</time>
      </trkpt>
      <trkpt lat="46.81106" lon="-1.65162">
        <ele>36</ele>
        <time>2018-01-08T05:20:40Z</time>
      </trkpt>
      <trkpt lat="46.8112" lon="-1.65172">
        <ele>36</ele>
        <time>2018-01-08T05:21:40Z</time>
      </trkpt>
      <trkpt lat="46.81125" lon="-1.65175">
        <ele>35</ele>
        <time>2018-01-08T05:22:40Z</time>
      </trkpt>
      <trkpt lat="46.81138" lon="-1.65179">
        <ele>35</ele>
        <time>2018-01-08T05:23:40Z</time>
      </trkpt>
      <trkpt lat="46.81153" lon="-1.65183">
        <ele>35</ele>
        <time>2018-01-08T05:24:40Z</time>
      </trkpt>
      <trkpt lat="46.81161" lon="-1.65183">
        <ele>35</ele>
        <time>2018-01-08T05:25:40Z</time>
      </trkpt>
      <trkpt lat="46.81172" lon="-1.65184">
        <ele>35</ele>
        <time>2018-01-08T05:26:40Z</time>
      </trkpt>
      <trkpt lat="46.81192" lon="-1.65182">
        <ele>36</ele>
        <time>2018-01-08T05:27:40Z</time>
      </trkpt>
      <trkpt lat="46.81217" lon="-1.65176">
        <ele>37</ele>
        <time>2018-01-08T05:28:40Z</time>
      </trkpt>
      <trkpt lat="46.81243" lon="-1.65166">
        <ele>38</ele>
        <time>2018-01-08T05:29:40Z</time>
      </trkpt>
      <trkpt lat="46.81272" lon="-1.65155">
        <ele>39</ele>
        <time>2018-01-08T05:30:40Z</time>
      </trkpt>
      <trkpt lat="46.81297" lon="-1.65144">
        <ele>40</ele>
        <time>2018-01-08T05:31:40Z</time>
      </trkpt>
      <trkpt lat="46.81321" lon="-1.65132">
        <ele>41</ele>
        <time>2018-01-08T05:32:40Z</time>
      </trkpt>
      <trkpt lat="46.81339" lon="-1.65121">
        <ele>41</ele>
        <time>2018-01-08T05:33:40Z</time>
      </trkpt>
      <trkpt lat="46.81367" lon="-1.65103">
        <ele>42</ele>
        <time>2018-01-08T05:34:40Z</time>
      </trkpt>
      <trkpt lat="46.81394" lon="-1.65085">
        <ele>42</ele>
        <time>2018-01-08T05:35:40Z</time>
      </trkpt>
      <trkpt lat="46.81421" lon="-1.65069">
        <ele>43</ele>
        <time>2018-01-08T05:36:40Z</time>
      </trkpt>
      <trkpt lat="46.81446" lon="-1.65055">
        <ele>44</ele>
        <time>2018-01-08T05:37:40Z</time>
      </trkpt>
      <trkpt lat="46.8147" lon="-1.65043">
        <ele>44</ele>
        <time>2018-01-08T05:38:40Z</time>
      </trkpt>
      <trkpt lat="46.81491" lon="-1.65038">
        <ele>45</ele>
        <time>2018-01-08T05:39:40Z</time>
      </trkpt>
      <trkpt lat="46.81525" lon="-1.65026">
        <ele>45</ele>
        <time>2018-01-08T05:40:40Z</time>
      </trkpt>
      <trkpt lat="46.81571" lon="-1.6501">
        <ele>45</ele>
        <time>2018-01-08T05:41:40Z</time>
      </trkpt>
      <trkpt lat="46.81618" lon="-1.64994">
        <ele>44</ele>
        <time>2018-01-08T05:42:40Z</time>
      </trkpt>
      <trkpt lat="46.81667" lon="-1.64978">
        <ele>43</ele>
        <time>2018-01-08T05:43:40Z</time>
      </trkpt>
      <trkpt lat="46.81709" lon="-1.64964">
        <ele>42</ele>
        <time>2018-01-08T05:44:40Z</time>
      </trkpt>
      <trkpt lat="46.81741" lon="-1.64952">
        <ele>40</ele>
        <time>2018-01-08T05:45:40Z</time>
      </trkpt>
      <trkpt lat="46.81756" lon="-1.64947">
        <ele>40</ele>
        <time>2018-01-08T05:46:40Z</time>
      </trkpt>
      <trkpt lat="46.81762" lon="-1.64945">
        <ele>40</ele>
        <time>2018-01-08T05:47:40Z</time>
      </trkpt>
      <trkpt lat="46.81769" lon="-1.64943">
        <ele>40</ele>
        <time>2018-01-08T05:48:40Z</time>
      </trkpt>
      <trkpt lat="46.81786" lon="-1.64937">
        <ele>41</ele>
        <time>2018-01-08T05:49:40Z</time>
      </trkpt>
      <trkpt lat="46.81788" lon="-1.64937">
        <ele>41</ele>
        <time>2018-01-08T05:50:40Z</time>
      </trkpt>
      <trkpt lat="46.81816" lon="-1.64927">
        <ele>42</ele>
        <time>2018-01-08T05:51:40Z</time>
      </trkpt>
      <trkpt lat="46.81851" lon="-1.64915">
        <ele>44</ele>
        <time>2018-01-08T05:52:40Z</time>
      </trkpt>
      <trkpt lat="46.81871" lon="-1.64907">
        <ele>46</ele>
        <time>2018-01-08T05:53:40Z</time>
      </trkpt>
      <trkpt lat="46.81891" lon="-1.64901">
        <ele>47</ele>
        <time>2018-01-08T05:54:40Z</time>
      </trkpt>
      <trkpt lat="46.81908" lon="-1.64895">
        <ele>49</ele>
        <time>2018-01-08T05:55:40Z</time>
      </trkpt>
      <trkpt lat="46.81918" lon="-1.64891">
        <ele>49</ele>
        <time>2018-01-08T05:56:40Z</time>
      </trkpt>
      <trkpt lat="46.81934" lon="-1.64886">
        <ele>50</ele>
        <time>2018-01-08T05:57:40Z</time>
      </trkpt>
      <trkpt lat="46.81955" lon="-1.64875">
        <ele>50</ele>
        <time>2018-01-08T05:58:40Z</time>
      </trkpt>
      <trkpt lat="46.81955" lon="-1.64875">
        <ele>50</ele>
        <time>2018-01-08T05:59:40Z</time>
      </trkpt>
      <trkpt lat="46.81957" lon="-1.64877">
        <ele>50</ele>
        <time>2018-01-08T06:00:40Z</time>
      </trkpt>
      <trkpt lat="46.81971" lon="-1.64894">
        <ele>51</ele>
        <time>2018-01-08T06:01:40Z</time>
      </trkpt>
      <trkpt lat="46.81978" lon="-1.64901">
        <ele>51</ele>
        <time>2018-01-08T06:02:40Z</time>
      </trkpt>
      <trkpt lat="46.81987" lon="-1.6491">
        <ele>51</ele>
        <time>2018-01-08T06:03:40Z</time>
      </trkpt>
      <trkpt lat="46.82003" lon="-1.64926">
        <ele>51</ele>
        <time>2018-01-08T06:04:40Z</time>
      </trkpt>
      <trkpt lat="46.82009" lon="-1.64931">
        <ele>51</ele>
        <time>2018-01-08T06:05:40Z</time>
      </trkpt>
      <trkpt lat="46.82029" lon="-1.6495">
        <ele>52</ele>
        <time>2018-01-08T06:06:40Z</time>
      </trkpt>
      <trkpt lat="46.82036" lon="-1.64955">
        <ele>52</ele>
        <time>2018-01-08T06:07:40Z</time>
      </trkpt>
      <trkpt lat="46.82048" lon="-1.64966">
        <ele>52</ele>
        <time>2018-01-08T06:08:40Z</time>
      </trkpt>
      <trkpt lat="46.82055" lon="-1.64972">
        <ele>53</ele>
        <time>2018-01-08T06:09:40Z</time>
      </trkpt>
      <trkpt lat="46.8206" lon="-1.64976">
        <ele>53</ele>
        <time>2018-01-08T06:10:40Z</time>
      </trkpt>
      <trkpt lat="46.82068" lon="-1.64982">
        <ele>53</ele>
        <time>2018-01-08T06:11:40Z</time>
      </trkpt>
      <trkpt lat="46.82071" lon="-1.64984">
        <ele>53</ele>
        <time>2018-01-08T06:12:40Z</time>
      </trkpt>
      <trkpt lat="46.82078" lon="-1.6499">
        <ele>54</ele>
        <time>2018-01-08T06:13:40Z</time>
      </trkpt>
      <trkpt lat="46.82083" lon="-1.64994">
        <ele>54</ele>
        <time>2018-01-08T06:14:40Z</time>
      </trkpt>
      <trkpt lat="46.82087" lon="-1.64996">
        <ele>54</ele>
        <time>2018-01-08T06:15:40Z</time>
      </trkpt>
      <trkpt lat="46.82094" lon="-1.65004">
        <ele>54</ele>
        <time>2018-01-08T06:16:40Z</time>
      </trkpt>
      <trkpt lat="46.82096" lon="-1.65005">
        <ele>54</ele>
        <time>2018-01-08T06:17:40Z</time>
      </trkpt>
      <trkpt lat="46.82098" lon="-1.65009">
        <ele>54</ele>
        <time>2018-01-08T06:18:40Z</time>
      </trkpt>
      <trkpt lat="46.82101" lon="-1.65015">
        <ele>54</ele>
        <time>2018-01-08T06:19:40Z</time>
      </trkpt>
      <trkpt lat="46.8211" lon="-1.65033">
        <ele>55</ele>
        <time>2018-01-08T06:20:40Z</time>
      </trkpt>
      <trkpt lat="46.82116" lon="-1.65049">
        <ele>55</ele>
        <time>2018-01-08T06:21:40Z</time>
      </trkpt>
      <trkpt lat="46.82124" lon="-1.65066">
        <ele>55</ele>
        <time>2018-01-08T06:22:40Z</time>
      </trkpt>
      <trkpt lat="46.82131" lon="-1.65079">
        <ele>55</ele>
        <time>2018-01-08T06:23:40Z</time>
      </trkpt>
      <trkpt lat="46.82138" lon="-1.65094">
        <ele>55</ele>
        <time>2018-01-08T06:24:40Z</time>
      </trkpt>
      <trkpt lat="46.82144" lon="-1.65104">
        <ele>55</ele>
        <time>2018-01-08T06:25:40Z</time>
      </trkpt>
      <trkpt lat="46.82149" lon="-1.65112">
        <ele>55</ele>
        <time>2018-01-08T06:26:40Z</time>
      </trkpt>
      <trkpt lat="46.82154" lon="-1.65117">
        <ele>55</ele>
        <time>2018-01-08T06:27:40Z</time>
      </trkpt>
      <trkpt lat="46.82166" lon="-1.65132">
        <ele>56</ele>
        <time>2018-01-08T06:28:40Z</time>
      </trkpt>
      <trkpt lat="46.82179" lon="-1.65149">
        <ele>56</ele>
        <time>2018-01-08T06:29:40Z</time>
      </trkpt>
      <trkpt lat="46.82193" lon="-1.65165">
        <ele>56</ele>
        <time>2018-01-08T06:30:40Z</time>
      </trkpt>
      <trkpt lat="46.82201" lon="-1.65176">
        <ele>57</ele>
        <time>2018-01-08T06:31:40Z</time>
      </trkpt>
      <trkpt lat="46.82205" lon="-1.65179">
        <ele>57</ele>
        <time>2018-01-08T06:32:40Z</time>
      </trkpt>
      <trkpt lat="46.82217" lon="-1.6519">
        <ele>57</ele>
        <time>2018-01-08T06:33:40Z</time>
      </trkpt>
      <trkpt lat="46.82218" lon="-1.65191">
        <ele>57</ele>
        <time>2018-01-08T06:34:40Z</time>
      </trkpt>
      <trkpt lat="46.82232" lon="-1.65203">
        <ele>57</ele>
        <time>2018-01-08T06:35:40Z</time>
      </trkpt>
      <trkpt lat="46.82236" lon="-1.65207">
        <ele>57</ele>
        <time>2018-01-08T06:36:40Z</time>
      </trkpt>
      <trkpt lat="46.82239" lon="-1.65209">
        <ele>57</ele>
        <time>2018-01-08T06:37:40Z</time>
      </trkpt>
      <trkpt lat="46.82254" lon="-1.65222">
        <ele>58</ele>
        <time>2018-01-08T06:38:40Z</time>
      </trkpt>
      <trkpt lat="46.82271" lon="-1.65233">
        <ele>58</ele>
        <time>2018-01-08T06:39:40Z</time>
      </trkpt>
      <trkpt lat="46.82272" lon="-1.65234">
        <ele>58</ele>
        <time>2018-01-08T06:40:40Z</time>
      </trkpt>
      <trkpt lat="46.82275" lon="-1.65236">
        <ele>58</ele>
        <time>2018-01-08T06:41:40Z</time>
      </trkpt>
      <trkpt lat="46.8229" lon="-1.65247">
        <ele>58</ele>
        <time>2018-01-08T06:42:40Z</time>
      </trkpt>
      <trkpt lat="46.82293" lon="-1.65249">
        <ele>58</ele>
        <time>2018-01-08T06:43:40Z</time>
      </trkpt>
      <trkpt lat="46.82309" lon="-1.65259">
        <ele>58</ele>
        <time>2018-01-08T06:44:40Z</time>
      </trkpt>
      <trkpt lat="46.82333" lon="-1.65276">
        <ele>58</ele>
        <time>2018-01-08T06:45:40Z</time>
      </trkpt>
      <trkpt lat="46.82352" lon="-1.65288">
        <ele>59</ele>
        <time>2018-01-08T06:46:40Z</time>
      </trkpt>
      <trkpt lat="46.82357" lon="-1.65292">
        <ele>59</ele>
        <time>2018-01-08T06:47:40Z</time>
      </trkpt>
      <trkpt lat="46.82365" lon="-1.65297">
        <ele>59</ele>
        <time>2018-01-08T06:48:40Z</time>
      </trkpt>
      <trkpt lat="46.82386" lon="-1.6531">
        <ele>59</ele>
        <time>2018-01-08T06:49:40Z</time>
      </trkpt>
      <trkpt lat="46.82404" lon="-1.65322">
        <ele>59</ele>
        <time>2018-01-08T06:50:40Z</time>
      </trkpt>
      <trkpt lat="46.82422" lon="-1.65333">
        <ele>59</ele>
        <time>2018-01-08T06:51:40Z</time>
      </trkpt>
      <trkpt lat="46.8244" lon="-1.65342">
        <ele>59</ele>
        <time>2018-01-08T06:52:40Z</time>
      </trkpt>
      <trkpt lat="46.82454" lon="-1.65348">
        <ele>59</ele>
        <time>2018-01-08T06:53:40Z</time>
      </trkpt>
      <trkpt lat="46.82467" lon="-1.65353">
        <ele>59</ele>
        <time>2018-01-08T06:54:40Z</time>
      </trkpt>
      <trkpt lat="46.82484" lon="-1.65358">
        <ele>59</ele>
        <time>2018-01-08T06:55:40Z</time>
      </trkpt>
      <trkpt lat="46.82501" lon="-1.65362">
        <ele>59</ele>
        <time>2018-01-08T06:56:40Z</time>
      </trkpt>
      <trkpt lat="46.82505" lon="-1.65363">
        <ele>59</ele>
        <time>2018-01-08T06:57:40Z</time>
      </trkpt>
      <trkpt lat="46.82514" lon="-1.65365">
        <ele>60</ele>
        <time>2018-01-08T06:58:40Z</time>
      </trkpt>
      <trkpt lat="46.82541" lon="-1.65371">
        <ele>61</ele>
        <time>2018-01-08T06:59:40Z</time>
      </trkpt>
      <trkpt lat="46.82561" lon="-1.65377">
        <ele>61</ele>
        <time>2018-01-08T07:00:40Z</time>
      </trkpt>
      <trkpt lat="46.82585" lon="-1.65382">
        <ele>62</ele>
        <time>2018-01-08T07:01:40Z</time>
      </trkpt>
      <trkpt lat="46.8261" lon="-1.65389">
        <ele>61</ele>
        <time>2018-01-08T07:02:40Z</time>
      </trkpt>
      <trkpt lat="46.82634" lon="-1.65395">
        <ele>61</ele>
        <time>2018-01-08T07:03:40Z</time>
      </trkpt>
      <trkpt lat="46.82654" lon="-1.65401">
        <ele>60</ele>
        <time>2018-01-08T07:04:40Z</time>
      </trkpt>
      <trkpt lat="46.8267" lon="-1.65406">
        <ele>60</ele>
        <time>2018-01-08T07:05:40Z</time>
      </trkpt>
      <trkpt lat="46.82688" lon="-1.65413">
        <ele>60</ele>
        <time>2018-01-08T07:06:40Z</time>
      </trkpt>
      <trkpt lat="46.82709" lon="-1.65422">
        <ele>60</ele>
        <time>2018-01-08T07:07:40Z</time>
      </trkpt>
      <trkpt lat="46.82735" lon="-1.65435">
        <ele>61</ele>
        <time>2018-01-08T07:08:40Z</time>
      </trkpt>
      <trkpt lat="46.82745" lon="-1.6544">
        <ele>61</ele>
        <time>2018-01-08T07:09:40Z</time>
      </trkpt>
      <trkpt lat="46.82779" lon="-1.65457">
        <ele>61</ele>
        <time>2018-01-08T07:10:40Z</time>
      </trkpt>
      <trkpt lat="46.82837" lon="-1.65489">
        <ele>62</ele>
        <time>2018-01-08T07:11:40Z</time>
      </trkpt>
      <trkpt lat="46.82887" lon="-1.65515">
        <ele>64</ele>
        <time>2018-01-08T07:12:40Z</time>
      </trkpt>
      <trkpt lat="46.82931" lon="-1.65538">
        <ele>65</ele>
        <time>2018-01-08T07:13:40Z</time>
      </trkpt>
      <trkpt lat="46.82976" lon="-1.65561">
        <ele>65</ele>
        <time>2018-01-08T07:14:40Z</time>
      </trkpt>
      <trkpt lat="46.83016" lon="-1.65584">
        <ele>66</ele>
        <time>2018-01-08T07:15:40Z</time>
      </trkpt>
      <trkpt lat="46.83038" lon="-1.656">
        <ele>66</ele>
        <time>2018-01-08T07:16:40Z</time>
      </trkpt>
      <trkpt lat="46.83058" lon="-1.65618">
        <ele>66</ele>
        <time>2018-01-08T07:17:40Z</time>
      </trkpt>
      <trkpt lat="46.83066" lon="-1.65625">
        <ele>67</ele>
        <time>2018-01-08T07:18:40Z</time>
      </trkpt>
      <trkpt lat="46.83066" lon="-1.65625">
        <ele>67</ele>
        <time>2018-01-08T07:19:40Z</time>
      </trkpt>
      <trkpt lat="46.83075" lon="-1.65633">
        <ele>67</ele>
        <time>2018-01-08T07:20:40Z</time>
      </trkpt>
      <trkpt lat="46.83076" lon="-1.65633">
        <ele>67</ele>
        <time>2018-01-08T07:21:40Z</time>
      </trkpt>
      <trkpt lat="46.83091" lon="-1.65648">
        <ele>67</ele>
        <time>2018-01-08T07:22:40Z</time>
      </trkpt>
      <trkpt lat="46.83116" lon="-1.65671">
        <ele>67</ele>
        <time>2018-01-08T07:23:40Z</time>
      </trkpt>
      <trkpt lat="46.83146" lon="-1.65699">
        <ele>67</ele>
        <time>2018-01-08T07:24:40Z</time>
      </trkpt>
      <trkpt lat="46.83174" lon="-1.65729">
        <ele>67</ele>
        <time>2018-01-08T07:25:40Z</time>
      </trkpt>
      <trkpt lat="46.83199" lon="-1.65763">
        <ele>67</ele>
        <time>2018-01-08T07:26:40Z</time>
      </trkpt>
      <trkpt lat="46.8322" lon="-1.65798">
        <ele>67</ele>
        <time>2018-01-08T07:27:40Z</time>
      </trkpt>
      <trkpt lat="46.83243" lon="-1.65836">
        <ele>67</ele>
        <time>2018-01-08T07:28:40Z</time>
      </trkpt>
      <trkpt lat="46.83277" lon="-1.65894">
        <ele>68</ele>
        <time>2018-01-08T07:29:40Z</time>
      </trkpt>
      <trkpt lat="46.83314" lon="-1.65958">
        <ele>70</ele>
        <time>2018-01-08T07:30:40Z</time>
      </trkpt>
      <trkpt lat="46.83355" lon="-1.66025">
        <ele>70</ele>
        <time>2018-01-08T07:31:40Z</time>
      </trkpt>
      <trkpt lat="46.83386" lon="-1.66079">
        <ele>70</ele>
        <time>2018-01-08T07:32:40Z</time>
      </trkpt>
      <trkpt lat="46.83411" lon="-1.66122">
        <ele>71</ele>
        <time>2018-01-08T07:33:40Z</time>
      </trkpt>
      <trkpt lat="46.83428" lon="-1.66151">
        <ele>72</ele>
        <time>2018-01-08T07:34:40Z</time>
      </trkpt>
      <trkpt lat="46.83451" lon="-1.6619">
        <ele>72</ele>
        <time>2018-01-08T07:35:40Z</time>
      </trkpt>
      <trkpt lat="46.83482" lon="-1.6624">
        <ele>72</ele>
        <time>2018-01-08T07:36:40Z</time>
      </trkpt>
      <trkpt lat="46.83521" lon="-1.66307">
        <ele>70</ele>
        <time>2018-01-08T07:37:40Z</time>
      </trkpt>
      <trkpt lat="46.83562" lon="-1.66377">
        <ele>70</ele>
        <time>2018-01-08T07:38:40Z</time>
      </trkpt>
      <trkpt lat="46.8361" lon="-1.66458">
        <ele>70</ele>
        <time>2018-01-08T07:39:40Z</time>
      </trkpt>
      <trkpt lat="46.83647" lon="-1.66522">
        <ele>69</ele>
        <time>2018-01-08T07:40:40Z</time>
      </trkpt>
      <trkpt lat="46.83683" lon="-1.66581">
        <ele>69</ele>
        <time>2018-01-08T07:41:40Z</time>
      </trkpt>
      <trkpt lat="46.83712" lon="-1.66635">
        <ele>70</ele>
        <time>2018-01-08T07:42:40Z</time>
      </trkpt>
      <trkpt lat="46.83728" lon="-1.66671">
        <ele>71</ele>
        <time>2018-01-08T07:43:40Z</time>
      </trkpt>
      <trkpt lat="46.8374" lon="-1.66696">
        <ele>71</ele>
        <time>2018-01-08T07:44:40Z</time>
      </trkpt>
      <trkpt lat="46.83754" lon="-1.66728">
        <ele>72</ele>
        <time>2018-01-08T07:45:40Z</time>
      </trkpt>
      <trkpt lat="46.83765" lon="-1.66752">
        <ele>72</ele>
        <time>2018-01-08T07:46:40Z</time>
      </trkpt>
      <trkpt lat="46.83774" lon="-1.66775">
        <ele>72</ele>
        <time>2018-01-08T07:47:40Z</time>
      </trkpt>
      <trkpt lat="46.83781" lon="-1.66791">
        <ele>72</ele>
        <time>2018-01-08T07:48:40Z</time>
      </trkpt>
      <trkpt lat="46.8379" lon="-1.66811">
        <ele>72</ele>
        <time>2018-01-08T07:49:40Z</time>
      </trkpt>
      <trkpt lat="46.83838" lon="-1.66926">
        <ele>72</ele>
        <time>2018-01-08T07:50:40Z</time>
      </trkpt>
      <trkpt lat="46.83843" lon="-1.66936">
        <ele>71</ele>
        <time>2018-01-08T07:51:40Z</time>
      </trkpt>
      <trkpt lat="46.83847" lon="-1.66945">
        <ele>71</ele>
        <time>2018-01-08T07:52:40Z</time>
      </trkpt>
      <trkpt lat="46.83855" lon="-1.66965">
        <ele>71</ele>
        <time>2018-01-08T07:53:40Z</time>
      </trkpt>
      <trkpt lat="46.83866" lon="-1.66994">
        <ele>70</ele>
        <time>2018-01-08T07:54:40Z</time>
      </trkpt>
      <trkpt lat="46.83875" lon="-1.67014">
        <ele>71</ele>
        <time>2018-01-08T07:55:40Z</time>
      </trkpt>
      <trkpt lat="46.83914" lon="-1.67106">
        <ele>70</ele>
        <time>2018-01-08T07:56:40Z</time>
      </trkpt>
      <trkpt lat="46.83925" lon="-1.67131">
        <ele>69</ele>
        <time>2018-01-08T07:57:40Z</time>
      </trkpt>
      <trkpt lat="46.83934" lon="-1.67153">
        <ele>68</ele>
        <time>2018-01-08T07:58:40Z</time>
      </trkpt>
      <trkpt lat="46.83944" lon="-1.67178">
        <ele>68</ele>
        <time>2018-01-08T07:59:40Z</time>
      </trkpt>
      <trkpt lat="46.83947" lon="-1.67186">
        <ele>68</ele>
        <time>2018-01-08T08:00:40Z</time>
      </trkpt>
      <trkpt lat="46.83953" lon="-1.67201">
        <ele>68</ele>
        <time>2018-01-08T08:01:40Z</time>
      </trkpt>
      <trkpt lat="46.83967" lon="-1.67234">
        <ele>67</ele>
        <time>2018-01-08T08:02:40Z</time>
      </trkpt>
      <trkpt lat="46.83982" lon="-1.6727">
        <ele>67</ele>
        <time>2018-01-08T08:03:40Z</time>
      </trkpt>
      <trkpt lat="46.84006" lon="-1.67325">
        <ele>66</ele>
        <time>2018-01-08T08:04:40Z</time>
      </trkpt>
      <trkpt lat="46.84009" lon="-1.67332">
        <ele>66</ele>
        <time>2018-01-08T08:05:40Z</time>
      </trkpt>
      <trkpt lat="46.84015" lon="-1.67347">
        <ele>66</ele>
        <time>2018-01-08T08:06:40Z</time>
      </trkpt>
      <trkpt lat="46.84025" lon="-1.6737">
        <ele>66</ele>
        <time>2018-01-08T08:07:40Z</time>
      </trkpt>
      <trkpt lat="46.84038" lon="-1.674">
        <ele>67</ele>
        <time>2018-01-08T08:08:40Z</time>
      </trkpt>
      <trkpt lat="46.8405" lon="-1.67427">
        <ele>67</ele>
        <time>2018-01-08T08:09:40Z</time>
      </trkpt>
      <trkpt lat="46.84068" lon="-1.6747">
        <ele>68</ele>
        <time>2018-01-08T08:10:40Z</time>
      </trkpt>
      <trkpt lat="46.84089" lon="-1.6752">
        <ele>68</ele>
        <time>2018-01-08T08:11:40Z</time>
      </trkpt>
      <trkpt lat="46.84097" lon="-1.67538">
        <ele>68</ele>
        <time>2018-01-08T08:12:40Z</time>
      </trkpt>
      <trkpt lat="46.84123" lon="-1.676">
        <ele>66</ele>
        <time>2018-01-08T08:13:40Z</time>
      </trkpt>
      <trkpt lat="46.84158" lon="-1.67683">
        <ele>67</ele>
        <time>2018-01-08T08:14:40Z</time>
      </trkpt>
      <trkpt lat="46.84187" lon="-1.67751">
        <ele>68</ele>
        <time>2018-01-08T08:15:40Z</time>
      </trkpt>
      <trkpt lat="46.8423" lon="-1.67854">
        <ele>69</ele>
        <time>2018-01-08T08:16:40Z</time>
      </trkpt>
      <trkpt lat="46.84238" lon="-1.67872">
        <ele>68</ele>
        <time>2018-01-08T08:17:40Z</time>
      </trkpt>
      <trkpt lat="46.84253" lon="-1.67909">
        <ele>68</ele>
        <time>2018-01-08T08:18:40Z</time>
      </trkpt>
      <trkpt lat="46.84267" lon="-1.67942">
        <ele>68</ele>
        <time>2018-01-08T08:19:40Z</time>
      </trkpt>
      <trkpt lat="46.84298" lon="-1.68016">
        <ele>67</ele>
        <time>2018-01-08T08:20:40Z</time>
      </trkpt>
      <trkpt lat="46.84338" lon="-1.68111">
        <ele>67</ele>
        <time>2018-01-08T08:21:40Z</time>
      </trkpt>
      <trkpt lat="46.84381" lon="-1.68216">
        <ele>67</ele>
        <time>2018-01-08T08:22:40Z</time>
      </trkpt>
      <trkpt lat="46.84411" lon="-1.68285">
        <ele>66</ele>
        <time>2018-01-08T08:23:40Z</time>
      </trkpt>
      <trkpt lat="46.8444" lon="-1.68355">
        <ele>67</ele>
        <time>2018-01-08T08:24:40Z</time>
      </trkpt>
      <trkpt lat="46.84449" lon="-1.68379">
        <ele>67</ele>
        <time>2018-01-08T08:25:40Z</time>
      </trkpt>
      <trkpt lat="46.84454" lon="-1.6839">
        <ele>67</ele>
        <time>2018-01-08T08:26:40Z</time>
      </trkpt>
      <trkpt lat="46.84472" lon="-1.68429">
        <ele>67</ele>
        <time>2018-01-08T08:27:40Z</time>
      </trkpt>
      <trkpt lat="46.8448" lon="-1.68442">
        <ele>66</ele>
        <time>2018-01-08T08:28:40Z</time>
      </trkpt>
      <trkpt lat="46.84481" lon="-1.68443">
        <ele>66</ele>
        <time>2018-01-08T08:29:40Z</time>
      </trkpt>
      <trkpt lat="46.84486" lon="-1.68447">
        <ele>66</ele>
        <time>2018-01-08T08:30:40Z</time>
      </trkpt>
      <trkpt lat="46.84493" lon="-1.68454">
        <ele>66</ele>
        <time>2018-01-08T08:31:40Z</time>
      </trkpt>
      <trkpt lat="46.84496" lon="-1.68456">
        <ele>66</ele>
        <time>2018-01-08T08:32:40Z</time>
      </trkpt>
      <trkpt lat="46.84501" lon="-1.68458">
        <ele>66</ele>
        <time>2018-01-08T08:33:40Z</time>
      </trkpt>
      <trkpt lat="46.84502" lon="-1.68459">
        <ele>66</ele>
        <time>2018-01-08T08:34:40Z</time>
      </trkpt>
      <trkpt lat="46.84511" lon="-1.68463">
        <ele>66</ele>
        <time>2018-01-08T08:35:40Z</time>
      </trkpt>
      <trkpt lat="46.84525" lon="-1.68467">
        <ele>66</ele>
        <time>2018-01-08T08:36:40Z</time>
      </trkpt>
      <trkpt lat="46.8454" lon="-1.6847">
        <ele>66</ele>
        <time>2018-01-08T08:37:40Z</time>
      </trkpt>
      <trkpt lat="46.84547" lon="-1.68471">
        <ele>66</ele>
        <time>2018-01-08T08:38:40Z</time>
      </trkpt>
      <trkpt lat="46.84554" lon="-1.68472">
        <ele>66</ele>
        <time>2018-01-08T08:39:40Z</time>
      </trkpt>
      <trkpt lat="46.84568" lon="-1.68475">
        <ele>66</ele>
        <time>2018-01-08T08:40:40Z</time>
      </trkpt>
      <trkpt lat="46.84575" lon="-1.68478">
        <ele>66</ele>
        <time>2018-01-08T08:41:40Z</time>
      </trkpt>
      <trkpt lat="46.84581" lon="-1.68481">
        <ele>66</ele>
        <time>2018-01-08T08:42:40Z</time>
      </trkpt>
      <trkpt lat="46.84591" lon="-1.68486">
        <ele>66</ele>
        <time>2018-01-08T08:43:40Z</time>
      </trkpt>
      <trkpt lat="46.84593" lon="-1.68487">
        <ele>66</ele>
        <time>2018-01-08T08:44:40Z</time>
      </trkpt>
      <trkpt lat="46.84603" lon="-1.68493">
        <ele>66</ele>
        <time>2018-01-08T08:45:40Z</time>
      </trkpt>
      <trkpt lat="46.84615" lon="-1.68505">
        <ele>66</ele>
        <time>2018-01-08T08:46:40Z</time>
      </trkpt>
      <trkpt lat="46.84623" lon="-1.68516">
        <ele>66</ele>
        <time>2018-01-08T08:47:40Z</time>
      </trkpt>
      <trkpt lat="46.84637" lon="-1.68535">
        <ele>65</ele>
        <time>2018-01-08T08:48:40Z</time>
      </trkpt>
      <trkpt lat="46.84653" lon="-1.68561">
        <ele>65</ele>
        <time>2018-01-08T08:49:40Z</time>
      </trkpt>
      <trkpt lat="46.84668" lon="-1.68586">
        <ele>65</ele>
        <time>2018-01-08T08:50:40Z</time>
      </trkpt>
      <trkpt lat="46.8468" lon="-1.68609">
        <ele>65</ele>
        <time>2018-01-08T08:51:40Z</time>
      </trkpt>
      <trkpt lat="46.8469" lon="-1.6863">
        <ele>65</ele>
        <time>2018-01-08T08:52:40Z</time>
      </trkpt>
      <trkpt lat="46.84708" lon="-1.68675">
        <ele>64</ele>
        <time>2018-01-08T08:53:40Z</time>
      </trkpt>
      <trkpt lat="46.84725" lon="-1.68721">
        <ele>64</ele>
        <time>2018-01-08T08:54:40Z</time>
      </trkpt>
      <trkpt lat="46.84741" lon="-1.68766">
        <ele>63</ele>
        <time>2018-01-08T08:55:40Z</time>
      </trkpt>
      <trkpt lat="46.84749" lon="-1.68789">
        <ele>63</ele>
        <time>2018-01-08T08:56:40Z</time>
      </trkpt>
      <trkpt lat="46.8475" lon="-1.68793">
        <ele>62</ele>
        <time>2018-01-08T08:57:40Z</time>
      </trkpt>
      <trkpt lat="46.84756" lon="-1.6881">
        <ele>62</ele>
        <time>2018-01-08T08:58:40Z</time>
      </trkpt>
      <trkpt lat="46.84763" lon="-1.68858">
        <ele>62</ele>
        <time>2018-01-08T08:59:40Z</time>
      </trkpt>
      <trkpt lat="46.84772" lon="-1.68931">
        <ele>62</ele>
        <time>2018-01-08T09:00:40Z</time>
      </trkpt>
      <trkpt lat="46.84778" lon="-1.68987">
        <ele>63</ele>
        <time>2018-01-08T09:01:40Z</time>
      </trkpt>
      <trkpt lat="46.84782" lon="-1.69025">
        <ele>64</ele>
        <time>2018-01-08T09:02:40Z</time>
      </trkpt>
      <trkpt lat="46.84786" lon="-1.69061">
        <ele>64</ele>
        <time>2018-01-08T09:03:40Z</time>
      </trkpt>
      <trkpt lat="46.84791" lon="-1.69112">
        <ele>64</ele>
        <time>2018-01-08T09:04:40Z</time>
      </trkpt>
      <trkpt lat="46.84797" lon="-1.69175">
        <ele>65</ele>
        <time>2018-01-08T09:05:40Z</time>
      </trkpt>
      <trkpt lat="46.84802" lon="-1.69222">
        <ele>65</ele>
        <time>2018-01-08T09:06:40Z</time>
      </trkpt>
      <trkpt lat="46.84804" lon="-1.69242">
        <ele>66</ele>
        <time>2018-01-08T09:07:40Z</time>
      </trkpt>
      <trkpt lat="46.84807" lon="-1.69272">
        <ele>66</ele>
        <time>2018-01-08T09:08:40Z</time>
      </trkpt>
      <trkpt lat="46.84816" lon="-1.69361">
        <ele>66</ele>
        <time>2018-01-08T09:09:40Z</time>
      </trkpt>
      <trkpt lat="46.84822" lon="-1.69407">
        <ele>66</ele>
        <time>2018-01-08T09:10:40Z</time>
      </trkpt>
      <trkpt lat="46.84828" lon="-1.69466">
        <ele>66</ele>
        <time>2018-01-08T09:11:40Z</time>
      </trkpt>
      <trkpt lat="46.84833" lon="-1.69518">
        <ele>66</ele>
        <time>2018-01-08T09:12:40Z</time>
      </trkpt>
      <trkpt lat="46.8484" lon="-1.69575">
        <ele>66</ele>
        <time>2018-01-08T09:13:40Z</time>
      </trkpt>
      <trkpt lat="46.84848" lon="-1.69642">
        <ele>66</ele>
        <time>2018-01-08T09:14:40Z</time>
      </trkpt>
      <trkpt lat="46.84854" lon="-1.69692">
        <ele>65</ele>
        <time>2018-01-08T09:15:40Z</time>
      </trkpt>
      <trkpt lat="46.84855" lon="-1.69697">
        <ele>65</ele>
        <time>2018-01-08T09:16:40Z</time>
      </trkpt>
      <trkpt lat="46.84858" lon="-1.69719">
        <ele>65</ele>
        <time>2018-01-08T09:17:40Z</time>
      </trkpt>
      <trkpt lat="46.84863" lon="-1.69743">
        <ele>65</ele>
        <time>2018-01-08T09:18:40Z</time>
      </trkpt>
      <trkpt lat="46.84865" lon="-1.69756">
        <ele>65</ele>
        <time>2018-01-08T09:19:40Z</time>
      </trkpt>
      <trkpt lat="46.84875" lon="-1.69799">
        <ele>64</ele>
        <time>2018-01-08T09:20:40Z</time>
      </trkpt>
      <trkpt lat="46.84886" lon="-1.69842">
        <ele>64</ele>
        <time>2018-01-08T09:21:40Z</time>
      </trkpt>
      <trkpt lat="46.84904" lon="-1.69907">
        <ele>63</ele>
        <time>2018-01-08T09:22:40Z</time>
      </trkpt>
      <trkpt lat="46.84925" lon="-1.69983">
        <ele>62</ele>
        <time>2018-01-08T09:23:40Z</time>
      </trkpt>
      <trkpt lat="46.84933" lon="-1.70015">
        <ele>62</ele>
        <time>2018-01-08T09:24:40Z</time>
      </trkpt>
      <trkpt lat="46.84939" lon="-1.70035">
        <ele>62</ele>
        <time>2018-01-08T09:25:40Z</time>
      </trkpt>
      <trkpt lat="46.84953" lon="-1.70086">
        <ele>63</ele>
        <time>2018-01-08T09:26:40Z</time>
      </trkpt>
      <trkpt lat="46.84968" lon="-1.70127">
        <ele>62</ele>
        <time>2018-01-08T09:27:40Z</time>
      </trkpt>
      <trkpt lat="46.84987" lon="-1.7016">
        <ele>62</ele>
        <time>2018-01-08T09:28:40Z</time>
      </trkpt>
      <trkpt lat="46.85005" lon="-1.70184">
        <ele>62</ele>
        <time>2018-01-08T09:29:40Z</time>
      </trkpt>
      <trkpt lat="46.85028" lon="-1.70213">
        <ele>61</ele>
        <time>2018-01-08T09:30:40Z</time>
      </trkpt>
      <trkpt lat="46.8505" lon="-1.70239">
        <ele>60</ele>
        <time>2018-01-08T09:31:40Z</time>
      </trkpt>
      <trkpt lat="46.85055" lon="-1.70247">
        <ele>60</ele>
        <time>2018-01-08T09:32:40Z</time>
      </trkpt>
      <trkpt lat="46.85056" lon="-1.70247">
        <ele>60</ele>
        <time>2018-01-08T09:33:40Z</time>
      </trkpt>
      <trkpt lat="46.85076" lon="-1.70272">
        <ele>60</ele>
        <time>2018-01-08T09:34:40Z</time>
      </trkpt>
      <trkpt lat="46.85103" lon="-1.70305">
        <ele>61</ele>
        <time>2018-01-08T09:35:40Z</time>
      </trkpt>
      <trkpt lat="46.85134" lon="-1.70344">
        <ele>61</ele>
        <time>2018-01-08T09:36:40Z</time>
      </trkpt>
      <trkpt lat="46.85174" lon="-1.70391">
        <ele>62</ele>
        <time>2018-01-08T09:37:40Z</time>
      </trkpt>
      <trkpt lat="46.85203" lon="-1.70428">
        <ele>62</ele>
        <time>2018-01-08T09:38:40Z</time>
      </trkpt>
      <trkpt lat="46.85203" lon="-1.70429">
        <ele>62</ele>
        <time>2018-01-08T09:39:40Z</time>
      </trkpt>
      <trkpt lat="46.85224" lon="-1.70458">
        <ele>61</ele>
        <time>2018-01-08T09:40:40Z</time>
      </trkpt>
      <trkpt lat="46.85238" lon="-1.70481">
        <ele>61</ele>
        <time>2018-01-08T09:41:40Z</time>
      </trkpt>
      <trkpt lat="46.85256" lon="-1.70512">
        <ele>61</ele>
        <time>2018-01-08T09:42:40Z</time>
      </trkpt>
      <trkpt lat="46.85257" lon="-1.70514">
        <ele>61</ele>
        <time>2018-01-08T09:43:40Z</time>
      </trkpt>
      <trkpt lat="46.85269" lon="-1.70541">
        <ele>61</ele>
        <time>2018-01-08T09:44:40Z</time>
      </trkpt>
      <trkpt lat="46.85286" lon="-1.70573">
        <ele>60</ele>
        <time>2018-01-08T09:45:40Z</time>
      </trkpt>
      <trkpt lat="46.85303" lon="-1.70607">
        <ele>61</ele>
        <time>2018-01-08T09:46:40Z</time>
      </trkpt>
      <trkpt lat="46.85304" lon="-1.70609">
        <ele>61</ele>
        <time>2018-01-08T09:47:40Z</time>
      </trkpt>
      <trkpt lat="46.85312" lon="-1.70626">
        <ele>61</ele>
        <time>2018-01-08T09:48:40Z</time>
      </trkpt>
      <trkpt lat="46.8532" lon="-1.70646">
        <ele>61</ele>
        <time>2018-01-08T09:49:40Z</time>
      </trkpt>
      <trkpt lat="46.85331" lon="-1.70671">
        <ele>61</ele>
        <time>2018-01-08T09:50:40Z</time>
      </trkpt>
      <trkpt lat="46.85343" lon="-1.70705">
        <ele>61</ele>
        <time>2018-01-08T09:51:40Z</time>
      </trkpt>
      <trkpt lat="46.85356" lon="-1.7074">
        <ele>60</ele>
        <time>2018-01-08T09:52:40Z</time>
      </trkpt>
      <trkpt lat="46.8537" lon="-1.70781">
        <ele>60</ele>
        <time>2018-01-08T09:53:40Z</time>
      </trkpt>
      <trkpt lat="46.85384" lon="-1.7082">
        <ele>60</ele>
        <time>2018-01-08T09:54:40Z</time>
      </trkpt>
      <trkpt lat="46.85395" lon="-1.70856">
        <ele>60</ele>
        <time>2018-01-08T09:55:40Z</time>
      </trkpt>
      <trkpt lat="46.85404" lon="-1.7089">
        <ele>59</ele>
        <time>2018-01-08T09:56:40Z</time>
      </trkpt>
      <trkpt lat="46.85412" lon="-1.7092">
        <ele>58</ele>
        <time>2018-01-08T09:57:40Z</time>
      </trkpt>
      <trkpt lat="46.85418" lon="-1.70948">
        <ele>58</ele>
        <time>2018-01-08T09:58:40Z</time>
      </trkpt>
      <trkpt lat="46.85423" lon="-1.70971">
        <ele>59</ele>
        <time>2018-01-08T09:59:40Z</time>
      </trkpt>
      <trkpt lat="46.8543" lon="-1.71006">
        <ele>59</ele>
        <time>2018-01-08T10:00:40Z</time>
      </trkpt>
      <trkpt lat="46.85439" lon="-1.7105">
        <ele>59</ele>
        <time>2018-01-08T10:01:40Z</time>
      </trkpt>
      <trkpt lat="46.85451" lon="-1.71105">
        <ele>59</ele>
        <time>2018-01-08T10:02:40Z</time>
      </trkpt>
      <trkpt lat="46.85463" lon="-1.7116">
        <ele>59</ele>
        <time>2018-01-08T10:03:40Z</time>
      </trkpt>
      <trkpt lat="46.85475" lon="-1.71219">
        <ele>58</ele>
        <time>2018-01-08T10:04:40Z</time>
      </trkpt>
      <trkpt lat="46.8549" lon="-1.71284">
        <ele>57</ele>
        <time>2018-01-08T10:05:40Z</time>
      </trkpt>
      <trkpt lat="46.85503" lon="-1.71349">
        <ele>56</ele>
        <time>2018-01-08T10:06:40Z</time>
      </trkpt>
      <trkpt lat="46.85516" lon="-1.71409">
        <ele>54</ele>
        <time>2018-01-08T10:07:40Z</time>
      </trkpt>
      <trkpt lat="46.85527" lon="-1.71458">
        <ele>53</ele>
        <time>2018-01-08T10:08:40Z</time>
      </trkpt>
      <trkpt lat="46.85536" lon="-1.715">
        <ele>52</ele>
        <time>2018-01-08T10:09:40Z</time>
      </trkpt>
      <trkpt lat="46.85538" lon="-1.7151">
        <ele>51</ele>
        <time>2018-01-08T10:10:40Z</time>
      </trkpt>
      <trkpt lat="46.85544" lon="-1.71536">
        <ele>51</ele>
        <time>2018-01-08T10:11:40Z</time>
      </trkpt>
      <trkpt lat="46.8555" lon="-1.71567">
        <ele>51</ele>
        <time>2018-01-08T10:12:40Z</time>
      </trkpt>
      <trkpt lat="46.85558" lon="-1.71604">
        <ele>51</ele>
        <time>2018-01-08T10:13:40Z</time>
      </trkpt>
      <trkpt lat="46.8562" lon="-1.71888">
        <ele>53</ele>
        <time>2018-01-08T10:14:40Z</time>
      </trkpt>
      <trkpt lat="46.8562" lon="-1.71888">
        <ele>53</ele>
        <time>2018-01-08T10:15:40Z</time>
      </trkpt>
      <trkpt lat="46.85618" lon="-1.71894">
        <ele>53</ele>
        <time>2018-01-08T10:16:40Z</time>
      </trkpt>
      <trkpt lat="46.85605" lon="-1.71922">
        <ele>54</ele>
        <time>2018-01-08T10:17:40Z</time>
      </trkpt>
      <trkpt lat="46.8559" lon="-1.71958">
        <ele>55</ele>
        <time>2018-01-08T10:18:40Z</time>
      </trkpt>
      <trkpt lat="46.85574" lon="-1.71991">
        <ele>56</ele>
        <time>2018-01-08T10:19:40Z</time>
      </trkpt>
      <trkpt lat="46.85568" lon="-1.72006">
        <ele>56</ele>
        <time>2018-01-08T10:20:40Z</time>
      </trkpt>
      <trkpt lat="46.8556" lon="-1.72022">
        <ele>56</ele>
        <time>2018-01-08T10:21:40Z</time>
      </trkpt>
      <trkpt lat="46.85551" lon="-1.72041">
        <ele>57</ele>
        <time>2018-01-08T10:22:40Z</time>
      </trkpt>
      <trkpt lat="46.85539" lon="-1.72061">
        <ele>57</ele>
        <time>2018-01-08T10:23:40Z</time>
      </trkpt>
      <trkpt lat="46.85517" lon="-1.72092">
        <ele>57</ele>
        <time>2018-01-08T10:24:40Z</time>
      </trkpt>
      <trkpt lat="46.85476" lon="-1.72142">
        <ele>58</ele>
        <time>2018-01-08T10:25:40Z</time>
      </trkpt>
      <trkpt lat="46.85424" lon="-1.72207">
        <ele>59</ele>
        <time>2018-01-08T10:26:40Z</time>
      </trkpt>
      <trkpt lat="46.85364" lon="-1.72283">
        <ele>60</ele>
        <time>2018-01-08T10:27:40Z</time>
      </trkpt>
      <trkpt lat="46.85317" lon="-1.72342">
        <ele>61</ele>
        <time>2018-01-08T10:28:40Z</time>
      </trkpt>
      <trkpt lat="46.85274" lon="-1.72395">
        <ele>61</ele>
        <time>2018-01-08T10:29:40Z</time>
      </trkpt>
      <trkpt lat="46.85248" lon="-1.72428">
        <ele>61</ele>
        <time>2018-01-08T10:30:40Z</time>
      </trkpt>
      <trkpt lat="46.85222" lon="-1.72463">
        <ele>60</ele>
        <time>2018-01-08T10:31:40Z</time>
      </trkpt>
      <trkpt lat="46.85199" lon="-1.725">
        <ele>60</ele>
        <time>2018-01-08T10:32:40Z</time>
      </trkpt>
      <trkpt lat="46.85184" lon="-1.72538">
        <ele>60</ele>
        <time>2018-01-08T10:33:40Z</time>
      </trkpt>
      <trkpt lat="46.8517" lon="-1.72576">
        <ele>61</ele>
        <time>2018-01-08T10:34:40Z</time>
      </trkpt>
      <trkpt lat="46.85158" lon="-1.72612">
        <ele>61</ele>
        <time>2018-01-08T10:35:40Z</time>
      </trkpt>
      <trkpt lat="46.85145" lon="-1.72649">
        <ele>60</ele>
        <time>2018-01-08T10:36:40Z</time>
      </trkpt>
      <trkpt lat="46.85135" lon="-1.72676">
        <ele>60</ele>
        <time>2018-01-08T10:37:40Z</time>
      </trkpt>
      <trkpt lat="46.85134" lon="-1.72678">
        <ele>60</ele>
        <time>2018-01-08T10:38:40Z</time>
      </trkpt>
      <trkpt lat="46.85119" lon="-1.72712">
        <ele>61</ele>
        <time>2018-01-08T10:39:40Z</time>
      </trkpt>
      <trkpt lat="46.85092" lon="-1.72768">
        <ele>61</ele>
        <time>2018-01-08T10:40:40Z</time>
      </trkpt>
      <trkpt lat="46.85061" lon="-1.72828">
        <ele>60</ele>
        <time>2018-01-08T10:41:40Z</time>
      </trkpt>
      <trkpt lat="46.85037" lon="-1.72875">
        <ele>60</ele>
        <time>2018-01-08T10:42:40Z</time>
      </trkpt>
      <trkpt lat="46.8501" lon="-1.7293">
        <ele>60</ele>
        <time>2018-01-08T10:43:40Z</time>
      </trkpt>
      <trkpt lat="46.8498" lon="-1.72989">
        <ele>59</ele>
        <time>2018-01-08T10:44:40Z</time>
      </trkpt>
      <trkpt lat="46.84977" lon="-1.72994">
        <ele>59</ele>
        <time>2018-01-08T10:45:40Z</time>
      </trkpt>
      <trkpt lat="46.84956" lon="-1.73037">
        <ele>59</ele>
        <time>2018-01-08T10:46:40Z</time>
      </trkpt>
      <trkpt lat="46.84933" lon="-1.73082">
        <ele>60</ele>
        <time>2018-01-08T10:47:40Z</time>
      </trkpt>
      <trkpt lat="46.84912" lon="-1.73126">
        <ele>60</ele>
        <time>2018-01-08T10:48:40Z</time>
      </trkpt>
      <trkpt lat="46.84891" lon="-1.73174">
        <ele>60</ele>
        <time>2018-01-08T10:49:40Z</time>
      </trkpt>
      <trkpt lat="46.84871" lon="-1.73226">
        <ele>61</ele>
        <time>2018-01-08T10:50:40Z</time>
      </trkpt>
      <trkpt lat="46.84853" lon="-1.73277">
        <ele>61</ele>
        <time>2018-01-08T10:51:40Z</time>
      </trkpt>
      <trkpt lat="46.84836" lon="-1.73339">
        <ele>61</ele>
        <time>2018-01-08T10:52:40Z</time>
      </trkpt>
      <trkpt lat="46.84819" lon="-1.73406">
        <ele>60</ele>
        <time>2018-01-08T10:53:40Z</time>
      </trkpt>
      <trkpt lat="46.84805" lon="-1.73467">
        <ele>60</ele>
        <time>2018-01-08T10:54:40Z</time>
      </trkpt>
      <trkpt lat="46.84794" lon="-1.73517">
        <ele>59</ele>
        <time>2018-01-08T10:55:40Z</time>
      </trkpt>
      <trkpt lat="46.84785" lon="-1.73558">
        <ele>59</ele>
        <time>2018-01-08T10:56:40Z</time>
      </trkpt>
      <trkpt lat="46.84774" lon="-1.73608">
        <ele>58</ele>
        <time>2018-01-08T10:57:40Z</time>
      </trkpt>
      <trkpt lat="46.84762" lon="-1.7366">
        <ele>59</ele>
        <time>2018-01-08T10:58:40Z</time>
      </trkpt>
      <trkpt lat="46.84751" lon="-1.73708">
        <ele>59</ele>
        <time>2018-01-08T10:59:40Z</time>
      </trkpt>
      <trkpt lat="46.84736" lon="-1.73772">
        <ele>59</ele>
        <time>2018-01-08T11:00:40Z</time>
      </trkpt>
      <trkpt lat="46.84726" lon="-1.7381">
        <ele>58</ele>
        <time>2018-01-08T11:01:40Z</time>
      </trkpt>
      <trkpt lat="46.84714" lon="-1.73845">
        <ele>57</ele>
        <time>2018-01-08T11:02:40Z</time>
      </trkpt>
      <trkpt lat="46.84701" lon="-1.73876">
        <ele>57</ele>
        <time>2018-01-08T11:03:40Z</time>
      </trkpt>
      <trkpt lat="46.84685" lon="-1.7391">
        <ele>57</ele>
        <time>2018-01-08T11:04:40Z</time>
      </trkpt>
      <trkpt lat="46.84669" lon="-1.73938">
        <ele>57</ele>
        <time>2018-01-08T11:05:40Z</time>
      </trkpt>
      <trkpt lat="46.8465" lon="-1.73973">
        <ele>58</ele>
        <time>2018-01-08T11:06:40Z</time>
      </trkpt>
      <trkpt lat="46.84631" lon="-1.74004">
        <ele>58</ele>
        <time>2018-01-08T11:07:40Z</time>
      </trkpt>
      <trkpt lat="46.84615" lon="-1.74037">
        <ele>59</ele>
        <time>2018-01-08T11:08:40Z</time>
      </trkpt>
      <trkpt lat="46.84595" lon="-1.74073">
        <ele>59</ele>
        <time>2018-01-08T11:09:40Z</time>
      </trkpt>
      <trkpt lat="46.84576" lon="-1.74109">
        <ele>60</ele>
        <time>2018-01-08T11:10:40Z</time>
      </trkpt>
      <trkpt lat="46.84548" lon="-1.74157">
        <ele>61</ele>
        <time>2018-01-08T11:11:40Z</time>
      </trkpt>
      <trkpt lat="46.84529" lon="-1.74182">
        <ele>61</ele>
        <time>2018-01-08T11:12:40Z</time>
      </trkpt>
      <trkpt lat="46.8451" lon="-1.74204">
        <ele>61</ele>
        <time>2018-01-08T11:13:40Z</time>
      </trkpt>
      <trkpt lat="46.84507" lon="-1.74207">
        <ele>61</ele>
        <time>2018-01-08T11:14:40Z</time>
      </trkpt>
      <trkpt lat="46.84491" lon="-1.74223">
        <ele>62</ele>
        <time>2018-01-08T11:15:40Z</time>
      </trkpt>
      <trkpt lat="46.84468" lon="-1.74247">
        <ele>62</ele>
        <time>2018-01-08T11:16:40Z</time>
      </trkpt>
      <trkpt lat="46.84465" lon="-1.7425">
        <ele>62</ele>
        <time>2018-01-08T11:17:40Z</time>
      </trkpt>
      <trkpt lat="46.84442" lon="-1.74275">
        <ele>62</ele>
        <time>2018-01-08T11:18:40Z</time>
      </trkpt>
      <trkpt lat="46.8442" lon="-1.74297">
        <ele>63</ele>
        <time>2018-01-08T11:19:40Z</time>
      </trkpt>
      <trkpt lat="46.84394" lon="-1.74324">
        <ele>63</ele>
        <time>2018-01-08T11:20:40Z</time>
      </trkpt>
      <trkpt lat="46.84388" lon="-1.74332">
        <ele>63</ele>
        <time>2018-01-08T11:21:40Z</time>
      </trkpt>
      <trkpt lat="46.84385" lon="-1.74336">
        <ele>63</ele>
        <time>2018-01-08T11:22:40Z</time>
      </trkpt>
      <trkpt lat="46.84383" lon="-1.74337">
        <ele>63</ele>
        <time>2018-01-08T11:23:40Z</time>
      </trkpt>
      <trkpt lat="46.84358" lon="-1.74374">
        <ele>63</ele>
        <time>2018-01-08T11:24:40Z</time>
      </trkpt>
      <trkpt lat="46.84332" lon="-1.74418">
        <ele>62</ele>
        <time>2018-01-08T11:25:40Z</time>
      </trkpt>
      <trkpt lat="46.84319" lon="-1.7444">
        <ele>62</ele>
        <time>2018-01-08T11:26:40Z</time>
      </trkpt>
      <trkpt lat="46.84307" lon="-1.74461">
        <ele>61</ele>
        <time>2018-01-08T11:27:40Z</time>
      </trkpt>
      <trkpt lat="46.84272" lon="-1.74521">
        <ele>61</ele>
        <time>2018-01-08T11:28:40Z</time>
      </trkpt>
      <trkpt lat="46.84242" lon="-1.74574">
        <ele>61</ele>
        <time>2018-01-08T11:29:40Z</time>
      </trkpt>
      <trkpt lat="46.84193" lon="-1.7466">
        <ele>62</ele>
        <time>2018-01-08T11:30:40Z</time>
      </trkpt>
      <trkpt lat="46.84178" lon="-1.74685">
        <ele>62</ele>
        <time>2018-01-08T11:31:40Z</time>
      </trkpt>
      <trkpt lat="46.84176" lon="-1.7469">
        <ele>62</ele>
        <time>2018-01-08T11:32:40Z</time>
      </trkpt>
      <trkpt lat="46.84164" lon="-1.74711">
        <ele>63</ele>
        <time>2018-01-08T11:33:40Z</time>
      </trkpt>
      <trkpt lat="46.8416" lon="-1.74719">
        <ele>63</ele>
        <time>2018-01-08T11:34:40Z</time>
      </trkpt>
      <trkpt lat="46.84136" lon="-1.74761">
        <ele>63</ele>
        <time>2018-01-08T11:35:40Z</time>
      </trkpt>
      <trkpt lat="46.84111" lon="-1.74803">
        <ele>63</ele>
        <time>2018-01-08T11:36:40Z</time>
      </trkpt>
      <trkpt lat="46.84111" lon="-1.74804">
        <ele>63</ele>
        <time>2018-01-08T11:37:40Z</time>
      </trkpt>
      <trkpt lat="46.84083" lon="-1.74853">
        <ele>64</ele>
        <time>2018-01-08T11:38:40Z</time>
      </trkpt>
      <trkpt lat="46.84076" lon="-1.74865">
        <ele>63</ele>
        <time>2018-01-08T11:39:40Z</time>
      </trkpt>
      <trkpt lat="46.84044" lon="-1.74919">
        <ele>62</ele>
        <time>2018-01-08T11:40:40Z</time>
      </trkpt>
      <trkpt lat="46.84037" lon="-1.7493">
        <ele>62</ele>
        <time>2018-01-08T11:41:40Z</time>
      </trkpt>
      <trkpt lat="46.84023" lon="-1.74953">
        <ele>62</ele>
        <time>2018-01-08T11:42:40Z</time>
      </trkpt>
      <trkpt lat="46.84" lon="-1.74986">
        <ele>63</ele>
        <time>2018-01-08T11:43:40Z</time>
      </trkpt>
      <trkpt lat="46.83984" lon="-1.75002">
        <ele>63</ele>
        <time>2018-01-08T11:44:40Z</time>
      </trkpt>
      <trkpt lat="46.83979" lon="-1.75008">
        <ele>63</ele>
        <time>2018-01-08T11:45:40Z</time>
      </trkpt>
      <trkpt lat="46.83955" lon="-1.75032">
        <ele>63</ele>
        <time>2018-01-08T11:46:40Z</time>
      </trkpt>
      <trkpt lat="46.83914" lon="-1.7507">
        <ele>62</ele>
        <time>2018-01-08T11:47:40Z</time>
      </trkpt>
      <trkpt lat="46.83871" lon="-1.75111">
        <ele>62</ele>
        <time>2018-01-08T11:48:40Z</time>
      </trkpt>
      <trkpt lat="46.83818" lon="-1.7516">
        <ele>62</ele>
        <time>2018-01-08T11:49:40Z</time>
      </trkpt>
      <trkpt lat="46.83773" lon="-1.75202">
        <ele>61</ele>
        <time>2018-01-08T11:50:40Z</time>
      </trkpt>
      <trkpt lat="46.83724" lon="-1.75249">
        <ele>60</ele>
        <time>2018-01-08T11:51:40Z</time>
      </trkpt>
      <trkpt lat="46.83671" lon="-1.75299">
        <ele>60</ele>
        <time>2018-01-08T11:52:40Z</time>
      </trkpt>
      <trkpt lat="46.83644" lon="-1.75324">
        <ele>60</ele>
        <time>2018-01-08T11:53:40Z</time>
      </trkpt>
      <trkpt lat="46.83591" lon="-1.75372">
        <ele>60</ele>
        <time>2018-01-08T11:54:40Z</time>
      </trkpt>
      <trkpt lat="46.83545" lon="-1.75409">
        <ele>59</ele>
        <time>2018-01-08T11:55:40Z</time>
      </trkpt>
      <trkpt lat="46.83498" lon="-1.75445">
        <ele>59</ele>
        <time>2018-01-08T11:56:40Z</time>
      </trkpt>
      <trkpt lat="46.8345" lon="-1.75483">
        <ele>59</ele>
        <time>2018-01-08T11:57:40Z</time>
      </trkpt>
      <trkpt lat="46.83416" lon="-1.75509">
        <ele>58</ele>
        <time>2018-01-08T11:58:40Z</time>
      </trkpt>
      <trkpt lat="46.83376" lon="-1.75541">
        <ele>58</ele>
        <time>2018-01-08T11:59:40Z</time>
      </trkpt>
      <trkpt lat="46.83338" lon="-1.75571">
        <ele>58</ele>
        <time>2018-01-08T12:00:40Z</time>
      </trkpt>
      <trkpt lat="46.83334" lon="-1.75574">
        <ele>58</ele>
        <time>2018-01-08T12:01:40Z</time>
      </trkpt>
      <trkpt lat="46.83286" lon="-1.75612">
        <ele>58</ele>
        <time>2018-01-08T12:02:40Z</time>
      </trkpt>
      <trkpt lat="46.83248" lon="-1.75641">
        <ele>59</ele>
        <time>2018-01-08T12:03:40Z</time>
      </trkpt>
      <trkpt lat="46.83218" lon="-1.75668">
        <ele>59</ele>
        <time>2018-01-08T12:04:40Z</time>
      </trkpt>
      <trkpt lat="46.83177" lon="-1.75706">
        <ele>60</ele>
        <time>2018-01-08T12:05:40Z</time>
      </trkpt>
      <trkpt lat="46.83144" lon="-1.75737">
        <ele>60</ele>
        <time>2018-01-08T12:06:40Z</time>
      </trkpt>
      <trkpt lat="46.83086" lon="-1.75792">
        <ele>60</ele>
        <time>2018-01-08T12:07:40Z</time>
      </trkpt>
      <trkpt lat="46.83039" lon="-1.75836">
        <ele>61</ele>
        <time>2018-01-08T12:08:40Z</time>
      </trkpt>
      <trkpt lat="46.82994" lon="-1.75878">
        <ele>61</ele>
        <time>2018-01-08T12:09:40Z</time>
      </trkpt>
      <trkpt lat="46.82968" lon="-1.75903">
        <ele>61</ele>
        <time>2018-01-08T12:10:40Z</time>
      </trkpt>
      <trkpt lat="46.82943" lon="-1.75926">
        <ele>60</ele>
        <time>2018-01-08T12:11:40Z</time>
      </trkpt>
      <trkpt lat="46.82876" lon="-1.75989">
        <ele>58</ele>
        <time>2018-01-08T12:12:40Z</time>
      </trkpt>
      <trkpt lat="46.82831" lon="-1.76033">
        <ele>57</ele>
        <time>2018-01-08T12:13:40Z</time>
      </trkpt>
      <trkpt lat="46.82827" lon="-1.76036">
        <ele>57</ele>
        <time>2018-01-08T12:14:40Z</time>
      </trkpt>
      <trkpt lat="46.82762" lon="-1.76098">
        <ele>57</ele>
        <time>2018-01-08T12:15:40Z</time>
      </trkpt>
      <trkpt lat="46.82749" lon="-1.7611">
        <ele>57</ele>
        <time>2018-01-08T12:16:40Z</time>
      </trkpt>
      <trkpt lat="46.82733" lon="-1.76125">
        <ele>56</ele>
        <time>2018-01-08T12:17:40Z</time>
      </trkpt>
      <trkpt lat="46.82712" lon="-1.76146">
        <ele>56</ele>
        <time>2018-01-08T12:18:40Z</time>
      </trkpt>
      <trkpt lat="46.82698" lon="-1.76162">
        <ele>56</ele>
        <time>2018-01-08T12:19:40Z</time>
      </trkpt>
      <trkpt lat="46.82698" lon="-1.76162">
        <ele>56</ele>
        <time>2018-01-08T12:20:40Z</time>
      </trkpt>
      <trkpt lat="46.82699" lon="-1.76162">
        <ele>56</ele>
        <time>2018-01-08T12:21:40Z</time>
      </trkpt>
      <trkpt lat="46.82699" lon="-1.76163">
        <ele>56</ele>
        <time>2018-01-08T12:22:40Z</time>
      </trkpt>
      <trkpt lat="46.82699" lon="-1.76164">
        <ele>56</ele>
        <time>2018-01-08T12:23:40Z</time>
      </trkpt>
      <trkpt lat="46.827" lon="-1.76164">
        <ele>56</ele>
        <time>2018-01-08T12:24:40Z</time>
      </trkpt>
      <trkpt lat="46.827" lon="-1.76165">
        <ele>56</ele>
        <time>2018-01-08T12:25:40Z</time>
      </trkpt>
      <trkpt lat="46.827" lon="-1.76166">
        <ele>56</ele>
        <time>2018-01-08T12:26:40Z</time>
      </trkpt>
      <trkpt lat="46.827" lon="-1.76167">
        <ele>56</ele>
        <time>2018-01-08T12:27:40Z</time>
      </trkpt>
      <trkpt lat="46.82701" lon="-1.76168">
        <ele>56</ele>
        <time>2018-01-08T12:28:40Z</time>
      </trkpt>
      <trkpt lat="46.82701" lon="-1.76169">
        <ele>56</ele>
        <time>2018-01-08T12:29:40Z</time>
      </trkpt>
      <trkpt lat="46.82701" lon="-1.7617">
        <ele>56</ele>
        <time>2018-01-08T12:30:40Z</time>
      </trkpt>
      <trkpt lat="46.827" lon="-1.76171">
        <ele>56</ele>
        <time>2018-01-08T12:31:40Z</time>
      </trkpt>
      <trkpt lat="46.827" lon="-1.76172">
        <ele>56</ele>
        <time>2018-01-08T12:32:40Z</time>
      </trkpt>
      <trkpt lat="46.827" lon="-1.76173">
        <ele>56</ele>
        <time>2018-01-08T12:33:40Z</time>
      </trkpt>
      <trkpt lat="46.827" lon="-1.76174">
        <ele>56</ele>
        <time>2018-01-08T12:34:40Z</time>
      </trkpt>
      <trkpt lat="46.82699" lon="-1.76175">
        <ele>56</ele>
        <time>2018-01-08T12:35:40Z</time>
      </trkpt>
      <trkpt lat="46.82699" lon="-1.76176">
        <ele>56</ele>
        <time>2018-01-08T12:36:40Z</time>
      </trkpt>
      <trkpt lat="46.82698" lon="-1.76176">
        <ele>56</ele>
        <time>2018-01-08T12:37:40Z</time>
      </trkpt>
      <trkpt lat="46.82698" lon="-1.76177">
        <ele>56</ele>
        <time>2018-01-08T12:38:40Z</time>
      </trkpt>
      <trkpt lat="46.82697" lon="-1.76178">
        <ele>56</ele>
        <time>2018-01-08T12:39:40Z</time>
      </trkpt>
      <trkpt lat="46.82696" lon="-1.76178">
        <ele>56</ele>
        <time>2018-01-08T12:40:40Z</time>
      </trkpt>
      <trkpt lat="46.82696" lon="-1.76179">
        <ele>56</ele>
        <time>2018-01-08T12:41:40Z</time>
      </trkpt>
      <trkpt lat="46.82695" lon="-1.76179">
        <ele>56</ele>
        <time>2018-01-08T12:42:40Z</time>
      </trkpt>
      <trkpt lat="46.82694" lon="-1.76179">
        <ele>56</ele>
        <time>2018-01-08T12:43:40Z</time>
      </trkpt>
      <trkpt lat="46.82693" lon="-1.76179">
        <ele>56</ele>
        <time>2018-01-08T12:44:40Z</time>
      </trkpt>
      <trkpt lat="46.82692" lon="-1.76179">
        <ele>56</ele>
        <time>2018-01-08T12:45:40Z</time>
      </trkpt>
      <trkpt lat="46.82691" lon="-1.76179">
        <ele>56</ele>
        <time>2018-01-08T12:46:40Z</time>
      </trkpt>
      <trkpt lat="46.82691" lon="-1.76178">
        <ele>56</ele>
        <time>2018-01-08T12:47:40Z</time>
      </trkpt>
      <trkpt lat="46.8269" lon="-1.76178">
        <ele>56</ele>
        <time>2018-01-08T12:48:40Z</time>
      </trkpt>
      <trkpt lat="46.8269" lon="-1.76177">
        <ele>56</ele>
        <time>2018-01-08T12:49:40Z</time>
      </trkpt>
      <trkpt lat="46.82689" lon="-1.76177">
        <ele>56</ele>
        <time>2018-01-08T12:50:40Z</time>
      </trkpt>
      <trkpt lat="46.82689" lon="-1.76176">
        <ele>56</ele>
        <time>2018-01-08T12:51:40Z</time>
      </trkpt>
      <trkpt lat="46.82688" lon="-1.76176">
        <ele>56</ele>
        <time>2018-01-08T12:52:40Z</time>
      </trkpt>
      <trkpt lat="46.82688" lon="-1.76175">
        <ele>56</ele>
        <time>2018-01-08T12:53:40Z</time>
      </trkpt>
      <trkpt lat="46.82688" lon="-1.76174">
        <ele>56</ele>
        <time>2018-01-08T12:54:40Z</time>
      </trkpt>
      <trkpt lat="46.82687" lon="-1.76174">
        <ele>56</ele>
        <time>2018-01-08T12:55:40Z</time>
      </trkpt>
      <trkpt lat="46.82687" lon="-1.76173">
        <ele>56</ele>
        <time>2018-01-08T12:56:40Z</time>
      </trkpt>
      <trkpt lat="46.82687" lon="-1.76172">
        <ele>56</ele>
        <time>2018-01-08T12:57:40Z</time>
      </trkpt>
      <trkpt lat="46.82687" lon="-1.76171">
        <ele>56</ele>
        <time>2018-01-08T12:58:40Z</time>
      </trkpt>
      <trkpt lat="46.82687" lon="-1.7617">
        <ele>56</ele>
        <time>2018-01-08T12:59:40Z</time>
      </trkpt>
      <trkpt lat="46.82672" lon="-1.76168">
        <ele>56</ele>
        <time>2018-01-08T13:00:40Z</time>
      </trkpt>
      <trkpt lat="46.82649" lon="-1.76163">
        <ele>55</ele>
        <time>2018-01-08T13:01:40Z</time>
      </trkpt>
      <trkpt lat="46.82635" lon="-1.7616">
        <ele>55</ele>
        <time>2018-01-08T13:02:40Z</time>
      </trkpt>
      <trkpt lat="46.82627" lon="-1.76157">
        <ele>55</ele>
        <time>2018-01-08T13:03:40Z</time>
      </trkpt>
      <trkpt lat="46.82588" lon="-1.76147">
        <ele>54</ele>
        <time>2018-01-08T13:04:40Z</time>
      </trkpt>
      <trkpt lat="46.82584" lon="-1.76146">
        <ele>54</ele>
        <time>2018-01-08T13:05:40Z</time>
      </trkpt>
      <trkpt lat="46.82575" lon="-1.76144">
        <ele>54</ele>
        <time>2018-01-08T13:06:40Z</time>
      </trkpt>
      <trkpt lat="46.82557" lon="-1.76141">
        <ele>55</ele>
        <time>2018-01-08T13:07:40Z</time>
      </trkpt>
      <trkpt lat="46.82545" lon="-1.7614">
        <ele>55</ele>
        <time>2018-01-08T13:08:40Z</time>
      </trkpt>
      <trkpt lat="46.82535" lon="-1.7614">
        <ele>55</ele>
        <time>2018-01-08T13:09:40Z</time>
      </trkpt>
      <trkpt lat="46.82524" lon="-1.76142">
        <ele>56</ele>
        <time>2018-01-08T13:10:40Z</time>
      </trkpt>
      <trkpt lat="46.82513" lon="-1.76144">
        <ele>56</ele>
        <time>2018-01-08T13:11:40Z</time>
      </trkpt>
      <trkpt lat="46.82502" lon="-1.76148">
        <ele>56</ele>
        <time>2018-01-08T13:12:40Z</time>
      </trkpt>
      <trkpt lat="46.82492" lon="-1.76154">
        <ele>57</ele>
        <time>2018-01-08T13:13:40Z</time>
      </trkpt>
      <trkpt lat="46.8248" lon="-1.7616">
        <ele>57</ele>
        <time>2018-01-08T13:14:40Z</time>
      </trkpt>
      <trkpt lat="46.82468" lon="-1.76168">
        <ele>57</ele>
        <time>2018-01-08T13:15:40Z</time>
      </trkpt>
      <trkpt lat="46.82465" lon="-1.7617">
        <ele>57</ele>
        <time>2018-01-08T13:16:40Z</time>
      </trkpt>
      <trkpt lat="46.82411" lon="-1.76208">
        <ele>57</ele>
        <time>2018-01-08T13:17:40Z</time>
      </trkpt>
      <trkpt lat="46.8241" lon="-1.76209">
        <ele>57</ele>
        <time>2018-01-08T13:18:40Z</time>
      </trkpt>
      <trkpt lat="46.82406" lon="-1.76212">
        <ele>57</ele>
        <time>2018-01-08T13:19:40Z</time>
      </trkpt>
      <trkpt lat="46.82375" lon="-1.76233">
        <ele>56</ele>
        <time>2018-01-08T13:20:40Z</time>
      </trkpt>
      <trkpt lat="46.82366" lon="-1.76239">
        <ele>56</ele>
        <time>2018-01-08T13:21:40Z</time>
      </trkpt>
      <trkpt lat="46.82351" lon="-1.76249">
        <ele>56</ele>
        <time>2018-01-08T13:22:40Z</time>
      </trkpt>
      <trkpt lat="46.82344" lon="-1.76255">
        <ele>56</ele>
        <time>2018-01-08T13:23:40Z</time>
      </trkpt>
      <trkpt lat="46.82335" lon="-1.76263">
        <ele>55</ele>
        <time>2018-01-08T13:24:40Z</time>
      </trkpt>
      <trkpt lat="46.82324" lon="-1.76274">
        <ele>54</ele>
        <time>2018-01-08T13:25:40Z</time>
      </trkpt>
      <trkpt lat="46.82306" lon="-1.76294">
        <ele>53</ele>
        <time>2018-01-08T13:26:40Z</time>
      </trkpt>
      <trkpt lat="46.82294" lon="-1.76306">
        <ele>52</ele>
        <time>2018-01-08T13:27:40Z</time>
      </trkpt>
      <trkpt lat="46.82282" lon="-1.76316">
        <ele>51</ele>
        <time>2018-01-08T13:28:40Z</time>
      </trkpt>
      <trkpt lat="46.82272" lon="-1.76323">
        <ele>51</ele>
        <time>2018-01-08T13:29:40Z</time>
      </trkpt>
      <trkpt lat="46.82263" lon="-1.76329">
        <ele>50</ele>
        <time>2018-01-08T13:30:40Z</time>
      </trkpt>
      <trkpt lat="46.82224" lon="-1.76348">
        <ele>50</ele>
        <time>2018-01-08T13:31:40Z</time>
      </trkpt>
      <trkpt lat="46.82221" lon="-1.7635">
        <ele>49</ele>
        <time>2018-01-08T13:32:40Z</time>
      </trkpt>
      <trkpt lat="46.82181" lon="-1.76363">
        <ele>49</ele>
        <time>2018-01-08T13:33:40Z</time>
      </trkpt>
      <trkpt lat="46.82159" lon="-1.76372">
        <ele>48</ele>
        <time>2018-01-08T13:34:40Z</time>
      </trkpt>
      <trkpt lat="46.82154" lon="-1.76376">
        <ele>48</ele>
        <time>2018-01-08T13:35:40Z</time>
      </trkpt>
      <trkpt lat="46.82141" lon="-1.76383">
        <ele>47</ele>
        <time>2018-01-08T13:36:40Z</time>
      </trkpt>
      <trkpt lat="46.82124" lon="-1.76393">
        <ele>45</ele>
        <time>2018-01-08T13:37:40Z</time>
      </trkpt>
      <trkpt lat="46.82119" lon="-1.76397">
        <ele>45</ele>
        <time>2018-01-08T13:38:40Z</time>
      </trkpt>
      <trkpt lat="46.82113" lon="-1.76402">
        <ele>44</ele>
        <time>2018-01-08T13:39:40Z</time>
      </trkpt>
      <trkpt lat="46.82103" lon="-1.76409">
        <ele>44</ele>
        <time>2018-01-08T13:40:40Z</time>
      </trkpt>
      <trkpt lat="46.82092" lon="-1.76419">
        <ele>43</ele>
        <time>2018-01-08T13:41:40Z</time>
      </trkpt>
      <trkpt lat="46.82073" lon="-1.76441">
        <ele>42</ele>
        <time>2018-01-08T13:42:40Z</time>
      </trkpt>
      <trkpt lat="46.82058" lon="-1.76462">
        <ele>41</ele>
        <time>2018-01-08T13:43:40Z</time>
      </trkpt>
      <trkpt lat="46.8205" lon="-1.76468">
        <ele>41</ele>
        <time>2018-01-08T13:44:40Z</time>
      </trkpt>
      <trkpt lat="46.82013" lon="-1.76512">
        <ele>40</ele>
        <time>2018-01-08T13:45:40Z</time>
      </trkpt>
      <trkpt lat="46.81997" lon="-1.76529">
        <ele>39</ele>
        <time>2018-01-08T13:46:40Z</time>
      </trkpt>
      <trkpt lat="46.81986" lon="-1.76539">
        <ele>39</ele>
        <time>2018-01-08T13:47:40Z</time>
      </trkpt>
      <trkpt lat="46.81973" lon="-1.76549">
        <ele>38</ele>
        <time>2018-01-08T13:48:40Z</time>
      </trkpt>
      <trkpt lat="46.81973" lon="-1.76549">
        <ele>38</ele>
        <time>2018-01-08T13:49:40Z</time>
      </trkpt>
      <trkpt lat="46.81973" lon="-1.76551">
        <ele>38</ele>
        <time>2018-01-08T13:50:40Z</time>
      </trkpt>
      <trkpt lat="46.81974" lon="-1.76552">
        <ele>38</ele>
        <time>2018-01-08T13:51:40Z</time>
      </trkpt>
      <trkpt lat="46.81974" lon="-1.76554">
        <ele>38</ele>
        <time>2018-01-08T13:52:40Z</time>
      </trkpt>
      <trkpt lat="46.81974" lon="-1.76555">
        <ele>38</ele>
        <time>2018-01-08T13:53:40Z</time>
      </trkpt>
      <trkpt lat="46.81975" lon="-1.76557">
        <ele>38</ele>
        <time>2018-01-08T13:54:40Z</time>
      </trkpt>
      <trkpt lat="46.81975" lon="-1.76558">
        <ele>38</ele>
        <time>2018-01-08T13:55:40Z</time>
      </trkpt>
      <trkpt lat="46.81975" lon="-1.7656">
        <ele>38</ele>
        <time>2018-01-08T13:56:40Z</time>
      </trkpt>
      <trkpt lat="46.81975" lon="-1.76562">
        <ele>38</ele>
        <time>2018-01-08T13:57:40Z</time>
      </trkpt>
      <trkpt lat="46.81974" lon="-1.76563">
        <ele>38</ele>
        <time>2018-01-08T13:58:40Z</time>
      </trkpt>
      <trkpt lat="46.81974" lon="-1.76565">
        <ele>38</ele>
        <time>2018-01-08T13:59:40Z</time>
      </trkpt>
      <trkpt lat="46.81974" lon="-1.76566">
        <ele>38</ele>
        <time>2018-01-08T14:00:40Z</time>
      </trkpt>
      <trkpt lat="46.81974" lon="-1.76568">
        <ele>38</ele>
        <time>2018-01-08T14:01:40Z</time>
      </trkpt>
      <trkpt lat="46.81973" lon="-1.76569">
        <ele>38</ele>
        <time>2018-01-08T14:02:40Z</time>
      </trkpt>
      <trkpt lat="46.81973" lon="-1.76571">
        <ele>38</ele>
        <time>2018-01-08T14:03:40Z</time>
      </trkpt>
      <trkpt lat="46.81972" lon="-1.76572">
        <ele>38</ele>
        <time>2018-01-08T14:04:40Z</time>
      </trkpt>
      <trkpt lat="46.81971" lon="-1.76574">
        <ele>38</ele>
        <time>2018-01-08T14:05:40Z</time>
      </trkpt>
      <trkpt lat="46.81971" lon="-1.76575">
        <ele>38</ele>
        <time>2018-01-08T14:06:40Z</time>
      </trkpt>
      <trkpt lat="46.8197" lon="-1.76576">
        <ele>38</ele>
        <time>2018-01-08T14:07:40Z</time>
      </trkpt>
      <trkpt lat="46.81969" lon="-1.76577">
        <ele>38</ele>
        <time>2018-01-08T14:08:40Z</time>
      </trkpt>
      <trkpt lat="46.81968" lon="-1.76578">
        <ele>38</ele>
        <time>2018-01-08T14:09:40Z</time>
      </trkpt>
      <trkpt lat="46.81967" lon="-1.76579">
        <ele>38</ele>
        <time>2018-01-08T14:10:40Z</time>
      </trkpt>
      <trkpt lat="46.81966" lon="-1.7658">
        <ele>38</ele>
        <time>2018-01-08T14:11:40Z</time>
      </trkpt>
      <trkpt lat="46.81964" lon="-1.76581">
        <ele>38</ele>
        <time>2018-01-08T14:12:40Z</time>
      </trkpt>
      <trkpt lat="46.81963" lon="-1.76582">
        <ele>38</ele>
        <time>2018-01-08T14:13:40Z</time>
      </trkpt>
      <trkpt lat="46.81962" lon="-1.76582">
        <ele>38</ele>
        <time>2018-01-08T14:14:40Z</time>
      </trkpt>
      <trkpt lat="46.81961" lon="-1.76582">
        <ele>38</ele>
        <time>2018-01-08T14:15:40Z</time>
      </trkpt>
      <trkpt lat="46.8196" lon="-1.76582">
        <ele>38</ele>
        <time>2018-01-08T14:16:40Z</time>
      </trkpt>
      <trkpt lat="46.81959" lon="-1.76582">
        <ele>38</ele>
        <time>2018-01-08T14:17:40Z</time>
      </trkpt>
      <trkpt lat="46.81958" lon="-1.76582">
        <ele>37</ele>
        <time>2018-01-08T14:18:40Z</time>
      </trkpt>
      <trkpt lat="46.81956" lon="-1.76582">
        <ele>37</ele>
        <time>2018-01-08T14:19:40Z</time>
      </trkpt>
      <trkpt lat="46.81955" lon="-1.76582">
        <ele>37</ele>
        <time>2018-01-08T14:20:40Z</time>
      </trkpt>
      <trkpt lat="46.81954" lon="-1.76581">
        <ele>37</ele>
        <time>2018-01-08T14:21:40Z</time>
      </trkpt>
      <trkpt lat="46.81953" lon="-1.76581">
        <ele>37</ele>
        <time>2018-01-08T14:22:40Z</time>
      </trkpt>
      <trkpt lat="46.81952" lon="-1.7658">
        <ele>37</ele>
        <time>2018-01-08T14:23:40Z</time>
      </trkpt>
      <trkpt lat="46.81951" lon="-1.7658">
        <ele>37</ele>
        <time>2018-01-08T14:24:40Z</time>
      </trkpt>
      <trkpt lat="46.8195" lon="-1.76579">
        <ele>37</ele>
        <time>2018-01-08T14:25:40Z</time>
      </trkpt>
      <trkpt lat="46.81949" lon="-1.76578">
        <ele>37</ele>
        <time>2018-01-08T14:26:40Z</time>
      </trkpt>
      <trkpt lat="46.81948" lon="-1.76577">
        <ele>37</ele>
        <time>2018-01-08T14:27:40Z</time>
      </trkpt>
      <trkpt lat="46.81948" lon="-1.76576">
        <ele>37</ele>
        <time>2018-01-08T14:28:40Z</time>
      </trkpt>
      <trkpt lat="46.81947" lon="-1.76574">
        <ele>37</ele>
        <time>2018-01-08T14:29:40Z</time>
      </trkpt>
      <trkpt lat="46.81946" lon="-1.76573">
        <ele>37</ele>
        <time>2018-01-08T14:30:40Z</time>
      </trkpt>
      <trkpt lat="46.81946" lon="-1.76572">
        <ele>37</ele>
        <time>2018-01-08T14:31:40Z</time>
      </trkpt>
      <trkpt lat="46.81945" lon="-1.76571">
        <ele>37</ele>
        <time>2018-01-08T14:32:40Z</time>
      </trkpt>
      <trkpt lat="46.81944" lon="-1.76569">
        <ele>37</ele>
        <time>2018-01-08T14:33:40Z</time>
      </trkpt>
      <trkpt lat="46.81931" lon="-1.76576">
        <ele>37</ele>
        <time>2018-01-08T14:34:40Z</time>
      </trkpt>
      <trkpt lat="46.81923" lon="-1.7658">
        <ele>36</ele>
        <time>2018-01-08T14:35:40Z</time>
      </trkpt>
      <trkpt lat="46.81906" lon="-1.76589">
        <ele>36</ele>
        <time>2018-01-08T14:36:40Z</time>
      </trkpt>
      <trkpt lat="46.81875" lon="-1.76603">
        <ele>36</ele>
        <time>2018-01-08T14:37:40Z</time>
      </trkpt>
      <trkpt lat="46.81861" lon="-1.7661">
        <ele>36</ele>
        <time>2018-01-08T14:38:40Z</time>
      </trkpt>
      <trkpt lat="46.8185" lon="-1.76617">
        <ele>36</ele>
        <time>2018-01-08T14:39:40Z</time>
      </trkpt>
      <trkpt lat="46.81839" lon="-1.76625">
        <ele>36</ele>
        <time>2018-01-08T14:40:40Z</time>
      </trkpt>
      <trkpt lat="46.8181" lon="-1.76648">
        <ele>35</ele>
        <time>2018-01-08T14:41:40Z</time>
      </trkpt>
      <trkpt lat="46.81799" lon="-1.76657">
        <ele>35</ele>
        <time>2018-01-08T14:42:40Z</time>
      </trkpt>
      <trkpt lat="46.8179" lon="-1.76666">
        <ele>34</ele>
        <time>2018-01-08T14:43:40Z</time>
      </trkpt>
      <trkpt lat="46.81785" lon="-1.76672">
        <ele>34</ele>
        <time>2018-01-08T14:44:40Z</time>
      </trkpt>
      <trkpt lat="46.81761" lon="-1.76699">
        <ele>34</ele>
        <time>2018-01-08T14:45:40Z</time>
      </trkpt>
      <trkpt lat="46.81731" lon="-1.76733">
        <ele>33</ele>
        <time>2018-01-08T14:46:40Z</time>
      </trkpt>
      <trkpt lat="46.81724" lon="-1.76741">
        <ele>32</ele>
        <time>2018-01-08T14:47:40Z</time>
      </trkpt>
      <trkpt lat="46.81689" lon="-1.76782">
        <ele>31</ele>
        <time>2018-01-08T14:48:40Z</time>
      </trkpt>
      <trkpt lat="46.8166" lon="-1.76816">
        <ele>31</ele>
        <time>2018-01-08T14:49:40Z</time>
      </trkpt>
      <trkpt lat="46.81614" lon="-1.76868">
        <ele>29</ele>
        <time>2018-01-08T14:50:40Z</time>
      </trkpt>
      <trkpt lat="46.81598" lon="-1.76886">
        <ele>28</ele>
        <time>2018-01-08T14:51:40Z</time>
      </trkpt>
      <trkpt lat="46.81582" lon="-1.76905">
        <ele>27</ele>
        <time>2018-01-08T14:52:40Z</time>
      </trkpt>
      <trkpt lat="46.81549" lon="-1.76943">
        <ele>26</ele>
        <time>2018-01-08T14:53:40Z</time>
      </trkpt>
      <trkpt lat="46.81485" lon="-1.77016">
        <ele>25</ele>
        <time>2018-01-08T14:54:40Z</time>
      </trkpt>
      <trkpt lat="46.8141" lon="-1.77102">
        <ele>25</ele>
        <time>2018-01-08T14:55:40Z</time>
      </trkpt>
      <trkpt lat="46.81338" lon="-1.77185">
        <ele>22</ele>
        <time>2018-01-08T14:56:40Z</time>
      </trkpt>
      <trkpt lat="46.81318" lon="-1.77207">
        <ele>22</ele>
        <time>2018-01-08T14:57:40Z</time>
      </trkpt>
      <trkpt lat="46.813" lon="-1.77229">
        <ele>22</ele>
        <time>2018-01-08T14:58:40Z</time>
      </trkpt>
      <trkpt lat="46.81294" lon="-1.77238">
        <ele>23</ele>
        <time>2018-01-08T14:59:40Z</time>
      </trkpt>
      <trkpt lat="46.81271" lon="-1.77264">
        <ele>23</ele>
        <time>2018-01-08T15:00:40Z</time>
      </trkpt>
      <trkpt lat="46.81245" lon="-1.77289">
        <ele>22</ele>
        <time>2018-01-08T15:01:40Z</time>
      </trkpt>
      <trkpt lat="46.81221" lon="-1.77308">
        <ele>22</ele>
        <time>2018-01-08T15:02:40Z</time>
      </trkpt>
      <trkpt lat="46.81209" lon="-1.77317">
        <ele>22</ele>
        <time>2018-01-08T15:03:40Z</time>
      </trkpt>
      <trkpt lat="46.81196" lon="-1.77326">
        <ele>21</ele>
        <time>2018-01-08T15:04:40Z</time>
      </trkpt>
      <trkpt lat="46.81176" lon="-1.7734">
        <ele>21</ele>
        <time>2018-01-08T15:05:40Z</time>
      </trkpt>
      <trkpt lat="46.81153" lon="-1.77356">
        <ele>21</ele>
        <time>2018-01-08T15:06:40Z</time>
      </trkpt>
      <trkpt lat="46.81144" lon="-1.77362">
        <ele>21</ele>
        <time>2018-01-08T15:07:40Z</time>
      </trkpt>
      <trkpt lat="46.81139" lon="-1.77364">
        <ele>21</ele>
        <time>2018-01-08T15:08:40Z</time>
      </trkpt>
      <trkpt lat="46.81134" lon="-1.77367">
        <ele>21</ele>
        <time>2018-01-08T15:09:40Z</time>
      </trkpt>
      <trkpt lat="46.81098" lon="-1.77391">
        <ele>22</ele>
        <time>2018-01-08T15:10:40Z</time>
      </trkpt>
      <trkpt lat="46.81057" lon="-1.77419">
        <ele>23</ele>
        <time>2018-01-08T15:11:40Z</time>
      </trkpt>
      <trkpt lat="46.81055" lon="-1.7742">
        <ele>23</ele>
        <time>2018-01-08T15:12:40Z</time>
      </trkpt>
      <trkpt lat="46.80995" lon="-1.77461">
        <ele>25</ele>
        <time>2018-01-08T15:13:40Z</time>
      </trkpt>
      <trkpt lat="46.80982" lon="-1.77471">
        <ele>25</ele>
        <time>2018-01-08T15:14:40Z</time>
      </trkpt>
      <trkpt lat="46.80977" lon="-1.77474">
        <ele>25</ele>
        <time>2018-01-08T15:15:40Z</time>
      </trkpt>
      <trkpt lat="46.80928" lon="-1.77507">
        <ele>26</ele>
        <time>2018-01-08T15:16:40Z</time>
      </trkpt>
      <trkpt lat="46.80888" lon="-1.77534">
        <ele>26</ele>
        <time>2018-01-08T15:17:40Z</time>
      </trkpt>
      <trkpt lat="46.80873" lon="-1.77543">
        <ele>26</ele>
        <time>2018-01-08T15:18:40Z</time>
      </trkpt>
      <trkpt lat="46.80858" lon="-1.77553">
        <ele>26</ele>
        <time>2018-01-08T15:19:40Z</time>
      </trkpt>
      <trkpt lat="46.80826" lon="-1.77574">
        <ele>25</ele>
        <time>2018-01-08T15:20:40Z</time>
      </trkpt>
      <trkpt lat="46.80803" lon="-1.77591">
        <ele>25</ele>
        <time>2018-01-08T15:21:40Z</time>
      </trkpt>
      <trkpt lat="46.80784" lon="-1.77608">
        <ele>25</ele>
        <time>2018-01-08T15:22:40Z</time>
      </trkpt>
      <trkpt lat="46.80765" lon="-1.77629">
        <ele>25</ele>
        <time>2018-01-08T15:23:40Z</time>
      </trkpt>
      <trkpt lat="46.8075" lon="-1.77647">
        <ele>24</ele>
        <time>2018-01-08T15:24:40Z</time>
      </trkpt>
      <trkpt lat="46.80735" lon="-1.77667">
        <ele>24</ele>
        <time>2018-01-08T15:25:40Z</time>
      </trkpt>
      <trkpt lat="46.80702" lon="-1.77713">
        <ele>24</ele>
        <time>2018-01-08T15:26:40Z</time>
      </trkpt>
      <trkpt lat="46.807" lon="-1.77716">
        <ele>24</ele>
        <time>2018-01-08T15:27:40Z</time>
      </trkpt>
      <trkpt lat="46.80674" lon="-1.77751">
        <ele>24</ele>
        <time>2018-01-08T15:28:40Z</time>
      </trkpt>
      <trkpt lat="46.80623" lon="-1.77821">
        <ele>21</ele>
        <time>2018-01-08T15:29:40Z</time>
      </trkpt>
      <trkpt lat="46.80505" lon="-1.77981">
        <ele>23</ele>
        <time>2018-01-08T15:30:40Z</time>
      </trkpt>
      <trkpt lat="46.80478" lon="-1.78017">
        <ele>24</ele>
        <time>2018-01-08T15:31:40Z</time>
      </trkpt>
      <trkpt lat="46.80445" lon="-1.78062">
        <ele>25</ele>
        <time>2018-01-08T15:32:40Z</time>
      </trkpt>
      <trkpt lat="46.80434" lon="-1.78077">
        <ele>25</ele>
        <time>2018-01-08T15:33:40Z</time>
      </trkpt>
      <trkpt lat="46.80425" lon="-1.78092">
        <ele>25</ele>
        <time>2018-01-08T15:34:40Z</time>
      </trkpt>
      <trkpt lat="46.80416" lon="-1.78107">
        <ele>25</ele>
        <time>2018-01-08T15:35:40Z</time>
      </trkpt>
      <trkpt lat="46.80408" lon="-1.7812">
        <ele>25</ele>
        <time>2018-01-08T15:36:40Z</time>
      </trkpt>
      <trkpt lat="46.80401" lon="-1.78133">
        <ele>25</ele>
        <time>2018-01-08T15:37:40Z</time>
      </trkpt>
      <trkpt lat="46.80397" lon="-1.78142">
        <ele>25</ele>
        <time>2018-01-08T15:38:40Z</time>
      </trkpt>
      <trkpt lat="46.80393" lon="-1.78153">
        <ele>25</ele>
        <time>2018-01-08T15:39:40Z</time>
      </trkpt>
      <trkpt lat="46.80387" lon="-1.78165">
        <ele>25</ele>
        <time>2018-01-08T15:40:40Z</time>
      </trkpt>
      <trkpt lat="46.80381" lon="-1.78179">
        <ele>26</ele>
        <time>2018-01-08T15:41:40Z</time>
      </trkpt>
      <trkpt lat="46.80373" lon="-1.78197">
        <ele>26</ele>
        <time>2018-01-08T15:42:40Z</time>
      </trkpt>
      <trkpt lat="46.80337" lon="-1.78283">
        <ele>26</ele>
        <time>2018-01-08T15:43:40Z</time>
      </trkpt>
      <trkpt lat="46.8031" lon="-1.78345">
        <ele>25</ele>
        <time>2018-01-08T15:44:40Z</time>
      </trkpt>
      <trkpt lat="46.80272" lon="-1.78436">
        <ele>26</ele>
        <time>2018-01-08T15:45:40Z</time>
      </trkpt>
      <trkpt lat="46.80254" lon="-1.78477">
        <ele>26</ele>
        <time>2018-01-08T15:46:40Z</time>
      </trkpt>
      <trkpt lat="46.80236" lon="-1.7852">
        <ele>25</ele>
        <time>2018-01-08T15:47:40Z</time>
      </trkpt>
      <trkpt lat="46.80221" lon="-1.78555">
        <ele>24</ele>
        <time>2018-01-08T15:48:40Z</time>
      </trkpt>
      <trkpt lat="46.80212" lon="-1.78578">
        <ele>23</ele>
        <time>2018-01-08T15:49:40Z</time>
      </trkpt>
      <trkpt lat="46.80206" lon="-1.7859">
        <ele>23</ele>
        <time>2018-01-08T15:50:40Z</time>
      </trkpt>
      <trkpt lat="46.80206" lon="-1.7859">
        <ele>23</ele>
        <time>2018-01-08T15:51:40Z</time>
      </trkpt>
      <trkpt lat="46.80187" lon="-1.78634">
        <ele>23</ele>
        <time>2018-01-08T15:52:40Z</time>
      </trkpt>
      <trkpt lat="46.80183" lon="-1.78645">
        <ele>23</ele>
        <time>2018-01-08T15:53:40Z</time>
      </trkpt>
      <trkpt lat="46.80174" lon="-1.78666">
        <ele>24</ele>
        <time>2018-01-08T15:54:40Z</time>
      </trkpt>
      <trkpt lat="46.8014" lon="-1.78744">
        <ele>25</ele>
        <time>2018-01-08T15:55:40Z</time>
      </trkpt>
      <trkpt lat="46.80108" lon="-1.78821">
        <ele>27</ele>
        <time>2018-01-08T15:56:40Z</time>
      </trkpt>
      <trkpt lat="46.80082" lon="-1.7888">
        <ele>27</ele>
        <time>2018-01-08T15:57:40Z</time>
      </trkpt>
      <trkpt lat="46.80036" lon="-1.7899">
        <ele>26</ele>
        <time>2018-01-08T15:58:40Z</time>
      </trkpt>
      <trkpt lat="46.80005" lon="-1.79063">
        <ele>26</ele>
        <time>2018-01-08T15:59:40Z</time>
      </trkpt>
      <trkpt lat="46.7999" lon="-1.791">
        <ele>26</ele>
        <time>2018-01-08T16:00:40Z</time>
      </trkpt>
      <trkpt lat="46.7998" lon="-1.79121">
        <ele>26</ele>
        <time>2018-01-08T16:01:40Z</time>
      </trkpt>
      <trkpt lat="46.79965" lon="-1.79158">
        <ele>27</ele>
        <time>2018-01-08T16:02:40Z</time>
      </trkpt>
      <trkpt lat="46.79964" lon="-1.79161">
        <ele>27</ele>
        <time>2018-01-08T16:03:40Z</time>
      </trkpt>
      <trkpt lat="46.7996" lon="-1.79172">
        <ele>27</ele>
        <time>2018-01-08T16:04:40Z</time>
      </trkpt>
      <trkpt lat="46.79955" lon="-1.79184">
        <ele>27</ele>
        <time>2018-01-08T16:05:40Z</time>
      </trkpt>
      <trkpt lat="46.79955" lon="-1.79184">
        <ele>27</ele>
        <time>2018-01-08T16:06:40Z</time>
      </trkpt>
      <trkpt lat="46.7994" lon="-1.79166">
        <ele>27</ele>
        <time>2018-01-08T16:07:40Z</time>
      </trkpt>
      <trkpt lat="46.79919" lon="-1.79138">
        <ele>28</ele>
        <time>2018-01-08T16:08:40Z</time>
      </trkpt>
      <trkpt lat="46.79864" lon="-1.79063">
        <ele>28</ele>
        <time>2018-01-08T16:09:40Z</time>
      </trkpt>
      <trkpt lat="46.7981" lon="-1.78991">
        <ele>29</ele>
        <time>2018-01-08T16:10:40Z</time>
      </trkpt>
      <trkpt lat="46.79804" lon="-1.78983">
        <ele>29</ele>
        <time>2018-01-08T16:11:40Z</time>
      </trkpt>
      <trkpt lat="46.79772" lon="-1.7894">
        <ele>30</ele>
        <time>2018-01-08T16:12:40Z</time>
      </trkpt>
      <trkpt lat="46.79692" lon="-1.78838">
        <ele>29</ele>
        <time>2018-01-08T16:13:40Z</time>
      </trkpt>
      <trkpt lat="46.79691" lon="-1.78837">
        <ele>29</ele>
        <time>2018-01-08T16:14:40Z</time>
      </trkpt>
      <trkpt lat="46.79613" lon="-1.78734">
        <ele>29</ele>
        <time>2018-01-08T16:15:40Z</time>
      </trkpt>
      <trkpt lat="46.79561" lon="-1.78666">
        <ele>30</ele>
        <time>2018-01-08T16:16:40Z</time>
      </trkpt>
      <trkpt lat="46.79524" lon="-1.78618">
        <ele>31</ele>
        <time>2018-01-08T16:17:40Z</time>
      </trkpt>
      <trkpt lat="46.79491" lon="-1.78575">
        <ele>31</ele>
        <time>2018-01-08T16:18:40Z</time>
      </trkpt>
      <trkpt lat="46.79454" lon="-1.78527">
        <ele>32</ele>
        <time>2018-01-08T16:19:40Z</time>
      </trkpt>
      <trkpt lat="46.79418" lon="-1.7848">
        <ele>32</ele>
        <time>2018-01-08T16:20:40Z</time>
      </trkpt>
      <trkpt lat="46.79375" lon="-1.78424">
        <ele>32</ele>
        <time>2018-01-08T16:21:40Z</time>
      </trkpt>
      <trkpt lat="46.79317" lon="-1.78348">
        <ele>35</ele>
        <time>2018-01-08T16:22:40Z</time>
      </trkpt>
      <trkpt lat="46.79264" lon="-1.7828">
        <ele>35</ele>
        <time>2018-01-08T16:23:40Z</time>
      </trkpt>
      <trkpt lat="46.79234" lon="-1.78241">
        <ele>35</ele>
        <time>2018-01-08T16:24:40Z</time>
      </trkpt>
      <trkpt lat="46.79212" lon="-1.78213">
        <ele>35</ele>
        <time>2018-01-08T16:25:40Z</time>
      </trkpt>
      <trkpt lat="46.79189" lon="-1.78184">
        <ele>35</ele>
        <time>2018-01-08T16:26:40Z</time>
      </trkpt>
      <trkpt lat="46.7917" lon="-1.78159">
        <ele>35</ele>
        <time>2018-01-08T16:27:40Z</time>
      </trkpt>
      <trkpt lat="46.7916" lon="-1.78145">
        <ele>35</ele>
        <time>2018-01-08T16:28:40Z</time>
      </trkpt>
      <trkpt lat="46.7913" lon="-1.78108">
        <ele>35</ele>
        <time>2018-01-08T16:29:40Z</time>
      </trkpt>
      <trkpt lat="46.79057" lon="-1.78013">
        <ele>37</ele>
        <time>2018-01-08T16:30:40Z</time>
      </trkpt>
      <trkpt lat="46.78986" lon="-1.77922">
        <ele>39</ele>
        <time>2018-01-08T16:31:40Z</time>
      </trkpt>
      <trkpt lat="46.78932" lon="-1.77853">
        <ele>40</ele>
        <time>2018-01-08T16:32:40Z</time>
      </trkpt>
      <trkpt lat="46.78793" lon="-1.77674">
        <ele>43</ele>
        <time>2018-01-08T16:33:40Z</time>
      </trkpt>
      <trkpt lat="46.78756" lon="-1.77629">
        <ele>44</ele>
        <time>2018-01-08T16:34:40Z</time>
      </trkpt>
      <trkpt lat="46.78672" lon="-1.77529">
        <ele>45</ele>
        <time>2018-01-08T16:35:40Z</time>
      </trkpt>
      <trkpt lat="46.78624" lon="-1.77475">
        <ele>45</ele>
        <time>2018-01-08T16:36:40Z</time>
      </trkpt>
      <trkpt lat="46.78587" lon="-1.77433">
        <ele>46</ele>
        <time>2018-01-08T16:37:40Z</time>
      </trkpt>
      <trkpt lat="46.78544" lon="-1.77388">
        <ele>46</ele>
        <time>2018-01-08T16:38:40Z</time>
      </trkpt>
      <trkpt lat="46.78502" lon="-1.77343">
        <ele>47</ele>
        <time>2018-01-08T16:39:40Z</time>
      </trkpt>
      <trkpt lat="46.78455" lon="-1.77293">
        <ele>47</ele>
        <time>2018-01-08T16:40:40Z</time>
      </trkpt>
      <trkpt lat="46.78426" lon="-1.77263">
        <ele>47</ele>
        <time>2018-01-08T16:41:40Z</time>
      </trkpt>
      <trkpt lat="46.78394" lon="-1.77229">
        <ele>47</ele>
        <time>2018-01-08T16:42:40Z</time>
      </trkpt>
      <trkpt lat="46.78349" lon="-1.7718">
        <ele>47</ele>
        <time>2018-01-08T16:43:40Z</time>
      </trkpt>
      <trkpt lat="46.78318" lon="-1.77147">
        <ele>47</ele>
        <time>2018-01-08T16:44:40Z</time>
      </trkpt>
      <trkpt lat="46.78285" lon="-1.7711">
        <ele>47</ele>
        <time>2018-01-08T16:45:40Z</time>
      </trkpt>
      <trkpt lat="46.78245" lon="-1.77068">
        <ele>48</ele>
        <time>2018-01-08T16:46:40Z</time>
      </trkpt>
      <trkpt lat="46.78201" lon="-1.77019">
        <ele>47</ele>
        <time>2018-01-08T16:47:40Z</time>
      </trkpt>
      <trkpt lat="46.78197" lon="-1.77015">
        <ele>47</ele>
        <time>2018-01-08T16:48:40Z</time>
      </trkpt>
      <trkpt lat="46.78183" lon="-1.77">
        <ele>46</ele>
        <time>2018-01-08T16:49:40Z</time>
      </trkpt>
      <trkpt lat="46.7814" lon="-1.76955">
        <ele>46</ele>
        <time>2018-01-08T16:50:40Z</time>
      </trkpt>
      <trkpt lat="46.78136" lon="-1.76951">
        <ele>47</ele>
        <time>2018-01-08T16:51:40Z</time>
      </trkpt>
      <trkpt lat="46.78114" lon="-1.76927">
        <ele>47</ele>
        <time>2018-01-08T16:52:40Z</time>
      </trkpt>
      <trkpt lat="46.78093" lon="-1.76905">
        <ele>48</ele>
        <time>2018-01-08T16:53:40Z</time>
      </trkpt>
      <trkpt lat="46.78063" lon="-1.76874">
        <ele>49</ele>
        <time>2018-01-08T16:54:40Z</time>
      </trkpt>
      <trkpt lat="46.78062" lon="-1.76873">
        <ele>49</ele>
        <time>2018-01-08T16:55:40Z</time>
      </trkpt>
      <trkpt lat="46.7804" lon="-1.76853">
        <ele>49</ele>
        <time>2018-01-08T16:56:40Z</time>
      </trkpt>
      <trkpt lat="46.78013" lon="-1.76831">
        <ele>49</ele>
        <time>2018-01-08T16:57:40Z</time>
      </trkpt>
      <trkpt lat="46.77994" lon="-1.76818">
        <ele>49</ele>
        <time>2018-01-08T16:58:40Z</time>
      </trkpt>
      <trkpt lat="46.77985" lon="-1.76813">
        <ele>49</ele>
        <time>2018-01-08T16:59:40Z</time>
      </trkpt>
      <trkpt lat="46.77967" lon="-1.76801">
        <ele>50</ele>
        <time>2018-01-08T17:00:40Z</time>
      </trkpt>
      <trkpt lat="46.77954" lon="-1.76794">
        <ele>50</ele>
        <time>2018-01-08T17:01:40Z</time>
      </trkpt>
      <trkpt lat="46.77941" lon="-1.76788">
        <ele>50</ele>
        <time>2018-01-08T17:02:40Z</time>
      </trkpt>
      <trkpt lat="46.77935" lon="-1.76785">
        <ele>50</ele>
        <time>2018-01-08T17:03:40Z</time>
      </trkpt>
      <trkpt lat="46.7792" lon="-1.7678">
        <ele>51</ele>
        <time>2018-01-08T17:04:40Z</time>
      </trkpt>
      <trkpt lat="46.77903" lon="-1.76774">
        <ele>51</ele>
        <time>2018-01-08T17:05:40Z</time>
      </trkpt>
      <trkpt lat="46.7789" lon="-1.76771">
        <ele>51</ele>
        <time>2018-01-08T17:06:40Z</time>
      </trkpt>
      <trkpt lat="46.77777" lon="-1.76746">
        <ele>51</ele>
        <time>2018-01-08T17:07:40Z</time>
      </trkpt>
      <trkpt lat="46.77748" lon="-1.76739">
        <ele>51</ele>
        <time>2018-01-08T17:08:40Z</time>
      </trkpt>
      <trkpt lat="46.77712" lon="-1.7673">
        <ele>52</ele>
        <time>2018-01-08T17:09:40Z</time>
      </trkpt>
      <trkpt lat="46.77665" lon="-1.76719">
        <ele>53</ele>
        <time>2018-01-08T17:10:40Z</time>
      </trkpt>
      <trkpt lat="46.77665" lon="-1.76719">
        <ele>53</ele>
        <time>2018-01-08T17:11:40Z</time>
      </trkpt>
      <trkpt lat="46.77662" lon="-1.76729">
        <ele>53</ele>
        <time>2018-01-08T17:12:40Z</time>
      </trkpt>
      <trkpt lat="46.77659" lon="-1.76736">
        <ele>53</ele>
        <time>2018-01-08T17:13:40Z</time>
      </trkpt>
      <trkpt lat="46.77658" lon="-1.76739">
        <ele>53</ele>
        <time>2018-01-08T17:14:40Z</time>
      </trkpt>
      <trkpt lat="46.77656" lon="-1.76741">
        <ele>53</ele>
        <time>2018-01-08T17:15:40Z</time>
      </trkpt>
      <trkpt lat="46.77652" lon="-1.76746">
        <ele>53</ele>
        <time>2018-01-08T17:16:40Z</time>
      </trkpt>
      <trkpt lat="46.77646" lon="-1.76753">
        <ele>53</ele>
        <time>2018-01-08T17:17:40Z</time>
      </trkpt>
      <trkpt lat="46.77642" lon="-1.7676">
        <ele>53</ele>
        <time>2018-01-08T17:18:40Z</time>
      </trkpt>
      <trkpt lat="46.77617" lon="-1.76807">
        <ele>53</ele>
        <time>2018-01-08T17:19:40Z</time>
      </trkpt>
      <trkpt lat="46.77597" lon="-1.76842">
        <ele>53</ele>
        <time>2018-01-08T17:20:40Z</time>
      </trkpt>
      <trkpt lat="46.77592" lon="-1.76851">
        <ele>53</ele>
        <time>2018-01-08T17:21:40Z</time>
      </trkpt>
      <trkpt lat="46.77554" lon="-1.76921">
        <ele>53</ele>
        <time>2018-01-08T17:22:40Z</time>
      </trkpt>
      <trkpt lat="46.77511" lon="-1.77001">
        <ele>53</ele>
        <time>2018-01-08T17:23:40Z</time>
      </trkpt>
      <trkpt lat="46.77469" lon="-1.77081">
        <ele>52</ele>
        <time>2018-01-08T17:24:40Z</time>
      </trkpt>
      <trkpt lat="46.77427" lon="-1.77158">
        <ele>51</ele>
        <time>2018-01-08T17:25:40Z</time>
      </trkpt>
      <trkpt lat="46.77389" lon="-1.77229">
        <ele>51</ele>
        <time>2018-01-08T17:26:40Z</time>
      </trkpt>
      <trkpt lat="46.7736" lon="-1.77283">
        <ele>51</ele>
        <time>2018-01-08T17:27:40Z</time>
      </trkpt>
      <trkpt lat="46.77331" lon="-1.77337">
        <ele>50</ele>
        <time>2018-01-08T17:28:40Z</time>
      </trkpt>
      <trkpt lat="46.77301" lon="-1.77393">
        <ele>50</ele>
        <time>2018-01-08T17:29:40Z</time>
      </trkpt>
      <trkpt lat="46.77282" lon="-1.77428">
        <ele>50</ele>
        <time>2018-01-08T17:30:40Z</time>
      </trkpt>
      <trkpt lat="46.77263" lon="-1.77462">
        <ele>51</ele>
        <time>2018-01-08T17:31:40Z</time>
      </trkpt>
      <trkpt lat="46.77259" lon="-1.77471">
        <ele>51</ele>
        <time>2018-01-08T17:32:40Z</time>
      </trkpt>
      <trkpt lat="46.77255" lon="-1.7748">
        <ele>51</ele>
        <time>2018-01-08T17:33:40Z</time>
      </trkpt>
      <trkpt lat="46.7725" lon="-1.77491">
        <ele>51</ele>
        <time>2018-01-08T17:34:40Z</time>
      </trkpt>
      <trkpt lat="46.77246" lon="-1.77501">
        <ele>51</ele>
        <time>2018-01-08T17:35:40Z</time>
      </trkpt>
      <trkpt lat="46.77243" lon="-1.77511">
        <ele>51</ele>
        <time>2018-01-08T17:36:40Z</time>
      </trkpt>
      <trkpt lat="46.7724" lon="-1.77522">
        <ele>51</ele>
        <time>2018-01-08T17:37:40Z</time>
      </trkpt>
      <trkpt lat="46.77237" lon="-1.77534">
        <ele>52</ele>
        <time>2018-01-08T17:38:40Z</time>
      </trkpt>
      <trkpt lat="46.77233" lon="-1.77556">
        <ele>52</ele>
        <time>2018-01-08T17:39:40Z</time>
      </trkpt>
      <trkpt lat="46.77229" lon="-1.7758">
        <ele>52</ele>
        <time>2018-01-08T17:40:40Z</time>
      </trkpt>
      <trkpt lat="46.77225" lon="-1.77615">
        <ele>51</ele>
        <time>2018-01-08T17:41:40Z</time>
      </trkpt>
      <trkpt lat="46.77219" lon="-1.77662">
        <ele>50</ele>
        <time>2018-01-08T17:42:40Z</time>
      </trkpt>
      <trkpt lat="46.77218" lon="-1.77677">
        <ele>50</ele>
        <time>2018-01-08T17:43:40Z</time>
      </trkpt>
      <trkpt lat="46.77213" lon="-1.77717">
        <ele>51</ele>
        <time>2018-01-08T17:44:40Z</time>
      </trkpt>
      <trkpt lat="46.77213" lon="-1.7772">
        <ele>51</ele>
        <time>2018-01-08T17:45:40Z</time>
      </trkpt>
      <trkpt lat="46.77207" lon="-1.77775">
        <ele>51</ele>
        <time>2018-01-08T17:46:40Z</time>
      </trkpt>
      <trkpt lat="46.77204" lon="-1.77804">
        <ele>52</ele>
        <time>2018-01-08T17:47:40Z</time>
      </trkpt>
      <trkpt lat="46.772" lon="-1.77827">
        <ele>52</ele>
        <time>2018-01-08T17:48:40Z</time>
      </trkpt>
      <trkpt lat="46.77195" lon="-1.77866">
        <ele>52</ele>
        <time>2018-01-08T17:49:40Z</time>
      </trkpt>
      <trkpt lat="46.77189" lon="-1.779">
        <ele>52</ele>
        <time>2018-01-08T17:50:40Z</time>
      </trkpt>
      <trkpt lat="46.77184" lon="-1.77931">
        <ele>52</ele>
        <time>2018-01-08T17:51:40Z</time>
      </trkpt>
      <trkpt lat="46.77175" lon="-1.77979">
        <ele>52</ele>
        <time>2018-01-08T17:52:40Z</time>
      </trkpt>
      <trkpt lat="46.77163" lon="-1.78044">
        <ele>52</ele>
        <time>2018-01-08T17:53:40Z</time>
      </trkpt>
      <trkpt lat="46.77153" lon="-1.781">
        <ele>53</ele>
        <time>2018-01-08T17:54:40Z</time>
      </trkpt>
      <trkpt lat="46.77145" lon="-1.78146">
        <ele>52</ele>
        <time>2018-01-08T17:55:40Z</time>
      </trkpt>
      <trkpt lat="46.77139" lon="-1.7818">
        <ele>52</ele>
        <time>2018-01-08T17:56:40Z</time>
      </trkpt>
      <trkpt lat="46.77136" lon="-1.78202">
        <ele>52</ele>
        <time>2018-01-08T17:57:40Z</time>
      </trkpt>
      <trkpt lat="46.77132" lon="-1.78246">
        <ele>51</ele>
        <time>2018-01-08T17:58:40Z</time>
      </trkpt>
      <trkpt lat="46.77127" lon="-1.78292">
        <ele>52</ele>
        <time>2018-01-08T17:59:40Z</time>
      </trkpt>
      <trkpt lat="46.77121" lon="-1.78352">
        <ele>52</ele>
        <time>2018-01-08T18:00:40Z</time>
      </trkpt>
      <trkpt lat="46.77117" lon="-1.78396">
        <ele>53</ele>
        <time>2018-01-08T18:01:40Z</time>
      </trkpt>
      <trkpt lat="46.77115" lon="-1.7842">
        <ele>54</ele>
        <time>2018-01-08T18:02:40Z</time>
      </trkpt>
      <trkpt lat="46.77114" lon="-1.78433">
        <ele>54</ele>
        <time>2018-01-08T18:03:40Z</time>
      </trkpt>
      <trkpt lat="46.77111" lon="-1.78462">
        <ele>53</ele>
        <time>2018-01-08T18:04:40Z</time>
      </trkpt>
      <trkpt lat="46.77109" lon="-1.78483">
        <ele>53</ele>
        <time>2018-01-08T18:05:40Z</time>
      </trkpt>
      <trkpt lat="46.77106" lon="-1.785">
        <ele>53</ele>
        <time>2018-01-08T18:06:40Z</time>
      </trkpt>
      <trkpt lat="46.771" lon="-1.78527">
        <ele>53</ele>
        <time>2018-01-08T18:07:40Z</time>
      </trkpt>
      <trkpt lat="46.77093" lon="-1.78567">
        <ele>52</ele>
        <time>2018-01-08T18:08:40Z</time>
      </trkpt>
      <trkpt lat="46.77081" lon="-1.78624">
        <ele>52</ele>
        <time>2018-01-08T18:09:40Z</time>
      </trkpt>
      <trkpt lat="46.7707" lon="-1.78684">
        <ele>52</ele>
        <time>2018-01-08T18:10:40Z</time>
      </trkpt>
      <trkpt lat="46.77059" lon="-1.78738">
        <ele>52</ele>
        <time>2018-01-08T18:11:40Z</time>
      </trkpt>
      <trkpt lat="46.77043" lon="-1.7882">
        <ele>51</ele>
        <time>2018-01-08T18:12:40Z</time>
      </trkpt>
      <trkpt lat="46.77033" lon="-1.78869">
        <ele>51</ele>
        <time>2018-01-08T18:13:40Z</time>
      </trkpt>
      <trkpt lat="46.77026" lon="-1.78906">
        <ele>52</ele>
        <time>2018-01-08T18:14:40Z</time>
      </trkpt>
      <trkpt lat="46.77019" lon="-1.78939">
        <ele>52</ele>
        <time>2018-01-08T18:15:40Z</time>
      </trkpt>
      <trkpt lat="46.77009" lon="-1.78988">
        <ele>53</ele>
        <time>2018-01-08T18:16:40Z</time>
      </trkpt>
      <trkpt lat="46.77009" lon="-1.78991">
        <ele>53</ele>
        <time>2018-01-08T18:17:40Z</time>
      </trkpt>
      <trkpt lat="46.77002" lon="-1.79024">
        <ele>53</ele>
        <time>2018-01-08T18:18:40Z</time>
      </trkpt>
      <trkpt lat="46.76996" lon="-1.79055">
        <ele>52</ele>
        <time>2018-01-08T18:19:40Z</time>
      </trkpt>
      <trkpt lat="46.7699" lon="-1.79087">
        <ele>52</ele>
        <time>2018-01-08T18:20:40Z</time>
      </trkpt>
      <trkpt lat="46.76986" lon="-1.79106">
        <ele>52</ele>
        <time>2018-01-08T18:21:40Z</time>
      </trkpt>
      <trkpt lat="46.76981" lon="-1.79129">
        <ele>52</ele>
        <time>2018-01-08T18:22:40Z</time>
      </trkpt>
      <trkpt lat="46.76978" lon="-1.79146">
        <ele>52</ele>
        <time>2018-01-08T18:23:40Z</time>
      </trkpt>
      <trkpt lat="46.76972" lon="-1.79166">
        <ele>52</ele>
        <time>2018-01-08T18:24:40Z</time>
      </trkpt>
      <trkpt lat="46.76968" lon="-1.79183">
        <ele>52</ele>
        <time>2018-01-08T18:25:40Z</time>
      </trkpt>
      <trkpt lat="46.76965" lon="-1.79196">
        <ele>52</ele>
        <time>2018-01-08T18:26:40Z</time>
      </trkpt>
      <trkpt lat="46.76962" lon="-1.79204">
        <ele>52</ele>
        <time>2018-01-08T18:27:40Z</time>
      </trkpt>
      <trkpt lat="46.76946" lon="-1.79245">
        <ele>53</ele>
        <time>2018-01-08T18:28:40Z</time>
      </trkpt>
      <trkpt lat="46.7692" lon="-1.79305">
        <ele>52</ele>
        <time>2018-01-08T18:29:40Z</time>
      </trkpt>
      <trkpt lat="46.76896" lon="-1.79363">
        <ele>50</ele>
        <time>2018-01-08T18:30:40Z</time>
      </trkpt>
      <trkpt lat="46.7688" lon="-1.794">
        <ele>50</ele>
        <time>2018-01-08T18:31:40Z</time>
      </trkpt>
      <trkpt lat="46.76868" lon="-1.79427">
        <ele>49</ele>
        <time>2018-01-08T18:32:40Z</time>
      </trkpt>
      <trkpt lat="46.76857" lon="-1.79454">
        <ele>49</ele>
        <time>2018-01-08T18:33:40Z</time>
      </trkpt>
      <trkpt lat="46.76823" lon="-1.79529">
        <ele>49</ele>
        <time>2018-01-08T18:34:40Z</time>
      </trkpt>
      <trkpt lat="46.76818" lon="-1.79542">
        <ele>49</ele>
        <time>2018-01-08T18:35:40Z</time>
      </trkpt>
      <trkpt lat="46.76813" lon="-1.79556">
        <ele>48</ele>
        <time>2018-01-08T18:36:40Z</time>
      </trkpt>
      <trkpt lat="46.76809" lon="-1.79569">
        <ele>48</ele>
        <time>2018-01-08T18:37:40Z</time>
      </trkpt>
      <trkpt lat="46.76806" lon="-1.79583">
        <ele>48</ele>
        <time>2018-01-08T18:38:40Z</time>
      </trkpt>
      <trkpt lat="46.76803" lon="-1.79599">
        <ele>48</ele>
        <time>2018-01-08T18:39:40Z</time>
      </trkpt>
      <trkpt lat="46.76801" lon="-1.79619">
        <ele>48</ele>
        <time>2018-01-08T18:40:40Z</time>
      </trkpt>
      <trkpt lat="46.76796" lon="-1.79658">
        <ele>47</ele>
        <time>2018-01-08T18:41:40Z</time>
      </trkpt>
      <trkpt lat="46.7679" lon="-1.79712">
        <ele>47</ele>
        <time>2018-01-08T18:42:40Z</time>
      </trkpt>
      <trkpt lat="46.76784" lon="-1.79768">
        <ele>46</ele>
        <time>2018-01-08T18:43:40Z</time>
      </trkpt>
      <trkpt lat="46.76782" lon="-1.79789">
        <ele>46</ele>
        <time>2018-01-08T18:44:40Z</time>
      </trkpt>
      <trkpt lat="46.76772" lon="-1.79876">
        <ele>45</ele>
        <time>2018-01-08T18:45:40Z</time>
      </trkpt>
      <trkpt lat="46.76767" lon="-1.7992">
        <ele>44</ele>
        <time>2018-01-08T18:46:40Z</time>
      </trkpt>
      <trkpt lat="46.76766" lon="-1.79937">
        <ele>44</ele>
        <time>2018-01-08T18:47:40Z</time>
      </trkpt>
      <trkpt lat="46.76765" lon="-1.79951">
        <ele>45</ele>
        <time>2018-01-08T18:48:40Z</time>
      </trkpt>
      <trkpt lat="46.76764" lon="-1.79968">
        <ele>45</ele>
        <time>2018-01-08T18:49:40Z</time>
      </trkpt>
      <trkpt lat="46.76763" lon="-1.79983">
        <ele>45</ele>
        <time>2018-01-08T18:50:40Z</time>
      </trkpt>
      <trkpt lat="46.76763" lon="-1.80004">
        <ele>45</ele>
        <time>2018-01-08T18:51:40Z</time>
      </trkpt>
      <trkpt lat="46.76762" lon="-1.80082">
        <ele>46</ele>
        <time>2018-01-08T18:52:40Z</time>
      </trkpt>
      <trkpt lat="46.76762" lon="-1.80113">
        <ele>46</ele>
        <time>2018-01-08T18:53:40Z</time>
      </trkpt>
      <trkpt lat="46.7676" lon="-1.80199">
        <ele>46</ele>
        <time>2018-01-08T18:54:40Z</time>
      </trkpt>
      <trkpt lat="46.7676" lon="-1.80236">
        <ele>46</ele>
        <time>2018-01-08T18:55:40Z</time>
      </trkpt>
      <trkpt lat="46.76762" lon="-1.80251">
        <ele>46</ele>
        <time>2018-01-08T18:56:40Z</time>
      </trkpt>
      <trkpt lat="46.76763" lon="-1.80264">
        <ele>45</ele>
        <time>2018-01-08T18:57:40Z</time>
      </trkpt>
      <trkpt lat="46.76765" lon="-1.80274">
        <ele>45</ele>
        <time>2018-01-08T18:58:40Z</time>
      </trkpt>
      <trkpt lat="46.76769" lon="-1.80289">
        <ele>45</ele>
        <time>2018-01-08T18:59:40Z</time>
      </trkpt>
      <trkpt lat="46.76775" lon="-1.80307">
        <ele>44</ele>
        <time>2018-01-08T19:00:40Z</time>
      </trkpt>
      <trkpt lat="46.7678" lon="-1.80318">
        <ele>44</ele>
        <time>2018-01-08T19:01:40Z</time>
      </trkpt>
      <trkpt lat="46.76791" lon="-1.8034">
        <ele>44</ele>
        <time>2018-01-08T19:02:40Z</time>
      </trkpt>
      <trkpt lat="46.76809" lon="-1.80371">
        <ele>44</ele>
        <time>2018-01-08T19:03:40Z</time>
      </trkpt>
      <trkpt lat="46.76836" lon="-1.80414">
        <ele>45</ele>
        <time>2018-01-08T19:04:40Z</time>
      </trkpt>
      <trkpt lat="46.76846" lon="-1.80429">
        <ele>44</ele>
        <time>2018-01-08T19:05:40Z</time>
      </trkpt>
      <trkpt lat="46.76876" lon="-1.80476">
        <ele>43</ele>
        <time>2018-01-08T19:06:40Z</time>
      </trkpt>
      <trkpt lat="46.76895" lon="-1.80508">
        <ele>42</ele>
        <time>2018-01-08T19:07:40Z</time>
      </trkpt>
      <trkpt lat="46.76899" lon="-1.80517">
        <ele>42</ele>
        <time>2018-01-08T19:08:40Z</time>
      </trkpt>
      <trkpt lat="46.76903" lon="-1.80527">
        <ele>42</ele>
        <time>2018-01-08T19:09:40Z</time>
      </trkpt>
      <trkpt lat="46.76908" lon="-1.8054">
        <ele>41</ele>
        <time>2018-01-08T19:10:40Z</time>
      </trkpt>
      <trkpt lat="46.76912" lon="-1.80556">
        <ele>41</ele>
        <time>2018-01-08T19:11:40Z</time>
      </trkpt>
      <trkpt lat="46.76915" lon="-1.80568">
        <ele>40</ele>
        <time>2018-01-08T19:12:40Z</time>
      </trkpt>
      <trkpt lat="46.7692" lon="-1.80593">
        <ele>40</ele>
        <time>2018-01-08T19:13:40Z</time>
      </trkpt>
      <trkpt lat="46.76925" lon="-1.80619">
        <ele>40</ele>
        <time>2018-01-08T19:14:40Z</time>
      </trkpt>
      <trkpt lat="46.76928" lon="-1.80639">
        <ele>41</ele>
        <time>2018-01-08T19:15:40Z</time>
      </trkpt>
      <trkpt lat="46.76939" lon="-1.80697">
        <ele>41</ele>
        <time>2018-01-08T19:16:40Z</time>
      </trkpt>
      <trkpt lat="46.76944" lon="-1.80723">
        <ele>42</ele>
        <time>2018-01-08T19:17:40Z</time>
      </trkpt>
      <trkpt lat="46.76948" lon="-1.80753">
        <ele>42</ele>
        <time>2018-01-08T19:18:40Z</time>
      </trkpt>
      <trkpt lat="46.7695" lon="-1.80771">
        <ele>42</ele>
        <time>2018-01-08T19:19:40Z</time>
      </trkpt>
      <trkpt lat="46.76951" lon="-1.8078">
        <ele>42</ele>
        <time>2018-01-08T19:20:40Z</time>
      </trkpt>
      <trkpt lat="46.76952" lon="-1.80797">
        <ele>42</ele>
        <time>2018-01-08T19:21:40Z</time>
      </trkpt>
      <trkpt lat="46.76952" lon="-1.80816">
        <ele>42</ele>
        <time>2018-01-08T19:22:40Z</time>
      </trkpt>
      <trkpt lat="46.76952" lon="-1.80838">
        <ele>42</ele>
        <time>2018-01-08T19:23:40Z</time>
      </trkpt>
      <trkpt lat="46.76952" lon="-1.80868">
        <ele>41</ele>
        <time>2018-01-08T19:24:40Z</time>
      </trkpt>
      <trkpt lat="46.7695" lon="-1.80898">
        <ele>41</ele>
        <time>2018-01-08T19:25:40Z</time>
      </trkpt>
      <trkpt lat="46.76949" lon="-1.80917">
        <ele>41</ele>
        <time>2018-01-08T19:26:40Z</time>
      </trkpt>
      <trkpt lat="46.76947" lon="-1.80957">
        <ele>41</ele>
        <time>2018-01-08T19:27:40Z</time>
      </trkpt>
      <trkpt lat="46.76944" lon="-1.81016">
        <ele>42</ele>
        <time>2018-01-08T19:28:40Z</time>
      </trkpt>
      <trkpt lat="46.76941" lon="-1.81066">
        <ele>42</ele>
        <time>2018-01-08T19:29:40Z</time>
      </trkpt>
      <trkpt lat="46.76939" lon="-1.81095">
        <ele>42</ele>
        <time>2018-01-08T19:30:40Z</time>
      </trkpt>
      <trkpt lat="46.76938" lon="-1.81121">
        <ele>43</ele>
        <time>2018-01-08T19:31:40Z</time>
      </trkpt>
      <trkpt lat="46.76936" lon="-1.81139">
        <ele>43</ele>
        <time>2018-01-08T19:32:40Z</time>
      </trkpt>
      <trkpt lat="46.76933" lon="-1.81162">
        <ele>43</ele>
        <time>2018-01-08T19:33:40Z</time>
      </trkpt>
      <trkpt lat="46.76932" lon="-1.81175">
        <ele>43</ele>
        <time>2018-01-08T19:34:40Z</time>
      </trkpt>
      <trkpt lat="46.76928" lon="-1.81204">
        <ele>43</ele>
        <time>2018-01-08T19:35:40Z</time>
      </trkpt>
      <trkpt lat="46.76924" lon="-1.81233">
        <ele>42</ele>
        <time>2018-01-08T19:36:40Z</time>
      </trkpt>
      <trkpt lat="46.76917" lon="-1.81283">
        <ele>41</ele>
        <time>2018-01-08T19:37:40Z</time>
      </trkpt>
      <trkpt lat="46.76908" lon="-1.8134">
        <ele>40</ele>
        <time>2018-01-08T19:38:40Z</time>
      </trkpt>
      <trkpt lat="46.76899" lon="-1.81398">
        <ele>39</ele>
        <time>2018-01-08T19:39:40Z</time>
      </trkpt>
      <trkpt lat="46.76894" lon="-1.81436">
        <ele>38</ele>
        <time>2018-01-08T19:40:40Z</time>
      </trkpt>
      <trkpt lat="46.76887" lon="-1.81484">
        <ele>38</ele>
        <time>2018-01-08T19:41:40Z</time>
      </trkpt>
      <trkpt lat="46.76881" lon="-1.81521">
        <ele>38</ele>
        <time>2018-01-08T19:42:40Z</time>
      </trkpt>
      <trkpt lat="46.76873" lon="-1.81549">
        <ele>37</ele>
        <time>2018-01-08T19:43:40Z</time>
      </trkpt>
      <trkpt lat="46.76864" lon="-1.81578">
        <ele>36</ele>
        <time>2018-01-08T19:44:40Z</time>
      </trkpt>
      <trkpt lat="46.76854" lon="-1.816">
        <ele>35</ele>
        <time>2018-01-08T19:45:40Z</time>
      </trkpt>
      <trkpt lat="46.76846" lon="-1.81617">
        <ele>35</ele>
        <time>2018-01-08T19:46:40Z</time>
      </trkpt>
      <trkpt lat="46.76837" lon="-1.81636">
        <ele>34</ele>
        <time>2018-01-08T19:47:40Z</time>
      </trkpt>
      <trkpt lat="46.76826" lon="-1.81652">
        <ele>34</ele>
        <time>2018-01-08T19:48:40Z</time>
      </trkpt>
      <trkpt lat="46.76805" lon="-1.81679">
        <ele>33</ele>
        <time>2018-01-08T19:49:40Z</time>
      </trkpt>
      <trkpt lat="46.76768" lon="-1.81726">
        <ele>30</ele>
        <time>2018-01-08T19:50:40Z</time>
      </trkpt>
      <trkpt lat="46.7673" lon="-1.81773">
        <ele>28</ele>
        <time>2018-01-08T19:51:40Z</time>
      </trkpt>
      <trkpt lat="46.76685" lon="-1.8183">
        <ele>25</ele>
        <time>2018-01-08T19:52:40Z</time>
      </trkpt>
      <trkpt lat="46.76638" lon="-1.8189">
        <ele>22</ele>
        <time>2018-01-08T19:53:40Z</time>
      </trkpt>
      <trkpt lat="46.76596" lon="-1.81943">
        <ele>19</ele>
        <time>2018-01-08T19:54:40Z</time>
      </trkpt>
      <trkpt lat="46.76572" lon="-1.81972">
        <ele>18</ele>
        <time>2018-01-08T19:55:40Z</time>
      </trkpt>
      <trkpt lat="46.76563" lon="-1.81987">
        <ele>17</ele>
        <time>2018-01-08T19:56:40Z</time>
      </trkpt>
      <trkpt lat="46.76557" lon="-1.81999">
        <ele>17</ele>
        <time>2018-01-08T19:57:40Z</time>
      </trkpt>
      <trkpt lat="46.76553" lon="-1.8201">
        <ele>17</ele>
        <time>2018-01-08T19:58:40Z</time>
      </trkpt>
      <trkpt lat="46.76549" lon="-1.82023">
        <ele>17</ele>
        <time>2018-01-08T19:59:40Z</time>
      </trkpt>
      <trkpt lat="46.76545" lon="-1.82037">
        <ele>17</ele>
        <time>2018-01-08T20:00:40Z</time>
      </trkpt>
      <trkpt lat="46.76543" lon="-1.82051">
        <ele>18</ele>
        <time>2018-01-08T20:01:40Z</time>
      </trkpt>
      <trkpt lat="46.76541" lon="-1.82067">
        <ele>18</ele>
        <time>2018-01-08T20:02:40Z</time>
      </trkpt>
      <trkpt lat="46.76541" lon="-1.82087">
        <ele>18</ele>
        <time>2018-01-08T20:03:40Z</time>
      </trkpt>
      <trkpt lat="46.76544" lon="-1.82133">
        <ele>18</ele>
        <time>2018-01-08T20:04:40Z</time>
      </trkpt>
      <trkpt lat="46.76546" lon="-1.82166">
        <ele>18</ele>
        <time>2018-01-08T20:05:40Z</time>
      </trkpt>
      <trkpt lat="46.76551" lon="-1.82255">
        <ele>17</ele>
        <time>2018-01-08T20:06:40Z</time>
      </trkpt>
      <trkpt lat="46.76553" lon="-1.82282">
        <ele>17</ele>
        <time>2018-01-08T20:07:40Z</time>
      </trkpt>
      <trkpt lat="46.76555" lon="-1.82311">
        <ele>17</ele>
        <time>2018-01-08T20:08:40Z</time>
      </trkpt>
      <trkpt lat="46.76556" lon="-1.82325">
        <ele>17</ele>
        <time>2018-01-08T20:09:40Z</time>
      </trkpt>
      <trkpt lat="46.76558" lon="-1.82338">
        <ele>17</ele>
        <time>2018-01-08T20:10:40Z</time>
      </trkpt>
      <trkpt lat="46.76561" lon="-1.82349">
        <ele>17</ele>
        <time>2018-01-08T20:11:40Z</time>
      </trkpt>
      <trkpt lat="46.76561" lon="-1.8235">
        <ele>17</ele>
        <time>2018-01-08T20:12:40Z</time>
      </trkpt>
      <trkpt lat="46.76565" lon="-1.82358">
        <ele>17</ele>
        <time>2018-01-08T20:13:40Z</time>
      </trkpt>
      <trkpt lat="46.7657" lon="-1.82369">
        <ele>17</ele>
        <time>2018-01-08T20:14:40Z</time>
      </trkpt>
      <trkpt lat="46.76579" lon="-1.82388">
        <ele>17</ele>
        <time>2018-01-08T20:15:40Z</time>
      </trkpt>
      <trkpt lat="46.76596" lon="-1.82418">
        <ele>17</ele>
        <time>2018-01-08T20:16:40Z</time>
      </trkpt>
      <trkpt lat="46.76621" lon="-1.82458">
        <ele>17</ele>
        <time>2018-01-08T20:17:40Z</time>
      </trkpt>
      <trkpt lat="46.76638" lon="-1.82487">
        <ele>17</ele>
        <time>2018-01-08T20:18:40Z</time>
      </trkpt>
      <trkpt lat="46.76645" lon="-1.82502">
        <ele>16</ele>
        <time>2018-01-08T20:19:40Z</time>
      </trkpt>
      <trkpt lat="46.76652" lon="-1.82516">
        <ele>17</ele>
        <time>2018-01-08T20:20:40Z</time>
      </trkpt>
      <trkpt lat="46.76656" lon="-1.8253">
        <ele>17</ele>
        <time>2018-01-08T20:21:40Z</time>
      </trkpt>
      <trkpt lat="46.76661" lon="-1.82545">
        <ele>17</ele>
        <time>2018-01-08T20:22:40Z</time>
      </trkpt>
      <trkpt lat="46.76666" lon="-1.82566">
        <ele>17</ele>
        <time>2018-01-08T20:23:40Z</time>
      </trkpt>
      <trkpt lat="46.76669" lon="-1.82585">
        <ele>17</ele>
        <time>2018-01-08T20:24:40Z</time>
      </trkpt>
      <trkpt lat="46.76673" lon="-1.82609">
        <ele>17</ele>
        <time>2018-01-08T20:25:40Z</time>
      </trkpt>
      <trkpt lat="46.76679" lon="-1.82648">
        <ele>17</ele>
        <time>2018-01-08T20:26:40Z</time>
      </trkpt>
      <trkpt lat="46.76683" lon="-1.82666">
        <ele>17</ele>
        <time>2018-01-08T20:27:40Z</time>
      </trkpt>
      <trkpt lat="46.76688" lon="-1.82689">
        <ele>17</ele>
        <time>2018-01-08T20:28:40Z</time>
      </trkpt>
      <trkpt lat="46.76692" lon="-1.82703">
        <ele>17</ele>
        <time>2018-01-08T20:29:40Z</time>
      </trkpt>
      <trkpt lat="46.76694" lon="-1.82713">
        <ele>17</ele>
        <time>2018-01-08T20:30:40Z</time>
      </trkpt>
      <trkpt lat="46.76699" lon="-1.82724">
        <ele>17</ele>
        <time>2018-01-08T20:31:40Z</time>
      </trkpt>
      <trkpt lat="46.76704" lon="-1.82738">
        <ele>17</ele>
        <time>2018-01-08T20:32:40Z</time>
      </trkpt>
      <trkpt lat="46.76714" lon="-1.8276">
        <ele>18</ele>
        <time>2018-01-08T20:33:40Z</time>
      </trkpt>
      <trkpt lat="46.76727" lon="-1.8279">
        <ele>18</ele>
        <time>2018-01-08T20:34:40Z</time>
      </trkpt>
      <trkpt lat="46.76741" lon="-1.82822">
        <ele>19</ele>
        <time>2018-01-08T20:35:40Z</time>
      </trkpt>
      <trkpt lat="46.76751" lon="-1.82845">
        <ele>19</ele>
        <time>2018-01-08T20:36:40Z</time>
      </trkpt>
      <trkpt lat="46.76758" lon="-1.82858">
        <ele>19</ele>
        <time>2018-01-08T20:37:40Z</time>
      </trkpt>
      <trkpt lat="46.76763" lon="-1.82868">
        <ele>19</ele>
        <time>2018-01-08T20:38:40Z</time>
      </trkpt>
      <trkpt lat="46.76769" lon="-1.82877">
        <ele>19</ele>
        <time>2018-01-08T20:39:40Z</time>
      </trkpt>
      <trkpt lat="46.76776" lon="-1.82887">
        <ele>18</ele>
        <time>2018-01-08T20:40:40Z</time>
      </trkpt>
      <trkpt lat="46.76784" lon="-1.82898">
        <ele>18</ele>
        <time>2018-01-08T20:41:40Z</time>
      </trkpt>
      <trkpt lat="46.76791" lon="-1.82906">
        <ele>18</ele>
        <time>2018-01-08T20:42:40Z</time>
      </trkpt>
      <trkpt lat="46.76799" lon="-1.82915">
        <ele>18</ele>
        <time>2018-01-08T20:43:40Z</time>
      </trkpt>
      <trkpt lat="46.76807" lon="-1.82924">
        <ele>18</ele>
        <time>2018-01-08T20:44:40Z</time>
      </trkpt>
      <trkpt lat="46.76814" lon="-1.82932">
        <ele>18</ele>
        <time>2018-01-08T20:45:40Z</time>
      </trkpt>
      <trkpt lat="46.76821" lon="-1.82937">
        <ele>18</ele>
        <time>2018-01-08T20:46:40Z</time>
      </trkpt>
      <trkpt lat="46.76824" lon="-1.8294">
        <ele>18</ele>
        <time>2018-01-08T20:47:40Z</time>
      </trkpt>
      <trkpt lat="46.76831" lon="-1.82946">
        <ele>18</ele>
        <time>2018-01-08T20:48:40Z</time>
      </trkpt>
      <trkpt lat="46.76856" lon="-1.82965">
        <ele>19</ele>
        <time>2018-01-08T20:49:40Z</time>
      </trkpt>
      <trkpt lat="46.7688" lon="-1.82984">
        <ele>20</ele>
        <time>2018-01-08T20:50:40Z</time>
      </trkpt>
      <trkpt lat="46.7688" lon="-1.82984">
        <ele>20</ele>
        <time>2018-01-08T20:51:40Z</time>
      </trkpt>
      <trkpt lat="46.76867" lon="-1.83007">
        <ele>19</ele>
        <time>2018-01-08T20:52:40Z</time>
      </trkpt>
      <trkpt lat="46.76857" lon="-1.83027">
        <ele>18</ele>
        <time>2018-01-08T20:53:40Z</time>
      </trkpt>
      <trkpt lat="46.76846" lon="-1.83047">
        <ele>18</ele>
        <time>2018-01-08T20:54:40Z</time>
      </trkpt>
      <trkpt lat="46.76838" lon="-1.83065">
        <ele>17</ele>
        <time>2018-01-08T20:55:40Z</time>
      </trkpt>
      <trkpt lat="46.76831" lon="-1.83082">
        <ele>17</ele>
        <time>2018-01-08T20:56:40Z</time>
      </trkpt>
      <trkpt lat="46.76824" lon="-1.83101">
        <ele>17</ele>
        <time>2018-01-08T20:57:40Z</time>
      </trkpt>
      <trkpt lat="46.76818" lon="-1.83118">
        <ele>18</ele>
        <time>2018-01-08T20:58:40Z</time>
      </trkpt>
      <trkpt lat="46.76813" lon="-1.83135">
        <ele>18</ele>
        <time>2018-01-08T20:59:40Z</time>
      </trkpt>
      <trkpt lat="46.76802" lon="-1.83166">
        <ele>19</ele>
        <time>2018-01-08T21:00:40Z</time>
      </trkpt>
      <trkpt lat="46.76797" lon="-1.83181">
        <ele>19</ele>
        <time>2018-01-08T21:01:40Z</time>
      </trkpt>
      <trkpt lat="46.76792" lon="-1.83201">
        <ele>19</ele>
        <time>2018-01-08T21:02:40Z</time>
      </trkpt>
      <trkpt lat="46.76787" lon="-1.83216">
        <ele>19</ele>
        <time>2018-01-08T21:03:40Z</time>
      </trkpt>
      <trkpt lat="46.76784" lon="-1.83221">
        <ele>19</ele>
        <time>2018-01-08T21:04:40Z</time>
      </trkpt>
      <trkpt lat="46.76777" lon="-1.83239">
        <ele>19</ele>
        <time>2018-01-08T21:05:40Z</time>
      </trkpt>
      <trkpt lat="46.76766" lon="-1.8326">
        <ele>19</ele>
        <time>2018-01-08T21:06:40Z</time>
      </trkpt>
      <trkpt lat="46.76761" lon="-1.83269">
        <ele>19</ele>
        <time>2018-01-08T21:07:40Z</time>
      </trkpt>
      <trkpt lat="46.76753" lon="-1.83287">
        <ele>19</ele>
        <time>2018-01-08T21:08:40Z</time>
      </trkpt>
      <trkpt lat="46.76738" lon="-1.83315">
        <ele>19</ele>
        <time>2018-01-08T21:09:40Z</time>
      </trkpt>
      <trkpt lat="46.76723" lon="-1.83342">
        <ele>19</ele>
        <time>2018-01-08T21:10:40Z</time>
      </trkpt>
      <trkpt lat="46.76715" lon="-1.83354">
        <ele>19</ele>
        <time>2018-01-08T21:11:40Z</time>
      </trkpt>
      <trkpt lat="46.76707" lon="-1.83368">
        <ele>19</ele>
        <time>2018-01-08T21:12:40Z</time>
      </trkpt>
      <trkpt lat="46.76704" lon="-1.83374">
        <ele>19</ele>
        <time>2018-01-08T21:13:40Z</time>
      </trkpt>
      <trkpt lat="46.76697" lon="-1.83383">
        <ele>19</ele>
        <time>2018-01-08T21:14:40Z</time>
      </trkpt>
      <trkpt lat="46.76689" lon="-1.83393">
        <ele>19</ele>
        <time>2018-01-08T21:15:40Z</time>
      </trkpt>
      <trkpt lat="46.76677" lon="-1.8341">
        <ele>19</ele>
        <time>2018-01-08T21:16:40Z</time>
      </trkpt>
      <trkpt lat="46.7667" lon="-1.83418">
        <ele>19</ele>
        <time>2018-01-08T21:17:40Z</time>
      </trkpt>
      <trkpt lat="46.76662" lon="-1.83427">
        <ele>19</ele>
        <time>2018-01-08T21:18:40Z</time>
      </trkpt>
      <trkpt lat="46.76653" lon="-1.83436">
        <ele>19</ele>
        <time>2018-01-08T21:19:40Z</time>
      </trkpt>
      <trkpt lat="46.76644" lon="-1.83445">
        <ele>19</ele>
        <time>2018-01-08T21:20:40Z</time>
      </trkpt>
      <trkpt lat="46.76636" lon="-1.83452">
        <ele>18</ele>
        <time>2018-01-08T21:21:40Z</time>
      </trkpt>
      <trkpt lat="46.76625" lon="-1.83462">
        <ele>18</ele>
        <time>2018-01-08T21:22:40Z</time>
      </trkpt>
      <trkpt lat="46.76611" lon="-1.83473">
        <ele>18</ele>
        <time>2018-01-08T21:23:40Z</time>
      </trkpt>
      <trkpt lat="46.76595" lon="-1.83484">
        <ele>17</ele>
        <time>2018-01-08T21:24:40Z</time>
      </trkpt>
      <trkpt lat="46.76564" lon="-1.83504">
        <ele>17</ele>
        <time>2018-01-08T21:25:40Z</time>
      </trkpt>
      <trkpt lat="46.76521" lon="-1.8353">
        <ele>16</ele>
        <time>2018-01-08T21:26:40Z</time>
      </trkpt>
      <trkpt lat="46.76482" lon="-1.83552">
        <ele>16</ele>
        <time>2018-01-08T21:27:40Z</time>
      </trkpt>
      <trkpt lat="46.76475" lon="-1.83556">
        <ele>17</ele>
        <time>2018-01-08T21:28:40Z</time>
      </trkpt>
      <trkpt lat="46.76458" lon="-1.83565">
        <ele>17</ele>
        <time>2018-01-08T21:29:40Z</time>
      </trkpt>
      <trkpt lat="46.7645" lon="-1.8357">
        <ele>17</ele>
        <time>2018-01-08T21:30:40Z</time>
      </trkpt>
      <trkpt lat="46.76438" lon="-1.83577">
        <ele>18</ele>
        <time>2018-01-08T21:31:40Z</time>
      </trkpt>
      <trkpt lat="46.7642" lon="-1.83588">
        <ele>18</ele>
        <time>2018-01-08T21:32:40Z</time>
      </trkpt>
      <trkpt lat="46.76395" lon="-1.83603">
        <ele>18</ele>
        <time>2018-01-08T21:33:40Z</time>
      </trkpt>
      <trkpt lat="46.7638" lon="-1.83613">
        <ele>18</ele>
        <time>2018-01-08T21:34:40Z</time>
      </trkpt>
      <trkpt lat="46.76366" lon="-1.83622">
        <ele>18</ele>
        <time>2018-01-08T21:35:40Z</time>
      </trkpt>
      <trkpt lat="46.76356" lon="-1.8363">
        <ele>18</ele>
        <time>2018-01-08T21:36:40Z</time>
      </trkpt>
      <trkpt lat="46.76348" lon="-1.83636">
        <ele>19</ele>
        <time>2018-01-08T21:37:40Z</time>
      </trkpt>
      <trkpt lat="46.76338" lon="-1.83644">
        <ele>19</ele>
        <time>2018-01-08T21:38:40Z</time>
      </trkpt>
      <trkpt lat="46.76327" lon="-1.83652">
        <ele>19</ele>
        <time>2018-01-08T21:39:40Z</time>
      </trkpt>
      <trkpt lat="46.76316" lon="-1.83658">
        <ele>19</ele>
        <time>2018-01-08T21:40:40Z</time>
      </trkpt>
      <trkpt lat="46.76305" lon="-1.83662">
        <ele>19</ele>
        <time>2018-01-08T21:41:40Z</time>
      </trkpt>
      <trkpt lat="46.76292" lon="-1.83667">
        <ele>19</ele>
        <time>2018-01-08T21:42:40Z</time>
      </trkpt>
      <trkpt lat="46.76279" lon="-1.8367">
        <ele>19</ele>
        <time>2018-01-08T21:43:40Z</time>
      </trkpt>
      <trkpt lat="46.7627" lon="-1.83671">
        <ele>19</ele>
        <time>2018-01-08T21:44:40Z</time>
      </trkpt>
      <trkpt lat="46.76263" lon="-1.83671">
        <ele>19</ele>
        <time>2018-01-08T21:45:40Z</time>
      </trkpt>
      <trkpt lat="46.7626" lon="-1.83671">
        <ele>19</ele>
        <time>2018-01-08T21:46:40Z</time>
      </trkpt>
      <trkpt lat="46.76251" lon="-1.83668">
        <ele>19</ele>
        <time>2018-01-08T21:47:40Z</time>
      </trkpt>
      <trkpt lat="46.76247" lon="-1.83667">
        <ele>19</ele>
        <time>2018-01-08T21:48:40Z</time>
      </trkpt>
      <trkpt lat="46.7624" lon="-1.83666">
        <ele>19</ele>
        <time>2018-01-08T21:49:40Z</time>
      </trkpt>
      <trkpt lat="46.76234" lon="-1.83668">
        <ele>19</ele>
        <time>2018-01-08T21:50:40Z</time>
      </trkpt>
      <trkpt lat="46.76226" lon="-1.83672">
        <ele>19</ele>
        <time>2018-01-08T21:51:40Z</time>
      </trkpt>
      <trkpt lat="46.76218" lon="-1.83677">
        <ele>19</ele>
        <time>2018-01-08T21:52:40Z</time>
      </trkpt>
      <trkpt lat="46.76212" lon="-1.83682">
        <ele>19</ele>
        <time>2018-01-08T21:53:40Z</time>
      </trkpt>
      <trkpt lat="46.7621" lon="-1.83684">
        <ele>19</ele>
        <time>2018-01-08T21:54:40Z</time>
      </trkpt>
      <trkpt lat="46.76207" lon="-1.83687">
        <ele>19</ele>
        <time>2018-01-08T21:55:40Z</time>
      </trkpt>
      <trkpt lat="46.762" lon="-1.83696">
        <ele>19</ele>
        <time>2018-01-08T21:56:40Z</time>
      </trkpt>
      <trkpt lat="46.76195" lon="-1.83703">
        <ele>19</ele>
        <time>2018-01-08T21:57:40Z</time>
      </trkpt>
      <trkpt lat="46.76191" lon="-1.8371">
        <ele>19</ele>
        <time>2018-01-08T21:58:40Z</time>
      </trkpt>
      <trkpt lat="46.76186" lon="-1.83718">
        <ele>19</ele>
        <time>2018-01-08T21:59:40Z</time>
      </trkpt>
      <trkpt lat="46.76182" lon="-1.83724">
        <ele>20</ele>
        <time>2018-01-08T22:00:40Z</time>
      </trkpt>
      <trkpt lat="46.76176" lon="-1.8373">
        <ele>20</ele>
        <time>2018-01-08T22:01:40Z</time>
      </trkpt>
      <trkpt lat="46.76168" lon="-1.83736">
        <ele>20</ele>
        <time>2018-01-08T22:02:40Z</time>
      </trkpt>
      <trkpt lat="46.76147" lon="-1.8375">
        <ele>20</ele>
        <time>2018-01-08T22:03:40Z</time>
      </trkpt>
      <trkpt lat="46.76139" lon="-1.83755">
        <ele>20</ele>
        <time>2018-01-08T22:04:40Z</time>
      </trkpt>
      <trkpt lat="46.76134" lon="-1.8376">
        <ele>20</ele>
        <time>2018-01-08T22:05:40Z</time>
      </trkpt>
      <trkpt lat="46.76129" lon="-1.83765">
        <ele>20</ele>
        <time>2018-01-08T22:06:40Z</time>
      </trkpt>
      <trkpt lat="46.76125" lon="-1.8377">
        <ele>20</ele>
        <time>2018-01-08T22:07:40Z</time>
      </trkpt>
      <trkpt lat="46.76119" lon="-1.8378">
        <ele>20</ele>
        <time>2018-01-08T22:08:40Z</time>
      </trkpt>
      <trkpt lat="46.761" lon="-1.83814">
        <ele>21</ele>
        <time>2018-01-08T22:09:40Z</time>
      </trkpt>
      <trkpt lat="46.76084" lon="-1.83843">
        <ele>21</ele>
        <time>2018-01-08T22:10:40Z</time>
      </trkpt>
      <trkpt lat="46.76075" lon="-1.8386">
        <ele>21</ele>
        <time>2018-01-08T22:11:40Z</time>
      </trkpt>
      <trkpt lat="46.76056" lon="-1.83892">
        <ele>21</ele>
        <time>2018-01-08T22:12:40Z</time>
      </trkpt>
      <trkpt lat="46.76054" lon="-1.83896">
        <ele>21</ele>
        <time>2018-01-08T22:13:40Z</time>
      </trkpt>
      <trkpt lat="46.76052" lon="-1.83903">
        <ele>21</ele>
        <time>2018-01-08T22:14:40Z</time>
      </trkpt>
      <trkpt lat="46.76049" lon="-1.83922">
        <ele>21</ele>
        <time>2018-01-08T22:15:40Z</time>
      </trkpt>
      <trkpt lat="46.76049" lon="-1.83928">
        <ele>21</ele>
        <time>2018-01-08T22:16:40Z</time>
      </trkpt>
      <trkpt lat="46.76047" lon="-1.83948">
        <ele>21</ele>
        <time>2018-01-08T22:17:40Z</time>
      </trkpt>
      <trkpt lat="46.76046" lon="-1.83973">
        <ele>21</ele>
        <time>2018-01-08T22:18:40Z</time>
      </trkpt>
      <trkpt lat="46.76046" lon="-1.83993">
        <ele>21</ele>
        <time>2018-01-08T22:19:40Z</time>
      </trkpt>
      <trkpt lat="46.76047" lon="-1.84017">
        <ele>21</ele>
        <time>2018-01-08T22:20:40Z</time>
      </trkpt>
      <trkpt lat="46.76048" lon="-1.84041">
        <ele>21</ele>
        <time>2018-01-08T22:21:40Z</time>
      </trkpt>
      <trkpt lat="46.76049" lon="-1.84068">
        <ele>21</ele>
        <time>2018-01-08T22:22:40Z</time>
      </trkpt>
      <trkpt lat="46.76049" lon="-1.84081">
        <ele>21</ele>
        <time>2018-01-08T22:23:40Z</time>
      </trkpt>
      <trkpt lat="46.76052" lon="-1.84108">
        <ele>21</ele>
        <time>2018-01-08T22:24:40Z</time>
      </trkpt>
      <trkpt lat="46.76058" lon="-1.84162">
        <ele>22</ele>
        <time>2018-01-08T22:25:40Z</time>
      </trkpt>
      <trkpt lat="46.76061" lon="-1.84195">
        <ele>22</ele>
        <time>2018-01-08T22:26:40Z</time>
      </trkpt>
      <trkpt lat="46.76064" lon="-1.84217">
        <ele>22</ele>
        <time>2018-01-08T22:27:40Z</time>
      </trkpt>
      <trkpt lat="46.76065" lon="-1.84236">
        <ele>22</ele>
        <time>2018-01-08T22:28:40Z</time>
      </trkpt>
      <trkpt lat="46.76066" lon="-1.84253">
        <ele>22</ele>
        <time>2018-01-08T22:29:40Z</time>
      </trkpt>
      <trkpt lat="46.76067" lon="-1.84269">
        <ele>21</ele>
        <time>2018-01-08T22:30:40Z</time>
      </trkpt>
      <trkpt lat="46.76068" lon="-1.84286">
        <ele>21</ele>
        <time>2018-01-08T22:31:40Z</time>
      </trkpt>
      <trkpt lat="46.76069" lon="-1.84301">
        <ele>21</ele>
        <time>2018-01-08T22:32:40Z</time>
      </trkpt>
      <trkpt lat="46.7607" lon="-1.84322">
        <ele>21</ele>
        <time>2018-01-08T22:33:40Z</time>
      </trkpt>
      <trkpt lat="46.76073" lon="-1.84343">
        <ele>21</ele>
        <time>2018-01-08T22:34:40Z</time>
      </trkpt>
      <trkpt lat="46.76075" lon="-1.84368">
        <ele>21</ele>
        <time>2018-01-08T22:35:40Z</time>
      </trkpt>
      <trkpt lat="46.76075" lon="-1.84382">
        <ele>21</ele>
        <time>2018-01-08T22:36:40Z</time>
      </trkpt>
      <trkpt lat="46.76075" lon="-1.84402">
        <ele>21</ele>
        <time>2018-01-08T22:37:40Z</time>
      </trkpt>
      <trkpt lat="46.76075" lon="-1.8442">
        <ele>21</ele>
        <time>2018-01-08T22:38:40Z</time>
      </trkpt>
      <trkpt lat="46.76075" lon="-1.84426">
        <ele>21</ele>
        <time>2018-01-08T22:39:40Z</time>
      </trkpt>
      <trkpt lat="46.76074" lon="-1.84436">
        <ele>21</ele>
        <time>2018-01-08T22:40:40Z</time>
      </trkpt>
      <trkpt lat="46.76072" lon="-1.84459">
        <ele>21</ele>
        <time>2018-01-08T22:41:40Z</time>
      </trkpt>
      <trkpt lat="46.7607" lon="-1.84493">
        <ele>20</ele>
        <time>2018-01-08T22:42:40Z</time>
      </trkpt>
      <trkpt lat="46.76068" lon="-1.84511">
        <ele>20</ele>
        <time>2018-01-08T22:43:40Z</time>
      </trkpt>
      <trkpt lat="46.76067" lon="-1.84521">
        <ele>20</ele>
        <time>2018-01-08T22:44:40Z</time>
      </trkpt>
      <trkpt lat="46.76061" lon="-1.84565">
        <ele>21</ele>
        <time>2018-01-08T22:45:40Z</time>
      </trkpt>
      <trkpt lat="46.76054" lon="-1.84612">
        <ele>21</ele>
        <time>2018-01-08T22:46:40Z</time>
      </trkpt>
      <trkpt lat="46.76052" lon="-1.84626">
        <ele>21</ele>
        <time>2018-01-08T22:47:40Z</time>
      </trkpt>
      <trkpt lat="46.7605" lon="-1.84633">
        <ele>21</ele>
        <time>2018-01-08T22:48:40Z</time>
      </trkpt>
      <trkpt lat="46.76049" lon="-1.84639">
        <ele>21</ele>
        <time>2018-01-08T22:49:40Z</time>
      </trkpt>
      <trkpt lat="46.76047" lon="-1.84646">
        <ele>21</ele>
        <time>2018-01-08T22:50:40Z</time>
      </trkpt>
      <trkpt lat="46.76044" lon="-1.84658">
        <ele>21</ele>
        <time>2018-01-08T22:51:40Z</time>
      </trkpt>
      <trkpt lat="46.7604" lon="-1.84672">
        <ele>20</ele>
        <time>2018-01-08T22:52:40Z</time>
      </trkpt>
      <trkpt lat="46.76038" lon="-1.84676">
        <ele>20</ele>
        <time>2018-01-08T22:53:40Z</time>
      </trkpt>
      <trkpt lat="46.76036" lon="-1.84683">
        <ele>20</ele>
        <time>2018-01-08T22:54:40Z</time>
      </trkpt>
      <trkpt lat="46.76033" lon="-1.8469">
        <ele>20</ele>
        <time>2018-01-08T22:55:40Z</time>
      </trkpt>
      <trkpt lat="46.76032" lon="-1.84693">
        <ele>20</ele>
        <time>2018-01-08T22:56:40Z</time>
      </trkpt>
      <trkpt lat="46.76031" lon="-1.84695">
        <ele>20</ele>
        <time>2018-01-08T22:57:40Z</time>
      </trkpt>
      <trkpt lat="46.76029" lon="-1.847">
        <ele>20</ele>
        <time>2018-01-08T22:58:40Z</time>
      </trkpt>
      <trkpt lat="46.76022" lon="-1.84712">
        <ele>20</ele>
        <time>2018-01-08T22:59:40Z</time>
      </trkpt>
      <trkpt lat="46.76021" lon="-1.84714">
        <ele>20</ele>
        <time>2018-01-08T23:00:40Z</time>
      </trkpt>
      <trkpt lat="46.76013" lon="-1.84726">
        <ele>20</ele>
        <time>2018-01-08T23:01:40Z</time>
      </trkpt>
      <trkpt lat="46.76011" lon="-1.8473">
        <ele>20</ele>
        <time>2018-01-08T23:02:40Z</time>
      </trkpt>
      <trkpt lat="46.75993" lon="-1.84756">
        <ele>20</ele>
        <time>2018-01-08T23:03:40Z</time>
      </trkpt>
      <trkpt lat="46.75982" lon="-1.84772">
        <ele>20</ele>
        <time>2018-01-08T23:04:40Z</time>
      </trkpt>
      <trkpt lat="46.75963" lon="-1.84797">
        <ele>20</ele>
        <time>2018-01-08T23:05:40Z</time>
      </trkpt>
      <trkpt lat="46.75935" lon="-1.84837">
        <ele>21</ele>
        <time>2018-01-08T23:06:40Z</time>
      </trkpt>
      <trkpt lat="46.75929" lon="-1.84845">
        <ele>21</ele>
        <time>2018-01-08T23:07:40Z</time>
      </trkpt>
      <trkpt lat="46.75914" lon="-1.84864">
        <ele>21</ele>
        <time>2018-01-08T23:08:40Z</time>
      </trkpt>
      <trkpt lat="46.75905" lon="-1.84877">
        <ele>21</ele>
        <time>2018-01-08T23:09:40Z</time>
      </trkpt>
      <trkpt lat="46.75899" lon="-1.84886">
        <ele>21</ele>
        <time>2018-01-08T23:10:40Z</time>
      </trkpt>
      <trkpt lat="46.75898" lon="-1.84887">
        <ele>21</ele>
        <time>2018-01-08T23:11:40Z</time>
      </trkpt>
      <trkpt lat="46.75891" lon="-1.84898">
        <ele>21</ele>
        <time>2018-01-08T23:12:40Z</time>
      </trkpt>
      <trkpt lat="46.75881" lon="-1.84913">
        <ele>21</ele>
        <time>2018-01-08T23:13:40Z</time>
      </trkpt>
      <trkpt lat="46.75872" lon="-1.84931">
        <ele>20</ele>
        <time>2018-01-08T23:14:40Z</time>
      </trkpt>
      <trkpt lat="46.75863" lon="-1.84948">
        <ele>20</ele>
        <time>2018-01-08T23:15:40Z</time>
      </trkpt>
      <trkpt lat="46.75851" lon="-1.84975">
        <ele>21</ele>
        <time>2018-01-08T23:16:40Z</time>
      </trkpt>
      <trkpt lat="46.75834" lon="-1.85013">
        <ele>21</ele>
        <time>2018-01-08T23:17:40Z</time>
      </trkpt>
      <trkpt lat="46.75832" lon="-1.85018">
        <ele>21</ele>
        <time>2018-01-08T23:18:40Z</time>
      </trkpt>
      <trkpt lat="46.75832" lon="-1.85019">
        <ele>21</ele>
        <time>2018-01-08T23:19:40Z</time>
      </trkpt>
      <trkpt lat="46.75811" lon="-1.85067">
        <ele>22</ele>
        <time>2018-01-08T23:20:40Z</time>
      </trkpt>
      <trkpt lat="46.75796" lon="-1.85103">
        <ele>21</ele>
        <time>2018-01-08T23:21:40Z</time>
      </trkpt>
      <trkpt lat="46.75767" lon="-1.8517">
        <ele>21</ele>
        <time>2018-01-08T23:22:40Z</time>
      </trkpt>
      <trkpt lat="46.7575" lon="-1.85209">
        <ele>21</ele>
        <time>2018-01-08T23:23:40Z</time>
      </trkpt>
      <trkpt lat="46.75734" lon="-1.85247">
        <ele>21</ele>
        <time>2018-01-08T23:24:40Z</time>
      </trkpt>
      <trkpt lat="46.75722" lon="-1.85275">
        <ele>21</ele>
        <time>2018-01-08T23:25:40Z</time>
      </trkpt>
      <trkpt lat="46.75711" lon="-1.85301">
        <ele>22</ele>
        <time>2018-01-08T23:26:40Z</time>
      </trkpt>
      <trkpt lat="46.75691" lon="-1.85347">
        <ele>21</ele>
        <time>2018-01-08T23:27:40Z</time>
      </trkpt>
      <trkpt lat="46.75654" lon="-1.85434">
        <ele>19</ele>
        <time>2018-01-08T23:28:40Z</time>
      </trkpt>
      <trkpt lat="46.75636" lon="-1.85478">
        <ele>20</ele>
        <time>2018-01-08T23:29:40Z</time>
      </trkpt>
      <trkpt lat="46.75624" lon="-1.85508">
        <ele>20</ele>
        <time>2018-01-08T23:30:40Z</time>
      </trkpt>
      <trkpt lat="46.75616" lon="-1.85529">
        <ele>20</ele>
        <time>2018-01-08T23:31:40Z</time>
      </trkpt>
      <trkpt lat="46.75615" lon="-1.85532">
        <ele>20</ele>
        <time>2018-01-08T23:32:40Z</time>
      </trkpt>
      <trkpt lat="46.75606" lon="-1.85556">
        <ele>21</ele>
        <time>2018-01-08T23:33:40Z</time>
      </trkpt>
      <trkpt lat="46.756" lon="-1.85575">
        <ele>21</ele>
        <time>2018-01-08T23:34:40Z</time>
      </trkpt>
      <trkpt lat="46.75594" lon="-1.85592">
        <ele>21</ele>
        <time>2018-01-08T23:35:40Z</time>
      </trkpt>
      <trkpt lat="46.75588" lon="-1.8561">
        <ele>21</ele>
        <time>2018-01-08T23:36:40Z</time>
      </trkpt>
      <trkpt lat="46.75581" lon="-1.85631">
        <ele>20</ele>
        <time>2018-01-08T23:37:40Z</time>
      </trkpt>
      <trkpt lat="46.75574" lon="-1.85653">
        <ele>20</ele>
        <time>2018-01-08T23:38:40Z</time>
      </trkpt>
      <trkpt lat="46.75568" lon="-1.85675">
        <ele>20</ele>
        <time>2018-01-08T23:39:40Z</time>
      </trkpt>
      <trkpt lat="46.75558" lon="-1.85712">
        <ele>19</ele>
        <time>2018-01-08T23:40:40Z</time>
      </trkpt>
      <trkpt lat="46.75545" lon="-1.85759">
        <ele>19</ele>
        <time>2018-01-08T23:41:40Z</time>
      </trkpt>
      <trkpt lat="46.75537" lon="-1.85788">
        <ele>19</ele>
        <time>2018-01-08T23:42:40Z</time>
      </trkpt>
      <trkpt lat="46.75534" lon="-1.858">
        <ele>20</ele>
        <time>2018-01-08T23:43:40Z</time>
      </trkpt>
      <trkpt lat="46.75531" lon="-1.85811">
        <ele>20</ele>
        <time>2018-01-08T23:44:40Z</time>
      </trkpt>
      <trkpt lat="46.75523" lon="-1.85839">
        <ele>20</ele>
        <time>2018-01-08T23:45:40Z</time>
      </trkpt>
      <trkpt lat="46.7552" lon="-1.85851">
        <ele>20</ele>
        <time>2018-01-08T23:46:40Z</time>
      </trkpt>
      <trkpt lat="46.75512" lon="-1.85881">
        <ele>19</ele>
        <time>2018-01-08T23:47:40Z</time>
      </trkpt>
      <trkpt lat="46.75506" lon="-1.85905">
        <ele>18</ele>
        <time>2018-01-08T23:48:40Z</time>
      </trkpt>
      <trkpt lat="46.75499" lon="-1.8593">
        <ele>18</ele>
        <time>2018-01-08T23:49:40Z</time>
      </trkpt>
      <trkpt lat="46.75495" lon="-1.8595">
        <ele>18</ele>
        <time>2018-01-08T23:50:40Z</time>
      </trkpt>
      <trkpt lat="46.75493" lon="-1.85957">
        <ele>18</ele>
        <time>2018-01-08T23:51:40Z</time>
      </trkpt>
      <trkpt lat="46.7549" lon="-1.85969">
        <ele>18</ele>
        <time>2018-01-08T23:52:40Z</time>
      </trkpt>
      <trkpt lat="46.75486" lon="-1.85986">
        <ele>18</ele>
        <time>2018-01-08T23:53:40Z</time>
      </trkpt>
      <trkpt lat="46.75482" lon="-1.86004">
        <ele>17</ele>
        <time>2018-01-08T23:54:40Z</time>
      </trkpt>
      <trkpt lat="46.75474" lon="-1.86059">
        <ele>17</ele>
        <time>2018-01-08T23:55:40Z</time>
      </trkpt>
      <trkpt lat="46.75464" lon="-1.8613">
        <ele>17</ele>
        <time>2018-01-08T23:56:40Z</time>
      </trkpt>
      <trkpt lat="46.75456" lon="-1.86188">
        <ele>17</ele>
        <time>2018-01-08T23:57:40Z</time>
      </trkpt>
      <trkpt lat="46.75452" lon="-1.86221">
        <ele>17</ele>
        <time>2018-01-08T23:58:40Z</time>
      </trkpt>
      <trkpt lat="46.75452" lon="-1.86222">
        <ele>17</ele>
        <time>2018-01-08T23:59:40Z</time>
      </trkpt>
      <trkpt lat="46.75452" lon="-1.8623">
        <ele>17</ele>
        <time>2018-01-09T00:00:40Z</time>
      </trkpt>
      <trkpt lat="46.75446" lon="-1.86272">
        <ele>17</ele>
        <time>2018-01-09T00:01:40Z</time>
      </trkpt>
      <trkpt lat="46.75443" lon="-1.8629">
        <ele>17</ele>
        <time>2018-01-09T00:02:40Z</time>
      </trkpt>
      <trkpt lat="46.75441" lon="-1.86306">
        <ele>17</ele>
        <time>2018-01-09T00:03:40Z</time>
      </trkpt>
      <trkpt lat="46.75438" lon="-1.86321">
        <ele>17</ele>
        <time>2018-01-09T00:04:40Z</time>
      </trkpt>
      <trkpt lat="46.75436" lon="-1.86334">
        <ele>17</ele>
        <time>2018-01-09T00:05:40Z</time>
      </trkpt>
      <trkpt lat="46.75432" lon="-1.86348">
        <ele>17</ele>
        <time>2018-01-09T00:06:40Z</time>
      </trkpt>
      <trkpt lat="46.75429" lon="-1.8636">
        <ele>17</ele>
        <time>2018-01-09T00:07:40Z</time>
      </trkpt>
      <trkpt lat="46.75424" lon="-1.86374">
        <ele>17</ele>
        <time>2018-01-09T00:08:40Z</time>
      </trkpt>
      <trkpt lat="46.75417" lon="-1.86395">
        <ele>16</ele>
        <time>2018-01-09T00:09:40Z</time>
      </trkpt>
      <trkpt lat="46.75407" lon="-1.86422">
        <ele>16</ele>
        <time>2018-01-09T00:10:40Z</time>
      </trkpt>
      <trkpt lat="46.75396" lon="-1.86449">
        <ele>17</ele>
        <time>2018-01-09T00:11:40Z</time>
      </trkpt>
      <trkpt lat="46.75386" lon="-1.86469">
        <ele>18</ele>
        <time>2018-01-09T00:12:40Z</time>
      </trkpt>
      <trkpt lat="46.75372" lon="-1.86496">
        <ele>18</ele>
        <time>2018-01-09T00:13:40Z</time>
      </trkpt>
      <trkpt lat="46.7536" lon="-1.86518">
        <ele>18</ele>
        <time>2018-01-09T00:14:40Z</time>
      </trkpt>
      <trkpt lat="46.75345" lon="-1.86543">
        <ele>18</ele>
        <time>2018-01-09T00:15:40Z</time>
      </trkpt>
      <trkpt lat="46.75335" lon="-1.8656">
        <ele>18</ele>
        <time>2018-01-09T00:16:40Z</time>
      </trkpt>
      <trkpt lat="46.75333" lon="-1.86564">
        <ele>18</ele>
        <time>2018-01-09T00:17:40Z</time>
      </trkpt>
      <trkpt lat="46.75327" lon="-1.86575">
        <ele>18</ele>
        <time>2018-01-09T00:18:40Z</time>
      </trkpt>
      <trkpt lat="46.75321" lon="-1.86586">
        <ele>18</ele>
        <time>2018-01-09T00:19:40Z</time>
      </trkpt>
      <trkpt lat="46.75316" lon="-1.86596">
        <ele>18</ele>
        <time>2018-01-09T00:20:40Z</time>
      </trkpt>
      <trkpt lat="46.7531" lon="-1.86608">
        <ele>18</ele>
        <time>2018-01-09T00:21:40Z</time>
      </trkpt>
      <trkpt lat="46.75308" lon="-1.86612">
        <ele>18</ele>
        <time>2018-01-09T00:22:40Z</time>
      </trkpt>
      <trkpt lat="46.753" lon="-1.86632">
        <ele>18</ele>
        <time>2018-01-09T00:23:40Z</time>
      </trkpt>
      <trkpt lat="46.75292" lon="-1.8665">
        <ele>18</ele>
        <time>2018-01-09T00:24:40Z</time>
      </trkpt>
      <trkpt lat="46.7528" lon="-1.86682">
        <ele>18</ele>
        <time>2018-01-09T00:25:40Z</time>
      </trkpt>
      <trkpt lat="46.75264" lon="-1.86722">
        <ele>17</ele>
        <time>2018-01-09T00:26:40Z</time>
      </trkpt>
      <trkpt lat="46.75252" lon="-1.86754">
        <ele>17</ele>
        <time>2018-01-09T00:27:40Z</time>
      </trkpt>
      <trkpt lat="46.75246" lon="-1.86771">
        <ele>17</ele>
        <time>2018-01-09T00:28:40Z</time>
      </trkpt>
      <trkpt lat="46.75236" lon="-1.868">
        <ele>17</ele>
        <time>2018-01-09T00:29:40Z</time>
      </trkpt>
      <trkpt lat="46.75233" lon="-1.86808">
        <ele>18</ele>
        <time>2018-01-09T00:30:40Z</time>
      </trkpt>
      <trkpt lat="46.75225" lon="-1.86832">
        <ele>18</ele>
        <time>2018-01-09T00:31:40Z</time>
      </trkpt>
      <trkpt lat="46.75217" lon="-1.86859">
        <ele>18</ele>
        <time>2018-01-09T00:32:40Z</time>
      </trkpt>
      <trkpt lat="46.75204" lon="-1.86904">
        <ele>18</ele>
        <time>2018-01-09T00:33:40Z</time>
      </trkpt>
      <trkpt lat="46.75193" lon="-1.86941">
        <ele>17</ele>
        <time>2018-01-09T00:34:40Z</time>
      </trkpt>
      <trkpt lat="46.75185" lon="-1.8697">
        <ele>17</ele>
        <time>2018-01-09T00:35:40Z</time>
      </trkpt>
      <trkpt lat="46.75182" lon="-1.86979">
        <ele>17</ele>
        <time>2018-01-09T00:36:40Z</time>
      </trkpt>
      <trkpt lat="46.75181" lon="-1.86987">
        <ele>17</ele>
        <time>2018-01-09T00:37:40Z</time>
      </trkpt>
      <trkpt lat="46.75179" lon="-1.86994">
        <ele>17</ele>
        <time>2018-01-09T00:38:40Z</time>
      </trkpt>
      <trkpt lat="46.75177" lon="-1.87">
        <ele>17</ele>
        <time>2018-01-09T00:39:40Z</time>
      </trkpt>
      <trkpt lat="46.75174" lon="-1.87016">
        <ele>17</ele>
        <time>2018-01-09T00:40:40Z</time>
      </trkpt>
      <trkpt lat="46.75174" lon="-1.87016">
        <ele>17</ele>
        <time>2018-01-09T00:41:40Z</time>
      </trkpt>
      <trkpt lat="46.75179" lon="-1.87024">
        <ele>17</ele>
        <time>2018-01-09T00:42:40Z</time>
      </trkpt>
      <trkpt lat="46.75179" lon="-1.87025">
        <ele>17</ele>
        <time>2018-01-09T00:43:40Z</time>
      </trkpt>
      <trkpt lat="46.7518" lon="-1.8703">
        <ele>17</ele>
        <time>2018-01-09T00:44:40Z</time>
      </trkpt>
      <trkpt lat="46.7518" lon="-1.87035">
        <ele>17</ele>
        <time>2018-01-09T00:45:40Z</time>
      </trkpt>
      <trkpt lat="46.7518" lon="-1.87041">
        <ele>17</ele>
        <time>2018-01-09T00:46:40Z</time>
      </trkpt>
      <trkpt lat="46.75178" lon="-1.87046">
        <ele>17</ele>
        <time>2018-01-09T00:47:40Z</time>
      </trkpt>
      <trkpt lat="46.75177" lon="-1.87048">
        <ele>17</ele>
        <time>2018-01-09T00:48:40Z</time>
      </trkpt>
      <trkpt lat="46.75176" lon="-1.87052">
        <ele>17</ele>
        <time>2018-01-09T00:49:40Z</time>
      </trkpt>
      <trkpt lat="46.75174" lon="-1.87056">
        <ele>17</ele>
        <time>2018-01-09T00:50:40Z</time>
      </trkpt>
      <trkpt lat="46.75171" lon="-1.87059">
        <ele>17</ele>
        <time>2018-01-09T00:51:40Z</time>
      </trkpt>
      <trkpt lat="46.75168" lon="-1.87062">
        <ele>17</ele>
        <time>2018-01-09T00:52:40Z</time>
      </trkpt>
      <trkpt lat="46.75166" lon="-1.87066">
        <ele>17</ele>
        <time>2018-01-09T00:53:40Z</time>
      </trkpt>
      <trkpt lat="46.75165" lon="-1.87068">
        <ele>17</ele>
        <time>2018-01-09T00:54:40Z</time>
      </trkpt>
      <trkpt lat="46.75162" lon="-1.87074">
        <ele>17</ele>
        <time>2018-01-09T00:55:40Z</time>
      </trkpt>
      <trkpt lat="46.75157" lon="-1.87087">
        <ele>17</ele>
        <time>2018-01-09T00:56:40Z</time>
      </trkpt>
      <trkpt lat="46.75155" lon="-1.87094">
        <ele>17</ele>
        <time>2018-01-09T00:57:40Z</time>
      </trkpt>
      <trkpt lat="46.75153" lon="-1.87102">
        <ele>17</ele>
        <time>2018-01-09T00:58:40Z</time>
      </trkpt>
      <trkpt lat="46.75151" lon="-1.87113">
        <ele>17</ele>
        <time>2018-01-09T00:59:40Z</time>
      </trkpt>
      <trkpt lat="46.75149" lon="-1.87124">
        <ele>17</ele>
        <time>2018-01-09T01:00:40Z</time>
      </trkpt>
      <trkpt lat="46.75148" lon="-1.87134">
        <ele>17</ele>
        <time>2018-01-09T01:01:40Z</time>
      </trkpt>
      <trkpt lat="46.75145" lon="-1.87146">
        <ele>17</ele>
        <time>2018-01-09T01:02:40Z</time>
      </trkpt>
      <trkpt lat="46.75144" lon="-1.87153">
        <ele>17</ele>
        <time>2018-01-09T01:03:40Z</time>
      </trkpt>
      <trkpt lat="46.75142" lon="-1.87159">
        <ele>17</ele>
        <time>2018-01-09T01:04:40Z</time>
      </trkpt>
      <trkpt lat="46.75138" lon="-1.8718">
        <ele>16</ele>
        <time>2018-01-09T01:05:40Z</time>
      </trkpt>
      <trkpt lat="46.75136" lon="-1.87195">
        <ele>16</ele>
        <time>2018-01-09T01:06:40Z</time>
      </trkpt>
      <trkpt lat="46.75134" lon="-1.87212">
        <ele>16</ele>
        <time>2018-01-09T01:07:40Z</time>
      </trkpt>
      <trkpt lat="46.75133" lon="-1.87222">
        <ele>15</ele>
        <time>2018-01-09T01:08:40Z</time>
      </trkpt>
      <trkpt lat="46.75132" lon="-1.87241">
        <ele>15</ele>
        <time>2018-01-09T01:09:40Z</time>
      </trkpt>
      <trkpt lat="46.75131" lon="-1.87259">
        <ele>15</ele>
        <time>2018-01-09T01:10:40Z</time>
      </trkpt>
      <trkpt lat="46.75132" lon="-1.87281">
        <ele>14</ele>
        <time>2018-01-09T01:11:40Z</time>
      </trkpt>
      <trkpt lat="46.75132" lon="-1.87295">
        <ele>14</ele>
        <time>2018-01-09T01:12:40Z</time>
      </trkpt>
      <trkpt lat="46.75135" lon="-1.87327">
        <ele>13</ele>
        <time>2018-01-09T01:13:40Z</time>
      </trkpt>
      <trkpt lat="46.7514" lon="-1.87388">
        <ele>13</ele>
        <time>2018-01-09T01:14:40Z</time>
      </trkpt>
      <trkpt lat="46.75144" lon="-1.8744">
        <ele>13</ele>
        <time>2018-01-09T01:15:40Z</time>
      </trkpt>
      <trkpt lat="46.75146" lon="-1.8748">
        <ele>13</ele>
        <time>2018-01-09T01:16:40Z</time>
      </trkpt>
      <trkpt lat="46.75148" lon="-1.87517">
        <ele>13</ele>
        <time>2018-01-09T01:17:40Z</time>
      </trkpt>
      <trkpt lat="46.75149" lon="-1.87548">
        <ele>13</ele>
        <time>2018-01-09T01:18:40Z</time>
      </trkpt>
      <trkpt lat="46.75149" lon="-1.87581">
        <ele>12</ele>
        <time>2018-01-09T01:19:40Z</time>
      </trkpt>
      <trkpt lat="46.7515" lon="-1.87615">
        <ele>12</ele>
        <time>2018-01-09T01:20:40Z</time>
      </trkpt>
      <trkpt lat="46.7515" lon="-1.87634">
        <ele>12</ele>
        <time>2018-01-09T01:21:40Z</time>
      </trkpt>
      <trkpt lat="46.75149" lon="-1.87652">
        <ele>12</ele>
        <time>2018-01-09T01:22:40Z</time>
      </trkpt>
      <trkpt lat="46.75149" lon="-1.8768">
        <ele>11</ele>
        <time>2018-01-09T01:23:40Z</time>
      </trkpt>
      <trkpt lat="46.75147" lon="-1.87715">
        <ele>11</ele>
        <time>2018-01-09T01:24:40Z</time>
      </trkpt>
      <trkpt lat="46.75145" lon="-1.87742">
        <ele>11</ele>
        <time>2018-01-09T01:25:40Z</time>
      </trkpt>
      <trkpt lat="46.75144" lon="-1.87765">
        <ele>11</ele>
        <time>2018-01-09T01:26:40Z</time>
      </trkpt>
      <trkpt lat="46.75142" lon="-1.87797">
        <ele>11</ele>
        <time>2018-01-09T01:27:40Z</time>
      </trkpt>
      <trkpt lat="46.7514" lon="-1.87824">
        <ele>11</ele>
        <time>2018-01-09T01:28:40Z</time>
      </trkpt>
      <trkpt lat="46.75138" lon="-1.87851">
        <ele>11</ele>
        <time>2018-01-09T01:29:40Z</time>
      </trkpt>
      <trkpt lat="46.75136" lon="-1.87871">
        <ele>11</ele>
        <time>2018-01-09T01:30:40Z</time>
      </trkpt>
      <trkpt lat="46.75134" lon="-1.87889">
        <ele>12</ele>
        <time>2018-01-09T01:31:40Z</time>
      </trkpt>
      <trkpt lat="46.75131" lon="-1.87908">
        <ele>12</ele>
        <time>2018-01-09T01:32:40Z</time>
      </trkpt>
      <trkpt lat="46.75129" lon="-1.87925">
        <ele>12</ele>
        <time>2018-01-09T01:33:40Z</time>
      </trkpt>
      <trkpt lat="46.75126" lon="-1.87941">
        <ele>12</ele>
        <time>2018-01-09T01:34:40Z</time>
      </trkpt>
      <trkpt lat="46.75123" lon="-1.87957">
        <ele>11</ele>
        <time>2018-01-09T01:35:40Z</time>
      </trkpt>
      <trkpt lat="46.75118" lon="-1.87973">
        <ele>11</ele>
        <time>2018-01-09T01:36:40Z</time>
      </trkpt>
      <trkpt lat="46.75114" lon="-1.87984">
        <ele>11</ele>
        <time>2018-01-09T01:37:40Z</time>
      </trkpt>
      <trkpt lat="46.75111" lon="-1.87992">
        <ele>10</ele>
        <time>2018-01-09T01:38:40Z</time>
      </trkpt>
      <trkpt lat="46.75106" lon="-1.88003">
        <ele>10</ele>
        <time>2018-01-09T01:39:40Z</time>
      </trkpt>
      <trkpt lat="46.75098" lon="-1.88016">
        <ele>10</ele>
        <time>2018-01-09T01:40:40Z</time>
      </trkpt>
      <trkpt lat="46.75083" lon="-1.88037">
        <ele>9</ele>
        <time>2018-01-09T01:41:40Z</time>
      </trkpt>
      <trkpt lat="46.75058" lon="-1.8807">
        <ele>9</ele>
        <time>2018-01-09T01:42:40Z</time>
      </trkpt>
      <trkpt lat="46.75039" lon="-1.88095">
        <ele>9</ele>
        <time>2018-01-09T01:43:40Z</time>
      </trkpt>
      <trkpt lat="46.75026" lon="-1.8811">
        <ele>9</ele>
        <time>2018-01-09T01:44:40Z</time>
      </trkpt>
      <trkpt lat="46.75019" lon="-1.88119">
        <ele>9</ele>
        <time>2018-01-09T01:45:40Z</time>
      </trkpt>
      <trkpt lat="46.7499" lon="-1.88159">
        <ele>9</ele>
        <time>2018-01-09T01:46:40Z</time>
      </trkpt>
      <trkpt lat="46.74976" lon="-1.88179">
        <ele>10</ele>
        <time>2018-01-09T01:47:40Z</time>
      </trkpt>
      <trkpt lat="46.74967" lon="-1.88193">
        <ele>10</ele>
        <time>2018-01-09T01:48:40Z</time>
      </trkpt>
      <trkpt lat="46.7496" lon="-1.88208">
        <ele>11</ele>
        <time>2018-01-09T01:49:40Z</time>
      </trkpt>
      <trkpt lat="46.74954" lon="-1.88221">
        <ele>11</ele>
        <time>2018-01-09T01:50:40Z</time>
      </trkpt>
      <trkpt lat="46.74948" lon="-1.88233">
        <ele>12</ele>
        <time>2018-01-09T01:51:40Z</time>
      </trkpt>
      <trkpt lat="46.74943" lon="-1.88246">
        <ele>12</ele>
        <time>2018-01-09T01:52:40Z</time>
      </trkpt>
      <trkpt lat="46.74938" lon="-1.88258">
        <ele>13</ele>
        <time>2018-01-09T01:53:40Z</time>
      </trkpt>
      <trkpt lat="46.74934" lon="-1.88272">
        <ele>13</ele>
        <time>2018-01-09T01:54:40Z</time>
      </trkpt>
      <trkpt lat="46.74925" lon="-1.883">
        <ele>13</ele>
        <time>2018-01-09T01:55:40Z</time>
      </trkpt>
      <trkpt lat="46.74914" lon="-1.88342">
        <ele>13</ele>
        <time>2018-01-09T01:56:40Z</time>
      </trkpt>
      <trkpt lat="46.74896" lon="-1.88406">
        <ele>11</ele>
        <time>2018-01-09T01:57:40Z</time>
      </trkpt>
      <trkpt lat="46.74883" lon="-1.88454">
        <ele>11</ele>
        <time>2018-01-09T01:58:40Z</time>
      </trkpt>
      <trkpt lat="46.74881" lon="-1.88465">
        <ele>12</ele>
        <time>2018-01-09T01:59:40Z</time>
      </trkpt>
      <trkpt lat="46.7486" lon="-1.88545">
        <ele>12</ele>
        <time>2018-01-09T02:00:40Z</time>
      </trkpt>
      <trkpt lat="46.74856" lon="-1.88561">
        <ele>12</ele>
        <time>2018-01-09T02:01:40Z</time>
      </trkpt>
      <trkpt lat="46.74853" lon="-1.88575">
        <ele>11</ele>
        <time>2018-01-09T02:02:40Z</time>
      </trkpt>
      <trkpt lat="46.7485" lon="-1.88595">
        <ele>11</ele>
        <time>2018-01-09T02:03:40Z</time>
      </trkpt>
      <trkpt lat="46.74846" lon="-1.88622">
        <ele>12</ele>
        <time>2018-01-09T02:04:40Z</time>
      </trkpt>
      <trkpt lat="46.74839" lon="-1.88686">
        <ele>12</ele>
        <time>2018-01-09T02:05:40Z</time>
      </trkpt>
      <trkpt lat="46.74834" lon="-1.88748">
        <ele>12</ele>
        <time>2018-01-09T02:06:40Z</time>
      </trkpt>
      <trkpt lat="46.74832" lon="-1.8877">
        <ele>12</ele>
        <time>2018-01-09T02:07:40Z</time>
      </trkpt>
      <trkpt lat="46.7483" lon="-1.8879">
        <ele>12</ele>
        <time>2018-01-09T02:08:40Z</time>
      </trkpt>
      <trkpt lat="46.74829" lon="-1.88817">
        <ele>12</ele>
        <time>2018-01-09T02:09:40Z</time>
      </trkpt>
      <trkpt lat="46.74827" lon="-1.88854">
        <ele>12</ele>
        <time>2018-01-09T02:10:40Z</time>
      </trkpt>
      <trkpt lat="46.74826" lon="-1.88892">
        <ele>12</ele>
        <time>2018-01-09T02:11:40Z</time>
      </trkpt>
      <trkpt lat="46.74826" lon="-1.88934">
        <ele>12</ele>
        <time>2018-01-09T02:12:40Z</time>
      </trkpt>
      <trkpt lat="46.74825" lon="-1.88973">
        <ele>11</ele>
        <time>2018-01-09T02:13:40Z</time>
      </trkpt>
      <trkpt lat="46.74824" lon="-1.89008">
        <ele>11</ele>
        <time>2018-01-09T02:14:40Z</time>
      </trkpt>
      <trkpt lat="46.74824" lon="-1.89025">
        <ele>11</ele>
        <time>2018-01-09T02:15:40Z</time>
      </trkpt>
      <trkpt lat="46.74824" lon="-1.8904">
        <ele>11</ele>
        <time>2018-01-09T02:16:40Z</time>
      </trkpt>
      <trkpt lat="46.74825" lon="-1.89055">
        <ele>11</ele>
        <time>2018-01-09T02:17:40Z</time>
      </trkpt>
      <trkpt lat="46.74825" lon="-1.89073">
        <ele>11</ele>
        <time>2018-01-09T02:18:40Z</time>
      </trkpt>
      <trkpt lat="46.74826" lon="-1.89092">
        <ele>11</ele>
        <time>2018-01-09T02:19:40Z</time>
      </trkpt>
      <trkpt lat="46.74828" lon="-1.8912">
        <ele>11</ele>
        <time>2018-01-09T02:20:40Z</time>
      </trkpt>
      <trkpt lat="46.74831" lon="-1.89174">
        <ele>11</ele>
        <time>2018-01-09T02:21:40Z</time>
      </trkpt>
      <trkpt lat="46.74834" lon="-1.89221">
        <ele>10</ele>
        <time>2018-01-09T02:22:40Z</time>
      </trkpt>
      <trkpt lat="46.74838" lon="-1.89279">
        <ele>9</ele>
        <time>2018-01-09T02:23:40Z</time>
      </trkpt>
      <trkpt lat="46.7484" lon="-1.89315">
        <ele>8</ele>
        <time>2018-01-09T02:24:40Z</time>
      </trkpt>
      <trkpt lat="46.74841" lon="-1.89332">
        <ele>8</ele>
        <time>2018-01-09T02:25:40Z</time>
      </trkpt>
      <trkpt lat="46.74842" lon="-1.89349">
        <ele>8</ele>
        <time>2018-01-09T02:26:40Z</time>
      </trkpt>
      <trkpt lat="46.74842" lon="-1.89365">
        <ele>8</ele>
        <time>2018-01-09T02:27:40Z</time>
      </trkpt>
      <trkpt lat="46.74842" lon="-1.89372">
        <ele>8</ele>
        <time>2018-01-09T02:28:40Z</time>
      </trkpt>
      <trkpt lat="46.74842" lon="-1.89383">
        <ele>8</ele>
        <time>2018-01-09T02:29:40Z</time>
      </trkpt>
      <trkpt lat="46.74843" lon="-1.89411">
        <ele>8</ele>
        <time>2018-01-09T02:30:40Z</time>
      </trkpt>
      <trkpt lat="46.74843" lon="-1.89423">
        <ele>8</ele>
        <time>2018-01-09T02:31:40Z</time>
      </trkpt>
      <trkpt lat="46.74843" lon="-1.89447">
        <ele>8</ele>
        <time>2018-01-09T02:32:40Z</time>
      </trkpt>
      <trkpt lat="46.74843" lon="-1.89466">
        <ele>8</ele>
        <time>2018-01-09T02:33:40Z</time>
      </trkpt>
      <trkpt lat="46.74843" lon="-1.895">
        <ele>8</ele>
        <time>2018-01-09T02:34:40Z</time>
      </trkpt>
      <trkpt lat="46.74843" lon="-1.89509">
        <ele>8</ele>
        <time>2018-01-09T02:35:40Z</time>
      </trkpt>
      <trkpt lat="46.74842" lon="-1.8955">
        <ele>8</ele>
        <time>2018-01-09T02:36:40Z</time>
      </trkpt>
      <trkpt lat="46.74842" lon="-1.89571">
        <ele>8</ele>
        <time>2018-01-09T02:37:40Z</time>
      </trkpt>
      <trkpt lat="46.74842" lon="-1.89606">
        <ele>8</ele>
        <time>2018-01-09T02:38:40Z</time>
      </trkpt>
      <trkpt lat="46.74842" lon="-1.89634">
        <ele>9</ele>
        <time>2018-01-09T02:39:40Z</time>
      </trkpt>
      <trkpt lat="46.74843" lon="-1.89647">
        <ele>9</ele>
        <time>2018-01-09T02:40:40Z</time>
      </trkpt>
      <trkpt lat="46.74843" lon="-1.89675">
        <ele>9</ele>
        <time>2018-01-09T02:41:40Z</time>
      </trkpt>
      <trkpt lat="46.74843" lon="-1.89689">
        <ele>8</ele>
        <time>2018-01-09T02:42:40Z</time>
      </trkpt>
      <trkpt lat="46.74843" lon="-1.8971">
        <ele>8</ele>
        <time>2018-01-09T02:43:40Z</time>
      </trkpt>
      <trkpt lat="46.74843" lon="-1.89717">
        <ele>8</ele>
        <time>2018-01-09T02:44:40Z</time>
      </trkpt>
      <trkpt lat="46.74843" lon="-1.89721">
        <ele>8</ele>
        <time>2018-01-09T02:45:40Z</time>
      </trkpt>
      <trkpt lat="46.74844" lon="-1.89745">
        <ele>7</ele>
        <time>2018-01-09T02:46:40Z</time>
      </trkpt>
      <trkpt lat="46.74845" lon="-1.89778">
        <ele>7</ele>
        <time>2018-01-09T02:47:40Z</time>
      </trkpt>
      <trkpt lat="46.74847" lon="-1.89793">
        <ele>7</ele>
        <time>2018-01-09T02:48:40Z</time>
      </trkpt>
      <trkpt lat="46.74848" lon="-1.89801">
        <ele>7</ele>
        <time>2018-01-09T02:49:40Z</time>
      </trkpt>
      <trkpt lat="46.74849" lon="-1.89817">
        <ele>7</ele>
        <time>2018-01-09T02:50:40Z</time>
      </trkpt>
      <trkpt lat="46.74853" lon="-1.89855">
        <ele>6</ele>
        <time>2018-01-09T02:51:40Z</time>
      </trkpt>
      <trkpt lat="46.74855" lon="-1.8987">
        <ele>6</ele>
        <time>2018-01-09T02:52:40Z</time>
      </trkpt>
      <trkpt lat="46.74855" lon="-1.89885">
        <ele>6</ele>
        <time>2018-01-09T02:53:40Z</time>
      </trkpt>
      <trkpt lat="46.74855" lon="-1.89896">
        <ele>6</ele>
        <time>2018-01-09T02:54:40Z</time>
      </trkpt>
      <trkpt lat="46.74855" lon="-1.89909">
        <ele>6</ele>
        <time>2018-01-09T02:55:40Z</time>
      </trkpt>
      <trkpt lat="46.74854" lon="-1.89922">
        <ele>6</ele>
        <time>2018-01-09T02:56:40Z</time>
      </trkpt>
      <trkpt lat="46.74852" lon="-1.89944">
        <ele>6</ele>
        <time>2018-01-09T02:57:40Z</time>
      </trkpt>
      <trkpt lat="46.7485" lon="-1.89954">
        <ele>6</ele>
        <time>2018-01-09T02:58:40Z</time>
      </trkpt>
      <trkpt lat="46.74852" lon="-1.90014">
        <ele>6</ele>
        <time>2018-01-09T02:59:40Z</time>
      </trkpt>
      <trkpt lat="46.74856" lon="-1.90129">
        <ele>6</ele>
        <time>2018-01-09T03:00:40Z</time>
      </trkpt>
      <trkpt lat="46.74857" lon="-1.90159">
        <ele>6</ele>
        <time>2018-01-09T03:01:40Z</time>
      </trkpt>
      <trkpt lat="46.74857" lon="-1.9018">
        <ele>6</ele>
        <time>2018-01-09T03:02:40Z</time>
      </trkpt>
      <trkpt lat="46.74857" lon="-1.90183">
        <ele>6</ele>
        <time>2018-01-09T03:03:40Z</time>
      </trkpt>
      <trkpt lat="46.74857" lon="-1.90195">
        <ele>6</ele>
        <time>2018-01-09T03:04:40Z</time>
      </trkpt>
      <trkpt lat="46.74856" lon="-1.90215">
        <ele>6</ele>
        <time>2018-01-09T03:05:40Z</time>
      </trkpt>
      <trkpt lat="46.74855" lon="-1.90226">
        <ele>6</ele>
        <time>2018-01-09T03:06:40Z</time>
      </trkpt>
      <trkpt lat="46.74855" lon="-1.90247">
        <ele>6</ele>
        <time>2018-01-09T03:07:40Z</time>
      </trkpt>
      <trkpt lat="46.74853" lon="-1.90266">
        <ele>6</ele>
        <time>2018-01-09T03:08:40Z</time>
      </trkpt>
      <trkpt lat="46.74853" lon="-1.90275">
        <ele>6</ele>
        <time>2018-01-09T03:09:40Z</time>
      </trkpt>
      <trkpt lat="46.74852" lon="-1.90282">
        <ele>5</ele>
        <time>2018-01-09T03:10:40Z</time>
      </trkpt>
      <trkpt lat="46.74851" lon="-1.90299">
        <ele>5</ele>
        <time>2018-01-09T03:11:40Z</time>
      </trkpt>
      <trkpt lat="46.74849" lon="-1.90315">
        <ele>5</ele>
        <time>2018-01-09T03:12:40Z</time>
      </trkpt>
      <trkpt lat="46.74846" lon="-1.90329">
        <ele>5</ele>
        <time>2018-01-09T03:13:40Z</time>
      </trkpt>
      <trkpt lat="46.74846" lon="-1.90335">
        <ele>5</ele>
        <time>2018-01-09T03:14:40Z</time>
      </trkpt>
      <trkpt lat="46.74845" lon="-1.90343">
        <ele>5</ele>
        <time>2018-01-09T03:15:40Z</time>
      </trkpt>
      <trkpt lat="46.74841" lon="-1.90365">
        <ele>5</ele>
        <time>2018-01-09T03:16:40Z</time>
      </trkpt>
      <trkpt lat="46.74837" lon="-1.90377">
        <ele>4</ele>
        <time>2018-01-09T03:17:40Z</time>
      </trkpt>
      <trkpt lat="46.74833" lon="-1.90388">
        <ele>4</ele>
        <time>2018-01-09T03:18:40Z</time>
      </trkpt>
      <trkpt lat="46.74833" lon="-1.90389">
        <ele>4</ele>
        <time>2018-01-09T03:19:40Z</time>
      </trkpt>
      <trkpt lat="46.74832" lon="-1.90391">
        <ele>4</ele>
        <time>2018-01-09T03:20:40Z</time>
      </trkpt>
      <trkpt lat="46.74829" lon="-1.90398">
        <ele>4</ele>
        <time>2018-01-09T03:21:40Z</time>
      </trkpt>
      <trkpt lat="46.74821" lon="-1.90411">
        <ele>4</ele>
        <time>2018-01-09T03:22:40Z</time>
      </trkpt>
      <trkpt lat="46.74812" lon="-1.90415">
        <ele>4</ele>
        <time>2018-01-09T03:23:40Z</time>
      </trkpt>
      <trkpt lat="46.74758" lon="-1.90455">
        <ele>4</ele>
        <time>2018-01-09T03:24:40Z</time>
      </trkpt>
      <trkpt lat="46.7473" lon="-1.90477">
        <ele>4</ele>
        <time>2018-01-09T03:25:40Z</time>
      </trkpt>
      <trkpt lat="46.74727" lon="-1.90479">
        <ele>4</ele>
        <time>2018-01-09T03:26:40Z</time>
      </trkpt>
      <trkpt lat="46.74672" lon="-1.90525">
        <ele>3</ele>
        <time>2018-01-09T03:27:40Z</time>
      </trkpt>
      <trkpt lat="46.74618" lon="-1.90573">
        <ele>2</ele>
        <time>2018-01-09T03:28:40Z</time>
      </trkpt>
      <trkpt lat="46.74612" lon="-1.90578">
        <ele>2</ele>
        <time>2018-01-09T03:29:40Z</time>
      </trkpt>
      <trkpt lat="46.74603" lon="-1.90586">
        <ele>2</ele>
        <time>2018-01-09T03:30:40Z</time>
      </trkpt>
      <trkpt lat="46.74591" lon="-1.90595">
        <ele>2</ele>
        <time>2018-01-09T03:31:40Z</time>
      </trkpt>
      <trkpt lat="46.74573" lon="-1.9061">
        <ele>3</ele>
        <time>2018-01-09T03:32:40Z</time>
      </trkpt>
      <trkpt lat="46.74567" lon="-1.90615">
        <ele>3</ele>
        <time>2018-01-09T03:33:40Z</time>
      </trkpt>
      <trkpt lat="46.74552" lon="-1.90625">
        <ele>3</ele>
        <time>2018-01-09T03:34:40Z</time>
      </trkpt>
      <trkpt lat="46.74549" lon="-1.90627">
        <ele>3</ele>
        <time>2018-01-09T03:35:40Z</time>
      </trkpt>
      <trkpt lat="46.7454" lon="-1.90638">
        <ele>4</ele>
        <time>2018-01-09T03:36:40Z</time>
      </trkpt>
      <trkpt lat="46.74534" lon="-1.90643">
        <ele>4</ele>
        <time>2018-01-09T03:37:40Z</time>
      </trkpt>
      <trkpt lat="46.7453" lon="-1.90647">
        <ele>4</ele>
        <time>2018-01-09T03:38:40Z</time>
      </trkpt>
      <trkpt lat="46.74529" lon="-1.90651">
        <ele>4</ele>
        <time>2018-01-09T03:39:40Z</time>
      </trkpt>
      <trkpt lat="46.74529" lon="-1.90653">
        <ele>4</ele>
        <time>2018-01-09T03:40:40Z</time>
      </trkpt>
      <trkpt lat="46.74528" lon="-1.90656">
        <ele>4</ele>
        <time>2018-01-09T03:41:40Z</time>
      </trkpt>
      <trkpt lat="46.74534" lon="-1.90664">
        <ele>4</ele>
        <time>2018-01-09T03:42:40Z</time>
      </trkpt>
      <trkpt lat="46.74545" lon="-1.90687">
        <ele>4</ele>
        <time>2018-01-09T03:43:40Z</time>
      </trkpt>
      <trkpt lat="46.74551" lon="-1.907">
        <ele>4</ele>
        <time>2018-01-09T03:44:40Z</time>
      </trkpt>
      <trkpt lat="46.74557" lon="-1.90713">
        <ele>4</ele>
        <time>2018-01-09T03:45:40Z</time>
      </trkpt>
      <trkpt lat="46.74562" lon="-1.90725">
        <ele>4</ele>
        <time>2018-01-09T03:46:40Z</time>
      </trkpt>
      <trkpt lat="46.74564" lon="-1.90734">
        <ele>4</ele>
        <time>2018-01-09T03:47:40Z</time>
      </trkpt>
      <trkpt lat="46.74565" lon="-1.90746">
        <ele>4</ele>
        <time>2018-01-09T03:48:40Z</time>
      </trkpt>
      <trkpt lat="46.74566" lon="-1.90756">
        <ele>4</ele>
        <time>2018-01-09T03:49:40Z</time>
      </trkpt>
      <trkpt lat="46.74569" lon="-1.9079">
        <ele>4</ele>
        <time>2018-01-09T03:50:40Z</time>
      </trkpt>
      <trkpt lat="46.74572" lon="-1.90814">
        <ele>4</ele>
        <time>2018-01-09T03:51:40Z</time>
      </trkpt>
      <trkpt lat="46.74573" lon="-1.90827">
        <ele>4</ele>
        <time>2018-01-09T03:52:40Z</time>
      </trkpt>
      <trkpt lat="46.74573" lon="-1.90854">
        <ele>4</ele>
        <time>2018-01-09T03:53:40Z</time>
      </trkpt>
      <trkpt lat="46.74573" lon="-1.90866">
        <ele>4</ele>
        <time>2018-01-09T03:54:40Z</time>
      </trkpt>
      <trkpt lat="46.74573" lon="-1.90872">
        <ele>4</ele>
        <time>2018-01-09T03:55:40Z</time>
      </trkpt>
      <trkpt lat="46.74581" lon="-1.90912">
        <ele>3</ele>
        <time>2018-01-09T03:56:40Z</time>
      </trkpt>
      <trkpt lat="46.74591" lon="-1.9094">
        <ele>3</ele>
        <time>2018-01-09T03:57:40Z</time>
      </trkpt>
      <trkpt lat="46.74594" lon="-1.90947">
        <ele>3</ele>
        <time>2018-01-09T03:58:40Z</time>
      </trkpt>
      <trkpt lat="46.74599" lon="-1.9096">
        <ele>3</ele>
        <time>2018-01-09T03:59:40Z</time>
      </trkpt>
      <trkpt lat="46.74602" lon="-1.9097">
        <ele>3</ele>
        <time>2018-01-09T04:00:40Z</time>
      </trkpt>
      <trkpt lat="46.74603" lon="-1.9098">
        <ele>3</ele>
        <time>2018-01-09T04:01:40Z</time>
      </trkpt>
      <trkpt lat="46.74603" lon="-1.9099">
        <ele>3</ele>
        <time>2018-01-09T04:02:40Z</time>
      </trkpt>
      <trkpt lat="46.74602" lon="-1.91001">
        <ele>3</ele>
        <time>2018-01-09T04:03:40Z</time>
      </trkpt>
      <trkpt lat="46.746" lon="-1.91009">
        <ele>3</ele>
        <time>2018-01-09T04:04:40Z</time>
      </trkpt>
      <trkpt lat="46.74598" lon="-1.91015">
        <ele>3</ele>
        <time>2018-01-09T04:05:40Z</time>
      </trkpt>
      <trkpt lat="46.74597" lon="-1.91017">
        <ele>3</ele>
        <time>2018-01-09T04:06:40Z</time>
      </trkpt>
      <trkpt lat="46.74596" lon="-1.91019">
        <ele>3</ele>
        <time>2018-01-09T04:07:40Z</time>
      </trkpt>
      <trkpt lat="46.74591" lon="-1.91026">
        <ele>3</ele>
        <time>2018-01-09T04:08:40Z</time>
      </trkpt>
      <trkpt lat="46.74593" lon="-1.91029">
        <ele>3</ele>
        <time>2018-01-09T04:09:40Z</time>
      </trkpt>
      <trkpt lat="46.74594" lon="-1.91033">
        <ele>3</ele>
        <time>2018-01-09T04:10:40Z</time>
      </trkpt>
      <trkpt lat="46.74594" lon="-1.91036">
        <ele>2</ele>
        <time>2018-01-09T04:11:40Z</time>
      </trkpt>
      <trkpt lat="46.74593" lon="-1.91039">
        <ele>2</ele>
        <time>2018-01-09T04:12:40Z</time>
      </trkpt>
      <trkpt lat="46.74592" lon="-1.91043">
        <ele>2</ele>
        <time>2018-01-09T04:13:40Z</time>
      </trkpt>
      <trkpt lat="46.74589" lon="-1.91044">
        <ele>2</ele>
        <time>2018-01-09T04:14:40Z</time>
      </trkpt>
      <trkpt lat="46.74586" lon="-1.91045">
        <ele>2</ele>
        <time>2018-01-09T04:15:40Z</time>
      </trkpt>
      <trkpt lat="46.74584" lon="-1.91045">
        <ele>2</ele>
        <time>2018-01-09T04:16:40Z</time>
      </trkpt>
      <trkpt lat="46.74576" lon="-1.9106">
        <ele>2</ele>
        <time>2018-01-09T04:17:40Z</time>
      </trkpt>
      <trkpt lat="46.74573" lon="-1.91066">
        <ele>2</ele>
        <time>2018-01-09T04:18:40Z</time>
      </trkpt>
      <trkpt lat="46.74569" lon="-1.91072">
        <ele>2</ele>
        <time>2018-01-09T04:19:40Z</time>
      </trkpt>
      <trkpt lat="46.74563" lon="-1.91079">
        <ele>3</ele>
        <time>2018-01-09T04:20:40Z</time>
      </trkpt>
      <trkpt lat="46.74534" lon="-1.91117">
        <ele>3</ele>
        <time>2018-01-09T04:21:40Z</time>
      </trkpt>
      <trkpt lat="46.74477" lon="-1.91184">
        <ele>4</ele>
        <time>2018-01-09T04:22:40Z</time>
      </trkpt>
      <trkpt lat="46.74469" lon="-1.91194">
        <ele>4</ele>
        <time>2018-01-09T04:23:40Z</time>
      </trkpt>
      <trkpt lat="46.74418" lon="-1.91257">
        <ele>3</ele>
        <time>2018-01-09T04:24:40Z</time>
      </trkpt>
      <trkpt lat="46.74388" lon="-1.91293">
        <ele>3</ele>
        <time>2018-01-09T04:25:40Z</time>
      </trkpt>
      <trkpt lat="46.74385" lon="-1.91297">
        <ele>3</ele>
        <time>2018-01-09T04:26:40Z</time>
      </trkpt>
      <trkpt lat="46.74375" lon="-1.91309">
        <ele>3</ele>
        <time>2018-01-09T04:27:40Z</time>
      </trkpt>
      <trkpt lat="46.74367" lon="-1.91321">
        <ele>4</ele>
        <time>2018-01-09T04:28:40Z</time>
      </trkpt>
      <trkpt lat="46.74358" lon="-1.91334">
        <ele>4</ele>
        <time>2018-01-09T04:29:40Z</time>
      </trkpt>
      <trkpt lat="46.74351" lon="-1.91346">
        <ele>4</ele>
        <time>2018-01-09T04:30:40Z</time>
      </trkpt>
      <trkpt lat="46.74344" lon="-1.9136">
        <ele>4</ele>
        <time>2018-01-09T04:31:40Z</time>
      </trkpt>
      <trkpt lat="46.74333" lon="-1.91384">
        <ele>4</ele>
        <time>2018-01-09T04:32:40Z</time>
      </trkpt>
      <trkpt lat="46.74324" lon="-1.91402">
        <ele>4</ele>
        <time>2018-01-09T04:33:40Z</time>
      </trkpt>
      <trkpt lat="46.74317" lon="-1.91418">
        <ele>4</ele>
        <time>2018-01-09T04:34:40Z</time>
      </trkpt>
      <trkpt lat="46.74311" lon="-1.91431">
        <ele>4</ele>
        <time>2018-01-09T04:35:40Z</time>
      </trkpt>
      <trkpt lat="46.74311" lon="-1.91431">
        <ele>4</ele>
        <time>2018-01-09T04:36:40Z</time>
      </trkpt>
      <trkpt lat="46.74297" lon="-1.91431">
        <ele>4</ele>
        <time>2018-01-09T04:37:40Z</time>
      </trkpt>
      <trkpt lat="46.74294" lon="-1.91432">
        <ele>4</ele>
        <time>2018-01-09T04:38:40Z</time>
      </trkpt>
      <trkpt lat="46.74292" lon="-1.91432">
        <ele>4</ele>
        <time>2018-01-09T04:39:40Z</time>
      </trkpt>
      <trkpt lat="46.74283" lon="-1.91443">
        <ele>4</ele>
        <time>2018-01-09T04:40:40Z</time>
      </trkpt>
      <trkpt lat="46.74245" lon="-1.91482">
        <ele>5</ele>
        <time>2018-01-09T04:41:40Z</time>
      </trkpt>
      <trkpt lat="46.74235" lon="-1.91492">
        <ele>5</ele>
        <time>2018-01-09T04:42:40Z</time>
      </trkpt>
      <trkpt lat="46.74192" lon="-1.91535">
        <ele>5</ele>
        <time>2018-01-09T04:43:40Z</time>
      </trkpt>
      <trkpt lat="46.74174" lon="-1.91553">
        <ele>5</ele>
        <time>2018-01-09T04:44:40Z</time>
      </trkpt>
      <trkpt lat="46.74172" lon="-1.91555">
        <ele>5</ele>
        <time>2018-01-09T04:45:40Z</time>
      </trkpt>
      <trkpt lat="46.74156" lon="-1.9157">
        <ele>5</ele>
        <time>2018-01-09T04:46:40Z</time>
      </trkpt>
      <trkpt lat="46.74143" lon="-1.91582">
        <ele>5</ele>
        <time>2018-01-09T04:47:40Z</time>
      </trkpt>
      <trkpt lat="46.74117" lon="-1.91604">
        <ele>5</ele>
        <time>2018-01-09T04:48:40Z</time>
      </trkpt>
      <trkpt lat="46.74089" lon="-1.91626">
        <ele>5</ele>
        <time>2018-01-09T04:49:40Z</time>
      </trkpt>
      <trkpt lat="46.74036" lon="-1.91667">
        <ele>6</ele>
        <time>2018-01-09T04:50:40Z</time>
      </trkpt>
      <trkpt lat="46.73994" lon="-1.91701">
        <ele>5</ele>
        <time>2018-01-09T04:51:40Z</time>
      </trkpt>
      <trkpt lat="46.73966" lon="-1.91725">
        <ele>5</ele>
        <time>2018-01-09T04:52:40Z</time>
      </trkpt>
      <trkpt lat="46.73966" lon="-1.91725">
        <ele>5</ele>
        <time>2018-01-09T04:53:40Z</time>
      </trkpt>
      <trkpt lat="46.73954" lon="-1.91736">
        <ele>5</ele>
        <time>2018-01-09T04:54:40Z</time>
      </trkpt>
      <trkpt lat="46.73946" lon="-1.91744">
        <ele>4</ele>
        <time>2018-01-09T04:55:40Z</time>
      </trkpt>
      <trkpt lat="46.73929" lon="-1.91762">
        <ele>4</ele>
        <time>2018-01-09T04:56:40Z</time>
      </trkpt>
      <trkpt lat="46.73918" lon="-1.91773">
        <ele>4</ele>
        <time>2018-01-09T04:57:40Z</time>
      </trkpt>
      <trkpt lat="46.73863" lon="-1.91828">
        <ele>4</ele>
        <time>2018-01-09T04:58:40Z</time>
      </trkpt>
      <trkpt lat="46.73813" lon="-1.91873">
        <ele>5</ele>
        <time>2018-01-09T04:59:40Z</time>
      </trkpt>
      <trkpt lat="46.738" lon="-1.91886">
        <ele>5</ele>
        <time>2018-01-09T05:00:40Z</time>
      </trkpt>
      <trkpt lat="46.73793" lon="-1.91895">
        <ele>5</ele>
        <time>2018-01-09T05:01:40Z</time>
      </trkpt>
      <trkpt lat="46.73787" lon="-1.91904">
        <ele>5</ele>
        <time>2018-01-09T05:02:40Z</time>
      </trkpt>
      <trkpt lat="46.73787" lon="-1.91904">
        <ele>5</ele>
        <time>2018-01-09T05:03:40Z</time>
      </trkpt>
      <trkpt lat="46.73784" lon="-1.91895">
        <ele>5</ele>
        <time>2018-01-09T05:04:40Z</time>
      </trkpt>
      <trkpt lat="46.73782" lon="-1.91884">
        <ele>5</ele>
        <time>2018-01-09T05:05:40Z</time>
      </trkpt>
      <trkpt lat="46.73781" lon="-1.91872">
        <ele>5</ele>
        <time>2018-01-09T05:06:40Z</time>
      </trkpt>
      <trkpt lat="46.73781" lon="-1.91858">
        <ele>5</ele>
        <time>2018-01-09T05:07:40Z</time>
      </trkpt>
      <trkpt lat="46.73781" lon="-1.91846">
        <ele>5</ele>
        <time>2018-01-09T05:08:40Z</time>
      </trkpt>
      <trkpt lat="46.73781" lon="-1.91794">
        <ele>5</ele>
        <time>2018-01-09T05:09:40Z</time>
      </trkpt>
      <trkpt lat="46.7378" lon="-1.91777">
        <ele>5</ele>
        <time>2018-01-09T05:10:40Z</time>
      </trkpt>
      <trkpt lat="46.73779" lon="-1.91762">
        <ele>5</ele>
        <time>2018-01-09T05:11:40Z</time>
      </trkpt>
      <trkpt lat="46.73777" lon="-1.9175">
        <ele>5</ele>
        <time>2018-01-09T05:12:40Z</time>
      </trkpt>
      <trkpt lat="46.73775" lon="-1.9174">
        <ele>5</ele>
        <time>2018-01-09T05:13:40Z</time>
      </trkpt>
      <trkpt lat="46.73771" lon="-1.91727">
        <ele>5</ele>
        <time>2018-01-09T05:14:40Z</time>
      </trkpt>
      <trkpt lat="46.73767" lon="-1.91714">
        <ele>5</ele>
        <time>2018-01-09T05:15:40Z</time>
      </trkpt>
      <trkpt lat="46.73761" lon="-1.91698">
        <ele>5</ele>
        <time>2018-01-09T05:16:40Z</time>
      </trkpt>
      <trkpt lat="46.73752" lon="-1.91678">
        <ele>5</ele>
        <time>2018-01-09T05:17:40Z</time>
      </trkpt>
      <trkpt lat="46.73728" lon="-1.91632">
        <ele>7</ele>
        <time>2018-01-09T05:18:40Z</time>
      </trkpt>
      <trkpt lat="46.73685" lon="-1.91548">
        <ele>6</ele>
        <time>2018-01-09T05:19:40Z</time>
      </trkpt>
      <trkpt lat="46.73651" lon="-1.91488">
        <ele>5</ele>
        <time>2018-01-09T05:20:40Z</time>
      </trkpt>
      <trkpt lat="46.73615" lon="-1.91424">
        <ele>6</ele>
        <time>2018-01-09T05:21:40Z</time>
      </trkpt>
      <trkpt lat="46.73578" lon="-1.91364">
        <ele>7</ele>
        <time>2018-01-09T05:22:40Z</time>
      </trkpt>
      <trkpt lat="46.73569" lon="-1.91351">
        <ele>7</ele>
        <time>2018-01-09T05:23:40Z</time>
      </trkpt>
      <trkpt lat="46.73558" lon="-1.91337">
        <ele>8</ele>
        <time>2018-01-09T05:24:40Z</time>
      </trkpt>
      <trkpt lat="46.73546" lon="-1.91323">
        <ele>8</ele>
        <time>2018-01-09T05:25:40Z</time>
      </trkpt>
      <trkpt lat="46.73522" lon="-1.91298">
        <ele>8</ele>
        <time>2018-01-09T05:26:40Z</time>
      </trkpt>
      <trkpt lat="46.73481" lon="-1.91256">
        <ele>9</ele>
        <time>2018-01-09T05:27:40Z</time>
      </trkpt>
      <trkpt lat="46.73456" lon="-1.91235">
        <ele>10</ele>
        <time>2018-01-09T05:28:40Z</time>
      </trkpt>
      <trkpt lat="46.73456" lon="-1.91235">
        <ele>10</ele>
        <time>2018-01-09T05:29:40Z</time>
      </trkpt>
      <trkpt lat="46.73442" lon="-1.91257">
        <ele>11</ele>
        <time>2018-01-09T05:30:40Z</time>
      </trkpt>
      <trkpt lat="46.73421" lon="-1.91295">
        <ele>11</ele>
        <time>2018-01-09T05:31:40Z</time>
      </trkpt>
      <trkpt lat="46.73392" lon="-1.91347">
        <ele>11</ele>
        <time>2018-01-09T05:32:40Z</time>
      </trkpt>
      <trkpt lat="46.73368" lon="-1.91384">
        <ele>12</ele>
        <time>2018-01-09T05:33:40Z</time>
      </trkpt>
      <trkpt lat="46.7336" lon="-1.91399">
        <ele>12</ele>
        <time>2018-01-09T05:34:40Z</time>
      </trkpt>
      <trkpt lat="46.73357" lon="-1.91405">
        <ele>13</ele>
        <time>2018-01-09T05:35:40Z</time>
      </trkpt>
      <trkpt lat="46.73355" lon="-1.91413">
        <ele>13</ele>
        <time>2018-01-09T05:36:40Z</time>
      </trkpt>
      <trkpt lat="46.73349" lon="-1.91432">
        <ele>13</ele>
        <time>2018-01-09T05:37:40Z</time>
      </trkpt>
      <trkpt lat="46.73344" lon="-1.91455">
        <ele>13</ele>
        <time>2018-01-09T05:38:40Z</time>
      </trkpt>
      <trkpt lat="46.7334" lon="-1.91469">
        <ele>13</ele>
        <time>2018-01-09T05:39:40Z</time>
      </trkpt>
      <trkpt lat="46.73339" lon="-1.91474">
        <ele>14</ele>
        <time>2018-01-09T05:40:40Z</time>
      </trkpt>
      <trkpt lat="46.73337" lon="-1.9148">
        <ele>14</ele>
        <time>2018-01-09T05:41:40Z</time>
      </trkpt>
      <trkpt lat="46.73335" lon="-1.91484">
        <ele>14</ele>
        <time>2018-01-09T05:42:40Z</time>
      </trkpt>
      <trkpt lat="46.73331" lon="-1.9149">
        <ele>14</ele>
        <time>2018-01-09T05:43:40Z</time>
      </trkpt>
      <trkpt lat="46.73331" lon="-1.9149">
        <ele>14</ele>
        <time>2018-01-09T05:44:40Z</time>
      </trkpt>
      <trkpt lat="46.73327" lon="-1.91472">
        <ele>14</ele>
        <time>2018-01-09T05:45:40Z</time>
      </trkpt>
      <trkpt lat="46.73321" lon="-1.91454">
        <ele>14</ele>
        <time>2018-01-09T05:46:40Z</time>
      </trkpt>
      <trkpt lat="46.73312" lon="-1.91432">
        <ele>13</ele>
        <time>2018-01-09T05:47:40Z</time>
      </trkpt>
      <trkpt lat="46.73304" lon="-1.91414">
        <ele>13</ele>
        <time>2018-01-09T05:48:40Z</time>
      </trkpt>
      <trkpt lat="46.73298" lon="-1.91401">
        <ele>13</ele>
        <time>2018-01-09T05:49:40Z</time>
      </trkpt>
      <trkpt lat="46.7328" lon="-1.91361">
        <ele>13</ele>
        <time>2018-01-09T05:50:40Z</time>
      </trkpt>
      <trkpt lat="46.73264" lon="-1.91328">
        <ele>13</ele>
        <time>2018-01-09T05:51:40Z</time>
      </trkpt>
      <trkpt lat="46.7325" lon="-1.91296">
        <ele>12</ele>
        <time>2018-01-09T05:52:40Z</time>
      </trkpt>
      <trkpt lat="46.73239" lon="-1.91274">
        <ele>10</ele>
        <time>2018-01-09T05:53:40Z</time>
      </trkpt>
      <trkpt lat="46.73227" lon="-1.91249">
        <ele>9</ele>
        <time>2018-01-09T05:54:40Z</time>
      </trkpt>
      <trkpt lat="46.73223" lon="-1.91238">
        <ele>9</ele>
        <time>2018-01-09T05:55:40Z</time>
      </trkpt>
      <trkpt lat="46.73208" lon="-1.91204">
        <ele>8</ele>
        <time>2018-01-09T05:56:40Z</time>
      </trkpt>
      <trkpt lat="46.73197" lon="-1.91182">
        <ele>8</ele>
        <time>2018-01-09T05:57:40Z</time>
      </trkpt>
      <trkpt lat="46.73184" lon="-1.91155">
        <ele>7</ele>
        <time>2018-01-09T05:58:40Z</time>
      </trkpt>
      <trkpt lat="46.73174" lon="-1.91134">
        <ele>6</ele>
        <time>2018-01-09T05:59:40Z</time>
      </trkpt>
      <trkpt lat="46.73169" lon="-1.91126">
        <ele>5</ele>
        <time>2018-01-09T06:00:40Z</time>
      </trkpt>
      <trkpt lat="46.73163" lon="-1.91117">
        <ele>5</ele>
        <time>2018-01-09T06:01:40Z</time>
      </trkpt>
      <trkpt lat="46.73151" lon="-1.91102">
        <ele>4</ele>
        <time>2018-01-09T06:02:40Z</time>
      </trkpt>
      <trkpt lat="46.73148" lon="-1.91095">
        <ele>4</ele>
        <time>2018-01-09T06:03:40Z</time>
      </trkpt>
      <trkpt lat="46.73137" lon="-1.91077">
        <ele>4</ele>
        <time>2018-01-09T06:04:40Z</time>
      </trkpt>
      <trkpt lat="46.7313" lon="-1.91067">
        <ele>4</ele>
        <time>2018-01-09T06:05:40Z</time>
      </trkpt>
      <trkpt lat="46.73098" lon="-1.91017">
        <ele>2</ele>
        <time>2018-01-09T06:06:40Z</time>
      </trkpt>
      <trkpt lat="46.73057" lon="-1.90954">
        <ele>1</ele>
        <time>2018-01-09T06:07:40Z</time>
      </trkpt>
      <trkpt lat="46.73019" lon="-1.90898">
        <ele>2.8</ele>
        <time>2018-01-09T06:08:40Z</time>
      </trkpt>
      <trkpt lat="46.72986" lon="-1.90845">
        <ele>1</ele>
        <time>2018-01-09T06:09:40Z</time>
      </trkpt>
      <trkpt lat="46.72951" lon="-1.90792">
        <ele>3.2</ele>
        <time>2018-01-09T06:10:40Z</time>
      </trkpt>
      <trkpt lat="46.72909" lon="-1.90728">
        <ele>2.6</ele>
        <time>2018-01-09T06:11:40Z</time>
      </trkpt>
      <trkpt lat="46.7288" lon="-1.90681">
        <ele>1</ele>
        <time>2018-01-09T06:12:40Z</time>
      </trkpt>
      <trkpt lat="46.72851" lon="-1.9064">
        <ele>3</ele>
        <time>2018-01-09T06:13:40Z</time>
      </trkpt>
      <trkpt lat="46.72831" lon="-1.90608">
        <ele>2.9</ele>
        <time>2018-01-09T06:14:40Z</time>
      </trkpt>
      <trkpt lat="46.72812" lon="-1.9058">
        <ele>3.4</ele>
        <time>2018-01-09T06:15:40Z</time>
      </trkpt>
      <trkpt lat="46.72794" lon="-1.90558">
        <ele>2.5</ele>
        <time>2018-01-09T06:16:40Z</time>
      </trkpt>
      <trkpt lat="46.72781" lon="-1.90543">
        <ele>1</ele>
        <time>2018-01-09T06:17:40Z</time>
      </trkpt>
      <trkpt lat="46.7276" lon="-1.90525">
        <ele>3.2</ele>
        <time>2018-01-09T06:18:40Z</time>
      </trkpt>
      <trkpt lat="46.72749" lon="-1.90513">
        <ele>3</ele>
        <time>2018-01-09T06:19:40Z</time>
      </trkpt>
      <trkpt lat="46.72728" lon="-1.90494">
        <ele>3.2</ele>
        <time>2018-01-09T06:20:40Z</time>
      </trkpt>
      <trkpt lat="46.72728" lon="-1.90494">
        <ele>3.2</ele>
        <time>2018-01-09T06:21:40Z</time>
      </trkpt>
      <trkpt lat="46.7272" lon="-1.90488">
        <ele>3.1</ele>
        <time>2018-01-09T06:22:40Z</time>
      </trkpt>
      <trkpt lat="46.72712" lon="-1.9048">
        <ele>2.3</ele>
        <time>2018-01-09T06:23:40Z</time>
      </trkpt>
      <trkpt lat="46.72704" lon="-1.90472">
        <ele>1.4</ele>
        <time>2018-01-09T06:24:40Z</time>
      </trkpt>
      <trkpt lat="46.72699" lon="-1.90466">
        <ele>1.7</ele>
        <time>2018-01-09T06:25:40Z</time>
      </trkpt>
      <trkpt lat="46.72693" lon="-1.90461">
        <ele>2.3</ele>
        <time>2018-01-09T06:26:40Z</time>
      </trkpt>
      <trkpt lat="46.72682" lon="-1.90451">
        <ele>3.5</ele>
        <time>2018-01-09T06:27:40Z</time>
      </trkpt>
      <trkpt lat="46.72671" lon="-1.9044">
        <ele>3.8</ele>
        <time>2018-01-09T06:28:40Z</time>
      </trkpt>
      <trkpt lat="46.72643" lon="-1.90413">
        <ele>3.7</ele>
        <time>2018-01-09T06:29:40Z</time>
      </trkpt>
      <trkpt lat="46.72603" lon="-1.90372">
        <ele>3.5</ele>
        <time>2018-01-09T06:30:40Z</time>
      </trkpt>
      <trkpt lat="46.72573" lon="-1.90343">
        <ele>1</ele>
        <time>2018-01-09T06:31:40Z</time>
      </trkpt>
      <trkpt lat="46.7254" lon="-1.90311">
        <ele>1</ele>
        <time>2018-01-09T06:32:40Z</time>
      </trkpt>
      <trkpt lat="46.72506" lon="-1.90278">
        <ele>2</ele>
        <time>2018-01-09T06:33:40Z</time>
      </trkpt>
      <trkpt lat="46.72485" lon="-1.90257">
        <ele>2</ele>
        <time>2018-01-09T06:34:40Z</time>
      </trkpt>
      <trkpt lat="46.72468" lon="-1.90239">
        <ele>2</ele>
        <time>2018-01-09T06:35:40Z</time>
      </trkpt>
      <trkpt lat="46.72458" lon="-1.90226">
        <ele>2</ele>
        <time>2018-01-09T06:36:40Z</time>
      </trkpt>
      <trkpt lat="46.7245" lon="-1.90213">
        <ele>2</ele>
        <time>2018-01-09T06:37:40Z</time>
      </trkpt>
      <trkpt lat="46.7244" lon="-1.9019">
        <ele>2</ele>
        <time>2018-01-09T06:38:40Z</time>
      </trkpt>
      <trkpt lat="46.7243" lon="-1.90169">
        <ele>2</ele>
        <time>2018-01-09T06:39:40Z</time>
      </trkpt>
      <trkpt lat="46.72412" lon="-1.90128">
        <ele>2</ele>
        <time>2018-01-09T06:40:40Z</time>
      </trkpt>
      <trkpt lat="46.72403" lon="-1.90108">
        <ele>3</ele>
        <time>2018-01-09T06:41:40Z</time>
      </trkpt>
      <trkpt lat="46.72388" lon="-1.90076">
        <ele>3</ele>
        <time>2018-01-09T06:42:40Z</time>
      </trkpt>
      <trkpt lat="46.72372" lon="-1.90041">
        <ele>4</ele>
        <time>2018-01-09T06:43:40Z</time>
      </trkpt>
      <trkpt lat="46.72358" lon="-1.90013">
        <ele>5</ele>
        <time>2018-01-09T06:44:40Z</time>
      </trkpt>
      <trkpt lat="46.72348" lon="-1.89995">
        <ele>5</ele>
        <time>2018-01-09T06:45:40Z</time>
      </trkpt>
      <trkpt lat="46.72336" lon="-1.89977">
        <ele>6</ele>
        <time>2018-01-09T06:46:40Z</time>
      </trkpt>
      <trkpt lat="46.72329" lon="-1.89969">
        <ele>6</ele>
        <time>2018-01-09T06:47:40Z</time>
      </trkpt>
      <trkpt lat="46.72323" lon="-1.8996">
        <ele>6</ele>
        <time>2018-01-09T06:48:40Z</time>
      </trkpt>
      <trkpt lat="46.72315" lon="-1.89944">
        <ele>6</ele>
        <time>2018-01-09T06:49:40Z</time>
      </trkpt>
      <trkpt lat="46.72307" lon="-1.89925">
        <ele>6</ele>
        <time>2018-01-09T06:50:40Z</time>
      </trkpt>
      <trkpt lat="46.723" lon="-1.89904">
        <ele>6</ele>
        <time>2018-01-09T06:51:40Z</time>
      </trkpt>
      <trkpt lat="46.72292" lon="-1.8988">
        <ele>6</ele>
        <time>2018-01-09T06:52:40Z</time>
      </trkpt>
      <trkpt lat="46.72283" lon="-1.89855">
        <ele>6</ele>
        <time>2018-01-09T06:53:40Z</time>
      </trkpt>
      <trkpt lat="46.72271" lon="-1.89821">
        <ele>6</ele>
        <time>2018-01-09T06:54:40Z</time>
      </trkpt>
      <trkpt lat="46.72261" lon="-1.89791">
        <ele>7</ele>
        <time>2018-01-09T06:55:40Z</time>
      </trkpt>
      <trkpt lat="46.72253" lon="-1.8977">
        <ele>7</ele>
        <time>2018-01-09T06:56:40Z</time>
      </trkpt>
      <trkpt lat="46.72253" lon="-1.8977">
        <ele>7</ele>
        <time>2018-01-09T06:57:40Z</time>
      </trkpt>
      <trkpt lat="46.72225" lon="-1.89792">
        <ele>7</ele>
        <time>2018-01-09T06:58:40Z</time>
      </trkpt>
      <trkpt lat="46.72203" lon="-1.89809">
        <ele>8</ele>
        <time>2018-01-09T06:59:40Z</time>
      </trkpt>
      <trkpt lat="46.72178" lon="-1.8983">
        <ele>9</ele>
        <time>2018-01-09T07:00:40Z</time>
      </trkpt>
      <trkpt lat="46.72143" lon="-1.89859">
        <ele>9</ele>
        <time>2018-01-09T07:01:40Z</time>
      </trkpt>
      <trkpt lat="46.72119" lon="-1.89878">
        <ele>8</ele>
        <time>2018-01-09T07:02:40Z</time>
      </trkpt>
      <trkpt lat="46.72084" lon="-1.89908">
        <ele>7</ele>
        <time>2018-01-09T07:03:40Z</time>
      </trkpt>
      <trkpt lat="46.72056" lon="-1.8993">
        <ele>7</ele>
        <time>2018-01-09T07:04:40Z</time>
      </trkpt>
      <trkpt lat="46.72042" lon="-1.89942">
        <ele>7</ele>
        <time>2018-01-09T07:05:40Z</time>
      </trkpt>
      <trkpt lat="46.72037" lon="-1.89948">
        <ele>7</ele>
        <time>2018-01-09T07:06:40Z</time>
      </trkpt>
      <trkpt lat="46.72029" lon="-1.8996">
        <ele>7</ele>
        <time>2018-01-09T07:07:40Z</time>
      </trkpt>
      <trkpt lat="46.7202" lon="-1.89975">
        <ele>7</ele>
        <time>2018-01-09T07:08:40Z</time>
      </trkpt>
      <trkpt lat="46.72013" lon="-1.89987">
        <ele>6</ele>
        <time>2018-01-09T07:09:40Z</time>
      </trkpt>
      <trkpt lat="46.72002" lon="-1.90007">
        <ele>6</ele>
        <time>2018-01-09T07:10:40Z</time>
      </trkpt>
      <trkpt lat="46.7199" lon="-1.90031">
        <ele>6</ele>
        <time>2018-01-09T07:11:40Z</time>
      </trkpt>
      <trkpt lat="46.71979" lon="-1.9005">
        <ele>6</ele>
        <time>2018-01-09T07:12:40Z</time>
      </trkpt>
      <trkpt lat="46.71973" lon="-1.90062">
        <ele>6</ele>
        <time>2018-01-09T07:13:40Z</time>
      </trkpt>
      <trkpt lat="46.71968" lon="-1.9008">
        <ele>6</ele>
        <time>2018-01-09T07:14:40Z</time>
      </trkpt>
      <trkpt lat="46.71965" lon="-1.90106">
        <ele>6</ele>
        <time>2018-01-09T07:15:40Z</time>
      </trkpt>
      <trkpt lat="46.71962" lon="-1.90125">
        <ele>6</ele>
        <time>2018-01-09T07:16:40Z</time>
      </trkpt>
      <trkpt lat="46.71959" lon="-1.90153">
        <ele>6</ele>
        <time>2018-01-09T07:17:40Z</time>
      </trkpt>
      <trkpt lat="46.71958" lon="-1.90176">
        <ele>6</ele>
        <time>2018-01-09T07:18:40Z</time>
      </trkpt>
      <trkpt lat="46.71956" lon="-1.90191">
        <ele>6</ele>
        <time>2018-01-09T07:19:40Z</time>
      </trkpt>
      <trkpt lat="46.71953" lon="-1.90201">
        <ele>6</ele>
        <time>2018-01-09T07:20:40Z</time>
      </trkpt>
      <trkpt lat="46.71953" lon="-1.90203">
        <ele>6</ele>
        <time>2018-01-09T07:21:40Z</time>
      </trkpt>
      <trkpt lat="46.71949" lon="-1.90211">
        <ele>6</ele>
        <time>2018-01-09T07:22:40Z</time>
      </trkpt>
      <trkpt lat="46.71946" lon="-1.90218">
        <ele>6</ele>
        <time>2018-01-09T07:23:40Z</time>
      </trkpt>
      <trkpt lat="46.71941" lon="-1.90227">
        <ele>6</ele>
        <time>2018-01-09T07:24:40Z</time>
      </trkpt>
      <trkpt lat="46.71934" lon="-1.90235">
        <ele>6</ele>
        <time>2018-01-09T07:25:40Z</time>
      </trkpt>
      <trkpt lat="46.71927" lon="-1.9024">
        <ele>6</ele>
        <time>2018-01-09T07:26:40Z</time>
      </trkpt>
      <trkpt lat="46.71914" lon="-1.90248">
        <ele>6</ele>
        <time>2018-01-09T07:27:40Z</time>
      </trkpt>
      <trkpt lat="46.719" lon="-1.90254">
        <ele>7</ele>
        <time>2018-01-09T07:28:40Z</time>
      </trkpt>
      <trkpt lat="46.71896" lon="-1.90256">
        <ele>7</ele>
        <time>2018-01-09T07:29:40Z</time>
      </trkpt>
      <trkpt lat="46.7189" lon="-1.9026">
        <ele>7</ele>
        <time>2018-01-09T07:30:40Z</time>
      </trkpt>
      <trkpt lat="46.71886" lon="-1.90263">
        <ele>7</ele>
        <time>2018-01-09T07:31:40Z</time>
      </trkpt>
      <trkpt lat="46.71883" lon="-1.90267">
        <ele>7</ele>
        <time>2018-01-09T07:32:40Z</time>
      </trkpt>
      <trkpt lat="46.71879" lon="-1.90274">
        <ele>7</ele>
        <time>2018-01-09T07:33:40Z</time>
      </trkpt>
      <trkpt lat="46.71876" lon="-1.90283">
        <ele>7</ele>
        <time>2018-01-09T07:34:40Z</time>
      </trkpt>
      <trkpt lat="46.71872" lon="-1.90301">
        <ele>6</ele>
        <time>2018-01-09T07:35:40Z</time>
      </trkpt>
      <trkpt lat="46.71869" lon="-1.90308">
        <ele>6</ele>
        <time>2018-01-09T07:36:40Z</time>
      </trkpt>
      <trkpt lat="46.71865" lon="-1.90316">
        <ele>6</ele>
        <time>2018-01-09T07:37:40Z</time>
      </trkpt>
      <trkpt lat="46.71839" lon="-1.90349">
        <ele>6</ele>
        <time>2018-01-09T07:38:40Z</time>
      </trkpt>
      <trkpt lat="46.7179" lon="-1.90406">
        <ele>6</ele>
        <time>2018-01-09T07:39:40Z</time>
      </trkpt>
      <trkpt lat="46.71783" lon="-1.90415">
        <ele>6</ele>
        <time>2018-01-09T07:40:40Z</time>
      </trkpt>
      <trkpt lat="46.71764" lon="-1.90437">
        <ele>7</ele>
        <time>2018-01-09T07:41:40Z</time>
      </trkpt>
      <trkpt lat="46.71729" lon="-1.90479">
        <ele>7</ele>
        <time>2018-01-09T07:42:40Z</time>
      </trkpt>
      <trkpt lat="46.71702" lon="-1.90512">
        <ele>8</ele>
        <time>2018-01-09T07:43:40Z</time>
      </trkpt>
      <trkpt lat="46.71687" lon="-1.9053">
        <ele>8</ele>
        <time>2018-01-09T07:44:40Z</time>
      </trkpt>
      <trkpt lat="46.71673" lon="-1.90547">
        <ele>8</ele>
        <time>2018-01-09T07:45:40Z</time>
      </trkpt>
      <trkpt lat="46.71651" lon="-1.90574">
        <ele>9</ele>
        <time>2018-01-09T07:46:40Z</time>
      </trkpt>
      <trkpt lat="46.71615" lon="-1.90615">
        <ele>9</ele>
        <time>2018-01-09T07:47:40Z</time>
      </trkpt>
      <trkpt lat="46.71615" lon="-1.90616">
        <ele>9</ele>
        <time>2018-01-09T07:48:40Z</time>
      </trkpt>
      <trkpt lat="46.7161" lon="-1.90622">
        <ele>9</ele>
        <time>2018-01-09T07:49:40Z</time>
      </trkpt>
      <trkpt lat="46.71589" lon="-1.90649">
        <ele>9</ele>
        <time>2018-01-09T07:50:40Z</time>
      </trkpt>
      <trkpt lat="46.71557" lon="-1.90688">
        <ele>10</ele>
        <time>2018-01-09T07:51:40Z</time>
      </trkpt>
      <trkpt lat="46.71554" lon="-1.90691">
        <ele>10</ele>
        <time>2018-01-09T07:52:40Z</time>
      </trkpt>
      <trkpt lat="46.71544" lon="-1.90706">
        <ele>10</ele>
        <time>2018-01-09T07:53:40Z</time>
      </trkpt>
      <trkpt lat="46.71545" lon="-1.90706">
        <ele>10</ele>
        <time>2018-01-09T07:54:40Z</time>
      </trkpt>
      <trkpt lat="46.71545" lon="-1.90707">
        <ele>10</ele>
        <time>2018-01-09T07:55:40Z</time>
      </trkpt>
      <trkpt lat="46.71545" lon="-1.90708">
        <ele>10</ele>
        <time>2018-01-09T07:56:40Z</time>
      </trkpt>
      <trkpt lat="46.71546" lon="-1.90708">
        <ele>10</ele>
        <time>2018-01-09T07:57:40Z</time>
      </trkpt>
      <trkpt lat="46.71546" lon="-1.90709">
        <ele>10</ele>
        <time>2018-01-09T07:58:40Z</time>
      </trkpt>
      <trkpt lat="46.71546" lon="-1.9071">
        <ele>10</ele>
        <time>2018-01-09T07:59:40Z</time>
      </trkpt>
      <trkpt lat="46.71546" lon="-1.90711">
        <ele>10</ele>
        <time>2018-01-09T08:00:40Z</time>
      </trkpt>
      <trkpt lat="46.71546" lon="-1.90712">
        <ele>10</ele>
        <time>2018-01-09T08:01:40Z</time>
      </trkpt>
      <trkpt lat="46.71546" lon="-1.90713">
        <ele>10</ele>
        <time>2018-01-09T08:02:40Z</time>
      </trkpt>
      <trkpt lat="46.71546" lon="-1.90714">
        <ele>10</ele>
        <time>2018-01-09T08:03:40Z</time>
      </trkpt>
      <trkpt lat="46.71546" lon="-1.90715">
        <ele>10</ele>
        <time>2018-01-09T08:04:40Z</time>
      </trkpt>
      <trkpt lat="46.71546" lon="-1.90716">
        <ele>10</ele>
        <time>2018-01-09T08:05:40Z</time>
      </trkpt>
      <trkpt lat="46.71546" lon="-1.90717">
        <ele>10</ele>
        <time>2018-01-09T08:06:40Z</time>
      </trkpt>
      <trkpt lat="46.71545" lon="-1.90717">
        <ele>10</ele>
        <time>2018-01-09T08:07:40Z</time>
      </trkpt>
      <trkpt lat="46.71545" lon="-1.90718">
        <ele>10</ele>
        <time>2018-01-09T08:08:40Z</time>
      </trkpt>
      <trkpt lat="46.71545" lon="-1.90719">
        <ele>10</ele>
        <time>2018-01-09T08:09:40Z</time>
      </trkpt>
      <trkpt lat="46.71544" lon="-1.90719">
        <ele>10</ele>
        <time>2018-01-09T08:10:40Z</time>
      </trkpt>
      <trkpt lat="46.71544" lon="-1.9072">
        <ele>10</ele>
        <time>2018-01-09T08:11:40Z</time>
      </trkpt>
      <trkpt lat="46.71543" lon="-1.9072">
        <ele>10</ele>
        <time>2018-01-09T08:12:40Z</time>
      </trkpt>
      <trkpt lat="46.71542" lon="-1.9072">
        <ele>10</ele>
        <time>2018-01-09T08:13:40Z</time>
      </trkpt>
      <trkpt lat="46.71541" lon="-1.9072">
        <ele>10</ele>
        <time>2018-01-09T08:14:40Z</time>
      </trkpt>
      <trkpt lat="46.71541" lon="-1.90721">
        <ele>10</ele>
        <time>2018-01-09T08:15:40Z</time>
      </trkpt>
      <trkpt lat="46.71541" lon="-1.9072">
        <ele>10</ele>
        <time>2018-01-09T08:16:40Z</time>
      </trkpt>
      <trkpt lat="46.7154" lon="-1.9072">
        <ele>10</ele>
        <time>2018-01-09T08:17:40Z</time>
      </trkpt>
      <trkpt lat="46.71539" lon="-1.9072">
        <ele>10</ele>
        <time>2018-01-09T08:18:40Z</time>
      </trkpt>
      <trkpt lat="46.71538" lon="-1.9072">
        <ele>10</ele>
        <time>2018-01-09T08:19:40Z</time>
      </trkpt>
      <trkpt lat="46.71538" lon="-1.90719">
        <ele>10</ele>
        <time>2018-01-09T08:20:40Z</time>
      </trkpt>
      <trkpt lat="46.71537" lon="-1.90719">
        <ele>10</ele>
        <time>2018-01-09T08:21:40Z</time>
      </trkpt>
      <trkpt lat="46.71537" lon="-1.90718">
        <ele>10</ele>
        <time>2018-01-09T08:22:40Z</time>
      </trkpt>
      <trkpt lat="46.71537" lon="-1.90717">
        <ele>10</ele>
        <time>2018-01-09T08:23:40Z</time>
      </trkpt>
      <trkpt lat="46.71504" lon="-1.90753">
        <ele>11</ele>
        <time>2018-01-09T08:24:40Z</time>
      </trkpt>
      <trkpt lat="46.71468" lon="-1.90796">
        <ele>11</ele>
        <time>2018-01-09T08:25:40Z</time>
      </trkpt>
      <trkpt lat="46.71449" lon="-1.90818">
        <ele>12</ele>
        <time>2018-01-09T08:26:40Z</time>
      </trkpt>
      <trkpt lat="46.71439" lon="-1.9083">
        <ele>12</ele>
        <time>2018-01-09T08:27:40Z</time>
      </trkpt>
      <trkpt lat="46.71421" lon="-1.90853">
        <ele>13</ele>
        <time>2018-01-09T08:28:40Z</time>
      </trkpt>
      <trkpt lat="46.71421" lon="-1.90853">
        <ele>13</ele>
        <time>2018-01-09T08:29:40Z</time>
      </trkpt>
      <trkpt lat="46.71414" lon="-1.90862">
        <ele>13</ele>
        <time>2018-01-09T08:30:40Z</time>
      </trkpt>
      <trkpt lat="46.71394" lon="-1.90886">
        <ele>13</ele>
        <time>2018-01-09T08:31:40Z</time>
      </trkpt>
      <trkpt lat="46.71377" lon="-1.90906">
        <ele>13</ele>
        <time>2018-01-09T08:32:40Z</time>
      </trkpt>
      <trkpt lat="46.71372" lon="-1.90912">
        <ele>13</ele>
        <time>2018-01-09T08:33:40Z</time>
      </trkpt>
      <trkpt lat="46.71354" lon="-1.90933">
        <ele>12</ele>
        <time>2018-01-09T08:34:40Z</time>
      </trkpt>
      <trkpt lat="46.71332" lon="-1.90962">
        <ele>12</ele>
        <time>2018-01-09T08:35:40Z</time>
      </trkpt>
      <trkpt lat="46.7131" lon="-1.90988">
        <ele>12</ele>
        <time>2018-01-09T08:36:40Z</time>
      </trkpt>
      <trkpt lat="46.713" lon="-1.91004">
        <ele>12</ele>
        <time>2018-01-09T08:37:40Z</time>
      </trkpt>
      <trkpt lat="46.71289" lon="-1.9102">
        <ele>12</ele>
        <time>2018-01-09T08:38:40Z</time>
      </trkpt>
      <trkpt lat="46.71277" lon="-1.9104">
        <ele>12</ele>
        <time>2018-01-09T08:39:40Z</time>
      </trkpt>
      <trkpt lat="46.71264" lon="-1.91064">
        <ele>12</ele>
        <time>2018-01-09T08:40:40Z</time>
      </trkpt>
      <trkpt lat="46.71255" lon="-1.91084">
        <ele>12</ele>
        <time>2018-01-09T08:41:40Z</time>
      </trkpt>
      <trkpt lat="46.71244" lon="-1.91108">
        <ele>12</ele>
        <time>2018-01-09T08:42:40Z</time>
      </trkpt>
      <trkpt lat="46.71231" lon="-1.91139">
        <ele>11</ele>
        <time>2018-01-09T08:43:40Z</time>
      </trkpt>
      <trkpt lat="46.71227" lon="-1.91147">
        <ele>11</ele>
        <time>2018-01-09T08:44:40Z</time>
      </trkpt>
      <trkpt lat="46.71216" lon="-1.91174">
        <ele>11</ele>
        <time>2018-01-09T08:45:40Z</time>
      </trkpt>
      <trkpt lat="46.712" lon="-1.9121">
        <ele>11</ele>
        <time>2018-01-09T08:46:40Z</time>
      </trkpt>
      <trkpt lat="46.71185" lon="-1.91246">
        <ele>11</ele>
        <time>2018-01-09T08:47:40Z</time>
      </trkpt>
      <trkpt lat="46.71175" lon="-1.91271">
        <ele>11</ele>
        <time>2018-01-09T08:48:40Z</time>
      </trkpt>
      <trkpt lat="46.71164" lon="-1.91298">
        <ele>11</ele>
        <time>2018-01-09T08:49:40Z</time>
      </trkpt>
      <trkpt lat="46.71152" lon="-1.91328">
        <ele>12</ele>
        <time>2018-01-09T08:50:40Z</time>
      </trkpt>
      <trkpt lat="46.7115" lon="-1.91334">
        <ele>12</ele>
        <time>2018-01-09T08:51:40Z</time>
      </trkpt>
      <trkpt lat="46.71148" lon="-1.91339">
        <ele>12</ele>
        <time>2018-01-09T08:52:40Z</time>
      </trkpt>
      <trkpt lat="46.71136" lon="-1.91372">
        <ele>12</ele>
        <time>2018-01-09T08:53:40Z</time>
      </trkpt>
      <trkpt lat="46.71122" lon="-1.91407">
        <ele>13</ele>
        <time>2018-01-09T08:54:40Z</time>
      </trkpt>
      <trkpt lat="46.71113" lon="-1.91429">
        <ele>14</ele>
        <time>2018-01-09T08:55:40Z</time>
      </trkpt>
      <trkpt lat="46.71106" lon="-1.91442">
        <ele>14</ele>
        <time>2018-01-09T08:56:40Z</time>
      </trkpt>
      <trkpt lat="46.71103" lon="-1.91449">
        <ele>14</ele>
        <time>2018-01-09T08:57:40Z</time>
      </trkpt>
      <trkpt lat="46.71102" lon="-1.91452">
        <ele>14</ele>
        <time>2018-01-09T08:58:40Z</time>
      </trkpt>
      <trkpt lat="46.71099" lon="-1.91459">
        <ele>14</ele>
        <time>2018-01-09T08:59:40Z</time>
      </trkpt>
      <trkpt lat="46.71097" lon="-1.91462">
        <ele>15</ele>
        <time>2018-01-09T09:00:40Z</time>
      </trkpt>
      <trkpt lat="46.71096" lon="-1.91463">
        <ele>15</ele>
        <time>2018-01-09T09:01:40Z</time>
      </trkpt>
      <trkpt lat="46.71095" lon="-1.91465">
        <ele>15</ele>
        <time>2018-01-09T09:02:40Z</time>
      </trkpt>
      <trkpt lat="46.71085" lon="-1.91481">
        <ele>15</ele>
        <time>2018-01-09T09:03:40Z</time>
      </trkpt>
      <trkpt lat="46.7107" lon="-1.91503">
        <ele>15</ele>
        <time>2018-01-09T09:04:40Z</time>
      </trkpt>
      <trkpt lat="46.71064" lon="-1.91509">
        <ele>15</ele>
        <time>2018-01-09T09:05:40Z</time>
      </trkpt>
      <trkpt lat="46.71054" lon="-1.91523">
        <ele>16</ele>
        <time>2018-01-09T09:06:40Z</time>
      </trkpt>
      <trkpt lat="46.71042" lon="-1.91539">
        <ele>16</ele>
        <time>2018-01-09T09:07:40Z</time>
      </trkpt>
      <trkpt lat="46.71022" lon="-1.91567">
        <ele>16</ele>
        <time>2018-01-09T09:08:40Z</time>
      </trkpt>
      <trkpt lat="46.7102" lon="-1.9157">
        <ele>17</ele>
        <time>2018-01-09T09:09:40Z</time>
      </trkpt>
      <trkpt lat="46.71018" lon="-1.91572">
        <ele>17</ele>
        <time>2018-01-09T09:10:40Z</time>
      </trkpt>
      <trkpt lat="46.70999" lon="-1.91598">
        <ele>17</ele>
        <time>2018-01-09T09:11:40Z</time>
      </trkpt>
      <trkpt lat="46.70971" lon="-1.91634">
        <ele>17</ele>
        <time>2018-01-09T09:12:40Z</time>
      </trkpt>
      <trkpt lat="46.70954" lon="-1.91659">
        <ele>18</ele>
        <time>2018-01-09T09:13:40Z</time>
      </trkpt>
      <trkpt lat="46.70951" lon="-1.91664">
        <ele>18</ele>
        <time>2018-01-09T09:14:40Z</time>
      </trkpt>
      <trkpt lat="46.70946" lon="-1.91669">
        <ele>18</ele>
        <time>2018-01-09T09:15:40Z</time>
      </trkpt>
      <trkpt lat="46.70932" lon="-1.91688">
        <ele>18</ele>
        <time>2018-01-09T09:16:40Z</time>
      </trkpt>
      <trkpt lat="46.70913" lon="-1.91714">
        <ele>18</ele>
        <time>2018-01-09T09:17:40Z</time>
      </trkpt>
      <trkpt lat="46.70894" lon="-1.91739">
        <ele>18</ele>
        <time>2018-01-09T09:18:40Z</time>
      </trkpt>
      <trkpt lat="46.70883" lon="-1.91753">
        <ele>18</ele>
        <time>2018-01-09T09:19:40Z</time>
      </trkpt>
      <trkpt lat="46.7087" lon="-1.91769">
        <ele>19</ele>
        <time>2018-01-09T09:20:40Z</time>
      </trkpt>
      <trkpt lat="46.7087" lon="-1.9177">
        <ele>19</ele>
        <time>2018-01-09T09:21:40Z</time>
      </trkpt>
      <trkpt lat="46.7087" lon="-1.91771">
        <ele>19</ele>
        <time>2018-01-09T09:22:40Z</time>
      </trkpt>
      <trkpt lat="46.70871" lon="-1.91771">
        <ele>19</ele>
        <time>2018-01-09T09:23:40Z</time>
      </trkpt>
      <trkpt lat="46.70871" lon="-1.91772">
        <ele>19</ele>
        <time>2018-01-09T09:24:40Z</time>
      </trkpt>
      <trkpt lat="46.70871" lon="-1.91773">
        <ele>19</ele>
        <time>2018-01-09T09:25:40Z</time>
      </trkpt>
      <trkpt lat="46.70871" lon="-1.91774">
        <ele>19</ele>
        <time>2018-01-09T09:26:40Z</time>
      </trkpt>
      <trkpt lat="46.70871" lon="-1.91775">
        <ele>19</ele>
        <time>2018-01-09T09:27:40Z</time>
      </trkpt>
      <trkpt lat="46.70871" lon="-1.91776">
        <ele>19</ele>
        <time>2018-01-09T09:28:40Z</time>
      </trkpt>
      <trkpt lat="46.70871" lon="-1.91777">
        <ele>19</ele>
        <time>2018-01-09T09:29:40Z</time>
      </trkpt>
      <trkpt lat="46.70871" lon="-1.91778">
        <ele>19</ele>
        <time>2018-01-09T09:30:40Z</time>
      </trkpt>
      <trkpt lat="46.70871" lon="-1.91779">
        <ele>19</ele>
        <time>2018-01-09T09:31:40Z</time>
      </trkpt>
      <trkpt lat="46.7087" lon="-1.91779">
        <ele>19</ele>
        <time>2018-01-09T09:32:40Z</time>
      </trkpt>
      <trkpt lat="46.7087" lon="-1.9178">
        <ele>19</ele>
        <time>2018-01-09T09:33:40Z</time>
      </trkpt>
      <trkpt lat="46.7087" lon="-1.91781">
        <ele>19</ele>
        <time>2018-01-09T09:34:40Z</time>
      </trkpt>
      <trkpt lat="46.7087" lon="-1.91782">
        <ele>19</ele>
        <time>2018-01-09T09:35:40Z</time>
      </trkpt>
      <trkpt lat="46.70869" lon="-1.91782">
        <ele>19</ele>
        <time>2018-01-09T09:36:40Z</time>
      </trkpt>
      <trkpt lat="46.70869" lon="-1.91783">
        <ele>19</ele>
        <time>2018-01-09T09:37:40Z</time>
      </trkpt>
      <trkpt lat="46.70868" lon="-1.91784">
        <ele>19</ele>
        <time>2018-01-09T09:38:40Z</time>
      </trkpt>
      <trkpt lat="46.70868" lon="-1.91785">
        <ele>19</ele>
        <time>2018-01-09T09:39:40Z</time>
      </trkpt>
      <trkpt lat="46.70867" lon="-1.91785">
        <ele>19</ele>
        <time>2018-01-09T09:40:40Z</time>
      </trkpt>
      <trkpt lat="46.70866" lon="-1.91786">
        <ele>19</ele>
        <time>2018-01-09T09:41:40Z</time>
      </trkpt>
      <trkpt lat="46.70865" lon="-1.91786">
        <ele>19</ele>
        <time>2018-01-09T09:42:40Z</time>
      </trkpt>
      <trkpt lat="46.70864" lon="-1.91786">
        <ele>19</ele>
        <time>2018-01-09T09:43:40Z</time>
      </trkpt>
      <trkpt lat="46.70864" lon="-1.91787">
        <ele>19</ele>
        <time>2018-01-09T09:44:40Z</time>
      </trkpt>
      <trkpt lat="46.70863" lon="-1.91787">
        <ele>19</ele>
        <time>2018-01-09T09:45:40Z</time>
      </trkpt>
      <trkpt lat="46.70862" lon="-1.91787">
        <ele>19</ele>
        <time>2018-01-09T09:46:40Z</time>
      </trkpt>
      <trkpt lat="46.70861" lon="-1.91787">
        <ele>19</ele>
        <time>2018-01-09T09:47:40Z</time>
      </trkpt>
      <trkpt lat="46.70861" lon="-1.91786">
        <ele>19</ele>
        <time>2018-01-09T09:48:40Z</time>
      </trkpt>
      <trkpt lat="46.7086" lon="-1.91786">
        <ele>19</ele>
        <time>2018-01-09T09:49:40Z</time>
      </trkpt>
      <trkpt lat="46.70859" lon="-1.91786">
        <ele>19</ele>
        <time>2018-01-09T09:50:40Z</time>
      </trkpt>
      <trkpt lat="46.70859" lon="-1.91785">
        <ele>19</ele>
        <time>2018-01-09T09:51:40Z</time>
      </trkpt>
      <trkpt lat="46.70858" lon="-1.91785">
        <ele>19</ele>
        <time>2018-01-09T09:52:40Z</time>
      </trkpt>
      <trkpt lat="46.70858" lon="-1.91784">
        <ele>19</ele>
        <time>2018-01-09T09:53:40Z</time>
      </trkpt>
      <trkpt lat="46.70836" lon="-1.9181">
        <ele>20</ele>
        <time>2018-01-09T09:54:40Z</time>
      </trkpt>
      <trkpt lat="46.70799" lon="-1.91849">
        <ele>20</ele>
        <time>2018-01-09T09:55:40Z</time>
      </trkpt>
      <trkpt lat="46.70793" lon="-1.91854">
        <ele>20</ele>
        <time>2018-01-09T09:56:40Z</time>
      </trkpt>
      <trkpt lat="46.70789" lon="-1.91861">
        <ele>19</ele>
        <time>2018-01-09T09:57:40Z</time>
      </trkpt>
      <trkpt lat="46.70758" lon="-1.91893">
        <ele>19</ele>
        <time>2018-01-09T09:58:40Z</time>
      </trkpt>
      <trkpt lat="46.7073" lon="-1.91923">
        <ele>18</ele>
        <time>2018-01-09T09:59:40Z</time>
      </trkpt>
      <trkpt lat="46.70726" lon="-1.91928">
        <ele>19</ele>
        <time>2018-01-09T10:00:40Z</time>
      </trkpt>
      <trkpt lat="46.70721" lon="-1.9193">
        <ele>19</ele>
        <time>2018-01-09T10:01:40Z</time>
      </trkpt>
      <trkpt lat="46.70684" lon="-1.91967">
        <ele>19</ele>
        <time>2018-01-09T10:02:40Z</time>
      </trkpt>
      <trkpt lat="46.70677" lon="-1.91974">
        <ele>19</ele>
        <time>2018-01-09T10:03:40Z</time>
      </trkpt>
      <trkpt lat="46.70671" lon="-1.91985">
        <ele>19</ele>
        <time>2018-01-09T10:04:40Z</time>
      </trkpt>
      <trkpt lat="46.70655" lon="-1.92006">
        <ele>19</ele>
        <time>2018-01-09T10:05:40Z</time>
      </trkpt>
      <trkpt lat="46.70655" lon="-1.92006">
        <ele>19</ele>
        <time>2018-01-09T10:06:40Z</time>
      </trkpt>
      <trkpt lat="46.70655" lon="-1.92007">
        <ele>19</ele>
        <time>2018-01-09T10:07:40Z</time>
      </trkpt>
      <trkpt lat="46.70655" lon="-1.92008">
        <ele>19</ele>
        <time>2018-01-09T10:08:40Z</time>
      </trkpt>
      <trkpt lat="46.70655" lon="-1.92009">
        <ele>19</ele>
        <time>2018-01-09T10:09:40Z</time>
      </trkpt>
      <trkpt lat="46.70655" lon="-1.9201">
        <ele>19</ele>
        <time>2018-01-09T10:10:40Z</time>
      </trkpt>
      <trkpt lat="46.70655" lon="-1.92011">
        <ele>19</ele>
        <time>2018-01-09T10:11:40Z</time>
      </trkpt>
      <trkpt lat="46.70655" lon="-1.92012">
        <ele>19</ele>
        <time>2018-01-09T10:12:40Z</time>
      </trkpt>
      <trkpt lat="46.70655" lon="-1.92013">
        <ele>19</ele>
        <time>2018-01-09T10:13:40Z</time>
      </trkpt>
      <trkpt lat="46.70655" lon="-1.92014">
        <ele>19</ele>
        <time>2018-01-09T10:14:40Z</time>
      </trkpt>
      <trkpt lat="46.70655" lon="-1.92015">
        <ele>19</ele>
        <time>2018-01-09T10:15:40Z</time>
      </trkpt>
      <trkpt lat="46.70654" lon="-1.92015">
        <ele>19</ele>
        <time>2018-01-09T10:16:40Z</time>
      </trkpt>
      <trkpt lat="46.70654" lon="-1.92016">
        <ele>19</ele>
        <time>2018-01-09T10:17:40Z</time>
      </trkpt>
      <trkpt lat="46.70654" lon="-1.92017">
        <ele>19</ele>
        <time>2018-01-09T10:18:40Z</time>
      </trkpt>
      <trkpt lat="46.70654" lon="-1.92018">
        <ele>19</ele>
        <time>2018-01-09T10:19:40Z</time>
      </trkpt>
      <trkpt lat="46.70653" lon="-1.92019">
        <ele>19</ele>
        <time>2018-01-09T10:20:40Z</time>
      </trkpt>
      <trkpt lat="46.70653" lon="-1.9202">
        <ele>19</ele>
        <time>2018-01-09T10:21:40Z</time>
      </trkpt>
      <trkpt lat="46.70652" lon="-1.92021">
        <ele>19</ele>
        <time>2018-01-09T10:22:40Z</time>
      </trkpt>
      <trkpt lat="46.70652" lon="-1.92022">
        <ele>19</ele>
        <time>2018-01-09T10:23:40Z</time>
      </trkpt>
      <trkpt lat="46.70651" lon="-1.92022">
        <ele>19</ele>
        <time>2018-01-09T10:24:40Z</time>
      </trkpt>
      <trkpt lat="46.70651" lon="-1.92023">
        <ele>19</ele>
        <time>2018-01-09T10:25:40Z</time>
      </trkpt>
      <trkpt lat="46.7065" lon="-1.92023">
        <ele>19</ele>
        <time>2018-01-09T10:26:40Z</time>
      </trkpt>
      <trkpt lat="46.70649" lon="-1.92024">
        <ele>19</ele>
        <time>2018-01-09T10:27:40Z</time>
      </trkpt>
      <trkpt lat="46.70644" lon="-1.92039">
        <ele>19</ele>
        <time>2018-01-09T10:28:40Z</time>
      </trkpt>
      <trkpt lat="46.70642" lon="-1.9205">
        <ele>19</ele>
        <time>2018-01-09T10:29:40Z</time>
      </trkpt>
      <trkpt lat="46.70642" lon="-1.92056">
        <ele>19</ele>
        <time>2018-01-09T10:30:40Z</time>
      </trkpt>
      <trkpt lat="46.7064" lon="-1.92095">
        <ele>20</ele>
        <time>2018-01-09T10:31:40Z</time>
      </trkpt>
      <trkpt lat="46.7064" lon="-1.92109">
        <ele>20</ele>
        <time>2018-01-09T10:32:40Z</time>
      </trkpt>
      <trkpt lat="46.70639" lon="-1.92134">
        <ele>19</ele>
        <time>2018-01-09T10:33:40Z</time>
      </trkpt>
      <trkpt lat="46.70637" lon="-1.92186">
        <ele>19</ele>
        <time>2018-01-09T10:34:40Z</time>
      </trkpt>
      <trkpt lat="46.70634" lon="-1.92221">
        <ele>19</ele>
        <time>2018-01-09T10:35:40Z</time>
      </trkpt>
      <trkpt lat="46.70628" lon="-1.92248">
        <ele>20</ele>
        <time>2018-01-09T10:36:40Z</time>
      </trkpt>
      <trkpt lat="46.70619" lon="-1.92271">
        <ele>19</ele>
        <time>2018-01-09T10:37:40Z</time>
      </trkpt>
      <trkpt lat="46.7061" lon="-1.92289">
        <ele>19</ele>
        <time>2018-01-09T10:38:40Z</time>
      </trkpt>
      <trkpt lat="46.70602" lon="-1.92304">
        <ele>18</ele>
        <time>2018-01-09T10:39:40Z</time>
      </trkpt>
      <trkpt lat="46.70586" lon="-1.92327">
        <ele>18</ele>
        <time>2018-01-09T10:40:40Z</time>
      </trkpt>
      <trkpt lat="46.70582" lon="-1.92333">
        <ele>18</ele>
        <time>2018-01-09T10:41:40Z</time>
      </trkpt>
      <trkpt lat="46.70571" lon="-1.92356">
        <ele>17</ele>
        <time>2018-01-09T10:42:40Z</time>
      </trkpt>
      <trkpt lat="46.70562" lon="-1.92377">
        <ele>17</ele>
        <time>2018-01-09T10:43:40Z</time>
      </trkpt>
      <trkpt lat="46.70559" lon="-1.92387">
        <ele>16</ele>
        <time>2018-01-09T10:44:40Z</time>
      </trkpt>
      <trkpt lat="46.70555" lon="-1.92398">
        <ele>16</ele>
        <time>2018-01-09T10:45:40Z</time>
      </trkpt>
      <trkpt lat="46.70552" lon="-1.92414">
        <ele>16</ele>
        <time>2018-01-09T10:46:40Z</time>
      </trkpt>
      <trkpt lat="46.70546" lon="-1.92441">
        <ele>15</ele>
        <time>2018-01-09T10:47:40Z</time>
      </trkpt>
      <trkpt lat="46.70541" lon="-1.92464">
        <ele>15</ele>
        <time>2018-01-09T10:48:40Z</time>
      </trkpt>
      <trkpt lat="46.7054" lon="-1.92472">
        <ele>15</ele>
        <time>2018-01-09T10:49:40Z</time>
      </trkpt>
      <trkpt lat="46.70535" lon="-1.92496">
        <ele>14</ele>
        <time>2018-01-09T10:50:40Z</time>
      </trkpt>
      <trkpt lat="46.70534" lon="-1.925">
        <ele>14</ele>
        <time>2018-01-09T10:51:40Z</time>
      </trkpt>
      <trkpt lat="46.70533" lon="-1.92502">
        <ele>14</ele>
        <time>2018-01-09T10:52:40Z</time>
      </trkpt>
      <trkpt lat="46.70527" lon="-1.92538">
        <ele>13</ele>
        <time>2018-01-09T10:53:40Z</time>
      </trkpt>
      <trkpt lat="46.70523" lon="-1.92561">
        <ele>12</ele>
        <time>2018-01-09T10:54:40Z</time>
      </trkpt>
      <trkpt lat="46.70524" lon="-1.92565">
        <ele>12</ele>
        <time>2018-01-09T10:55:40Z</time>
      </trkpt>
      <trkpt lat="46.70525" lon="-1.92575">
        <ele>12</ele>
        <time>2018-01-09T10:56:40Z</time>
      </trkpt>
      <trkpt lat="46.70525" lon="-1.92582">
        <ele>12</ele>
        <time>2018-01-09T10:57:40Z</time>
      </trkpt>
      <trkpt lat="46.70525" lon="-1.92582">
        <ele>12</ele>
        <time>2018-01-09T10:58:40Z</time>
      </trkpt>
      <trkpt lat="46.70529" lon="-1.92587">
        <ele>12</ele>
        <time>2018-01-09T10:59:40Z</time>
      </trkpt>
      <trkpt lat="46.7053" lon="-1.92592">
        <ele>12</ele>
        <time>2018-01-09T11:00:40Z</time>
      </trkpt>
      <trkpt lat="46.70531" lon="-1.92598">
        <ele>12</ele>
        <time>2018-01-09T11:01:40Z</time>
      </trkpt>
      <trkpt lat="46.7053" lon="-1.92602">
        <ele>12</ele>
        <time>2018-01-09T11:02:40Z</time>
      </trkpt>
      <trkpt lat="46.70528" lon="-1.92606">
        <ele>12</ele>
        <time>2018-01-09T11:03:40Z</time>
      </trkpt>
      <trkpt lat="46.70527" lon="-1.92607">
        <ele>12</ele>
        <time>2018-01-09T11:04:40Z</time>
      </trkpt>
      <trkpt lat="46.70525" lon="-1.92609">
        <ele>12</ele>
        <time>2018-01-09T11:05:40Z</time>
      </trkpt>
      <trkpt lat="46.70523" lon="-1.92609">
        <ele>11</ele>
        <time>2018-01-09T11:06:40Z</time>
      </trkpt>
      <trkpt lat="46.70512" lon="-1.92624">
        <ele>11</ele>
        <time>2018-01-09T11:07:40Z</time>
      </trkpt>
      <trkpt lat="46.70507" lon="-1.92632">
        <ele>11</ele>
        <time>2018-01-09T11:08:40Z</time>
      </trkpt>
      <trkpt lat="46.70504" lon="-1.92634">
        <ele>11</ele>
        <time>2018-01-09T11:09:40Z</time>
      </trkpt>
      <trkpt lat="46.70499" lon="-1.9265">
        <ele>11</ele>
        <time>2018-01-09T11:10:40Z</time>
      </trkpt>
      <trkpt lat="46.70496" lon="-1.9267">
        <ele>11</ele>
        <time>2018-01-09T11:11:40Z</time>
      </trkpt>
      <trkpt lat="46.70489" lon="-1.92701">
        <ele>10</ele>
        <time>2018-01-09T11:12:40Z</time>
      </trkpt>
      <trkpt lat="46.70484" lon="-1.9273">
        <ele>9</ele>
        <time>2018-01-09T11:13:40Z</time>
      </trkpt>
      <trkpt lat="46.70482" lon="-1.92747">
        <ele>8</ele>
        <time>2018-01-09T11:14:40Z</time>
      </trkpt>
      <trkpt lat="46.70478" lon="-1.92796">
        <ele>8</ele>
        <time>2018-01-09T11:15:40Z</time>
      </trkpt>
      <trkpt lat="46.70475" lon="-1.92841">
        <ele>8</ele>
        <time>2018-01-09T11:16:40Z</time>
      </trkpt>
      <trkpt lat="46.70472" lon="-1.92898">
        <ele>8</ele>
        <time>2018-01-09T11:17:40Z</time>
      </trkpt>
      <trkpt lat="46.70468" lon="-1.92952">
        <ele>7</ele>
        <time>2018-01-09T11:18:40Z</time>
      </trkpt>
      <trkpt lat="46.70465" lon="-1.93009">
        <ele>6</ele>
        <time>2018-01-09T11:19:40Z</time>
      </trkpt>
      <trkpt lat="46.70462" lon="-1.93045">
        <ele>6</ele>
        <time>2018-01-09T11:20:40Z</time>
      </trkpt>
      <trkpt lat="46.70458" lon="-1.93108">
        <ele>5</ele>
        <time>2018-01-09T11:21:40Z</time>
      </trkpt>
      <trkpt lat="46.70455" lon="-1.93156">
        <ele>5</ele>
        <time>2018-01-09T11:22:40Z</time>
      </trkpt>
      <trkpt lat="46.70452" lon="-1.93209">
        <ele>4</ele>
        <time>2018-01-09T11:23:40Z</time>
      </trkpt>
      <trkpt lat="46.70449" lon="-1.93254">
        <ele>3</ele>
        <time>2018-01-09T11:24:40Z</time>
      </trkpt>
      <trkpt lat="46.70449" lon="-1.93267">
        <ele>3</ele>
        <time>2018-01-09T11:25:40Z</time>
      </trkpt>
      <trkpt lat="46.70449" lon="-1.93267">
        <ele>3</ele>
        <time>2018-01-09T11:26:40Z</time>
      </trkpt>
      <trkpt lat="46.70439" lon="-1.93265">
        <ele>3</ele>
        <time>2018-01-09T11:27:40Z</time>
      </trkpt>
      <trkpt lat="46.70429" lon="-1.93262">
        <ele>3</ele>
        <time>2018-01-09T11:28:40Z</time>
      </trkpt>
      <trkpt lat="46.70419" lon="-1.93258">
        <ele>3</ele>
        <time>2018-01-09T11:29:40Z</time>
      </trkpt>
      <trkpt lat="46.70398" lon="-1.93249">
        <ele>3</ele>
        <time>2018-01-09T11:30:40Z</time>
      </trkpt>
      <trkpt lat="46.70362" lon="-1.9324">
        <ele>2</ele>
        <time>2018-01-09T11:31:40Z</time>
      </trkpt>
      <trkpt lat="46.70328" lon="-1.93232">
        <ele>2</ele>
        <time>2018-01-09T11:32:40Z</time>
      </trkpt>
      <trkpt lat="46.70304" lon="-1.9323">
        <ele>2</ele>
        <time>2018-01-09T11:33:40Z</time>
      </trkpt>
      <trkpt lat="46.70304" lon="-1.9323">
        <ele>2</ele>
        <time>2018-01-09T11:34:40Z</time>
      </trkpt>
      <trkpt lat="46.70295" lon="-1.93245">
        <ele>2</ele>
        <time>2018-01-09T11:35:40Z</time>
      </trkpt>
      <trkpt lat="46.70288" lon="-1.93253">
        <ele>2</ele>
        <time>2018-01-09T11:36:40Z</time>
      </trkpt>
      <trkpt lat="46.7028" lon="-1.9326">
        <ele>2</ele>
        <time>2018-01-09T11:37:40Z</time>
      </trkpt>
      <trkpt lat="46.70276" lon="-1.93263">
        <ele>2</ele>
        <time>2018-01-09T11:38:40Z</time>
      </trkpt>
      <trkpt lat="46.70263" lon="-1.93271">
        <ele>2</ele>
        <time>2018-01-09T11:39:40Z</time>
      </trkpt>
      <trkpt lat="46.70251" lon="-1.9328">
        <ele>2</ele>
        <time>2018-01-09T11:40:40Z</time>
      </trkpt>
      <trkpt lat="46.70239" lon="-1.93295">
        <ele>2</ele>
        <time>2018-01-09T11:41:40Z</time>
      </trkpt>
      <trkpt lat="46.70224" lon="-1.9332">
        <ele>1</ele>
        <time>2018-01-09T11:42:40Z</time>
      </trkpt>
      <trkpt lat="46.70216" lon="-1.93332">
        <ele>1</ele>
        <time>2018-01-09T11:43:40Z</time>
      </trkpt>
      <trkpt lat="46.70211" lon="-1.9334">
        <ele>1</ele>
        <time>2018-01-09T11:44:40Z</time>
      </trkpt>
      <trkpt lat="46.70205" lon="-1.93347">
        <ele>1</ele>
        <time>2018-01-09T11:45:40Z</time>
      </trkpt>
      <trkpt lat="46.70194" lon="-1.93356">
        <ele>1</ele>
        <time>2018-01-09T11:46:40Z</time>
      </trkpt>
      <trkpt lat="46.70181" lon="-1.93366">
        <ele>2</ele>
        <time>2018-01-09T11:47:40Z</time>
      </trkpt>
      <trkpt lat="46.70173" lon="-1.93372">
        <ele>1</ele>
        <time>2018-01-09T11:48:40Z</time>
      </trkpt>
      <trkpt lat="46.7017" lon="-1.93374">
        <ele>1</ele>
        <time>2018-01-09T11:49:40Z</time>
      </trkpt>
      <trkpt lat="46.70166" lon="-1.9338">
        <ele>1</ele>
        <time>2018-01-09T11:50:40Z</time>
      </trkpt>
      <trkpt lat="46.70161" lon="-1.93382">
        <ele>1</ele>
        <time>2018-01-09T11:51:40Z</time>
      </trkpt>
      <trkpt lat="46.70152" lon="-1.93386">
        <ele>1</ele>
        <time>2018-01-09T11:52:40Z</time>
      </trkpt>
      <trkpt lat="46.70141" lon="-1.93391">
        <ele>1</ele>
        <time>2018-01-09T11:53:40Z</time>
      </trkpt>
      <trkpt lat="46.70141" lon="-1.93391">
        <ele>1</ele>
        <time>2018-01-09T11:54:40Z</time>
      </trkpt>
      <trkpt lat="46.70141" lon="-1.93393">
        <ele>1</ele>
        <time>2018-01-09T11:55:40Z</time>
      </trkpt>
      <trkpt lat="46.70141" lon="-1.93394">
        <ele>1</ele>
        <time>2018-01-09T11:56:40Z</time>
      </trkpt>
      <trkpt lat="46.70141" lon="-1.93395">
        <ele>1</ele>
        <time>2018-01-09T11:57:40Z</time>
      </trkpt>
      <trkpt lat="46.7014" lon="-1.93396">
        <ele>1</ele>
        <time>2018-01-09T11:58:40Z</time>
      </trkpt>
      <trkpt lat="46.7014" lon="-1.93397">
        <ele>1</ele>
        <time>2018-01-09T11:59:40Z</time>
      </trkpt>
      <trkpt lat="46.7014" lon="-1.93398">
        <ele>1</ele>
        <time>2018-01-09T12:00:40Z</time>
      </trkpt>
      <trkpt lat="46.70139" lon="-1.93399">
        <ele>1</ele>
        <time>2018-01-09T12:01:40Z</time>
      </trkpt>
      <trkpt lat="46.70139" lon="-1.93401">
        <ele>1</ele>
        <time>2018-01-09T12:02:40Z</time>
      </trkpt>
      <trkpt lat="46.70138" lon="-1.93402">
        <ele>1</ele>
        <time>2018-01-09T12:03:40Z</time>
      </trkpt>
      <trkpt lat="46.70138" lon="-1.93403">
        <ele>1</ele>
        <time>2018-01-09T12:04:40Z</time>
      </trkpt>
      <trkpt lat="46.70137" lon="-1.93403">
        <ele>1</ele>
        <time>2018-01-09T12:05:40Z</time>
      </trkpt>
      <trkpt lat="46.70136" lon="-1.93404">
        <ele>1</ele>
        <time>2018-01-09T12:06:40Z</time>
      </trkpt>
      <trkpt lat="46.70136" lon="-1.93405">
        <ele>1</ele>
        <time>2018-01-09T12:07:40Z</time>
      </trkpt>
      <trkpt lat="46.70135" lon="-1.93406">
        <ele>1</ele>
        <time>2018-01-09T12:08:40Z</time>
      </trkpt>
      <trkpt lat="46.70134" lon="-1.93406">
        <ele>1</ele>
        <time>2018-01-09T12:09:40Z</time>
      </trkpt>
      <trkpt lat="46.70133" lon="-1.93407">
        <ele>1</ele>
        <time>2018-01-09T12:10:40Z</time>
      </trkpt>
      <trkpt lat="46.70132" lon="-1.93408">
        <ele>1</ele>
        <time>2018-01-09T12:11:40Z</time>
      </trkpt>
      <trkpt lat="46.70131" lon="-1.93408">
        <ele>1</ele>
        <time>2018-01-09T12:12:40Z</time>
      </trkpt>
      <trkpt lat="46.7013" lon="-1.93409">
        <ele>1</ele>
        <time>2018-01-09T12:13:40Z</time>
      </trkpt>
      <trkpt lat="46.70129" lon="-1.93409">
        <ele>1</ele>
        <time>2018-01-09T12:14:40Z</time>
      </trkpt>
      <trkpt lat="46.70128" lon="-1.93409">
        <ele>1</ele>
        <time>2018-01-09T12:15:40Z</time>
      </trkpt>
      <trkpt lat="46.70127" lon="-1.93409">
        <ele>1</ele>
        <time>2018-01-09T12:16:40Z</time>
      </trkpt>
      <trkpt lat="46.70126" lon="-1.93409">
        <ele>1</ele>
        <time>2018-01-09T12:17:40Z</time>
      </trkpt>
      <trkpt lat="46.70125" lon="-1.93409">
        <ele>1</ele>
        <time>2018-01-09T12:18:40Z</time>
      </trkpt>
      <trkpt lat="46.70124" lon="-1.93408">
        <ele>2</ele>
        <time>2018-01-09T12:19:40Z</time>
      </trkpt>
      <trkpt lat="46.70123" lon="-1.93408">
        <ele>2</ele>
        <time>2018-01-09T12:20:40Z</time>
      </trkpt>
      <trkpt lat="46.70122" lon="-1.93407">
        <ele>2</ele>
        <time>2018-01-09T12:21:40Z</time>
      </trkpt>
      <trkpt lat="46.70121" lon="-1.93407">
        <ele>2</ele>
        <time>2018-01-09T12:22:40Z</time>
      </trkpt>
      <trkpt lat="46.7012" lon="-1.93406">
        <ele>2</ele>
        <time>2018-01-09T12:23:40Z</time>
      </trkpt>
      <trkpt lat="46.7012" lon="-1.93405">
        <ele>2</ele>
        <time>2018-01-09T12:24:40Z</time>
      </trkpt>
      <trkpt lat="46.70119" lon="-1.93405">
        <ele>2</ele>
        <time>2018-01-09T12:25:40Z</time>
      </trkpt>
      <trkpt lat="46.70107" lon="-1.93404">
        <ele>2</ele>
        <time>2018-01-09T12:26:40Z</time>
      </trkpt>
      <trkpt lat="46.701" lon="-1.93405">
        <ele>2</ele>
        <time>2018-01-09T12:27:40Z</time>
      </trkpt>
      <trkpt lat="46.70092" lon="-1.93406">
        <ele>2</ele>
        <time>2018-01-09T12:28:40Z</time>
      </trkpt>
      <trkpt lat="46.70088" lon="-1.93406">
        <ele>2</ele>
        <time>2018-01-09T12:29:40Z</time>
      </trkpt>
      <trkpt lat="46.70085" lon="-1.93405">
        <ele>2</ele>
        <time>2018-01-09T12:30:40Z</time>
      </trkpt>
      <trkpt lat="46.70083" lon="-1.93405">
        <ele>2</ele>
        <time>2018-01-09T12:31:40Z</time>
      </trkpt>
      <trkpt lat="46.70062" lon="-1.93405">
        <ele>2</ele>
        <time>2018-01-09T12:32:40Z</time>
      </trkpt>
      <trkpt lat="46.70062" lon="-1.93406">
        <ele>2</ele>
        <time>2018-01-09T12:33:40Z</time>
      </trkpt>
      <trkpt lat="46.70062" lon="-1.93407">
        <ele>2</ele>
        <time>2018-01-09T12:34:40Z</time>
      </trkpt>
      <trkpt lat="46.70062" lon="-1.93408">
        <ele>2</ele>
        <time>2018-01-09T12:35:40Z</time>
      </trkpt>
      <trkpt lat="46.70062" lon="-1.93409">
        <ele>2</ele>
        <time>2018-01-09T12:36:40Z</time>
      </trkpt>
      <trkpt lat="46.70062" lon="-1.9341">
        <ele>2</ele>
        <time>2018-01-09T12:37:40Z</time>
      </trkpt>
      <trkpt lat="46.70061" lon="-1.9341">
        <ele>2</ele>
        <time>2018-01-09T12:38:40Z</time>
      </trkpt>
      <trkpt lat="46.70061" lon="-1.93411">
        <ele>2</ele>
        <time>2018-01-09T12:39:40Z</time>
      </trkpt>
      <trkpt lat="46.7006" lon="-1.93411">
        <ele>2</ele>
        <time>2018-01-09T12:40:40Z</time>
      </trkpt>
      <trkpt lat="46.7006" lon="-1.93412">
        <ele>2</ele>
        <time>2018-01-09T12:41:40Z</time>
      </trkpt>
      <trkpt lat="46.70059" lon="-1.93412">
        <ele>2</ele>
        <time>2018-01-09T12:42:40Z</time>
      </trkpt>
      <trkpt lat="46.70059" lon="-1.93413">
        <ele>2</ele>
        <time>2018-01-09T12:43:40Z</time>
      </trkpt>
      <trkpt lat="46.70058" lon="-1.93413">
        <ele>2</ele>
        <time>2018-01-09T12:44:40Z</time>
      </trkpt>
      <trkpt lat="46.70057" lon="-1.93413">
        <ele>2</ele>
        <time>2018-01-09T12:45:40Z</time>
      </trkpt>
      <trkpt lat="46.70056" lon="-1.93413">
        <ele>2</ele>
        <time>2018-01-09T12:46:40Z</time>
      </trkpt>
      <trkpt lat="46.70055" lon="-1.93413">
        <ele>2</ele>
        <time>2018-01-09T12:47:40Z</time>
      </trkpt>
      <trkpt lat="46.70055" lon="-1.93412">
        <ele>2</ele>
        <time>2018-01-09T12:48:40Z</time>
      </trkpt>
      <trkpt lat="46.70054" lon="-1.93412">
        <ele>2</ele>
        <time>2018-01-09T12:49:40Z</time>
      </trkpt>
      <trkpt lat="46.70054" lon="-1.93411">
        <ele>2</ele>
        <time>2018-01-09T12:50:40Z</time>
      </trkpt>
      <trkpt lat="46.70053" lon="-1.93411">
        <ele>2</ele>
        <time>2018-01-09T12:51:40Z</time>
      </trkpt>
      <trkpt lat="46.70053" lon="-1.9341">
        <ele>2</ele>
        <time>2018-01-09T12:52:40Z</time>
      </trkpt>
      <trkpt lat="46.70053" lon="-1.93409">
        <ele>2</ele>
        <time>2018-01-09T12:53:40Z</time>
      </trkpt>
      <trkpt lat="46.70052" lon="-1.93409">
        <ele>2</ele>
        <time>2018-01-09T12:54:40Z</time>
      </trkpt>
      <trkpt lat="46.70052" lon="-1.93408">
        <ele>2</ele>
        <time>2018-01-09T12:55:40Z</time>
      </trkpt>
      <trkpt lat="46.70052" lon="-1.93407">
        <ele>2</ele>
        <time>2018-01-09T12:56:40Z</time>
      </trkpt>
      <trkpt lat="46.70052" lon="-1.93406">
        <ele>2</ele>
        <time>2018-01-09T12:57:40Z</time>
      </trkpt>
      <trkpt lat="46.70052" lon="-1.93405">
        <ele>2</ele>
        <time>2018-01-09T12:58:40Z</time>
      </trkpt>
      <trkpt lat="46.70046" lon="-1.93402">
        <ele>2</ele>
        <time>2018-01-09T12:59:40Z</time>
      </trkpt>
      <trkpt lat="46.70043" lon="-1.93401">
        <ele>2</ele>
        <time>2018-01-09T13:00:40Z</time>
      </trkpt>
      <trkpt lat="46.70041" lon="-1.934">
        <ele>2</ele>
        <time>2018-01-09T13:01:40Z</time>
      </trkpt>
      <trkpt lat="46.70038" lon="-1.93398">
        <ele>2</ele>
        <time>2018-01-09T13:02:40Z</time>
      </trkpt>
      <trkpt lat="46.70036" lon="-1.93397">
        <ele>2</ele>
        <time>2018-01-09T13:03:40Z</time>
      </trkpt>
      <trkpt lat="46.70033" lon="-1.93394">
        <ele>2</ele>
        <time>2018-01-09T13:04:40Z</time>
      </trkpt>
      <trkpt lat="46.7003" lon="-1.93391">
        <ele>3</ele>
        <time>2018-01-09T13:05:40Z</time>
      </trkpt>
      <trkpt lat="46.70028" lon="-1.93388">
        <ele>3</ele>
        <time>2018-01-09T13:06:40Z</time>
      </trkpt>
      <trkpt lat="46.70025" lon="-1.93386">
        <ele>3</ele>
        <time>2018-01-09T13:07:40Z</time>
      </trkpt>
      <trkpt lat="46.70023" lon="-1.93384">
        <ele>3</ele>
        <time>2018-01-09T13:08:40Z</time>
      </trkpt>
      <trkpt lat="46.7002" lon="-1.93382">
        <ele>3</ele>
        <time>2018-01-09T13:09:40Z</time>
      </trkpt>
      <trkpt lat="46.70015" lon="-1.9338">
        <ele>3</ele>
        <time>2018-01-09T13:10:40Z</time>
      </trkpt>
      <trkpt lat="46.70002" lon="-1.93375">
        <ele>3</ele>
        <time>2018-01-09T13:11:40Z</time>
      </trkpt>
      <trkpt lat="46.69987" lon="-1.93369">
        <ele>3</ele>
        <time>2018-01-09T13:12:40Z</time>
      </trkpt>
      <trkpt lat="46.69982" lon="-1.93367">
        <ele>3</ele>
        <time>2018-01-09T13:13:40Z</time>
      </trkpt>
      <trkpt lat="46.69979" lon="-1.93366">
        <ele>3</ele>
        <time>2018-01-09T13:14:40Z</time>
      </trkpt>
      <trkpt lat="46.69978" lon="-1.93366">
        <ele>3</ele>
        <time>2018-01-09T13:15:40Z</time>
      </trkpt>
      <trkpt lat="46.69976" lon="-1.93367">
        <ele>4</ele>
        <time>2018-01-09T13:16:40Z</time>
      </trkpt>
      <trkpt lat="46.69973" lon="-1.93367">
        <ele>4</ele>
        <time>2018-01-09T13:17:40Z</time>
      </trkpt>
      <trkpt lat="46.69969" lon="-1.9337">
        <ele>4</ele>
        <time>2018-01-09T13:18:40Z</time>
      </trkpt>
      <trkpt lat="46.69963" lon="-1.93373">
        <ele>4</ele>
        <time>2018-01-09T13:19:40Z</time>
      </trkpt>
      <trkpt lat="46.69958" lon="-1.93375">
        <ele>4</ele>
        <time>2018-01-09T13:20:40Z</time>
      </trkpt>
      <trkpt lat="46.69953" lon="-1.93377">
        <ele>4</ele>
        <time>2018-01-09T13:21:40Z</time>
      </trkpt>
      <trkpt lat="46.69949" lon="-1.93379">
        <ele>4</ele>
        <time>2018-01-09T13:22:40Z</time>
      </trkpt>
      <trkpt lat="46.69944" lon="-1.93381">
        <ele>4</ele>
        <time>2018-01-09T13:23:40Z</time>
      </trkpt>
    </trkseg>
  </trk>
</gpx>